<?xml version="1.0" encoding="UTF-8" standalone="no" ?>
<gpx xmlns="http://www.topografix.com/GPX/1/1" xmlns:xsi="http://www.w3.org/2001/XMLSchema-instance" xsi:schemaLocation="http://www.topografix.com/GPX/1/1 http://www.topografix.com/GPX/1/1/gpx.xsd" version="1.1" creator="VisuGPX - https://www.visugpx.com">
  <metadata>
    <name>Belle étoile - Dent du Pra</name>
    <desc><![CDATA[
]]></desc>
  </metadata>
  <trk>
    <name><![CDATA[Belle étoile - Dent du Pra_1]]></name>
    <extensions>
      <line xmlns="http://www.topografix.com/GPX/gpx_style/0/2">
        <color>0000FF</color>
        <width>4</width>
      </line>
    </extensions>
    <trkseg>
      <trkpt lat="45.22485" lon="5.99821">
        <ele>1359.4449462891</ele>
        <time>2017-03-31T06:27:09Z</time>
      </trkpt>
      <trkpt lat="45.22478" lon="5.99819">
        <ele>1357.4449462891</ele>
        <time>2017-03-31T06:27:12Z</time>
      </trkpt>
      <trkpt lat="45.22475" lon="5.99825">
        <ele>1349.4449462891</ele>
        <time>2017-03-31T06:27:18Z</time>
      </trkpt>
      <trkpt lat="45.22471" lon="5.99828">
        <ele>1349.4449462891</ele>
        <time>2017-03-31T06:27:22Z</time>
      </trkpt>
      <trkpt lat="45.22466" lon="5.99832">
        <ele>1351.4449462891</ele>
        <time>2017-03-31T06:27:27Z</time>
      </trkpt>
      <trkpt lat="45.22463" lon="5.99837">
        <ele>1353.4449462891</ele>
        <time>2017-03-31T06:27:31Z</time>
      </trkpt>
      <trkpt lat="45.22456" lon="5.99839">
        <ele>1357.4449462891</ele>
        <time>2017-03-31T06:27:37Z</time>
      </trkpt>
      <trkpt lat="45.22453" lon="5.99846">
        <ele>1351.4449462891</ele>
        <time>2017-03-31T06:27:41Z</time>
      </trkpt>
      <trkpt lat="45.22449" lon="5.99849">
        <ele>1348.4449462891</ele>
        <time>2017-03-31T06:27:48Z</time>
      </trkpt>
      <trkpt lat="45.22447" lon="5.99857">
        <ele>1344.4449462891</ele>
        <time>2017-03-31T06:27:51Z</time>
      </trkpt>
      <trkpt lat="45.22445" lon="5.99863">
        <ele>1339.4449462891</ele>
        <time>2017-03-31T06:27:55Z</time>
      </trkpt>
      <trkpt lat="45.22444" lon="5.99869">
        <ele>1342.4449462891</ele>
        <time>2017-03-31T06:27:59Z</time>
      </trkpt>
      <trkpt lat="45.22445" lon="5.99876">
        <ele>1343.4449462891</ele>
        <time>2017-03-31T06:28:03Z</time>
      </trkpt>
      <trkpt lat="45.22446" lon="5.99883">
        <ele>1344.4449462891</ele>
        <time>2017-03-31T06:28:08Z</time>
      </trkpt>
      <trkpt lat="45.22445" lon="5.9989">
        <ele>1347.4449462891</ele>
        <time>2017-03-31T06:28:15Z</time>
      </trkpt>
      <trkpt lat="45.22449" lon="5.99895">
        <ele>1352.4449462891</ele>
        <time>2017-03-31T06:28:24Z</time>
      </trkpt>
      <trkpt lat="45.2245" lon="5.99901">
        <ele>1353.4449462891</ele>
        <time>2017-03-31T06:28:29Z</time>
      </trkpt>
      <trkpt lat="45.22452" lon="5.99908">
        <ele>1361.4449462891</ele>
        <time>2017-03-31T06:28:54Z</time>
      </trkpt>
      <trkpt lat="45.22456" lon="5.99912">
        <ele>1361.4449462891</ele>
        <time>2017-03-31T06:29:01Z</time>
      </trkpt>
      <trkpt lat="45.22456" lon="5.9992">
        <ele>1362.4449462891</ele>
        <time>2017-03-31T06:29:09Z</time>
      </trkpt>
      <trkpt lat="45.22455" lon="5.99927">
        <ele>1359.4449462891</ele>
        <time>2017-03-31T06:29:12Z</time>
      </trkpt>
      <trkpt lat="45.22453" lon="5.99934">
        <ele>1358.4449462891</ele>
        <time>2017-03-31T06:29:15Z</time>
      </trkpt>
      <trkpt lat="45.22452" lon="5.99941">
        <ele>1366.4449462891</ele>
        <time>2017-03-31T06:29:23Z</time>
      </trkpt>
      <trkpt lat="45.22454" lon="5.99948">
        <ele>1364.4449462891</ele>
        <time>2017-03-31T06:29:29Z</time>
      </trkpt>
      <trkpt lat="45.22455" lon="5.99955">
        <ele>1365.4449462891</ele>
        <time>2017-03-31T06:29:33Z</time>
      </trkpt>
      <trkpt lat="45.22454" lon="5.99962">
        <ele>1361.4449462891</ele>
        <time>2017-03-31T06:29:37Z</time>
      </trkpt>
      <trkpt lat="45.22451" lon="5.99966">
        <ele>1357.4449462891</ele>
        <time>2017-03-31T06:29:41Z</time>
      </trkpt>
      <trkpt lat="45.2245" lon="5.99973">
        <ele>1360.4449462891</ele>
        <time>2017-03-31T06:29:46Z</time>
      </trkpt>
      <trkpt lat="45.2245" lon="5.99981">
        <ele>1358.4449462891</ele>
        <time>2017-03-31T06:29:51Z</time>
      </trkpt>
      <trkpt lat="45.22447" lon="5.99987">
        <ele>1359.4449462891</ele>
        <time>2017-03-31T06:29:58Z</time>
      </trkpt>
      <trkpt lat="45.22444" lon="5.99992">
        <ele>1362.4449462891</ele>
        <time>2017-03-31T06:30:03Z</time>
      </trkpt>
      <trkpt lat="45.22441" lon="5.99997">
        <ele>1364.4449462891</ele>
        <time>2017-03-31T06:30:07Z</time>
      </trkpt>
      <trkpt lat="45.22438" lon="6.00004">
        <ele>1365.4449462891</ele>
        <time>2017-03-31T06:30:18Z</time>
      </trkpt>
      <trkpt lat="45.22435" lon="6.00008">
        <ele>1371.4449462891</ele>
        <time>2017-03-31T06:30:22Z</time>
      </trkpt>
      <trkpt lat="45.22434" lon="6.00016">
        <ele>1369.4449462891</ele>
        <time>2017-03-31T06:30:27Z</time>
      </trkpt>
      <trkpt lat="45.22433" lon="6.00023">
        <ele>1371.4449462891</ele>
        <time>2017-03-31T06:30:36Z</time>
      </trkpt>
      <trkpt lat="45.22431" lon="6.00029">
        <ele>1371.4449462891</ele>
        <time>2017-03-31T06:30:42Z</time>
      </trkpt>
      <trkpt lat="45.2243" lon="6.00036">
        <ele>1375.4449462891</ele>
        <time>2017-03-31T06:30:55Z</time>
      </trkpt>
      <trkpt lat="45.22427" lon="6.00042">
        <ele>1378.4449462891</ele>
        <time>2017-03-31T06:31:08Z</time>
      </trkpt>
      <trkpt lat="45.22426" lon="6.00049">
        <ele>1379.4449462891</ele>
        <time>2017-03-31T06:31:12Z</time>
      </trkpt>
      <trkpt lat="45.22424" lon="6.00055">
        <ele>1381.4449462891</ele>
        <time>2017-03-31T06:31:20Z</time>
      </trkpt>
      <trkpt lat="45.22423" lon="6.00063">
        <ele>1381.4449462891</ele>
        <time>2017-03-31T06:31:29Z</time>
      </trkpt>
      <trkpt lat="45.2242" lon="6.0007">
        <ele>1379.4449462891</ele>
        <time>2017-03-31T06:31:35Z</time>
      </trkpt>
      <trkpt lat="45.22419" lon="6.00076">
        <ele>1378.4449462891</ele>
        <time>2017-03-31T06:31:38Z</time>
      </trkpt>
      <trkpt lat="45.22416" lon="6.00081">
        <ele>1384.4449462891</ele>
        <time>2017-03-31T06:31:48Z</time>
      </trkpt>
      <trkpt lat="45.22415" lon="6.00089">
        <ele>1381.4449462891</ele>
        <time>2017-03-31T06:31:52Z</time>
      </trkpt>
      <trkpt lat="45.22414" lon="6.00095">
        <ele>1379.4449462891</ele>
        <time>2017-03-31T06:31:55Z</time>
      </trkpt>
      <trkpt lat="45.22411" lon="6.001">
        <ele>1380.4449462891</ele>
        <time>2017-03-31T06:32:00Z</time>
      </trkpt>
      <trkpt lat="45.22409" lon="6.00106">
        <ele>1380.4449462891</ele>
        <time>2017-03-31T06:32:08Z</time>
      </trkpt>
      <trkpt lat="45.22404" lon="6.00108">
        <ele>1384.4449462891</ele>
        <time>2017-03-31T06:32:19Z</time>
      </trkpt>
      <trkpt lat="45.22398" lon="6.00111">
        <ele>1388.4449462891</ele>
        <time>2017-03-31T06:32:26Z</time>
      </trkpt>
      <trkpt lat="45.22395" lon="6.00118">
        <ele>1388.4449462891</ele>
        <time>2017-03-31T06:32:30Z</time>
      </trkpt>
      <trkpt lat="45.2239" lon="6.0012">
        <ele>1390.4449462891</ele>
        <time>2017-03-31T06:32:33Z</time>
      </trkpt>
      <trkpt lat="45.22386" lon="6.00124">
        <ele>1390.4449462891</ele>
        <time>2017-03-31T06:32:39Z</time>
      </trkpt>
      <trkpt lat="45.22381" lon="6.00125">
        <ele>1394.4449462891</ele>
        <time>2017-03-31T06:32:45Z</time>
      </trkpt>
      <trkpt lat="45.22376" lon="6.00131">
        <ele>1394.4449462891</ele>
        <time>2017-03-31T06:32:57Z</time>
      </trkpt>
      <trkpt lat="45.22373" lon="6.00135">
        <ele>1393.4449462891</ele>
        <time>2017-03-31T06:33:04Z</time>
      </trkpt>
      <trkpt lat="45.22369" lon="6.00139">
        <ele>1395.4449462891</ele>
        <time>2017-03-31T06:33:10Z</time>
      </trkpt>
      <trkpt lat="45.22371" lon="6.00146">
        <ele>1397.4449462891</ele>
        <time>2017-03-31T06:33:18Z</time>
      </trkpt>
      <trkpt lat="45.22368" lon="6.00153">
        <ele>1399.4449462891</ele>
        <time>2017-03-31T06:33:25Z</time>
      </trkpt>
      <trkpt lat="45.22364" lon="6.00159">
        <ele>1402.4449462891</ele>
        <time>2017-03-31T06:33:29Z</time>
      </trkpt>
      <trkpt lat="45.2236" lon="6.00163">
        <ele>1404.4449462891</ele>
        <time>2017-03-31T06:33:32Z</time>
      </trkpt>
      <trkpt lat="45.22356" lon="6.00167">
        <ele>1403.4449462891</ele>
        <time>2017-03-31T06:33:36Z</time>
      </trkpt>
      <trkpt lat="45.22353" lon="6.00172">
        <ele>1404.4449462891</ele>
        <time>2017-03-31T06:33:40Z</time>
      </trkpt>
      <trkpt lat="45.22347" lon="6.00177">
        <ele>1408.4449462891</ele>
        <time>2017-03-31T06:33:45Z</time>
      </trkpt>
      <trkpt lat="45.22344" lon="6.00181">
        <ele>1407.4449462891</ele>
        <time>2017-03-31T06:33:50Z</time>
      </trkpt>
      <trkpt lat="45.2234" lon="6.00185">
        <ele>1407.4449462891</ele>
        <time>2017-03-31T06:33:54Z</time>
      </trkpt>
      <trkpt lat="45.22336" lon="6.00189">
        <ele>1407.4449462891</ele>
        <time>2017-03-31T06:33:59Z</time>
      </trkpt>
      <trkpt lat="45.22334" lon="6.00195">
        <ele>1407.4449462891</ele>
        <time>2017-03-31T06:34:04Z</time>
      </trkpt>
      <trkpt lat="45.22332" lon="6.00201">
        <ele>1404.4449462891</ele>
        <time>2017-03-31T06:34:07Z</time>
      </trkpt>
      <trkpt lat="45.22327" lon="6.00204">
        <ele>1404.4449462891</ele>
        <time>2017-03-31T06:34:13Z</time>
      </trkpt>
      <trkpt lat="45.22321" lon="6.00206">
        <ele>1402.4449462891</ele>
        <time>2017-03-31T06:34:16Z</time>
      </trkpt>
      <trkpt lat="45.22319" lon="6.00212">
        <ele>1400.4449462891</ele>
        <time>2017-03-31T06:34:21Z</time>
      </trkpt>
      <trkpt lat="45.22313" lon="6.00213">
        <ele>1396.4449462891</ele>
        <time>2017-03-31T06:34:25Z</time>
      </trkpt>
      <trkpt lat="45.22309" lon="6.00218">
        <ele>1396.4449462891</ele>
        <time>2017-03-31T06:34:31Z</time>
      </trkpt>
      <trkpt lat="45.22306" lon="6.00223">
        <ele>1403.4449462891</ele>
        <time>2017-03-31T06:34:43Z</time>
      </trkpt>
      <trkpt lat="45.22304" lon="6.00229">
        <ele>1408.4449462891</ele>
        <time>2017-03-31T06:34:53Z</time>
      </trkpt>
      <trkpt lat="45.22303" lon="6.00236">
        <ele>1406.4449462891</ele>
        <time>2017-03-31T06:34:58Z</time>
      </trkpt>
      <trkpt lat="45.22302" lon="6.00243">
        <ele>1410.4449462891</ele>
        <time>2017-03-31T06:35:10Z</time>
      </trkpt>
      <trkpt lat="45.22304" lon="6.00249">
        <ele>1411.4449462891</ele>
        <time>2017-03-31T06:35:16Z</time>
      </trkpt>
      <trkpt lat="45.22304" lon="6.00256">
        <ele>1411.4449462891</ele>
        <time>2017-03-31T06:35:22Z</time>
      </trkpt>
      <trkpt lat="45.22307" lon="6.00261">
        <ele>1414.4449462891</ele>
        <time>2017-03-31T06:35:28Z</time>
      </trkpt>
      <trkpt lat="45.22312" lon="6.00265">
        <ele>1413.4449462891</ele>
        <time>2017-03-31T06:35:32Z</time>
      </trkpt>
      <trkpt lat="45.22316" lon="6.00271">
        <ele>1415.4449462891</ele>
        <time>2017-03-31T06:35:39Z</time>
      </trkpt>
      <trkpt lat="45.22314" lon="6.00278">
        <ele>1413.4449462891</ele>
        <time>2017-03-31T06:35:43Z</time>
      </trkpt>
      <trkpt lat="45.22315" lon="6.00286">
        <ele>1411.4449462891</ele>
        <time>2017-03-31T06:35:51Z</time>
      </trkpt>
      <trkpt lat="45.22315" lon="6.00293">
        <ele>1420.4449462891</ele>
        <time>2017-03-31T06:35:59Z</time>
      </trkpt>
      <trkpt lat="45.22315" lon="6.00301">
        <ele>1419.4449462891</ele>
        <time>2017-03-31T06:36:05Z</time>
      </trkpt>
      <trkpt lat="45.22314" lon="6.00309">
        <ele>1420.4449462891</ele>
        <time>2017-03-31T06:36:13Z</time>
      </trkpt>
      <trkpt lat="45.22315" lon="6.00316">
        <ele>1423.4449462891</ele>
        <time>2017-03-31T06:36:18Z</time>
      </trkpt>
      <trkpt lat="45.22313" lon="6.00323">
        <ele>1423.4449462891</ele>
        <time>2017-03-31T06:36:24Z</time>
      </trkpt>
      <trkpt lat="45.2231" lon="6.0033">
        <ele>1425.4449462891</ele>
        <time>2017-03-31T06:36:29Z</time>
      </trkpt>
      <trkpt lat="45.22309" lon="6.00338">
        <ele>1424.4449462891</ele>
        <time>2017-03-31T06:36:37Z</time>
      </trkpt>
      <trkpt lat="45.22309" lon="6.00344">
        <ele>1427.4449462891</ele>
        <time>2017-03-31T06:36:47Z</time>
      </trkpt>
      <trkpt lat="45.22307" lon="6.00351">
        <ele>1428.4449462891</ele>
        <time>2017-03-31T06:36:57Z</time>
      </trkpt>
      <trkpt lat="45.22304" lon="6.00359">
        <ele>1427.4449462891</ele>
        <time>2017-03-31T06:37:04Z</time>
      </trkpt>
      <trkpt lat="45.22302" lon="6.00365">
        <ele>1429.4449462891</ele>
        <time>2017-03-31T06:37:10Z</time>
      </trkpt>
      <trkpt lat="45.22299" lon="6.00371">
        <ele>1429.4449462891</ele>
        <time>2017-03-31T06:37:18Z</time>
      </trkpt>
      <trkpt lat="45.22296" lon="6.00376">
        <ele>1430.4449462891</ele>
        <time>2017-03-31T06:37:22Z</time>
      </trkpt>
      <trkpt lat="45.22293" lon="6.00381">
        <ele>1431.4449462891</ele>
        <time>2017-03-31T06:37:28Z</time>
      </trkpt>
      <trkpt lat="45.2229" lon="6.00387">
        <ele>1435.4449462891</ele>
        <time>2017-03-31T06:37:34Z</time>
      </trkpt>
      <trkpt lat="45.22287" lon="6.00393">
        <ele>1438.4449462891</ele>
        <time>2017-03-31T06:37:39Z</time>
      </trkpt>
      <trkpt lat="45.22282" lon="6.00401">
        <ele>1438.4449462891</ele>
        <time>2017-03-31T06:37:49Z</time>
      </trkpt>
      <trkpt lat="45.2228" lon="6.00407">
        <ele>1436.4449462891</ele>
        <time>2017-03-31T06:37:56Z</time>
      </trkpt>
      <trkpt lat="45.22282" lon="6.00414">
        <ele>1441.4449462891</ele>
        <time>2017-03-31T06:38:08Z</time>
      </trkpt>
      <trkpt lat="45.22281" lon="6.0042">
        <ele>1438.4449462891</ele>
        <time>2017-03-31T06:38:10Z</time>
      </trkpt>
      <trkpt lat="45.22278" lon="6.00425">
        <ele>1440.4449462891</ele>
        <time>2017-03-31T06:38:18Z</time>
      </trkpt>
      <trkpt lat="45.22277" lon="6.00431">
        <ele>1442.4449462891</ele>
        <time>2017-03-31T06:38:29Z</time>
      </trkpt>
      <trkpt lat="45.22272" lon="6.00434">
        <ele>1444.4449462891</ele>
        <time>2017-03-31T06:38:38Z</time>
      </trkpt>
      <trkpt lat="45.22267" lon="6.00434">
        <ele>1448.4449462891</ele>
        <time>2017-03-31T06:38:45Z</time>
      </trkpt>
      <trkpt lat="45.22262" lon="6.00437">
        <ele>1448.4449462891</ele>
        <time>2017-03-31T06:38:57Z</time>
      </trkpt>
      <trkpt lat="45.22258" lon="6.00441">
        <ele>1455.4449462891</ele>
        <time>2017-03-31T06:39:27Z</time>
      </trkpt>
      <trkpt lat="45.22253" lon="6.00437">
        <ele>1462.4449462891</ele>
        <time>2017-03-31T06:41:11Z</time>
      </trkpt>
      <trkpt lat="45.22248" lon="6.00435">
        <ele>1463.4449462891</ele>
        <time>2017-03-31T06:41:16Z</time>
      </trkpt>
      <trkpt lat="45.22243" lon="6.00436">
        <ele>1466.4449462891</ele>
        <time>2017-03-31T06:41:21Z</time>
      </trkpt>
      <trkpt lat="45.22238" lon="6.00434">
        <ele>1467.4449462891</ele>
        <time>2017-03-31T06:41:24Z</time>
      </trkpt>
      <trkpt lat="45.22234" lon="6.00437">
        <ele>1463.4449462891</ele>
        <time>2017-03-31T06:41:29Z</time>
      </trkpt>
      <trkpt lat="45.22236" lon="6.00443">
        <ele>1468.4449462891</ele>
        <time>2017-03-31T06:41:47Z</time>
      </trkpt>
      <trkpt lat="45.22236" lon="6.0045">
        <ele>1469.4449462891</ele>
        <time>2017-03-31T06:41:51Z</time>
      </trkpt>
      <trkpt lat="45.22235" lon="6.00456">
        <ele>1468.4449462891</ele>
        <time>2017-03-31T06:41:56Z</time>
      </trkpt>
      <trkpt lat="45.22234" lon="6.00463">
        <ele>1469.4449462891</ele>
        <time>2017-03-31T06:42:03Z</time>
      </trkpt>
      <trkpt lat="45.22233" lon="6.00471">
        <ele>1470.4449462891</ele>
        <time>2017-03-31T06:42:10Z</time>
      </trkpt>
      <trkpt lat="45.2223" lon="6.00476">
        <ele>1474.4449462891</ele>
        <time>2017-03-31T06:42:18Z</time>
      </trkpt>
      <trkpt lat="45.22228" lon="6.00482">
        <ele>1474.4449462891</ele>
        <time>2017-03-31T06:42:23Z</time>
      </trkpt>
      <trkpt lat="45.22223" lon="6.00482">
        <ele>1478.4449462891</ele>
        <time>2017-03-31T06:42:30Z</time>
      </trkpt>
      <trkpt lat="45.22221" lon="6.00488">
        <ele>1482.4449462891</ele>
        <time>2017-03-31T06:42:38Z</time>
      </trkpt>
      <trkpt lat="45.22219" lon="6.00494">
        <ele>1480.4449462891</ele>
        <time>2017-03-31T06:42:45Z</time>
      </trkpt>
      <trkpt lat="45.22215" lon="6.005">
        <ele>1475.4449462891</ele>
        <time>2017-03-31T06:42:51Z</time>
      </trkpt>
      <trkpt lat="45.22212" lon="6.00495">
        <ele>1479.4449462891</ele>
        <time>2017-03-31T06:42:56Z</time>
      </trkpt>
      <trkpt lat="45.22209" lon="6.00491">
        <ele>1484.4449462891</ele>
        <time>2017-03-31T06:43:03Z</time>
      </trkpt>
      <trkpt lat="45.22205" lon="6.00492">
        <ele>1486.4449462891</ele>
        <time>2017-03-31T06:43:11Z</time>
      </trkpt>
      <trkpt lat="45.222" lon="6.00487">
        <ele>1489.4449462891</ele>
        <time>2017-03-31T06:43:18Z</time>
      </trkpt>
      <trkpt lat="45.222" lon="6.00495">
        <ele>1493.4449462891</ele>
        <time>2017-03-31T06:43:28Z</time>
      </trkpt>
      <trkpt lat="45.222" lon="6.00502">
        <ele>1496.4449462891</ele>
        <time>2017-03-31T06:43:32Z</time>
      </trkpt>
      <trkpt lat="45.22198" lon="6.00509">
        <ele>1497.4449462891</ele>
        <time>2017-03-31T06:43:36Z</time>
      </trkpt>
      <trkpt lat="45.22198" lon="6.00516">
        <ele>1498.4449462891</ele>
        <time>2017-03-31T06:43:43Z</time>
      </trkpt>
      <trkpt lat="45.22197" lon="6.00522">
        <ele>1501.4449462891</ele>
        <time>2017-03-31T06:43:48Z</time>
      </trkpt>
      <trkpt lat="45.22197" lon="6.00529">
        <ele>1501.4449462891</ele>
        <time>2017-03-31T06:43:51Z</time>
      </trkpt>
      <trkpt lat="45.22198" lon="6.00536">
        <ele>1502.4449462891</ele>
        <time>2017-03-31T06:43:56Z</time>
      </trkpt>
      <trkpt lat="45.22197" lon="6.00542">
        <ele>1504.4449462891</ele>
        <time>2017-03-31T06:44:01Z</time>
      </trkpt>
      <trkpt lat="45.222" lon="6.00548">
        <ele>1507.4449462891</ele>
        <time>2017-03-31T06:44:05Z</time>
      </trkpt>
      <trkpt lat="45.22199" lon="6.00557">
        <ele>1508.4449462891</ele>
        <time>2017-03-31T06:44:11Z</time>
      </trkpt>
      <trkpt lat="45.22199" lon="6.00564">
        <ele>1506.4449462891</ele>
        <time>2017-03-31T06:44:15Z</time>
      </trkpt>
      <trkpt lat="45.22197" lon="6.00571">
        <ele>1508.4449462891</ele>
        <time>2017-03-31T06:44:23Z</time>
      </trkpt>
      <trkpt lat="45.22195" lon="6.00577">
        <ele>1511.4449462891</ele>
        <time>2017-03-31T06:44:27Z</time>
      </trkpt>
      <trkpt lat="45.22194" lon="6.00584">
        <ele>1512.4449462891</ele>
        <time>2017-03-31T06:44:31Z</time>
      </trkpt>
      <trkpt lat="45.22194" lon="6.00592">
        <ele>1513.4449462891</ele>
        <time>2017-03-31T06:44:38Z</time>
      </trkpt>
      <trkpt lat="45.22193" lon="6.00598">
        <ele>1512.4449462891</ele>
        <time>2017-03-31T06:44:41Z</time>
      </trkpt>
      <trkpt lat="45.22194" lon="6.00604">
        <ele>1513.4449462891</ele>
        <time>2017-03-31T06:44:46Z</time>
      </trkpt>
      <trkpt lat="45.22195" lon="6.00611">
        <ele>1512.4449462891</ele>
        <time>2017-03-31T06:44:50Z</time>
      </trkpt>
      <trkpt lat="45.22195" lon="6.00618">
        <ele>1512.4449462891</ele>
        <time>2017-03-31T06:44:54Z</time>
      </trkpt>
      <trkpt lat="45.22198" lon="6.00624">
        <ele>1509.4449462891</ele>
        <time>2017-03-31T06:44:57Z</time>
      </trkpt>
      <trkpt lat="45.22196" lon="6.00631">
        <ele>1514.4449462891</ele>
        <time>2017-03-31T06:45:03Z</time>
      </trkpt>
      <trkpt lat="45.22199" lon="6.00637">
        <ele>1514.4449462891</ele>
        <time>2017-03-31T06:45:07Z</time>
      </trkpt>
      <trkpt lat="45.22199" lon="6.00644">
        <ele>1517.4449462891</ele>
        <time>2017-03-31T06:45:15Z</time>
      </trkpt>
      <trkpt lat="45.22197" lon="6.0065">
        <ele>1520.4449462891</ele>
        <time>2017-03-31T06:45:22Z</time>
      </trkpt>
      <trkpt lat="45.22197" lon="6.00657">
        <ele>1525.4449462891</ele>
        <time>2017-03-31T06:45:27Z</time>
      </trkpt>
      <trkpt lat="45.22195" lon="6.00663">
        <ele>1523.4449462891</ele>
        <time>2017-03-31T06:45:31Z</time>
      </trkpt>
      <trkpt lat="45.22196" lon="6.00671">
        <ele>1526.4449462891</ele>
        <time>2017-03-31T06:45:36Z</time>
      </trkpt>
      <trkpt lat="45.22196" lon="6.00677">
        <ele>1527.4449462891</ele>
        <time>2017-03-31T06:45:40Z</time>
      </trkpt>
      <trkpt lat="45.22195" lon="6.00686">
        <ele>1526.4449462891</ele>
        <time>2017-03-31T06:45:44Z</time>
      </trkpt>
      <trkpt lat="45.22194" lon="6.00692">
        <ele>1526.4449462891</ele>
        <time>2017-03-31T06:45:50Z</time>
      </trkpt>
      <trkpt lat="45.22192" lon="6.00699">
        <ele>1529.4449462891</ele>
        <time>2017-03-31T06:45:56Z</time>
      </trkpt>
      <trkpt lat="45.22193" lon="6.00706">
        <ele>1530.4449462891</ele>
        <time>2017-03-31T06:46:01Z</time>
      </trkpt>
      <trkpt lat="45.22191" lon="6.00713">
        <ele>1530.4449462891</ele>
        <time>2017-03-31T06:46:07Z</time>
      </trkpt>
      <trkpt lat="45.22192" lon="6.00719">
        <ele>1530.4449462891</ele>
        <time>2017-03-31T06:46:13Z</time>
      </trkpt>
      <trkpt lat="45.22194" lon="6.00727">
        <ele>1533.4449462891</ele>
        <time>2017-03-31T06:46:18Z</time>
      </trkpt>
      <trkpt lat="45.22196" lon="6.00733">
        <ele>1535.4449462891</ele>
        <time>2017-03-31T06:46:23Z</time>
      </trkpt>
      <trkpt lat="45.22196" lon="6.00741">
        <ele>1541.4449462891</ele>
        <time>2017-03-31T06:46:31Z</time>
      </trkpt>
      <trkpt lat="45.22197" lon="6.00748">
        <ele>1541.4449462891</ele>
        <time>2017-03-31T06:46:37Z</time>
      </trkpt>
      <trkpt lat="45.22197" lon="6.00755">
        <ele>1541.4449462891</ele>
        <time>2017-03-31T06:46:43Z</time>
      </trkpt>
      <trkpt lat="45.22197" lon="6.00762">
        <ele>1542.4449462891</ele>
        <time>2017-03-31T06:46:48Z</time>
      </trkpt>
      <trkpt lat="45.22199" lon="6.00769">
        <ele>1543.4449462891</ele>
        <time>2017-03-31T06:46:52Z</time>
      </trkpt>
      <trkpt lat="45.22199" lon="6.00777">
        <ele>1545.4449462891</ele>
        <time>2017-03-31T06:46:57Z</time>
      </trkpt>
      <trkpt lat="45.22201" lon="6.00783">
        <ele>1543.4449462891</ele>
        <time>2017-03-31T06:47:02Z</time>
      </trkpt>
      <trkpt lat="45.22204" lon="6.00788">
        <ele>1545.4460449219</ele>
        <time>2017-03-31T06:47:06Z</time>
      </trkpt>
      <trkpt lat="45.22206" lon="6.00794">
        <ele>1550.4460449219</ele>
        <time>2017-03-31T06:47:11Z</time>
      </trkpt>
      <trkpt lat="45.22208" lon="6.00803">
        <ele>1550.4460449219</ele>
        <time>2017-03-31T06:47:16Z</time>
      </trkpt>
      <trkpt lat="45.2221" lon="6.0081">
        <ele>1552.4460449219</ele>
        <time>2017-03-31T06:47:22Z</time>
      </trkpt>
      <trkpt lat="45.22215" lon="6.00811">
        <ele>1552.4460449219</ele>
        <time>2017-03-31T06:47:26Z</time>
      </trkpt>
      <trkpt lat="45.22218" lon="6.00815">
        <ele>1554.4460449219</ele>
        <time>2017-03-31T06:47:30Z</time>
      </trkpt>
      <trkpt lat="45.22221" lon="6.00822">
        <ele>1556.4460449219</ele>
        <time>2017-03-31T06:47:36Z</time>
      </trkpt>
      <trkpt lat="45.22225" lon="6.00827">
        <ele>1555.4460449219</ele>
        <time>2017-03-31T06:47:41Z</time>
      </trkpt>
      <trkpt lat="45.22228" lon="6.00832">
        <ele>1557.4460449219</ele>
        <time>2017-03-31T06:47:45Z</time>
      </trkpt>
      <trkpt lat="45.2223" lon="6.00839">
        <ele>1555.4460449219</ele>
        <time>2017-03-31T06:47:50Z</time>
      </trkpt>
      <trkpt lat="45.22232" lon="6.00847">
        <ele>1553.4460449219</ele>
        <time>2017-03-31T06:48:00Z</time>
      </trkpt>
      <trkpt lat="45.22234" lon="6.00853">
        <ele>1551.4460449219</ele>
        <time>2017-03-31T06:48:04Z</time>
      </trkpt>
      <trkpt lat="45.22234" lon="6.00861">
        <ele>1550.4460449219</ele>
        <time>2017-03-31T06:48:09Z</time>
      </trkpt>
      <trkpt lat="45.22238" lon="6.00867">
        <ele>1552.4460449219</ele>
        <time>2017-03-31T06:48:14Z</time>
      </trkpt>
      <trkpt lat="45.22242" lon="6.00871">
        <ele>1555.4460449219</ele>
        <time>2017-03-31T06:48:19Z</time>
      </trkpt>
      <trkpt lat="45.22243" lon="6.00878">
        <ele>1558.4460449219</ele>
        <time>2017-03-31T06:48:24Z</time>
      </trkpt>
      <trkpt lat="45.22245" lon="6.00885">
        <ele>1562.4460449219</ele>
        <time>2017-03-31T06:48:30Z</time>
      </trkpt>
      <trkpt lat="45.22246" lon="6.00892">
        <ele>1561.4460449219</ele>
        <time>2017-03-31T06:48:37Z</time>
      </trkpt>
      <trkpt lat="45.22246" lon="6.00901">
        <ele>1555.4460449219</ele>
        <time>2017-03-31T06:48:40Z</time>
      </trkpt>
      <trkpt lat="45.22244" lon="6.00908">
        <ele>1554.4460449219</ele>
        <time>2017-03-31T06:48:48Z</time>
      </trkpt>
      <trkpt lat="45.22244" lon="6.00915">
        <ele>1564.4460449219</ele>
        <time>2017-03-31T06:49:00Z</time>
      </trkpt>
      <trkpt lat="45.22247" lon="6.00921">
        <ele>1568.4460449219</ele>
        <time>2017-03-31T06:49:05Z</time>
      </trkpt>
      <trkpt lat="45.22245" lon="6.00929">
        <ele>1565.4460449219</ele>
        <time>2017-03-31T06:49:11Z</time>
      </trkpt>
      <trkpt lat="45.22239" lon="6.0093">
        <ele>1568.4460449219</ele>
        <time>2017-03-31T06:49:18Z</time>
      </trkpt>
      <trkpt lat="45.22235" lon="6.00931">
        <ele>1569.4460449219</ele>
        <time>2017-03-31T06:49:24Z</time>
      </trkpt>
      <trkpt lat="45.22236" lon="6.00938">
        <ele>1581.4460449219</ele>
        <time>2017-03-31T06:49:36Z</time>
      </trkpt>
      <trkpt lat="45.22236" lon="6.00944">
        <ele>1584.4460449219</ele>
        <time>2017-03-31T06:49:46Z</time>
      </trkpt>
      <trkpt lat="45.22235" lon="6.00955">
        <ele>1582.4460449219</ele>
        <time>2017-03-31T06:49:52Z</time>
      </trkpt>
      <trkpt lat="45.22236" lon="6.00964">
        <ele>1586.4460449219</ele>
        <time>2017-03-31T06:49:58Z</time>
      </trkpt>
      <trkpt lat="45.22236" lon="6.00972">
        <ele>1584.4460449219</ele>
        <time>2017-03-31T06:50:06Z</time>
      </trkpt>
      <trkpt lat="45.22236" lon="6.00979">
        <ele>1586.4460449219</ele>
        <time>2017-03-31T06:50:13Z</time>
      </trkpt>
      <trkpt lat="45.22233" lon="6.00985">
        <ele>1583.4460449219</ele>
        <time>2017-03-31T06:50:19Z</time>
      </trkpt>
      <trkpt lat="45.22233" lon="6.00993">
        <ele>1584.4460449219</ele>
        <time>2017-03-31T06:50:24Z</time>
      </trkpt>
      <trkpt lat="45.2223" lon="6.00998">
        <ele>1585.4460449219</ele>
        <time>2017-03-31T06:50:27Z</time>
      </trkpt>
      <trkpt lat="45.2223" lon="6.01006">
        <ele>1588.4460449219</ele>
        <time>2017-03-31T06:50:32Z</time>
      </trkpt>
      <trkpt lat="45.22232" lon="6.01012">
        <ele>1587.4460449219</ele>
        <time>2017-03-31T06:50:35Z</time>
      </trkpt>
      <trkpt lat="45.22236" lon="6.01018">
        <ele>1591.4460449219</ele>
        <time>2017-03-31T06:50:40Z</time>
      </trkpt>
      <trkpt lat="45.22235" lon="6.01027">
        <ele>1590.4460449219</ele>
        <time>2017-03-31T06:50:44Z</time>
      </trkpt>
      <trkpt lat="45.22237" lon="6.01034">
        <ele>1592.4460449219</ele>
        <time>2017-03-31T06:50:49Z</time>
      </trkpt>
      <trkpt lat="45.22234" lon="6.0104">
        <ele>1592.4460449219</ele>
        <time>2017-03-31T06:50:52Z</time>
      </trkpt>
      <trkpt lat="45.22232" lon="6.01046">
        <ele>1597.4460449219</ele>
        <time>2017-03-31T06:51:01Z</time>
      </trkpt>
      <trkpt lat="45.22231" lon="6.01053">
        <ele>1598.4460449219</ele>
        <time>2017-03-31T06:51:06Z</time>
      </trkpt>
      <trkpt lat="45.22231" lon="6.0106">
        <ele>1594.4460449219</ele>
        <time>2017-03-31T06:51:09Z</time>
      </trkpt>
      <trkpt lat="45.22233" lon="6.01066">
        <ele>1599.4460449219</ele>
        <time>2017-03-31T06:51:15Z</time>
      </trkpt>
      <trkpt lat="45.22233" lon="6.01073">
        <ele>1598.4460449219</ele>
        <time>2017-03-31T06:51:19Z</time>
      </trkpt>
      <trkpt lat="45.22233" lon="6.0108">
        <ele>1598.4460449219</ele>
        <time>2017-03-31T06:51:23Z</time>
      </trkpt>
      <trkpt lat="45.22232" lon="6.01087">
        <ele>1600.4460449219</ele>
        <time>2017-03-31T06:51:27Z</time>
      </trkpt>
      <trkpt lat="45.22233" lon="6.01095">
        <ele>1601.4460449219</ele>
        <time>2017-03-31T06:51:33Z</time>
      </trkpt>
      <trkpt lat="45.22235" lon="6.01101">
        <ele>1602.4460449219</ele>
        <time>2017-03-31T06:51:39Z</time>
      </trkpt>
      <trkpt lat="45.22235" lon="6.01107">
        <ele>1604.4460449219</ele>
        <time>2017-03-31T06:51:45Z</time>
      </trkpt>
      <trkpt lat="45.22237" lon="6.01114">
        <ele>1609.4460449219</ele>
        <time>2017-03-31T06:51:52Z</time>
      </trkpt>
      <trkpt lat="45.22238" lon="6.01122">
        <ele>1608.4460449219</ele>
        <time>2017-03-31T06:51:56Z</time>
      </trkpt>
      <trkpt lat="45.2224" lon="6.01128">
        <ele>1611.4460449219</ele>
        <time>2017-03-31T06:52:02Z</time>
      </trkpt>
      <trkpt lat="45.22239" lon="6.01137">
        <ele>1611.4460449219</ele>
        <time>2017-03-31T06:52:06Z</time>
      </trkpt>
      <trkpt lat="45.22238" lon="6.01145">
        <ele>1615.4460449219</ele>
        <time>2017-03-31T06:52:12Z</time>
      </trkpt>
      <trkpt lat="45.22237" lon="6.01158">
        <ele>1605.4460449219</ele>
        <time>2017-03-31T06:52:17Z</time>
      </trkpt>
      <trkpt lat="45.2224" lon="6.01164">
        <ele>1606.4460449219</ele>
        <time>2017-03-31T06:52:22Z</time>
      </trkpt>
      <trkpt lat="45.2224" lon="6.01171">
        <ele>1605.4460449219</ele>
        <time>2017-03-31T06:52:25Z</time>
      </trkpt>
      <trkpt lat="45.22242" lon="6.01179">
        <ele>1610.4460449219</ele>
        <time>2017-03-31T06:52:34Z</time>
      </trkpt>
      <trkpt lat="45.22243" lon="6.01186">
        <ele>1611.4460449219</ele>
        <time>2017-03-31T06:52:38Z</time>
      </trkpt>
      <trkpt lat="45.22243" lon="6.01192">
        <ele>1613.4460449219</ele>
        <time>2017-03-31T06:52:42Z</time>
      </trkpt>
      <trkpt lat="45.22241" lon="6.012">
        <ele>1618.4460449219</ele>
        <time>2017-03-31T06:52:50Z</time>
      </trkpt>
      <trkpt lat="45.2224" lon="6.01207">
        <ele>1619.4460449219</ele>
        <time>2017-03-31T06:52:54Z</time>
      </trkpt>
      <trkpt lat="45.22243" lon="6.01213">
        <ele>1618.4460449219</ele>
        <time>2017-03-31T06:52:59Z</time>
      </trkpt>
      <trkpt lat="45.22244" lon="6.0122">
        <ele>1619.4460449219</ele>
        <time>2017-03-31T06:53:04Z</time>
      </trkpt>
      <trkpt lat="45.22242" lon="6.01226">
        <ele>1623.4460449219</ele>
        <time>2017-03-31T06:53:16Z</time>
      </trkpt>
      <trkpt lat="45.22244" lon="6.01232">
        <ele>1626.4460449219</ele>
        <time>2017-03-31T06:53:22Z</time>
      </trkpt>
      <trkpt lat="45.22242" lon="6.01239">
        <ele>1626.4460449219</ele>
        <time>2017-03-31T06:53:27Z</time>
      </trkpt>
      <trkpt lat="45.2224" lon="6.01245">
        <ele>1629.4460449219</ele>
        <time>2017-03-31T06:53:33Z</time>
      </trkpt>
      <trkpt lat="45.2224" lon="6.01251">
        <ele>1629.4460449219</ele>
        <time>2017-03-31T06:53:38Z</time>
      </trkpt>
      <trkpt lat="45.22235" lon="6.01256">
        <ele>1632.4460449219</ele>
        <time>2017-03-31T06:53:44Z</time>
      </trkpt>
      <trkpt lat="45.22233" lon="6.01261">
        <ele>1638.4460449219</ele>
        <time>2017-03-31T06:53:55Z</time>
      </trkpt>
      <trkpt lat="45.2223" lon="6.01267">
        <ele>1641.4460449219</ele>
        <time>2017-03-31T06:53:59Z</time>
      </trkpt>
      <trkpt lat="45.22231" lon="6.01273">
        <ele>1642.4460449219</ele>
        <time>2017-03-31T06:54:03Z</time>
      </trkpt>
      <trkpt lat="45.22231" lon="6.01281">
        <ele>1645.4460449219</ele>
        <time>2017-03-31T06:54:08Z</time>
      </trkpt>
      <trkpt lat="45.22231" lon="6.01288">
        <ele>1644.4460449219</ele>
        <time>2017-03-31T06:54:12Z</time>
      </trkpt>
      <trkpt lat="45.22233" lon="6.01295">
        <ele>1643.4460449219</ele>
        <time>2017-03-31T06:54:16Z</time>
      </trkpt>
      <trkpt lat="45.22237" lon="6.01299">
        <ele>1651.4460449219</ele>
        <time>2017-03-31T06:54:25Z</time>
      </trkpt>
      <trkpt lat="45.22241" lon="6.01304">
        <ele>1655.4460449219</ele>
        <time>2017-03-31T06:54:31Z</time>
      </trkpt>
      <trkpt lat="45.22243" lon="6.01309">
        <ele>1658.4460449219</ele>
        <time>2017-03-31T06:54:38Z</time>
      </trkpt>
      <trkpt lat="45.22241" lon="6.01316">
        <ele>1657.4460449219</ele>
        <time>2017-03-31T06:54:43Z</time>
      </trkpt>
      <trkpt lat="45.22238" lon="6.01322">
        <ele>1653.4460449219</ele>
        <time>2017-03-31T06:54:47Z</time>
      </trkpt>
      <trkpt lat="45.22235" lon="6.01326">
        <ele>1655.4460449219</ele>
        <time>2017-03-31T06:54:57Z</time>
      </trkpt>
      <trkpt lat="45.2223" lon="6.01329">
        <ele>1659.4460449219</ele>
        <time>2017-03-31T06:55:01Z</time>
      </trkpt>
      <trkpt lat="45.2223" lon="6.01336">
        <ele>1661.4460449219</ele>
        <time>2017-03-31T06:55:06Z</time>
      </trkpt>
      <trkpt lat="45.22228" lon="6.01345">
        <ele>1662.4460449219</ele>
        <time>2017-03-31T06:55:12Z</time>
      </trkpt>
      <trkpt lat="45.22232" lon="6.01351">
        <ele>1661.4460449219</ele>
        <time>2017-03-31T06:55:19Z</time>
      </trkpt>
      <trkpt lat="45.22235" lon="6.01356">
        <ele>1663.4460449219</ele>
        <time>2017-03-31T06:55:30Z</time>
      </trkpt>
      <trkpt lat="45.2224" lon="6.01356">
        <ele>1666.4460449219</ele>
        <time>2017-03-31T06:55:39Z</time>
      </trkpt>
      <trkpt lat="45.22244" lon="6.01356">
        <ele>1665.4460449219</ele>
        <time>2017-03-31T06:55:48Z</time>
      </trkpt>
      <trkpt lat="45.22249" lon="6.01363">
        <ele>1662.4460449219</ele>
        <time>2017-03-31T06:55:54Z</time>
      </trkpt>
      <trkpt lat="45.22253" lon="6.01368">
        <ele>1659.4460449219</ele>
        <time>2017-03-31T06:55:58Z</time>
      </trkpt>
      <trkpt lat="45.22253" lon="6.01374">
        <ele>1663.4460449219</ele>
        <time>2017-03-31T06:57:18Z</time>
      </trkpt>
      <trkpt lat="45.22249" lon="6.01379">
        <ele>1668.4460449219</ele>
        <time>2017-03-31T06:57:45Z</time>
      </trkpt>
      <trkpt lat="45.22245" lon="6.01382">
        <ele>1670.4460449219</ele>
        <time>2017-03-31T06:57:53Z</time>
      </trkpt>
      <trkpt lat="45.22242" lon="6.01388">
        <ele>1668.4460449219</ele>
        <time>2017-03-31T06:57:57Z</time>
      </trkpt>
      <trkpt lat="45.22239" lon="6.01393">
        <ele>1668.4460449219</ele>
        <time>2017-03-31T06:58:00Z</time>
      </trkpt>
      <trkpt lat="45.22237" lon="6.01401">
        <ele>1675.4460449219</ele>
        <time>2017-03-31T06:58:05Z</time>
      </trkpt>
      <trkpt lat="45.22234" lon="6.01408">
        <ele>1677.4460449219</ele>
        <time>2017-03-31T06:58:12Z</time>
      </trkpt>
      <trkpt lat="45.22233" lon="6.01414">
        <ele>1673.4460449219</ele>
        <time>2017-03-31T06:58:14Z</time>
      </trkpt>
      <trkpt lat="45.22231" lon="6.01422">
        <ele>1672.4460449219</ele>
        <time>2017-03-31T06:58:18Z</time>
      </trkpt>
      <trkpt lat="45.2223" lon="6.01429">
        <ele>1671.4460449219</ele>
        <time>2017-03-31T06:58:23Z</time>
      </trkpt>
      <trkpt lat="45.22231" lon="6.01436">
        <ele>1670.4460449219</ele>
        <time>2017-03-31T06:58:29Z</time>
      </trkpt>
      <trkpt lat="45.22229" lon="6.01442">
        <ele>1672.4460449219</ele>
        <time>2017-03-31T06:58:31Z</time>
      </trkpt>
      <trkpt lat="45.2223" lon="6.01449">
        <ele>1672.4460449219</ele>
        <time>2017-03-31T06:58:35Z</time>
      </trkpt>
      <trkpt lat="45.22233" lon="6.01455">
        <ele>1673.4460449219</ele>
        <time>2017-03-31T06:58:39Z</time>
      </trkpt>
      <trkpt lat="45.22232" lon="6.01461">
        <ele>1675.4460449219</ele>
        <time>2017-03-31T06:58:43Z</time>
      </trkpt>
      <trkpt lat="45.22235" lon="6.01468">
        <ele>1675.4470214844</ele>
        <time>2017-03-31T06:58:47Z</time>
      </trkpt>
      <trkpt lat="45.22235" lon="6.01477">
        <ele>1676.4470214844</ele>
        <time>2017-03-31T06:58:51Z</time>
      </trkpt>
      <trkpt lat="45.22237" lon="6.01485">
        <ele>1679.4470214844</ele>
        <time>2017-03-31T06:58:56Z</time>
      </trkpt>
      <trkpt lat="45.2224" lon="6.01491">
        <ele>1679.4470214844</ele>
        <time>2017-03-31T06:59:00Z</time>
      </trkpt>
      <trkpt lat="45.22244" lon="6.01495">
        <ele>1680.4470214844</ele>
        <time>2017-03-31T06:59:04Z</time>
      </trkpt>
      <trkpt lat="45.22246" lon="6.01502">
        <ele>1681.4470214844</ele>
        <time>2017-03-31T06:59:07Z</time>
      </trkpt>
      <trkpt lat="45.22244" lon="6.01509">
        <ele>1682.4470214844</ele>
        <time>2017-03-31T06:59:11Z</time>
      </trkpt>
      <trkpt lat="45.22244" lon="6.01516">
        <ele>1681.4470214844</ele>
        <time>2017-03-31T06:59:22Z</time>
      </trkpt>
      <trkpt lat="45.22246" lon="6.01524">
        <ele>1682.4470214844</ele>
        <time>2017-03-31T06:59:30Z</time>
      </trkpt>
      <trkpt lat="45.22249" lon="6.0153">
        <ele>1682.4470214844</ele>
        <time>2017-03-31T06:59:33Z</time>
      </trkpt>
      <trkpt lat="45.22249" lon="6.01536">
        <ele>1680.4470214844</ele>
        <time>2017-03-31T06:59:38Z</time>
      </trkpt>
      <trkpt lat="45.22251" lon="6.01542">
        <ele>1677.4470214844</ele>
        <time>2017-03-31T06:59:41Z</time>
      </trkpt>
      <trkpt lat="45.22254" lon="6.01547">
        <ele>1674.4470214844</ele>
        <time>2017-03-31T06:59:45Z</time>
      </trkpt>
      <trkpt lat="45.22255" lon="6.01556">
        <ele>1673.4470214844</ele>
        <time>2017-03-31T06:59:50Z</time>
      </trkpt>
      <trkpt lat="45.22257" lon="6.01562">
        <ele>1676.4470214844</ele>
        <time>2017-03-31T06:59:54Z</time>
      </trkpt>
      <trkpt lat="45.22256" lon="6.0157">
        <ele>1675.4470214844</ele>
        <time>2017-03-31T06:59:56Z</time>
      </trkpt>
      <trkpt lat="45.22259" lon="6.01576">
        <ele>1679.4470214844</ele>
        <time>2017-03-31T07:00:00Z</time>
      </trkpt>
      <trkpt lat="45.22258" lon="6.01585">
        <ele>1679.4470214844</ele>
        <time>2017-03-31T07:00:05Z</time>
      </trkpt>
      <trkpt lat="45.22262" lon="6.01588">
        <ele>1680.4470214844</ele>
        <time>2017-03-31T07:00:09Z</time>
      </trkpt>
      <trkpt lat="45.22262" lon="6.01596">
        <ele>1680.4470214844</ele>
        <time>2017-03-31T07:00:12Z</time>
      </trkpt>
      <trkpt lat="45.22263" lon="6.01602">
        <ele>1676.4470214844</ele>
        <time>2017-03-31T07:00:16Z</time>
      </trkpt>
      <trkpt lat="45.22264" lon="6.01611">
        <ele>1674.4470214844</ele>
        <time>2017-03-31T07:00:21Z</time>
      </trkpt>
      <trkpt lat="45.22265" lon="6.0162">
        <ele>1675.4470214844</ele>
        <time>2017-03-31T07:00:25Z</time>
      </trkpt>
      <trkpt lat="45.22267" lon="6.01626">
        <ele>1674.4470214844</ele>
        <time>2017-03-31T07:00:30Z</time>
      </trkpt>
      <trkpt lat="45.22268" lon="6.01633">
        <ele>1677.4470214844</ele>
        <time>2017-03-31T07:00:34Z</time>
      </trkpt>
      <trkpt lat="45.22269" lon="6.01639">
        <ele>1675.4470214844</ele>
        <time>2017-03-31T07:00:37Z</time>
      </trkpt>
      <trkpt lat="45.22268" lon="6.01646">
        <ele>1674.4470214844</ele>
        <time>2017-03-31T07:00:39Z</time>
      </trkpt>
      <trkpt lat="45.22271" lon="6.01653">
        <ele>1674.4470214844</ele>
        <time>2017-03-31T07:00:44Z</time>
      </trkpt>
      <trkpt lat="45.22271" lon="6.01662">
        <ele>1676.4470214844</ele>
        <time>2017-03-31T07:00:48Z</time>
      </trkpt>
      <trkpt lat="45.22271" lon="6.01668">
        <ele>1676.4470214844</ele>
        <time>2017-03-31T07:00:51Z</time>
      </trkpt>
      <trkpt lat="45.2227" lon="6.01676">
        <ele>1677.4470214844</ele>
        <time>2017-03-31T07:00:54Z</time>
      </trkpt>
      <trkpt lat="45.22268" lon="6.01683">
        <ele>1677.4470214844</ele>
        <time>2017-03-31T07:00:57Z</time>
      </trkpt>
      <trkpt lat="45.22269" lon="6.01691">
        <ele>1675.4470214844</ele>
        <time>2017-03-31T07:01:01Z</time>
      </trkpt>
      <trkpt lat="45.22269" lon="6.01698">
        <ele>1676.4470214844</ele>
        <time>2017-03-31T07:01:05Z</time>
      </trkpt>
      <trkpt lat="45.22269" lon="6.01706">
        <ele>1678.4470214844</ele>
        <time>2017-03-31T07:01:08Z</time>
      </trkpt>
      <trkpt lat="45.22267" lon="6.01713">
        <ele>1680.4470214844</ele>
        <time>2017-03-31T07:01:11Z</time>
      </trkpt>
      <trkpt lat="45.22266" lon="6.01722">
        <ele>1680.4470214844</ele>
        <time>2017-03-31T07:01:15Z</time>
      </trkpt>
      <trkpt lat="45.22267" lon="6.01729">
        <ele>1677.4470214844</ele>
        <time>2017-03-31T07:01:18Z</time>
      </trkpt>
      <trkpt lat="45.22266" lon="6.01736">
        <ele>1680.4470214844</ele>
        <time>2017-03-31T07:01:22Z</time>
      </trkpt>
      <trkpt lat="45.22264" lon="6.01743">
        <ele>1681.4470214844</ele>
        <time>2017-03-31T07:01:38Z</time>
      </trkpt>
      <trkpt lat="45.22262" lon="6.01749">
        <ele>1679.4470214844</ele>
        <time>2017-03-31T07:01:43Z</time>
      </trkpt>
      <trkpt lat="45.22262" lon="6.0176">
        <ele>1682.4470214844</ele>
        <time>2017-03-31T07:02:09Z</time>
      </trkpt>
      <trkpt lat="45.22264" lon="6.01765">
        <ele>1681.4470214844</ele>
        <time>2017-03-31T07:02:14Z</time>
      </trkpt>
      <trkpt lat="45.22266" lon="6.01771">
        <ele>1681.4470214844</ele>
        <time>2017-03-31T07:02:18Z</time>
      </trkpt>
      <trkpt lat="45.22268" lon="6.0178">
        <ele>1683.4470214844</ele>
        <time>2017-03-31T07:02:24Z</time>
      </trkpt>
      <trkpt lat="45.22269" lon="6.01787">
        <ele>1684.4470214844</ele>
        <time>2017-03-31T07:02:29Z</time>
      </trkpt>
      <trkpt lat="45.22269" lon="6.01793">
        <ele>1684.4470214844</ele>
        <time>2017-03-31T07:02:35Z</time>
      </trkpt>
      <trkpt lat="45.22268" lon="6.018">
        <ele>1681.4470214844</ele>
        <time>2017-03-31T07:02:42Z</time>
      </trkpt>
      <trkpt lat="45.22268" lon="6.01809">
        <ele>1684.4470214844</ele>
        <time>2017-03-31T07:02:47Z</time>
      </trkpt>
      <trkpt lat="45.22269" lon="6.01816">
        <ele>1687.4470214844</ele>
        <time>2017-03-31T07:02:53Z</time>
      </trkpt>
      <trkpt lat="45.22265" lon="6.01821">
        <ele>1685.4470214844</ele>
        <time>2017-03-31T07:02:59Z</time>
      </trkpt>
      <trkpt lat="45.2226" lon="6.01819">
        <ele>1685.4470214844</ele>
        <time>2017-03-31T07:03:04Z</time>
      </trkpt>
      <trkpt lat="45.22255" lon="6.01821">
        <ele>1687.4470214844</ele>
        <time>2017-03-31T07:03:08Z</time>
      </trkpt>
      <trkpt lat="45.22252" lon="6.01828">
        <ele>1686.4470214844</ele>
        <time>2017-03-31T07:03:12Z</time>
      </trkpt>
      <trkpt lat="45.22249" lon="6.01832">
        <ele>1687.4470214844</ele>
        <time>2017-03-31T07:03:16Z</time>
      </trkpt>
      <trkpt lat="45.22249" lon="6.01839">
        <ele>1688.4470214844</ele>
        <time>2017-03-31T07:03:18Z</time>
      </trkpt>
      <trkpt lat="45.22248" lon="6.01848">
        <ele>1686.4470214844</ele>
        <time>2017-03-31T07:03:22Z</time>
      </trkpt>
      <trkpt lat="45.22247" lon="6.01854">
        <ele>1686.4470214844</ele>
        <time>2017-03-31T07:03:27Z</time>
      </trkpt>
      <trkpt lat="45.22245" lon="6.01861">
        <ele>1691.4470214844</ele>
        <time>2017-03-31T07:03:32Z</time>
      </trkpt>
      <trkpt lat="45.22246" lon="6.01868">
        <ele>1690.4470214844</ele>
        <time>2017-03-31T07:03:37Z</time>
      </trkpt>
      <trkpt lat="45.22248" lon="6.01874">
        <ele>1690.4470214844</ele>
        <time>2017-03-31T07:03:41Z</time>
      </trkpt>
      <trkpt lat="45.2225" lon="6.01881">
        <ele>1688.4470214844</ele>
        <time>2017-03-31T07:03:45Z</time>
      </trkpt>
      <trkpt lat="45.22251" lon="6.01888">
        <ele>1696.4470214844</ele>
        <time>2017-03-31T07:03:58Z</time>
      </trkpt>
      <trkpt lat="45.22253" lon="6.01896">
        <ele>1692.4470214844</ele>
        <time>2017-03-31T07:04:02Z</time>
      </trkpt>
      <trkpt lat="45.22251" lon="6.01902">
        <ele>1691.4470214844</ele>
        <time>2017-03-31T07:04:06Z</time>
      </trkpt>
      <trkpt lat="45.22253" lon="6.01909">
        <ele>1692.4470214844</ele>
        <time>2017-03-31T07:04:09Z</time>
      </trkpt>
      <trkpt lat="45.22253" lon="6.01916">
        <ele>1687.4470214844</ele>
        <time>2017-03-31T07:04:15Z</time>
      </trkpt>
      <trkpt lat="45.22254" lon="6.01922">
        <ele>1688.4470214844</ele>
        <time>2017-03-31T07:04:20Z</time>
      </trkpt>
      <trkpt lat="45.22256" lon="6.01929">
        <ele>1691.4470214844</ele>
        <time>2017-03-31T07:04:26Z</time>
      </trkpt>
      <trkpt lat="45.22254" lon="6.01937">
        <ele>1696.4470214844</ele>
        <time>2017-03-31T07:04:35Z</time>
      </trkpt>
      <trkpt lat="45.22254" lon="6.01944">
        <ele>1700.4470214844</ele>
        <time>2017-03-31T07:04:39Z</time>
      </trkpt>
      <trkpt lat="45.22254" lon="6.0195">
        <ele>1699.4470214844</ele>
        <time>2017-03-31T07:04:42Z</time>
      </trkpt>
      <trkpt lat="45.22253" lon="6.01957">
        <ele>1701.4470214844</ele>
        <time>2017-03-31T07:04:47Z</time>
      </trkpt>
      <trkpt lat="45.22252" lon="6.01966">
        <ele>1701.4470214844</ele>
        <time>2017-03-31T07:04:51Z</time>
      </trkpt>
      <trkpt lat="45.22251" lon="6.01972">
        <ele>1701.4470214844</ele>
        <time>2017-03-31T07:04:53Z</time>
      </trkpt>
      <trkpt lat="45.22249" lon="6.0198">
        <ele>1702.4470214844</ele>
        <time>2017-03-31T07:04:56Z</time>
      </trkpt>
      <trkpt lat="45.22247" lon="6.01986">
        <ele>1702.4470214844</ele>
        <time>2017-03-31T07:04:58Z</time>
      </trkpt>
      <trkpt lat="45.22246" lon="6.01992">
        <ele>1702.4470214844</ele>
        <time>2017-03-31T07:05:02Z</time>
      </trkpt>
      <trkpt lat="45.22248" lon="6.01999">
        <ele>1703.4470214844</ele>
        <time>2017-03-31T07:05:06Z</time>
      </trkpt>
      <trkpt lat="45.2225" lon="6.02006">
        <ele>1702.4470214844</ele>
        <time>2017-03-31T07:05:11Z</time>
      </trkpt>
      <trkpt lat="45.2225" lon="6.02012">
        <ele>1703.4470214844</ele>
        <time>2017-03-31T07:05:15Z</time>
      </trkpt>
      <trkpt lat="45.22249" lon="6.02021">
        <ele>1707.4470214844</ele>
        <time>2017-03-31T07:05:20Z</time>
      </trkpt>
      <trkpt lat="45.22248" lon="6.02028">
        <ele>1705.4470214844</ele>
        <time>2017-03-31T07:05:24Z</time>
      </trkpt>
      <trkpt lat="45.22251" lon="6.02034">
        <ele>1707.4470214844</ele>
        <time>2017-03-31T07:05:32Z</time>
      </trkpt>
      <trkpt lat="45.22251" lon="6.02041">
        <ele>1711.4470214844</ele>
        <time>2017-03-31T07:05:37Z</time>
      </trkpt>
      <trkpt lat="45.2225" lon="6.02048">
        <ele>1713.4470214844</ele>
        <time>2017-03-31T07:05:43Z</time>
      </trkpt>
      <trkpt lat="45.2225" lon="6.02056">
        <ele>1713.4470214844</ele>
        <time>2017-03-31T07:05:48Z</time>
      </trkpt>
      <trkpt lat="45.22253" lon="6.02062">
        <ele>1716.4470214844</ele>
        <time>2017-03-31T07:05:54Z</time>
      </trkpt>
      <trkpt lat="45.22253" lon="6.02069">
        <ele>1720.4470214844</ele>
        <time>2017-03-31T07:05:59Z</time>
      </trkpt>
      <trkpt lat="45.22257" lon="6.02074">
        <ele>1727.4470214844</ele>
        <time>2017-03-31T07:06:06Z</time>
      </trkpt>
      <trkpt lat="45.22259" lon="6.0208">
        <ele>1728.4470214844</ele>
        <time>2017-03-31T07:06:11Z</time>
      </trkpt>
      <trkpt lat="45.22261" lon="6.02086">
        <ele>1728.4470214844</ele>
        <time>2017-03-31T07:06:18Z</time>
      </trkpt>
      <trkpt lat="45.22264" lon="6.02091">
        <ele>1727.4470214844</ele>
        <time>2017-03-31T07:06:22Z</time>
      </trkpt>
      <trkpt lat="45.22269" lon="6.02095">
        <ele>1729.4470214844</ele>
        <time>2017-03-31T07:06:27Z</time>
      </trkpt>
      <trkpt lat="45.22273" lon="6.02098">
        <ele>1729.4470214844</ele>
        <time>2017-03-31T07:06:33Z</time>
      </trkpt>
      <trkpt lat="45.22275" lon="6.02104">
        <ele>1728.4470214844</ele>
        <time>2017-03-31T07:06:38Z</time>
      </trkpt>
      <trkpt lat="45.22274" lon="6.02111">
        <ele>1728.4470214844</ele>
        <time>2017-03-31T07:06:42Z</time>
      </trkpt>
      <trkpt lat="45.22274" lon="6.02118">
        <ele>1729.4470214844</ele>
        <time>2017-03-31T07:06:46Z</time>
      </trkpt>
      <trkpt lat="45.22272" lon="6.02125">
        <ele>1728.4470214844</ele>
        <time>2017-03-31T07:06:50Z</time>
      </trkpt>
      <trkpt lat="45.2227" lon="6.02131">
        <ele>1726.4479980469</ele>
        <time>2017-03-31T07:06:54Z</time>
      </trkpt>
      <trkpt lat="45.22265" lon="6.02134">
        <ele>1727.4470214844</ele>
        <time>2017-03-31T07:06:57Z</time>
      </trkpt>
      <trkpt lat="45.22262" lon="6.02141">
        <ele>1728.4479980469</ele>
        <time>2017-03-31T07:07:03Z</time>
      </trkpt>
      <trkpt lat="45.22261" lon="6.02148">
        <ele>1727.4479980469</ele>
        <time>2017-03-31T07:07:08Z</time>
      </trkpt>
      <trkpt lat="45.22259" lon="6.02156">
        <ele>1725.4479980469</ele>
        <time>2017-03-31T07:07:11Z</time>
      </trkpt>
      <trkpt lat="45.22257" lon="6.02163">
        <ele>1727.4479980469</ele>
        <time>2017-03-31T07:07:16Z</time>
      </trkpt>
      <trkpt lat="45.22255" lon="6.02169">
        <ele>1728.4479980469</ele>
        <time>2017-03-31T07:07:20Z</time>
      </trkpt>
      <trkpt lat="45.22252" lon="6.02173">
        <ele>1727.4479980469</ele>
        <time>2017-03-31T07:07:24Z</time>
      </trkpt>
      <trkpt lat="45.2225" lon="6.0218">
        <ele>1726.4479980469</ele>
        <time>2017-03-31T07:07:27Z</time>
      </trkpt>
      <trkpt lat="45.22247" lon="6.02186">
        <ele>1727.4479980469</ele>
        <time>2017-03-31T07:07:31Z</time>
      </trkpt>
      <trkpt lat="45.22245" lon="6.02193">
        <ele>1728.4479980469</ele>
        <time>2017-03-31T07:07:35Z</time>
      </trkpt>
      <trkpt lat="45.22245" lon="6.02199">
        <ele>1727.4479980469</ele>
        <time>2017-03-31T07:07:41Z</time>
      </trkpt>
      <trkpt lat="45.22243" lon="6.02206">
        <ele>1727.4479980469</ele>
        <time>2017-03-31T07:07:44Z</time>
      </trkpt>
      <trkpt lat="45.2224" lon="6.02212">
        <ele>1727.4479980469</ele>
        <time>2017-03-31T07:07:47Z</time>
      </trkpt>
      <trkpt lat="45.22241" lon="6.02219">
        <ele>1723.4479980469</ele>
        <time>2017-03-31T07:07:52Z</time>
      </trkpt>
      <trkpt lat="45.22238" lon="6.02225">
        <ele>1726.4479980469</ele>
        <time>2017-03-31T07:07:57Z</time>
      </trkpt>
      <trkpt lat="45.22239" lon="6.02233">
        <ele>1729.4479980469</ele>
        <time>2017-03-31T07:08:04Z</time>
      </trkpt>
      <trkpt lat="45.22237" lon="6.02241">
        <ele>1728.4479980469</ele>
        <time>2017-03-31T07:08:08Z</time>
      </trkpt>
      <trkpt lat="45.22235" lon="6.02247">
        <ele>1728.4479980469</ele>
        <time>2017-03-31T07:08:11Z</time>
      </trkpt>
      <trkpt lat="45.22233" lon="6.02254">
        <ele>1726.4479980469</ele>
        <time>2017-03-31T07:08:14Z</time>
      </trkpt>
      <trkpt lat="45.22231" lon="6.0226">
        <ele>1727.4479980469</ele>
        <time>2017-03-31T07:08:19Z</time>
      </trkpt>
      <trkpt lat="45.22229" lon="6.02267">
        <ele>1730.4479980469</ele>
        <time>2017-03-31T07:08:23Z</time>
      </trkpt>
      <trkpt lat="45.22228" lon="6.02274">
        <ele>1727.4479980469</ele>
        <time>2017-03-31T07:08:33Z</time>
      </trkpt>
      <trkpt lat="45.22226" lon="6.02282">
        <ele>1733.4479980469</ele>
        <time>2017-03-31T07:08:40Z</time>
      </trkpt>
      <trkpt lat="45.22225" lon="6.02288">
        <ele>1737.4479980469</ele>
        <time>2017-03-31T07:08:58Z</time>
      </trkpt>
      <trkpt lat="45.22227" lon="6.02295">
        <ele>1737.4479980469</ele>
        <time>2017-03-31T07:09:03Z</time>
      </trkpt>
      <trkpt lat="45.22229" lon="6.02301">
        <ele>1737.4479980469</ele>
        <time>2017-03-31T07:09:07Z</time>
      </trkpt>
      <trkpt lat="45.22234" lon="6.02305">
        <ele>1738.4479980469</ele>
        <time>2017-03-31T07:09:11Z</time>
      </trkpt>
      <trkpt lat="45.22237" lon="6.0231">
        <ele>1737.4479980469</ele>
        <time>2017-03-31T07:09:14Z</time>
      </trkpt>
      <trkpt lat="45.22238" lon="6.02317">
        <ele>1738.4479980469</ele>
        <time>2017-03-31T07:09:19Z</time>
      </trkpt>
      <trkpt lat="45.2224" lon="6.02324">
        <ele>1739.4479980469</ele>
        <time>2017-03-31T07:09:25Z</time>
      </trkpt>
      <trkpt lat="45.2224" lon="6.02331">
        <ele>1741.4479980469</ele>
        <time>2017-03-31T07:09:28Z</time>
      </trkpt>
      <trkpt lat="45.2224" lon="6.02338">
        <ele>1743.4479980469</ele>
        <time>2017-03-31T07:09:33Z</time>
      </trkpt>
      <trkpt lat="45.2224" lon="6.02345">
        <ele>1742.4479980469</ele>
        <time>2017-03-31T07:09:37Z</time>
      </trkpt>
      <trkpt lat="45.22238" lon="6.02353">
        <ele>1740.4479980469</ele>
        <time>2017-03-31T07:09:41Z</time>
      </trkpt>
      <trkpt lat="45.22234" lon="6.02358">
        <ele>1747.4479980469</ele>
        <time>2017-03-31T07:09:55Z</time>
      </trkpt>
      <trkpt lat="45.22234" lon="6.02365">
        <ele>1749.4479980469</ele>
        <time>2017-03-31T07:10:02Z</time>
      </trkpt>
      <trkpt lat="45.22232" lon="6.02371">
        <ele>1748.4479980469</ele>
        <time>2017-03-31T07:10:05Z</time>
      </trkpt>
      <trkpt lat="45.22232" lon="6.02379">
        <ele>1746.4479980469</ele>
        <time>2017-03-31T07:10:11Z</time>
      </trkpt>
      <trkpt lat="45.22231" lon="6.02386">
        <ele>1745.4479980469</ele>
        <time>2017-03-31T07:10:15Z</time>
      </trkpt>
      <trkpt lat="45.22229" lon="6.02393">
        <ele>1745.4479980469</ele>
        <time>2017-03-31T07:10:21Z</time>
      </trkpt>
      <trkpt lat="45.22226" lon="6.02398">
        <ele>1744.4479980469</ele>
        <time>2017-03-31T07:10:23Z</time>
      </trkpt>
      <trkpt lat="45.22222" lon="6.02405">
        <ele>1745.4479980469</ele>
        <time>2017-03-31T07:10:29Z</time>
      </trkpt>
      <trkpt lat="45.22218" lon="6.02411">
        <ele>1746.4479980469</ele>
        <time>2017-03-31T07:10:38Z</time>
      </trkpt>
      <trkpt lat="45.22215" lon="6.02416">
        <ele>1751.4479980469</ele>
        <time>2017-03-31T07:10:45Z</time>
      </trkpt>
      <trkpt lat="45.2221" lon="6.02421">
        <ele>1751.4479980469</ele>
        <time>2017-03-31T07:10:48Z</time>
      </trkpt>
      <trkpt lat="45.22214" lon="6.02424">
        <ele>1749.4479980469</ele>
        <time>2017-03-31T07:10:59Z</time>
      </trkpt>
      <trkpt lat="45.22219" lon="6.02427">
        <ele>1750.4479980469</ele>
        <time>2017-03-31T07:11:04Z</time>
      </trkpt>
      <trkpt lat="45.22224" lon="6.02428">
        <ele>1753.4479980469</ele>
        <time>2017-03-31T07:11:13Z</time>
      </trkpt>
      <trkpt lat="45.2223" lon="6.02431">
        <ele>1754.4479980469</ele>
        <time>2017-03-31T07:11:19Z</time>
      </trkpt>
      <trkpt lat="45.22234" lon="6.02433">
        <ele>1754.4479980469</ele>
        <time>2017-03-31T07:11:23Z</time>
      </trkpt>
      <trkpt lat="45.22239" lon="6.02431">
        <ele>1755.4479980469</ele>
        <time>2017-03-31T07:11:28Z</time>
      </trkpt>
      <trkpt lat="45.22245" lon="6.02431">
        <ele>1758.4479980469</ele>
        <time>2017-03-31T07:11:34Z</time>
      </trkpt>
      <trkpt lat="45.22249" lon="6.02435">
        <ele>1758.4479980469</ele>
        <time>2017-03-31T07:11:39Z</time>
      </trkpt>
      <trkpt lat="45.22254" lon="6.02436">
        <ele>1759.4479980469</ele>
        <time>2017-03-31T07:11:44Z</time>
      </trkpt>
      <trkpt lat="45.22257" lon="6.02441">
        <ele>1767.4479980469</ele>
        <time>2017-03-31T07:11:52Z</time>
      </trkpt>
      <trkpt lat="45.22263" lon="6.02444">
        <ele>1770.4479980469</ele>
        <time>2017-03-31T07:11:57Z</time>
      </trkpt>
      <trkpt lat="45.22267" lon="6.02447">
        <ele>1774.4479980469</ele>
        <time>2017-03-31T07:12:02Z</time>
      </trkpt>
      <trkpt lat="45.22272" lon="6.0245">
        <ele>1773.4479980469</ele>
        <time>2017-03-31T07:12:07Z</time>
      </trkpt>
      <trkpt lat="45.22277" lon="6.0245">
        <ele>1777.4479980469</ele>
        <time>2017-03-31T07:12:23Z</time>
      </trkpt>
      <trkpt lat="45.22281" lon="6.02455">
        <ele>1777.4479980469</ele>
        <time>2017-03-31T07:12:30Z</time>
      </trkpt>
      <trkpt lat="45.22286" lon="6.02455">
        <ele>1779.4479980469</ele>
        <time>2017-03-31T07:12:36Z</time>
      </trkpt>
      <trkpt lat="45.2229" lon="6.02458">
        <ele>1775.4479980469</ele>
        <time>2017-03-31T07:12:41Z</time>
      </trkpt>
      <trkpt lat="45.22295" lon="6.02462">
        <ele>1773.4479980469</ele>
        <time>2017-03-31T07:12:45Z</time>
      </trkpt>
      <trkpt lat="45.22299" lon="6.02466">
        <ele>1774.4479980469</ele>
        <time>2017-03-31T07:12:53Z</time>
      </trkpt>
      <trkpt lat="45.22304" lon="6.0247">
        <ele>1776.4479980469</ele>
        <time>2017-03-31T07:12:57Z</time>
      </trkpt>
      <trkpt lat="45.22309" lon="6.02473">
        <ele>1779.4479980469</ele>
        <time>2017-03-31T07:13:05Z</time>
      </trkpt>
      <trkpt lat="45.22313" lon="6.02476">
        <ele>1781.4479980469</ele>
        <time>2017-03-31T07:13:10Z</time>
      </trkpt>
      <trkpt lat="45.22317" lon="6.02479">
        <ele>1780.4479980469</ele>
        <time>2017-03-31T07:13:14Z</time>
      </trkpt>
      <trkpt lat="45.22322" lon="6.02482">
        <ele>1781.4479980469</ele>
        <time>2017-03-31T07:13:19Z</time>
      </trkpt>
      <trkpt lat="45.22326" lon="6.02486">
        <ele>1780.4479980469</ele>
        <time>2017-03-31T07:13:24Z</time>
      </trkpt>
      <trkpt lat="45.2233" lon="6.0249">
        <ele>1780.4479980469</ele>
        <time>2017-03-31T07:13:29Z</time>
      </trkpt>
      <trkpt lat="45.22334" lon="6.02494">
        <ele>1781.4479980469</ele>
        <time>2017-03-31T07:13:34Z</time>
      </trkpt>
      <trkpt lat="45.22339" lon="6.02499">
        <ele>1781.4479980469</ele>
        <time>2017-03-31T07:13:40Z</time>
      </trkpt>
      <trkpt lat="45.22344" lon="6.02502">
        <ele>1785.4479980469</ele>
        <time>2017-03-31T07:13:47Z</time>
      </trkpt>
      <trkpt lat="45.22345" lon="6.02508">
        <ele>1788.4479980469</ele>
        <time>2017-03-31T07:13:54Z</time>
      </trkpt>
      <trkpt lat="45.22349" lon="6.02512">
        <ele>1789.4479980469</ele>
        <time>2017-03-31T07:14:01Z</time>
      </trkpt>
      <trkpt lat="45.22354" lon="6.02515">
        <ele>1787.4479980469</ele>
        <time>2017-03-31T07:14:06Z</time>
      </trkpt>
      <trkpt lat="45.22358" lon="6.0252">
        <ele>1791.4479980469</ele>
        <time>2017-03-31T07:14:15Z</time>
      </trkpt>
      <trkpt lat="45.22362" lon="6.02524">
        <ele>1797.4479980469</ele>
        <time>2017-03-31T07:14:25Z</time>
      </trkpt>
      <trkpt lat="45.22367" lon="6.02527">
        <ele>1800.4479980469</ele>
        <time>2017-03-31T07:14:31Z</time>
      </trkpt>
      <trkpt lat="45.22372" lon="6.02527">
        <ele>1799.4479980469</ele>
        <time>2017-03-31T07:14:37Z</time>
      </trkpt>
      <trkpt lat="45.22377" lon="6.02527">
        <ele>1801.4479980469</ele>
        <time>2017-03-31T07:14:50Z</time>
      </trkpt>
      <trkpt lat="45.22382" lon="6.02527">
        <ele>1802.4479980469</ele>
        <time>2017-03-31T07:14:54Z</time>
      </trkpt>
      <trkpt lat="45.22385" lon="6.02532">
        <ele>1801.4479980469</ele>
        <time>2017-03-31T07:14:58Z</time>
      </trkpt>
      <trkpt lat="45.2239" lon="6.02532">
        <ele>1800.4479980469</ele>
        <time>2017-03-31T07:15:03Z</time>
      </trkpt>
      <trkpt lat="45.22394" lon="6.02533">
        <ele>1800.4479980469</ele>
        <time>2017-03-31T07:15:08Z</time>
      </trkpt>
      <trkpt lat="45.22399" lon="6.02532">
        <ele>1804.4479980469</ele>
        <time>2017-03-31T07:15:13Z</time>
      </trkpt>
      <trkpt lat="45.22404" lon="6.0253">
        <ele>1805.4479980469</ele>
        <time>2017-03-31T07:15:17Z</time>
      </trkpt>
      <trkpt lat="45.2241" lon="6.02529">
        <ele>1809.4479980469</ele>
        <time>2017-03-31T07:15:22Z</time>
      </trkpt>
      <trkpt lat="45.22414" lon="6.0253">
        <ele>1814.4479980469</ele>
        <time>2017-03-31T07:15:29Z</time>
      </trkpt>
      <trkpt lat="45.22418" lon="6.02533">
        <ele>1817.4479980469</ele>
        <time>2017-03-31T07:15:36Z</time>
      </trkpt>
      <trkpt lat="45.22423" lon="6.02537">
        <ele>1817.4479980469</ele>
        <time>2017-03-31T07:15:41Z</time>
      </trkpt>
      <trkpt lat="45.22425" lon="6.02544">
        <ele>1815.4479980469</ele>
        <time>2017-03-31T07:15:48Z</time>
      </trkpt>
      <trkpt lat="45.22429" lon="6.02548">
        <ele>1815.4479980469</ele>
        <time>2017-03-31T07:15:53Z</time>
      </trkpt>
      <trkpt lat="45.22433" lon="6.02551">
        <ele>1816.4479980469</ele>
        <time>2017-03-31T07:15:56Z</time>
      </trkpt>
      <trkpt lat="45.22433" lon="6.02558">
        <ele>1822.4479980469</ele>
        <time>2017-03-31T07:16:05Z</time>
      </trkpt>
      <trkpt lat="45.22436" lon="6.02563">
        <ele>1825.4479980469</ele>
        <time>2017-03-31T07:16:09Z</time>
      </trkpt>
      <trkpt lat="45.22438" lon="6.02569">
        <ele>1825.4479980469</ele>
        <time>2017-03-31T07:16:14Z</time>
      </trkpt>
      <trkpt lat="45.22441" lon="6.02574">
        <ele>1831.4479980469</ele>
        <time>2017-03-31T07:16:25Z</time>
      </trkpt>
      <trkpt lat="45.22445" lon="6.02578">
        <ele>1832.4479980469</ele>
        <time>2017-03-31T07:16:31Z</time>
      </trkpt>
      <trkpt lat="45.2245" lon="6.02576">
        <ele>1833.4479980469</ele>
        <time>2017-03-31T07:16:35Z</time>
      </trkpt>
      <trkpt lat="45.22455" lon="6.02574">
        <ele>1836.4479980469</ele>
        <time>2017-03-31T07:16:42Z</time>
      </trkpt>
      <trkpt lat="45.22459" lon="6.02578">
        <ele>1834.4479980469</ele>
        <time>2017-03-31T07:16:54Z</time>
      </trkpt>
      <trkpt lat="45.22464" lon="6.0258">
        <ele>1834.4489746094</ele>
        <time>2017-03-31T07:17:05Z</time>
      </trkpt>
      <trkpt lat="45.22467" lon="6.02586">
        <ele>1834.4489746094</ele>
        <time>2017-03-31T07:17:10Z</time>
      </trkpt>
      <trkpt lat="45.22468" lon="6.02593">
        <ele>1834.4489746094</ele>
        <time>2017-03-31T07:17:15Z</time>
      </trkpt>
      <trkpt lat="45.22471" lon="6.02597">
        <ele>1836.4489746094</ele>
        <time>2017-03-31T07:17:21Z</time>
      </trkpt>
      <trkpt lat="45.22476" lon="6.02598">
        <ele>1839.4489746094</ele>
        <time>2017-03-31T07:17:26Z</time>
      </trkpt>
      <trkpt lat="45.22479" lon="6.02604">
        <ele>1841.4489746094</ele>
        <time>2017-03-31T07:17:32Z</time>
      </trkpt>
      <trkpt lat="45.22476" lon="6.0261">
        <ele>1844.4489746094</ele>
        <time>2017-03-31T07:17:38Z</time>
      </trkpt>
      <trkpt lat="45.22474" lon="6.02617">
        <ele>1842.4489746094</ele>
        <time>2017-03-31T07:17:43Z</time>
      </trkpt>
      <trkpt lat="45.2248" lon="6.02617">
        <ele>1846.4489746094</ele>
        <time>2017-03-31T07:17:50Z</time>
      </trkpt>
      <trkpt lat="45.22485" lon="6.02618">
        <ele>1848.4489746094</ele>
        <time>2017-03-31T07:17:59Z</time>
      </trkpt>
      <trkpt lat="45.22487" lon="6.02624">
        <ele>1846.4489746094</ele>
        <time>2017-03-31T07:18:06Z</time>
      </trkpt>
      <trkpt lat="45.2249" lon="6.0263">
        <ele>1849.4489746094</ele>
        <time>2017-03-31T07:18:13Z</time>
      </trkpt>
      <trkpt lat="45.22493" lon="6.02636">
        <ele>1849.4489746094</ele>
        <time>2017-03-31T07:18:17Z</time>
      </trkpt>
      <trkpt lat="45.22498" lon="6.02636">
        <ele>1852.4489746094</ele>
        <time>2017-03-31T07:18:20Z</time>
      </trkpt>
      <trkpt lat="45.22503" lon="6.02639">
        <ele>1853.4489746094</ele>
        <time>2017-03-31T07:18:26Z</time>
      </trkpt>
      <trkpt lat="45.22508" lon="6.02639">
        <ele>1854.4489746094</ele>
        <time>2017-03-31T07:18:31Z</time>
      </trkpt>
      <trkpt lat="45.22512" lon="6.02638">
        <ele>1857.4489746094</ele>
        <time>2017-03-31T07:18:37Z</time>
      </trkpt>
      <trkpt lat="45.22518" lon="6.02638">
        <ele>1857.4489746094</ele>
        <time>2017-03-31T07:18:40Z</time>
      </trkpt>
      <trkpt lat="45.22523" lon="6.02635">
        <ele>1858.4489746094</ele>
        <time>2017-03-31T07:18:45Z</time>
      </trkpt>
      <trkpt lat="45.22527" lon="6.02635">
        <ele>1858.4489746094</ele>
        <time>2017-03-31T07:18:48Z</time>
      </trkpt>
      <trkpt lat="45.22532" lon="6.02636">
        <ele>1856.4489746094</ele>
        <time>2017-03-31T07:18:51Z</time>
      </trkpt>
      <trkpt lat="45.22536" lon="6.02641">
        <ele>1865.4489746094</ele>
        <time>2017-03-31T07:19:01Z</time>
      </trkpt>
      <trkpt lat="45.2254" lon="6.02645">
        <ele>1863.4489746094</ele>
        <time>2017-03-31T07:19:05Z</time>
      </trkpt>
      <trkpt lat="45.22545" lon="6.02647">
        <ele>1864.4489746094</ele>
        <time>2017-03-31T07:19:11Z</time>
      </trkpt>
      <trkpt lat="45.22551" lon="6.02649">
        <ele>1867.4489746094</ele>
        <time>2017-03-31T07:19:16Z</time>
      </trkpt>
      <trkpt lat="45.22557" lon="6.02648">
        <ele>1869.4489746094</ele>
        <time>2017-03-31T07:19:23Z</time>
      </trkpt>
      <trkpt lat="45.22562" lon="6.02648">
        <ele>1869.4489746094</ele>
        <time>2017-03-31T07:19:28Z</time>
      </trkpt>
      <trkpt lat="45.22566" lon="6.0265">
        <ele>1867.4489746094</ele>
        <time>2017-03-31T07:19:33Z</time>
      </trkpt>
      <trkpt lat="45.22571" lon="6.02652">
        <ele>1867.4489746094</ele>
        <time>2017-03-31T07:19:38Z</time>
      </trkpt>
      <trkpt lat="45.22575" lon="6.02655">
        <ele>1865.4489746094</ele>
        <time>2017-03-31T07:19:43Z</time>
      </trkpt>
      <trkpt lat="45.22581" lon="6.02659">
        <ele>1866.4489746094</ele>
        <time>2017-03-31T07:19:49Z</time>
      </trkpt>
      <trkpt lat="45.22583" lon="6.02665">
        <ele>1869.4489746094</ele>
        <time>2017-03-31T07:19:55Z</time>
      </trkpt>
      <trkpt lat="45.22588" lon="6.02667">
        <ele>1870.4489746094</ele>
        <time>2017-03-31T07:20:02Z</time>
      </trkpt>
      <trkpt lat="45.22593" lon="6.02672">
        <ele>1868.4489746094</ele>
        <time>2017-03-31T07:20:08Z</time>
      </trkpt>
      <trkpt lat="45.22598" lon="6.02675">
        <ele>1869.4489746094</ele>
        <time>2017-03-31T07:20:11Z</time>
      </trkpt>
      <trkpt lat="45.22602" lon="6.02679">
        <ele>1869.4489746094</ele>
        <time>2017-03-31T07:20:14Z</time>
      </trkpt>
      <trkpt lat="45.22607" lon="6.02684">
        <ele>1867.4489746094</ele>
        <time>2017-03-31T07:20:17Z</time>
      </trkpt>
      <trkpt lat="45.2261" lon="6.02689">
        <ele>1866.4489746094</ele>
        <time>2017-03-31T07:20:20Z</time>
      </trkpt>
      <trkpt lat="45.22614" lon="6.02693">
        <ele>1868.4489746094</ele>
        <time>2017-03-31T07:20:24Z</time>
      </trkpt>
      <trkpt lat="45.22619" lon="6.02694">
        <ele>1868.4489746094</ele>
        <time>2017-03-31T07:20:28Z</time>
      </trkpt>
      <trkpt lat="45.22623" lon="6.02696">
        <ele>1871.4489746094</ele>
        <time>2017-03-31T07:20:33Z</time>
      </trkpt>
      <trkpt lat="45.22627" lon="6.02701">
        <ele>1873.4489746094</ele>
        <time>2017-03-31T07:20:37Z</time>
      </trkpt>
      <trkpt lat="45.22632" lon="6.02703">
        <ele>1874.4489746094</ele>
        <time>2017-03-31T07:20:40Z</time>
      </trkpt>
      <trkpt lat="45.22636" lon="6.02705">
        <ele>1873.4489746094</ele>
        <time>2017-03-31T07:20:43Z</time>
      </trkpt>
      <trkpt lat="45.22641" lon="6.02706">
        <ele>1875.4489746094</ele>
        <time>2017-03-31T07:20:48Z</time>
      </trkpt>
      <trkpt lat="45.22645" lon="6.0271">
        <ele>1872.4489746094</ele>
        <time>2017-03-31T07:20:52Z</time>
      </trkpt>
      <trkpt lat="45.2265" lon="6.02711">
        <ele>1874.4489746094</ele>
        <time>2017-03-31T07:20:58Z</time>
      </trkpt>
      <trkpt lat="45.22655" lon="6.02718">
        <ele>1873.4489746094</ele>
        <time>2017-03-31T07:21:03Z</time>
      </trkpt>
      <trkpt lat="45.22653" lon="6.02726">
        <ele>1877.4489746094</ele>
        <time>2017-03-31T07:21:08Z</time>
      </trkpt>
      <trkpt lat="45.22651" lon="6.02733">
        <ele>1878.4489746094</ele>
        <time>2017-03-31T07:21:12Z</time>
      </trkpt>
      <trkpt lat="45.22651" lon="6.02741">
        <ele>1878.4489746094</ele>
        <time>2017-03-31T07:21:17Z</time>
      </trkpt>
      <trkpt lat="45.22654" lon="6.02747">
        <ele>1880.4489746094</ele>
        <time>2017-03-31T07:21:21Z</time>
      </trkpt>
      <trkpt lat="45.22658" lon="6.02752">
        <ele>1880.4489746094</ele>
        <time>2017-03-31T07:21:26Z</time>
      </trkpt>
      <trkpt lat="45.22657" lon="6.02759">
        <ele>1888.4489746094</ele>
        <time>2017-03-31T07:21:33Z</time>
      </trkpt>
      <trkpt lat="45.2266" lon="6.02764">
        <ele>1887.4489746094</ele>
        <time>2017-03-31T07:21:37Z</time>
      </trkpt>
      <trkpt lat="45.22665" lon="6.02767">
        <ele>1887.4489746094</ele>
        <time>2017-03-31T07:21:43Z</time>
      </trkpt>
      <trkpt lat="45.22669" lon="6.02769">
        <ele>1886.4489746094</ele>
        <time>2017-03-31T07:21:48Z</time>
      </trkpt>
      <trkpt lat="45.22673" lon="6.02775">
        <ele>1883.4489746094</ele>
        <time>2017-03-31T07:21:55Z</time>
      </trkpt>
      <trkpt lat="45.22678" lon="6.02777">
        <ele>1884.4489746094</ele>
        <time>2017-03-31T07:22:00Z</time>
      </trkpt>
      <trkpt lat="45.22682" lon="6.02781">
        <ele>1882.4489746094</ele>
        <time>2017-03-31T07:22:04Z</time>
      </trkpt>
      <trkpt lat="45.22685" lon="6.02786">
        <ele>1881.4489746094</ele>
        <time>2017-03-31T07:22:06Z</time>
      </trkpt>
      <trkpt lat="45.2269" lon="6.02787">
        <ele>1880.4489746094</ele>
        <time>2017-03-31T07:22:10Z</time>
      </trkpt>
      <trkpt lat="45.22694" lon="6.0279">
        <ele>1889.4489746094</ele>
        <time>2017-03-31T07:22:29Z</time>
      </trkpt>
      <trkpt lat="45.22699" lon="6.02793">
        <ele>1890.4489746094</ele>
        <time>2017-03-31T07:22:34Z</time>
      </trkpt>
      <trkpt lat="45.22703" lon="6.02797">
        <ele>1892.4489746094</ele>
        <time>2017-03-31T07:22:37Z</time>
      </trkpt>
      <trkpt lat="45.22707" lon="6.02801">
        <ele>1892.4489746094</ele>
        <time>2017-03-31T07:22:43Z</time>
      </trkpt>
      <trkpt lat="45.22712" lon="6.02799">
        <ele>1897.4489746094</ele>
        <time>2017-03-31T07:22:50Z</time>
      </trkpt>
      <trkpt lat="45.22716" lon="6.02802">
        <ele>1897.4489746094</ele>
        <time>2017-03-31T07:22:55Z</time>
      </trkpt>
      <trkpt lat="45.22712" lon="6.02804">
        <ele>1901.4489746094</ele>
        <time>2017-03-31T07:23:00Z</time>
      </trkpt>
      <trkpt lat="45.22707" lon="6.0281">
        <ele>1905.4489746094</ele>
        <time>2017-03-31T07:23:17Z</time>
      </trkpt>
      <trkpt lat="45.22703" lon="6.02816">
        <ele>1908.4489746094</ele>
        <time>2017-03-31T07:23:24Z</time>
      </trkpt>
      <trkpt lat="45.22701" lon="6.02824">
        <ele>1905.4489746094</ele>
        <time>2017-03-31T07:23:31Z</time>
      </trkpt>
      <trkpt lat="45.22702" lon="6.02831">
        <ele>1901.4489746094</ele>
        <time>2017-03-31T07:23:35Z</time>
      </trkpt>
      <trkpt lat="45.227" lon="6.02838">
        <ele>1912.4489746094</ele>
        <time>2017-03-31T07:23:50Z</time>
      </trkpt>
      <trkpt lat="45.22704" lon="6.02847">
        <ele>1912.4489746094</ele>
        <time>2017-03-31T07:23:56Z</time>
      </trkpt>
      <trkpt lat="45.22701" lon="6.02853">
        <ele>1908.4489746094</ele>
        <time>2017-03-31T07:23:59Z</time>
      </trkpt>
      <trkpt lat="45.227" lon="6.0286">
        <ele>1916.4489746094</ele>
        <time>2017-03-31T07:24:10Z</time>
      </trkpt>
      <trkpt lat="45.22704" lon="6.02865">
        <ele>1918.4489746094</ele>
        <time>2017-03-31T07:24:21Z</time>
      </trkpt>
      <trkpt lat="45.227" lon="6.02871">
        <ele>1927.4489746094</ele>
        <time>2017-03-31T07:24:55Z</time>
      </trkpt>
      <trkpt lat="45.22697" lon="6.02876">
        <ele>1923.4489746094</ele>
        <time>2017-03-31T07:25:02Z</time>
      </trkpt>
      <trkpt lat="45.22692" lon="6.02879">
        <ele>1928.4489746094</ele>
        <time>2017-03-31T07:25:07Z</time>
      </trkpt>
      <trkpt lat="45.22686" lon="6.0288">
        <ele>1932.4489746094</ele>
        <time>2017-03-31T07:25:13Z</time>
      </trkpt>
      <trkpt lat="45.22681" lon="6.02882">
        <ele>1931.4489746094</ele>
        <time>2017-03-31T07:25:16Z</time>
      </trkpt>
      <trkpt lat="45.22676" lon="6.02878">
        <ele>1933.4489746094</ele>
        <time>2017-03-31T07:25:23Z</time>
      </trkpt>
      <trkpt lat="45.22671" lon="6.02876">
        <ele>1932.4489746094</ele>
        <time>2017-03-31T07:25:29Z</time>
      </trkpt>
      <trkpt lat="45.22666" lon="6.02873">
        <ele>1934.4489746094</ele>
        <time>2017-03-31T07:25:34Z</time>
      </trkpt>
      <trkpt lat="45.22661" lon="6.02869">
        <ele>1937.4489746094</ele>
        <time>2017-03-31T07:25:39Z</time>
      </trkpt>
      <trkpt lat="45.22656" lon="6.02871">
        <ele>1935.4489746094</ele>
        <time>2017-03-31T07:25:43Z</time>
      </trkpt>
      <trkpt lat="45.22652" lon="6.0287">
        <ele>1934.4489746094</ele>
        <time>2017-03-31T07:25:47Z</time>
      </trkpt>
      <trkpt lat="45.22647" lon="6.0287">
        <ele>1934.4489746094</ele>
        <time>2017-03-31T07:25:51Z</time>
      </trkpt>
      <trkpt lat="45.22643" lon="6.02874">
        <ele>1932.4489746094</ele>
        <time>2017-03-31T07:25:56Z</time>
      </trkpt>
      <trkpt lat="45.22638" lon="6.02878">
        <ele>1930.4489746094</ele>
        <time>2017-03-31T07:25:59Z</time>
      </trkpt>
      <trkpt lat="45.22636" lon="6.02885">
        <ele>1931.4489746094</ele>
        <time>2017-03-31T07:26:07Z</time>
      </trkpt>
      <trkpt lat="45.22632" lon="6.02887">
        <ele>1931.4489746094</ele>
        <time>2017-03-31T07:26:11Z</time>
      </trkpt>
      <trkpt lat="45.22628" lon="6.02891">
        <ele>1935.4489746094</ele>
        <time>2017-03-31T07:26:14Z</time>
      </trkpt>
      <trkpt lat="45.22625" lon="6.02897">
        <ele>1939.4489746094</ele>
        <time>2017-03-31T07:26:20Z</time>
      </trkpt>
      <trkpt lat="45.22621" lon="6.02901">
        <ele>1942.4489746094</ele>
        <time>2017-03-31T07:26:29Z</time>
      </trkpt>
      <trkpt lat="45.22616" lon="6.02905">
        <ele>1944.4489746094</ele>
        <time>2017-03-31T07:26:37Z</time>
      </trkpt>
      <trkpt lat="45.22621" lon="6.02903">
        <ele>1943.4489746094</ele>
        <time>2017-03-31T07:26:48Z</time>
      </trkpt>
      <trkpt lat="45.22615" lon="6.02907">
        <ele>1952.4489746094</ele>
        <time>2017-03-31T07:28:16Z</time>
      </trkpt>
      <trkpt lat="45.22611" lon="6.02911">
        <ele>1951.4489746094</ele>
        <time>2017-03-31T07:28:21Z</time>
      </trkpt>
      <trkpt lat="45.22609" lon="6.02916">
        <ele>1950.4489746094</ele>
        <time>2017-03-31T07:28:23Z</time>
      </trkpt>
      <trkpt lat="45.22605" lon="6.0292">
        <ele>1950.4489746094</ele>
        <time>2017-03-31T07:28:28Z</time>
      </trkpt>
      <trkpt lat="45.22599" lon="6.02922">
        <ele>1952.4489746094</ele>
        <time>2017-03-31T07:28:33Z</time>
      </trkpt>
      <trkpt lat="45.22593" lon="6.02927">
        <ele>1954.4489746094</ele>
        <time>2017-03-31T07:28:40Z</time>
      </trkpt>
      <trkpt lat="45.22589" lon="6.0293">
        <ele>1954.4489746094</ele>
        <time>2017-03-31T07:28:45Z</time>
      </trkpt>
      <trkpt lat="45.22586" lon="6.02941">
        <ele>1958.4489746094</ele>
        <time>2017-03-31T07:28:59Z</time>
      </trkpt>
      <trkpt lat="45.22583" lon="6.02946">
        <ele>1960.4489746094</ele>
        <time>2017-03-31T07:29:04Z</time>
      </trkpt>
      <trkpt lat="45.22579" lon="6.02955">
        <ele>1960.4489746094</ele>
        <time>2017-03-31T07:29:06Z</time>
      </trkpt>
      <trkpt lat="45.22572" lon="6.02969">
        <ele>1960.4489746094</ele>
        <time>2017-03-31T07:29:22Z</time>
      </trkpt>
      <trkpt lat="45.22578" lon="6.02972">
        <ele>1965.4489746094</ele>
        <time>2017-03-31T07:29:29Z</time>
      </trkpt>
      <trkpt lat="45.22582" lon="6.02977">
        <ele>1965.4489746094</ele>
        <time>2017-03-31T07:29:35Z</time>
      </trkpt>
      <trkpt lat="45.22583" lon="6.02983">
        <ele>1973.4489746094</ele>
        <time>2017-03-31T07:29:48Z</time>
      </trkpt>
      <trkpt lat="45.22587" lon="6.02987">
        <ele>1974.4489746094</ele>
        <time>2017-03-31T07:29:54Z</time>
      </trkpt>
      <trkpt lat="45.22589" lon="6.02994">
        <ele>1977.4489746094</ele>
        <time>2017-03-31T07:30:08Z</time>
      </trkpt>
      <trkpt lat="45.22586" lon="6.03001">
        <ele>1978.4489746094</ele>
        <time>2017-03-31T07:30:11Z</time>
      </trkpt>
      <trkpt lat="45.22591" lon="6.03005">
        <ele>1980.4489746094</ele>
        <time>2017-03-31T07:30:17Z</time>
      </trkpt>
      <trkpt lat="45.22595" lon="6.03009">
        <ele>1978.4489746094</ele>
        <time>2017-03-31T07:30:22Z</time>
      </trkpt>
      <trkpt lat="45.226" lon="6.0301">
        <ele>1982.4489746094</ele>
        <time>2017-03-31T07:30:27Z</time>
      </trkpt>
      <trkpt lat="45.22605" lon="6.03013">
        <ele>1985.4489746094</ele>
        <time>2017-03-31T07:30:33Z</time>
      </trkpt>
      <trkpt lat="45.22612" lon="6.03012">
        <ele>1987.4489746094</ele>
        <time>2017-03-31T07:30:39Z</time>
      </trkpt>
      <trkpt lat="45.22617" lon="6.03011">
        <ele>1990.4489746094</ele>
        <time>2017-03-31T07:30:41Z</time>
      </trkpt>
      <trkpt lat="45.22622" lon="6.0301">
        <ele>1993.4489746094</ele>
        <time>2017-03-31T07:30:44Z</time>
      </trkpt>
      <trkpt lat="45.22627" lon="6.03011">
        <ele>1996.4489746094</ele>
        <time>2017-03-31T07:30:48Z</time>
      </trkpt>
      <trkpt lat="45.22632" lon="6.03014">
        <ele>1999.4489746094</ele>
        <time>2017-03-31T07:30:55Z</time>
      </trkpt>
      <trkpt lat="45.22637" lon="6.03016">
        <ele>2001.4489746094</ele>
        <time>2017-03-31T07:31:00Z</time>
      </trkpt>
      <trkpt lat="45.22641" lon="6.03019">
        <ele>2004.4489746094</ele>
        <time>2017-03-31T07:31:07Z</time>
      </trkpt>
      <trkpt lat="45.22643" lon="6.03024">
        <ele>2005.4489746094</ele>
        <time>2017-03-31T07:31:14Z</time>
      </trkpt>
      <trkpt lat="45.22645" lon="6.0303">
        <ele>2005.4489746094</ele>
        <time>2017-03-31T07:31:21Z</time>
      </trkpt>
      <trkpt lat="45.22649" lon="6.03033">
        <ele>2005.4499511719</ele>
        <time>2017-03-31T07:31:27Z</time>
      </trkpt>
      <trkpt lat="45.22654" lon="6.03034">
        <ele>2007.4499511719</ele>
        <time>2017-03-31T07:31:32Z</time>
      </trkpt>
      <trkpt lat="45.22658" lon="6.03037">
        <ele>2007.4499511719</ele>
        <time>2017-03-31T07:31:39Z</time>
      </trkpt>
      <trkpt lat="45.22665" lon="6.03035">
        <ele>2011.4499511719</ele>
        <time>2017-03-31T07:31:51Z</time>
      </trkpt>
      <trkpt lat="45.22671" lon="6.03035">
        <ele>2007.4499511719</ele>
        <time>2017-03-31T07:32:01Z</time>
      </trkpt>
      <trkpt lat="45.22668" lon="6.0304">
        <ele>2007.4499511719</ele>
        <time>2017-03-31T07:32:04Z</time>
      </trkpt>
      <trkpt lat="45.22674" lon="6.03042">
        <ele>2008.4499511719</ele>
        <time>2017-03-31T07:32:10Z</time>
      </trkpt>
      <trkpt lat="45.22678" lon="6.03041">
        <ele>2009.4499511719</ele>
        <time>2017-03-31T07:32:12Z</time>
      </trkpt>
      <trkpt lat="45.22682" lon="6.03038">
        <ele>2013.4499511719</ele>
        <time>2017-03-31T07:32:20Z</time>
      </trkpt>
      <trkpt lat="45.22684" lon="6.03046">
        <ele>2015.4499511719</ele>
        <time>2017-03-31T07:32:27Z</time>
      </trkpt>
      <trkpt lat="45.22688" lon="6.0305">
        <ele>2019.4499511719</ele>
        <time>2017-03-31T07:32:47Z</time>
      </trkpt>
      <trkpt lat="45.2269" lon="6.03056">
        <ele>2021.4499511719</ele>
        <time>2017-03-31T07:32:53Z</time>
      </trkpt>
      <trkpt lat="45.22695" lon="6.03062">
        <ele>2024.4499511719</ele>
        <time>2017-03-31T07:32:59Z</time>
      </trkpt>
      <trkpt lat="45.227" lon="6.03063">
        <ele>2029.4499511719</ele>
        <time>2017-03-31T07:33:14Z</time>
      </trkpt>
      <trkpt lat="45.227" lon="6.0307">
        <ele>2027.4499511719</ele>
        <time>2017-03-31T07:33:24Z</time>
      </trkpt>
      <trkpt lat="45.22701" lon="6.03076">
        <ele>2026.4499511719</ele>
        <time>2017-03-31T07:33:26Z</time>
      </trkpt>
      <trkpt lat="45.227" lon="6.03084">
        <ele>2030.4499511719</ele>
        <time>2017-03-31T07:33:33Z</time>
      </trkpt>
      <trkpt lat="45.227" lon="6.03091">
        <ele>2034.4499511719</ele>
        <time>2017-03-31T07:33:39Z</time>
      </trkpt>
      <trkpt lat="45.22698" lon="6.03101">
        <ele>2034.4499511719</ele>
        <time>2017-03-31T07:33:44Z</time>
      </trkpt>
      <trkpt lat="45.22702" lon="6.03106">
        <ele>2033.4499511719</ele>
        <time>2017-03-31T07:33:50Z</time>
      </trkpt>
      <trkpt lat="45.22706" lon="6.0311">
        <ele>2032.4499511719</ele>
        <time>2017-03-31T07:33:56Z</time>
      </trkpt>
      <trkpt lat="45.22708" lon="6.03116">
        <ele>2032.4499511719</ele>
        <time>2017-03-31T07:34:03Z</time>
      </trkpt>
      <trkpt lat="45.22713" lon="6.03118">
        <ele>2032.4499511719</ele>
        <time>2017-03-31T07:34:06Z</time>
      </trkpt>
      <trkpt lat="45.22714" lon="6.03124">
        <ele>2037.4499511719</ele>
        <time>2017-03-31T07:34:11Z</time>
      </trkpt>
      <trkpt lat="45.22718" lon="6.0313">
        <ele>2038.4499511719</ele>
        <time>2017-03-31T07:34:18Z</time>
      </trkpt>
      <trkpt lat="45.22719" lon="6.03137">
        <ele>2038.4499511719</ele>
        <time>2017-03-31T07:34:21Z</time>
      </trkpt>
      <trkpt lat="45.22721" lon="6.03144">
        <ele>2037.4499511719</ele>
        <time>2017-03-31T07:34:26Z</time>
      </trkpt>
      <trkpt lat="45.22723" lon="6.03149">
        <ele>2038.4499511719</ele>
        <time>2017-03-31T07:34:32Z</time>
      </trkpt>
      <trkpt lat="45.22724" lon="6.03156">
        <ele>2035.4499511719</ele>
        <time>2017-03-31T07:34:37Z</time>
      </trkpt>
      <trkpt lat="45.22726" lon="6.03162">
        <ele>2035.4499511719</ele>
        <time>2017-03-31T07:34:42Z</time>
      </trkpt>
      <trkpt lat="45.22728" lon="6.03168">
        <ele>2035.4499511719</ele>
        <time>2017-03-31T07:34:47Z</time>
      </trkpt>
      <trkpt lat="45.2273" lon="6.03175">
        <ele>2033.4499511719</ele>
        <time>2017-03-31T07:34:50Z</time>
      </trkpt>
      <trkpt lat="45.22728" lon="6.03182">
        <ele>2036.4499511719</ele>
        <time>2017-03-31T07:34:54Z</time>
      </trkpt>
      <trkpt lat="45.22733" lon="6.03184">
        <ele>2044.4499511719</ele>
        <time>2017-03-31T07:35:02Z</time>
      </trkpt>
      <trkpt lat="45.22738" lon="6.03187">
        <ele>2045.4499511719</ele>
        <time>2017-03-31T07:35:07Z</time>
      </trkpt>
      <trkpt lat="45.22742" lon="6.03189">
        <ele>2045.4499511719</ele>
        <time>2017-03-31T07:35:18Z</time>
      </trkpt>
      <trkpt lat="45.22749" lon="6.03189">
        <ele>2045.4499511719</ele>
        <time>2017-03-31T07:35:26Z</time>
      </trkpt>
      <trkpt lat="45.22752" lon="6.03195">
        <ele>2053.4499511719</ele>
        <time>2017-03-31T07:35:34Z</time>
      </trkpt>
      <trkpt lat="45.22754" lon="6.03201">
        <ele>2056.4499511719</ele>
        <time>2017-03-31T07:35:40Z</time>
      </trkpt>
      <trkpt lat="45.22755" lon="6.03209">
        <ele>2054.4499511719</ele>
        <time>2017-03-31T07:35:44Z</time>
      </trkpt>
      <trkpt lat="45.22753" lon="6.03217">
        <ele>2059.4499511719</ele>
        <time>2017-03-31T07:35:55Z</time>
      </trkpt>
      <trkpt lat="45.22751" lon="6.03224">
        <ele>2060.4499511719</ele>
        <time>2017-03-31T07:36:00Z</time>
      </trkpt>
      <trkpt lat="45.22749" lon="6.0323">
        <ele>2061.4499511719</ele>
        <time>2017-03-31T07:36:12Z</time>
      </trkpt>
      <trkpt lat="45.22746" lon="6.03236">
        <ele>2060.4499511719</ele>
        <time>2017-03-31T07:36:19Z</time>
      </trkpt>
      <trkpt lat="45.2275" lon="6.03238">
        <ele>2063.4499511719</ele>
        <time>2017-03-31T07:36:26Z</time>
      </trkpt>
      <trkpt lat="45.22754" lon="6.03242">
        <ele>2062.4499511719</ele>
        <time>2017-03-31T07:36:31Z</time>
      </trkpt>
      <trkpt lat="45.22758" lon="6.03244">
        <ele>2065.4499511719</ele>
        <time>2017-03-31T07:36:39Z</time>
      </trkpt>
      <trkpt lat="45.22763" lon="6.03247">
        <ele>2067.4499511719</ele>
        <time>2017-03-31T07:36:49Z</time>
      </trkpt>
      <trkpt lat="45.22767" lon="6.03247">
        <ele>2066.4499511719</ele>
        <time>2017-03-31T07:36:55Z</time>
      </trkpt>
      <trkpt lat="45.22772" lon="6.03248">
        <ele>2068.4499511719</ele>
        <time>2017-03-31T07:36:59Z</time>
      </trkpt>
      <trkpt lat="45.22778" lon="6.03248">
        <ele>2066.4499511719</ele>
        <time>2017-03-31T07:37:05Z</time>
      </trkpt>
      <trkpt lat="45.22781" lon="6.03244">
        <ele>2071.4499511719</ele>
        <time>2017-03-31T07:37:13Z</time>
      </trkpt>
      <trkpt lat="45.22783" lon="6.03254">
        <ele>2071.4499511719</ele>
        <time>2017-03-31T07:37:23Z</time>
      </trkpt>
      <trkpt lat="45.22782" lon="6.0326">
        <ele>2074.4499511719</ele>
        <time>2017-03-31T07:37:27Z</time>
      </trkpt>
      <trkpt lat="45.22779" lon="6.03266">
        <ele>2078.4499511719</ele>
        <time>2017-03-31T07:37:36Z</time>
      </trkpt>
      <trkpt lat="45.22778" lon="6.03273">
        <ele>2081.4499511719</ele>
        <time>2017-03-31T07:38:08Z</time>
      </trkpt>
      <trkpt lat="45.22783" lon="6.03272">
        <ele>2083.4499511719</ele>
        <time>2017-03-31T07:38:14Z</time>
      </trkpt>
      <trkpt lat="45.22787" lon="6.03271">
        <ele>2086.4499511719</ele>
        <time>2017-03-31T07:38:31Z</time>
      </trkpt>
      <trkpt lat="45.2279" lon="6.03276">
        <ele>2091.4499511719</ele>
        <time>2017-03-31T07:38:58Z</time>
      </trkpt>
      <trkpt lat="45.22794" lon="6.03276">
        <ele>2093.4499511719</ele>
        <time>2017-03-31T07:39:17Z</time>
      </trkpt>
      <trkpt lat="45.22799" lon="6.03273">
        <ele>2096.4499511719</ele>
        <time>2017-03-31T07:39:32Z</time>
      </trkpt>
      <trkpt lat="45.22802" lon="6.03278">
        <ele>2099.4499511719</ele>
        <time>2017-03-31T07:40:07Z</time>
      </trkpt>
      <trkpt lat="45.22805" lon="6.03285">
        <ele>2099.4499511719</ele>
        <time>2017-03-31T07:40:18Z</time>
      </trkpt>
      <trkpt lat="45.2281" lon="6.03285">
        <ele>2103.4499511719</ele>
        <time>2017-03-31T07:40:27Z</time>
      </trkpt>
      <trkpt lat="45.22815" lon="6.03286">
        <ele>2104.4499511719</ele>
        <time>2017-03-31T07:40:34Z</time>
      </trkpt>
      <trkpt lat="45.22819" lon="6.03282">
        <ele>2107.4499511719</ele>
        <time>2017-03-31T07:40:41Z</time>
      </trkpt>
      <trkpt lat="45.22823" lon="6.0328">
        <ele>2109.4499511719</ele>
        <time>2017-03-31T07:41:53Z</time>
      </trkpt>
      <trkpt lat="45.22829" lon="6.0328">
        <ele>2112.4499511719</ele>
        <time>2017-03-31T07:42:36Z</time>
      </trkpt>
      <trkpt lat="45.22829" lon="6.03286">
        <ele>2115.4499511719</ele>
        <time>2017-03-31T07:42:41Z</time>
      </trkpt>
      <trkpt lat="45.22826" lon="6.03291">
        <ele>2118.4499511719</ele>
        <time>2017-03-31T07:42:45Z</time>
      </trkpt>
      <trkpt lat="45.22827" lon="6.03298">
        <ele>2121.4499511719</ele>
        <time>2017-03-31T07:42:50Z</time>
      </trkpt>
      <trkpt lat="45.22826" lon="6.03304">
        <ele>2123.4499511719</ele>
        <time>2017-03-31T07:42:54Z</time>
      </trkpt>
      <trkpt lat="45.22831" lon="6.03301">
        <ele>2123.4499511719</ele>
        <time>2017-03-31T07:43:09Z</time>
      </trkpt>
      <trkpt lat="45.22836" lon="6.03299">
        <ele>2122.4499511719</ele>
        <time>2017-03-31T07:43:19Z</time>
      </trkpt>
      <trkpt lat="45.2284" lon="6.03297">
        <ele>2124.4499511719</ele>
        <time>2017-03-31T07:43:30Z</time>
      </trkpt>
      <trkpt lat="45.22845" lon="6.03298">
        <ele>2125.4499511719</ele>
        <time>2017-03-31T07:43:33Z</time>
      </trkpt>
      <trkpt lat="45.22848" lon="6.03304">
        <ele>2125.4499511719</ele>
        <time>2017-03-31T07:43:44Z</time>
      </trkpt>
      <trkpt lat="45.22853" lon="6.03303">
        <ele>2127.4499511719</ele>
        <time>2017-03-31T07:43:53Z</time>
      </trkpt>
      <trkpt lat="45.22859" lon="6.03305">
        <ele>2130.4499511719</ele>
        <time>2017-03-31T07:44:00Z</time>
      </trkpt>
      <trkpt lat="45.22864" lon="6.03306">
        <ele>2130.4499511719</ele>
        <time>2017-03-31T07:44:04Z</time>
      </trkpt>
      <trkpt lat="45.22869" lon="6.03309">
        <ele>2132.4499511719</ele>
        <time>2017-03-31T07:44:08Z</time>
      </trkpt>
      <trkpt lat="45.22874" lon="6.03311">
        <ele>2133.4499511719</ele>
        <time>2017-03-31T07:44:15Z</time>
      </trkpt>
      <trkpt lat="45.22879" lon="6.03312">
        <ele>2134.4499511719</ele>
        <time>2017-03-31T07:44:19Z</time>
      </trkpt>
      <trkpt lat="45.22885" lon="6.03312">
        <ele>2139.4499511719</ele>
        <time>2017-03-31T07:44:25Z</time>
      </trkpt>
      <trkpt lat="45.22889" lon="6.03314">
        <ele>2144.4499511719</ele>
        <time>2017-03-31T07:44:34Z</time>
      </trkpt>
      <trkpt lat="45.22894" lon="6.03317">
        <ele>2144.4499511719</ele>
        <time>2017-03-31T07:44:39Z</time>
      </trkpt>
      <trkpt lat="45.22898" lon="6.03318">
        <ele>2144.4499511719</ele>
        <time>2017-03-31T07:44:44Z</time>
      </trkpt>
      <trkpt lat="45.22903" lon="6.03316">
        <ele>2145.4499511719</ele>
        <time>2017-03-31T07:44:48Z</time>
      </trkpt>
      <trkpt lat="45.22909" lon="6.03314">
        <ele>2146.4499511719</ele>
        <time>2017-03-31T07:44:53Z</time>
      </trkpt>
      <trkpt lat="45.22913" lon="6.03318">
        <ele>2145.4499511719</ele>
        <time>2017-03-31T07:45:05Z</time>
      </trkpt>
      <trkpt lat="45.22918" lon="6.03319">
        <ele>2147.4499511719</ele>
        <time>2017-03-31T07:45:14Z</time>
      </trkpt>
      <trkpt lat="45.2292" lon="6.03325">
        <ele>2154.4499511719</ele>
        <time>2017-03-31T07:45:28Z</time>
      </trkpt>
      <trkpt lat="45.22925" lon="6.03322">
        <ele>2156.4499511719</ele>
        <time>2017-03-31T07:45:43Z</time>
      </trkpt>
      <trkpt lat="45.22929" lon="6.03326">
        <ele>2162.4499511719</ele>
        <time>2017-03-31T07:45:53Z</time>
      </trkpt>
      <trkpt lat="45.22927" lon="6.03335">
        <ele>2159.4499511719</ele>
        <time>2017-03-31T07:45:58Z</time>
      </trkpt>
      <trkpt lat="45.22928" lon="6.03342">
        <ele>2159.4499511719</ele>
        <time>2017-03-31T07:46:04Z</time>
      </trkpt>
      <trkpt lat="45.22929" lon="6.03349">
        <ele>2160.4499511719</ele>
        <time>2017-03-31T07:46:10Z</time>
      </trkpt>
      <trkpt lat="45.22933" lon="6.03354">
        <ele>2163.4509277344</ele>
        <time>2017-03-31T07:46:21Z</time>
      </trkpt>
      <trkpt lat="45.22938" lon="6.03356">
        <ele>2167.4509277344</ele>
        <time>2017-03-31T07:46:35Z</time>
      </trkpt>
      <trkpt lat="45.22938" lon="6.03364">
        <ele>2172.4509277344</ele>
        <time>2017-03-31T07:46:43Z</time>
      </trkpt>
      <trkpt lat="45.2294" lon="6.03371">
        <ele>2169.4509277344</ele>
        <time>2017-03-31T07:46:48Z</time>
      </trkpt>
      <trkpt lat="45.22941" lon="6.03377">
        <ele>2167.4509277344</ele>
        <time>2017-03-31T07:46:54Z</time>
      </trkpt>
      <trkpt lat="45.22945" lon="6.03382">
        <ele>2171.4509277344</ele>
        <time>2017-03-31T07:47:02Z</time>
      </trkpt>
      <trkpt lat="45.22949" lon="6.03385">
        <ele>2171.4509277344</ele>
        <time>2017-03-31T07:47:06Z</time>
      </trkpt>
      <trkpt lat="45.22952" lon="6.03392">
        <ele>2169.4509277344</ele>
        <time>2017-03-31T07:47:12Z</time>
      </trkpt>
      <trkpt lat="45.22952" lon="6.034">
        <ele>2169.4509277344</ele>
        <time>2017-03-31T07:47:16Z</time>
      </trkpt>
      <trkpt lat="45.22953" lon="6.03407">
        <ele>2174.4509277344</ele>
        <time>2017-03-31T07:47:22Z</time>
      </trkpt>
      <trkpt lat="45.22955" lon="6.03415">
        <ele>2174.4509277344</ele>
        <time>2017-03-31T07:47:29Z</time>
      </trkpt>
      <trkpt lat="45.22958" lon="6.03421">
        <ele>2174.4509277344</ele>
        <time>2017-03-31T07:47:35Z</time>
      </trkpt>
      <trkpt lat="45.22963" lon="6.03423">
        <ele>2179.4509277344</ele>
        <time>2017-03-31T07:47:42Z</time>
      </trkpt>
      <trkpt lat="45.22967" lon="6.03428">
        <ele>2179.4509277344</ele>
        <time>2017-03-31T07:47:46Z</time>
      </trkpt>
      <trkpt lat="45.22971" lon="6.03433">
        <ele>2181.4509277344</ele>
        <time>2017-03-31T07:47:54Z</time>
      </trkpt>
      <trkpt lat="45.22975" lon="6.03438">
        <ele>2180.4509277344</ele>
        <time>2017-03-31T07:48:09Z</time>
      </trkpt>
      <trkpt lat="45.22981" lon="6.03441">
        <ele>2180.4509277344</ele>
        <time>2017-03-31T07:48:14Z</time>
      </trkpt>
      <trkpt lat="45.22986" lon="6.03442">
        <ele>2180.4509277344</ele>
        <time>2017-03-31T07:48:20Z</time>
      </trkpt>
      <trkpt lat="45.22992" lon="6.03445">
        <ele>2181.4509277344</ele>
        <time>2017-03-31T07:48:25Z</time>
      </trkpt>
      <trkpt lat="45.22995" lon="6.03451">
        <ele>2184.4509277344</ele>
        <time>2017-03-31T07:48:30Z</time>
      </trkpt>
      <trkpt lat="45.22999" lon="6.03455">
        <ele>2184.4509277344</ele>
        <time>2017-03-31T07:48:34Z</time>
      </trkpt>
      <trkpt lat="45.23001" lon="6.03463">
        <ele>2184.4509277344</ele>
        <time>2017-03-31T07:48:37Z</time>
      </trkpt>
      <trkpt lat="45.23" lon="6.03469">
        <ele>2185.4509277344</ele>
        <time>2017-03-31T07:48:40Z</time>
      </trkpt>
      <trkpt lat="45.23005" lon="6.03472">
        <ele>2185.4509277344</ele>
        <time>2017-03-31T07:48:48Z</time>
      </trkpt>
      <trkpt lat="45.23005" lon="6.0348">
        <ele>2187.4509277344</ele>
        <time>2017-03-31T07:48:54Z</time>
      </trkpt>
      <trkpt lat="45.23008" lon="6.03484">
        <ele>2186.4509277344</ele>
        <time>2017-03-31T07:48:58Z</time>
      </trkpt>
      <trkpt lat="45.23011" lon="6.0349">
        <ele>2187.4509277344</ele>
        <time>2017-03-31T07:49:03Z</time>
      </trkpt>
      <trkpt lat="45.23014" lon="6.03496">
        <ele>2189.4509277344</ele>
        <time>2017-03-31T07:49:06Z</time>
      </trkpt>
      <trkpt lat="45.23016" lon="6.03503">
        <ele>2193.4509277344</ele>
        <time>2017-03-31T07:49:13Z</time>
      </trkpt>
      <trkpt lat="45.2302" lon="6.03507">
        <ele>2196.4509277344</ele>
        <time>2017-03-31T07:49:19Z</time>
      </trkpt>
      <trkpt lat="45.23022" lon="6.03512">
        <ele>2197.4509277344</ele>
        <time>2017-03-31T07:49:23Z</time>
      </trkpt>
      <trkpt lat="45.23027" lon="6.03515">
        <ele>2196.4509277344</ele>
        <time>2017-03-31T07:49:27Z</time>
      </trkpt>
      <trkpt lat="45.23029" lon="6.03522">
        <ele>2197.4509277344</ele>
        <time>2017-03-31T07:49:34Z</time>
      </trkpt>
      <trkpt lat="45.23028" lon="6.0353">
        <ele>2197.4509277344</ele>
        <time>2017-03-31T07:49:41Z</time>
      </trkpt>
      <trkpt lat="45.23025" lon="6.03537">
        <ele>2199.4509277344</ele>
        <time>2017-03-31T07:49:46Z</time>
      </trkpt>
      <trkpt lat="45.23026" lon="6.03543">
        <ele>2199.4509277344</ele>
        <time>2017-03-31T07:49:51Z</time>
      </trkpt>
      <trkpt lat="45.23024" lon="6.03549">
        <ele>2207.4509277344</ele>
        <time>2017-03-31T07:49:58Z</time>
      </trkpt>
      <trkpt lat="45.23025" lon="6.03556">
        <ele>2209.4509277344</ele>
        <time>2017-03-31T07:50:05Z</time>
      </trkpt>
      <trkpt lat="45.23023" lon="6.03562">
        <ele>2209.4509277344</ele>
        <time>2017-03-31T07:50:12Z</time>
      </trkpt>
      <trkpt lat="45.23028" lon="6.03562">
        <ele>2210.4509277344</ele>
        <time>2017-03-31T07:50:25Z</time>
      </trkpt>
      <trkpt lat="45.23034" lon="6.0356">
        <ele>2213.4509277344</ele>
        <time>2017-03-31T07:50:31Z</time>
      </trkpt>
      <trkpt lat="45.23038" lon="6.03558">
        <ele>2215.4509277344</ele>
        <time>2017-03-31T07:50:37Z</time>
      </trkpt>
      <trkpt lat="45.23041" lon="6.03553">
        <ele>2220.4509277344</ele>
        <time>2017-03-31T07:50:44Z</time>
      </trkpt>
      <trkpt lat="45.23046" lon="6.03551">
        <ele>2219.4509277344</ele>
        <time>2017-03-31T07:50:53Z</time>
      </trkpt>
      <trkpt lat="45.2305" lon="6.03547">
        <ele>2222.4509277344</ele>
        <time>2017-03-31T07:50:58Z</time>
      </trkpt>
      <trkpt lat="45.23055" lon="6.03545">
        <ele>2222.4509277344</ele>
        <time>2017-03-31T07:51:04Z</time>
      </trkpt>
      <trkpt lat="45.23059" lon="6.03541">
        <ele>2222.4509277344</ele>
        <time>2017-03-31T07:51:11Z</time>
      </trkpt>
      <trkpt lat="45.23063" lon="6.03548">
        <ele>2220.4509277344</ele>
        <time>2017-03-31T07:51:31Z</time>
      </trkpt>
      <trkpt lat="45.23063" lon="6.03554">
        <ele>2220.4509277344</ele>
        <time>2017-03-31T07:51:36Z</time>
      </trkpt>
      <trkpt lat="45.23061" lon="6.0356">
        <ele>2223.4509277344</ele>
        <time>2017-03-31T07:51:41Z</time>
      </trkpt>
      <trkpt lat="45.23066" lon="6.03558">
        <ele>2226.4509277344</ele>
        <time>2017-03-31T07:51:52Z</time>
      </trkpt>
      <trkpt lat="45.2307" lon="6.03553">
        <ele>2227.4509277344</ele>
        <time>2017-03-31T07:51:58Z</time>
      </trkpt>
      <trkpt lat="45.23072" lon="6.03548">
        <ele>2229.4509277344</ele>
        <time>2017-03-31T07:52:05Z</time>
      </trkpt>
      <trkpt lat="45.23075" lon="6.03542">
        <ele>2233.4509277344</ele>
        <time>2017-03-31T07:52:16Z</time>
      </trkpt>
      <trkpt lat="45.23079" lon="6.03542">
        <ele>2236.4509277344</ele>
        <time>2017-03-31T07:53:18Z</time>
      </trkpt>
      <trkpt lat="45.23082" lon="6.03537">
        <ele>2241.4509277344</ele>
        <time>2017-03-31T07:53:24Z</time>
      </trkpt>
      <trkpt lat="45.23085" lon="6.03531">
        <ele>2240.4509277344</ele>
        <time>2017-03-31T07:53:32Z</time>
      </trkpt>
      <trkpt lat="45.23087" lon="6.03525">
        <ele>2241.4509277344</ele>
        <time>2017-03-31T07:53:44Z</time>
      </trkpt>
      <trkpt lat="45.23092" lon="6.03526">
        <ele>2239.4509277344</ele>
        <time>2017-03-31T07:54:00Z</time>
      </trkpt>
      <trkpt lat="45.23098" lon="6.03529">
        <ele>2237.4509277344</ele>
        <time>2017-03-31T07:54:06Z</time>
      </trkpt>
      <trkpt lat="45.23099" lon="6.03536">
        <ele>2239.4509277344</ele>
        <time>2017-03-31T07:54:12Z</time>
      </trkpt>
      <trkpt lat="45.23102" lon="6.03541">
        <ele>2242.4509277344</ele>
        <time>2017-03-31T07:54:20Z</time>
      </trkpt>
      <trkpt lat="45.23104" lon="6.03535">
        <ele>2243.4509277344</ele>
        <time>2017-03-31T07:54:27Z</time>
      </trkpt>
      <trkpt lat="45.23105" lon="6.03529">
        <ele>2250.4509277344</ele>
        <time>2017-03-31T07:54:36Z</time>
      </trkpt>
      <trkpt lat="45.23109" lon="6.03527">
        <ele>2249.4509277344</ele>
        <time>2017-03-31T07:54:44Z</time>
      </trkpt>
      <trkpt lat="45.23112" lon="6.03534">
        <ele>2252.4509277344</ele>
        <time>2017-03-31T07:54:50Z</time>
      </trkpt>
      <trkpt lat="45.23116" lon="6.03536">
        <ele>2251.4509277344</ele>
        <time>2017-03-31T07:54:59Z</time>
      </trkpt>
      <trkpt lat="45.23117" lon="6.03529">
        <ele>2255.4509277344</ele>
        <time>2017-03-31T07:55:06Z</time>
      </trkpt>
      <trkpt lat="45.23115" lon="6.03524">
        <ele>2263.4509277344</ele>
        <time>2017-03-31T07:55:14Z</time>
      </trkpt>
      <trkpt lat="45.23116" lon="6.03516">
        <ele>2265.4509277344</ele>
        <time>2017-03-31T07:55:32Z</time>
      </trkpt>
      <trkpt lat="45.2312" lon="6.03518">
        <ele>2269.4509277344</ele>
        <time>2017-03-31T07:55:40Z</time>
      </trkpt>
      <trkpt lat="45.23122" lon="6.03524">
        <ele>2268.4509277344</ele>
        <time>2017-03-31T07:55:51Z</time>
      </trkpt>
      <trkpt lat="45.23127" lon="6.03527">
        <ele>2267.4509277344</ele>
        <time>2017-03-31T07:56:06Z</time>
      </trkpt>
      <trkpt lat="45.2313" lon="6.03532">
        <ele>2269.4509277344</ele>
        <time>2017-03-31T07:56:23Z</time>
      </trkpt>
      <trkpt lat="45.23133" lon="6.03539">
        <ele>2271.4509277344</ele>
        <time>2017-03-31T07:56:33Z</time>
      </trkpt>
      <trkpt lat="45.23135" lon="6.03545">
        <ele>2274.4509277344</ele>
        <time>2017-03-31T07:56:40Z</time>
      </trkpt>
      <trkpt lat="45.23136" lon="6.03553">
        <ele>2276.4509277344</ele>
        <time>2017-03-31T07:56:44Z</time>
      </trkpt>
      <trkpt lat="45.23138" lon="6.03558">
        <ele>2275.4509277344</ele>
        <time>2017-03-31T07:56:49Z</time>
      </trkpt>
      <trkpt lat="45.23142" lon="6.03564">
        <ele>2272.4509277344</ele>
        <time>2017-03-31T07:56:53Z</time>
      </trkpt>
      <trkpt lat="45.23144" lon="6.03571">
        <ele>2274.4509277344</ele>
        <time>2017-03-31T07:56:57Z</time>
      </trkpt>
      <trkpt lat="45.23142" lon="6.03578">
        <ele>2276.4509277344</ele>
        <time>2017-03-31T07:57:01Z</time>
      </trkpt>
      <trkpt lat="45.23142" lon="6.03585">
        <ele>2275.4509277344</ele>
        <time>2017-03-31T07:57:06Z</time>
      </trkpt>
      <trkpt lat="45.23143" lon="6.03592">
        <ele>2275.4509277344</ele>
        <time>2017-03-31T07:57:11Z</time>
      </trkpt>
      <trkpt lat="45.23145" lon="6.03599">
        <ele>2276.4509277344</ele>
        <time>2017-03-31T07:57:15Z</time>
      </trkpt>
      <trkpt lat="45.23146" lon="6.03605">
        <ele>2275.4509277344</ele>
        <time>2017-03-31T07:57:19Z</time>
      </trkpt>
      <trkpt lat="45.2315" lon="6.03611">
        <ele>2277.4509277344</ele>
        <time>2017-03-31T07:57:26Z</time>
      </trkpt>
      <trkpt lat="45.23153" lon="6.03616">
        <ele>2276.4509277344</ele>
        <time>2017-03-31T07:57:30Z</time>
      </trkpt>
      <trkpt lat="45.23157" lon="6.03618">
        <ele>2279.4509277344</ele>
        <time>2017-03-31T07:59:44Z</time>
      </trkpt>
      <trkpt lat="45.23157" lon="6.03624">
        <ele>2281.4509277344</ele>
        <time>2017-03-31T08:02:04Z</time>
      </trkpt>
      <trkpt lat="45.23161" lon="6.03628">
        <ele>2282.4509277344</ele>
        <time>2017-03-31T08:03:47Z</time>
      </trkpt>
      <trkpt lat="45.23156" lon="6.03625">
        <ele>2283.4509277344</ele>
        <time>2017-03-31T08:07:54Z</time>
      </trkpt>
      <trkpt lat="45.23154" lon="6.0362">
        <ele>2286.4509277344</ele>
        <time>2017-03-31T08:09:38Z</time>
      </trkpt>
      <trkpt lat="45.23156" lon="6.03626">
        <ele>2289.4509277344</ele>
        <time>2017-03-31T08:10:16Z</time>
      </trkpt>
      <trkpt lat="45.2316" lon="6.03629">
        <ele>2289.4509277344</ele>
        <time>2017-03-31T08:10:19Z</time>
      </trkpt>
      <trkpt lat="45.23167" lon="6.03632">
        <ele>2289.4509277344</ele>
        <time>2017-03-31T08:10:22Z</time>
      </trkpt>
      <trkpt lat="45.23172" lon="6.03634">
        <ele>2288.4509277344</ele>
        <time>2017-03-31T08:10:24Z</time>
      </trkpt>
      <trkpt lat="45.23177" lon="6.03641">
        <ele>2287.4509277344</ele>
        <time>2017-03-31T08:10:27Z</time>
      </trkpt>
      <trkpt lat="45.23172" lon="6.0365">
        <ele>2285.4509277344</ele>
        <time>2017-03-31T08:10:29Z</time>
      </trkpt>
      <trkpt lat="45.23166" lon="6.03655">
        <ele>2282.4509277344</ele>
        <time>2017-03-31T08:10:32Z</time>
      </trkpt>
      <trkpt lat="45.2316" lon="6.03659">
        <ele>2281.4509277344</ele>
        <time>2017-03-31T08:10:34Z</time>
      </trkpt>
      <trkpt lat="45.23154" lon="6.03661">
        <ele>2278.4509277344</ele>
        <time>2017-03-31T08:10:36Z</time>
      </trkpt>
      <trkpt lat="45.23153" lon="6.03669">
        <ele>2274.4509277344</ele>
        <time>2017-03-31T08:10:38Z</time>
      </trkpt>
      <trkpt lat="45.23158" lon="6.03672">
        <ele>2272.4509277344</ele>
        <time>2017-03-31T08:10:40Z</time>
      </trkpt>
      <trkpt lat="45.23165" lon="6.03679">
        <ele>2270.4509277344</ele>
        <time>2017-03-31T08:10:42Z</time>
      </trkpt>
      <trkpt lat="45.23174" lon="6.03692">
        <ele>2269.4509277344</ele>
        <time>2017-03-31T08:10:45Z</time>
      </trkpt>
      <trkpt lat="45.23179" lon="6.03702">
        <ele>2267.4509277344</ele>
        <time>2017-03-31T08:10:47Z</time>
      </trkpt>
      <trkpt lat="45.23183" lon="6.03714">
        <ele>2265.4519042969</ele>
        <time>2017-03-31T08:10:49Z</time>
      </trkpt>
      <trkpt lat="45.23179" lon="6.0372">
        <ele>2262.4519042969</ele>
        <time>2017-03-31T08:10:51Z</time>
      </trkpt>
      <trkpt lat="45.23171" lon="6.03722">
        <ele>2259.4509277344</ele>
        <time>2017-03-31T08:10:53Z</time>
      </trkpt>
      <trkpt lat="45.23163" lon="6.03724">
        <ele>2257.4509277344</ele>
        <time>2017-03-31T08:10:55Z</time>
      </trkpt>
      <trkpt lat="45.23162" lon="6.03731">
        <ele>2257.4509277344</ele>
        <time>2017-03-31T08:10:57Z</time>
      </trkpt>
      <trkpt lat="45.23163" lon="6.03738">
        <ele>2251.4519042969</ele>
        <time>2017-03-31T08:11:21Z</time>
      </trkpt>
      <trkpt lat="45.23165" lon="6.03747">
        <ele>2250.4519042969</ele>
        <time>2017-03-31T08:11:23Z</time>
      </trkpt>
      <trkpt lat="45.2316" lon="6.03752">
        <ele>2249.4519042969</ele>
        <time>2017-03-31T08:11:24Z</time>
      </trkpt>
      <trkpt lat="45.23158" lon="6.03761">
        <ele>2248.4519042969</ele>
        <time>2017-03-31T08:11:26Z</time>
      </trkpt>
      <trkpt lat="45.23166" lon="6.03768">
        <ele>2248.4519042969</ele>
        <time>2017-03-31T08:11:28Z</time>
      </trkpt>
      <trkpt lat="45.23174" lon="6.03774">
        <ele>2246.4519042969</ele>
        <time>2017-03-31T08:11:29Z</time>
      </trkpt>
      <trkpt lat="45.23183" lon="6.03785">
        <ele>2245.4519042969</ele>
        <time>2017-03-31T08:11:31Z</time>
      </trkpt>
      <trkpt lat="45.23177" lon="6.03805">
        <ele>2242.4519042969</ele>
        <time>2017-03-31T08:11:33Z</time>
      </trkpt>
      <trkpt lat="45.23185" lon="6.03818">
        <ele>2239.4519042969</ele>
        <time>2017-03-31T08:11:35Z</time>
      </trkpt>
      <trkpt lat="45.23195" lon="6.03831">
        <ele>2238.4519042969</ele>
        <time>2017-03-31T08:11:37Z</time>
      </trkpt>
      <trkpt lat="45.23208" lon="6.03843">
        <ele>2235.4519042969</ele>
        <time>2017-03-31T08:11:39Z</time>
      </trkpt>
      <trkpt lat="45.23206" lon="6.03864">
        <ele>2232.4519042969</ele>
        <time>2017-03-31T08:11:42Z</time>
      </trkpt>
      <trkpt lat="45.23213" lon="6.03879">
        <ele>2231.4519042969</ele>
        <time>2017-03-31T08:11:44Z</time>
      </trkpt>
      <trkpt lat="45.23223" lon="6.0389">
        <ele>2227.4519042969</ele>
        <time>2017-03-31T08:11:46Z</time>
      </trkpt>
      <trkpt lat="45.23234" lon="6.03903">
        <ele>2223.4519042969</ele>
        <time>2017-03-31T08:11:48Z</time>
      </trkpt>
      <trkpt lat="45.23238" lon="6.0391">
        <ele>2220.4519042969</ele>
        <time>2017-03-31T08:11:49Z</time>
      </trkpt>
      <trkpt lat="45.23247" lon="6.03925">
        <ele>2216.4519042969</ele>
        <time>2017-03-31T08:11:51Z</time>
      </trkpt>
      <trkpt lat="45.2325" lon="6.0394">
        <ele>2214.4519042969</ele>
        <time>2017-03-31T08:11:53Z</time>
      </trkpt>
      <trkpt lat="45.23237" lon="6.03947">
        <ele>2212.4519042969</ele>
        <time>2017-03-31T08:11:55Z</time>
      </trkpt>
      <trkpt lat="45.2323" lon="6.03961">
        <ele>2209.4519042969</ele>
        <time>2017-03-31T08:11:57Z</time>
      </trkpt>
      <trkpt lat="45.23236" lon="6.03966">
        <ele>2209.4519042969</ele>
        <time>2017-03-31T08:11:58Z</time>
      </trkpt>
      <trkpt lat="45.23239" lon="6.03971">
        <ele>2204.4519042969</ele>
        <time>2017-03-31T08:12:02Z</time>
      </trkpt>
      <trkpt lat="45.23237" lon="6.03979">
        <ele>2199.4519042969</ele>
        <time>2017-03-31T08:12:43Z</time>
      </trkpt>
      <trkpt lat="45.23235" lon="6.03986">
        <ele>2196.4519042969</ele>
        <time>2017-03-31T08:12:45Z</time>
      </trkpt>
      <trkpt lat="45.2323" lon="6.03991">
        <ele>2195.4519042969</ele>
        <time>2017-03-31T08:12:46Z</time>
      </trkpt>
      <trkpt lat="45.2322" lon="6.03993">
        <ele>2191.4519042969</ele>
        <time>2017-03-31T08:12:48Z</time>
      </trkpt>
      <trkpt lat="45.23215" lon="6.04005">
        <ele>2187.4519042969</ele>
        <time>2017-03-31T08:12:50Z</time>
      </trkpt>
      <trkpt lat="45.23208" lon="6.04022">
        <ele>2184.4519042969</ele>
        <time>2017-03-31T08:12:53Z</time>
      </trkpt>
      <trkpt lat="45.23195" lon="6.04031">
        <ele>2182.4519042969</ele>
        <time>2017-03-31T08:12:55Z</time>
      </trkpt>
      <trkpt lat="45.23194" lon="6.04039">
        <ele>2179.4519042969</ele>
        <time>2017-03-31T08:12:56Z</time>
      </trkpt>
      <trkpt lat="45.23192" lon="6.04058">
        <ele>2177.4519042969</ele>
        <time>2017-03-31T08:12:58Z</time>
      </trkpt>
      <trkpt lat="45.2318" lon="6.04063">
        <ele>2175.4519042969</ele>
        <time>2017-03-31T08:13:00Z</time>
      </trkpt>
      <trkpt lat="45.23166" lon="6.04065">
        <ele>2170.4519042969</ele>
        <time>2017-03-31T08:13:02Z</time>
      </trkpt>
      <trkpt lat="45.23161" lon="6.04065">
        <ele>2166.4519042969</ele>
        <time>2017-03-31T08:13:03Z</time>
      </trkpt>
      <trkpt lat="45.23155" lon="6.04079">
        <ele>2166.4519042969</ele>
        <time>2017-03-31T08:13:05Z</time>
      </trkpt>
      <trkpt lat="45.2315" lon="6.04091">
        <ele>2161.4519042969</ele>
        <time>2017-03-31T08:13:07Z</time>
      </trkpt>
      <trkpt lat="45.23141" lon="6.04095">
        <ele>2160.4519042969</ele>
        <time>2017-03-31T08:13:08Z</time>
      </trkpt>
      <trkpt lat="45.23132" lon="6.04105">
        <ele>2158.4519042969</ele>
        <time>2017-03-31T08:13:10Z</time>
      </trkpt>
      <trkpt lat="45.2313" lon="6.04115">
        <ele>2156.4519042969</ele>
        <time>2017-03-31T08:13:11Z</time>
      </trkpt>
      <trkpt lat="45.23122" lon="6.0413">
        <ele>2152.4519042969</ele>
        <time>2017-03-31T08:13:13Z</time>
      </trkpt>
      <trkpt lat="45.23113" lon="6.04146">
        <ele>2148.4519042969</ele>
        <time>2017-03-31T08:13:15Z</time>
      </trkpt>
      <trkpt lat="45.23102" lon="6.04155">
        <ele>2145.4519042969</ele>
        <time>2017-03-31T08:13:17Z</time>
      </trkpt>
      <trkpt lat="45.23092" lon="6.04161">
        <ele>2143.4519042969</ele>
        <time>2017-03-31T08:13:20Z</time>
      </trkpt>
      <trkpt lat="45.23084" lon="6.04162">
        <ele>2142.4519042969</ele>
        <time>2017-03-31T08:13:23Z</time>
      </trkpt>
      <trkpt lat="45.23081" lon="6.04168">
        <ele>2141.4519042969</ele>
        <time>2017-03-31T08:16:36Z</time>
      </trkpt>
      <trkpt lat="45.23085" lon="6.04172">
        <ele>2133.4519042969</ele>
        <time>2017-03-31T08:27:08Z</time>
      </trkpt>
      <trkpt lat="45.23086" lon="6.0418">
        <ele>2135.4519042969</ele>
        <time>2017-03-31T08:27:13Z</time>
      </trkpt>
      <trkpt lat="45.23084" lon="6.04188">
        <ele>2137.4519042969</ele>
        <time>2017-03-31T08:27:17Z</time>
      </trkpt>
      <trkpt lat="45.23082" lon="6.04194">
        <ele>2140.4519042969</ele>
        <time>2017-03-31T08:27:21Z</time>
      </trkpt>
      <trkpt lat="45.23078" lon="6.04201">
        <ele>2139.4519042969</ele>
        <time>2017-03-31T08:27:25Z</time>
      </trkpt>
      <trkpt lat="45.23076" lon="6.04208">
        <ele>2141.4519042969</ele>
        <time>2017-03-31T08:27:30Z</time>
      </trkpt>
      <trkpt lat="45.23073" lon="6.04214">
        <ele>2146.4519042969</ele>
        <time>2017-03-31T08:27:36Z</time>
      </trkpt>
      <trkpt lat="45.23069" lon="6.0422">
        <ele>2152.4519042969</ele>
        <time>2017-03-31T08:27:42Z</time>
      </trkpt>
      <trkpt lat="45.23069" lon="6.04226">
        <ele>2154.4519042969</ele>
        <time>2017-03-31T08:27:48Z</time>
      </trkpt>
      <trkpt lat="45.23068" lon="6.04233">
        <ele>2155.4519042969</ele>
        <time>2017-03-31T08:27:53Z</time>
      </trkpt>
      <trkpt lat="45.23065" lon="6.0424">
        <ele>2159.4519042969</ele>
        <time>2017-03-31T08:28:00Z</time>
      </trkpt>
      <trkpt lat="45.23064" lon="6.04246">
        <ele>2157.4519042969</ele>
        <time>2017-03-31T08:28:08Z</time>
      </trkpt>
      <trkpt lat="45.23062" lon="6.04253">
        <ele>2158.4519042969</ele>
        <time>2017-03-31T08:28:14Z</time>
      </trkpt>
      <trkpt lat="45.23058" lon="6.04258">
        <ele>2163.4519042969</ele>
        <time>2017-03-31T08:28:21Z</time>
      </trkpt>
      <trkpt lat="45.23053" lon="6.04263">
        <ele>2164.4519042969</ele>
        <time>2017-03-31T08:28:30Z</time>
      </trkpt>
      <trkpt lat="45.23052" lon="6.0427">
        <ele>2166.4519042969</ele>
        <time>2017-03-31T08:28:36Z</time>
      </trkpt>
      <trkpt lat="45.23053" lon="6.04276">
        <ele>2168.4519042969</ele>
        <time>2017-03-31T08:28:41Z</time>
      </trkpt>
      <trkpt lat="45.23049" lon="6.04281">
        <ele>2171.4519042969</ele>
        <time>2017-03-31T08:28:47Z</time>
      </trkpt>
      <trkpt lat="45.23048" lon="6.04287">
        <ele>2171.4519042969</ele>
        <time>2017-03-31T08:28:53Z</time>
      </trkpt>
      <trkpt lat="45.23044" lon="6.04292">
        <ele>2177.4519042969</ele>
        <time>2017-03-31T08:28:59Z</time>
      </trkpt>
      <trkpt lat="45.23041" lon="6.04299">
        <ele>2177.4519042969</ele>
        <time>2017-03-31T08:29:05Z</time>
      </trkpt>
      <trkpt lat="45.23042" lon="6.04306">
        <ele>2180.4519042969</ele>
        <time>2017-03-31T08:29:22Z</time>
      </trkpt>
      <trkpt lat="45.23038" lon="6.04311">
        <ele>2182.4519042969</ele>
        <time>2017-03-31T08:29:26Z</time>
      </trkpt>
      <trkpt lat="45.23033" lon="6.04319">
        <ele>2183.4519042969</ele>
        <time>2017-03-31T08:29:33Z</time>
      </trkpt>
      <trkpt lat="45.23031" lon="6.04324">
        <ele>2183.4519042969</ele>
        <time>2017-03-31T08:29:36Z</time>
      </trkpt>
      <trkpt lat="45.23028" lon="6.04329">
        <ele>2181.4519042969</ele>
        <time>2017-03-31T08:29:39Z</time>
      </trkpt>
      <trkpt lat="45.23029" lon="6.04328">
        <ele>2180.4519042969</ele>
        <time>2017-03-31T08:29:41Z</time>
      </trkpt>
      <trkpt lat="45.23029" lon="6.04335">
        <ele>2183.4519042969</ele>
        <time>2017-03-31T08:29:52Z</time>
      </trkpt>
      <trkpt lat="45.23032" lon="6.0434">
        <ele>2182.4519042969</ele>
        <time>2017-03-31T08:29:59Z</time>
      </trkpt>
      <trkpt lat="45.23038" lon="6.0434">
        <ele>2181.4519042969</ele>
        <time>2017-03-31T08:30:03Z</time>
      </trkpt>
      <trkpt lat="45.23043" lon="6.04341">
        <ele>2183.4519042969</ele>
        <time>2017-03-31T08:30:10Z</time>
      </trkpt>
      <trkpt lat="45.23048" lon="6.04343">
        <ele>2184.4519042969</ele>
        <time>2017-03-31T08:30:14Z</time>
      </trkpt>
      <trkpt lat="45.23052" lon="6.04342">
        <ele>2182.4519042969</ele>
        <time>2017-03-31T08:30:18Z</time>
      </trkpt>
      <trkpt lat="45.23057" lon="6.04344">
        <ele>2181.4519042969</ele>
        <time>2017-03-31T08:30:27Z</time>
      </trkpt>
      <trkpt lat="45.23062" lon="6.04345">
        <ele>2184.4519042969</ele>
        <time>2017-03-31T08:30:32Z</time>
      </trkpt>
      <trkpt lat="45.23067" lon="6.04344">
        <ele>2185.4519042969</ele>
        <time>2017-03-31T08:30:37Z</time>
      </trkpt>
      <trkpt lat="45.23072" lon="6.04347">
        <ele>2186.4519042969</ele>
        <time>2017-03-31T08:30:43Z</time>
      </trkpt>
      <trkpt lat="45.23072" lon="6.04355">
        <ele>2198.4519042969</ele>
        <time>2017-03-31T08:31:05Z</time>
      </trkpt>
      <trkpt lat="45.23068" lon="6.0436">
        <ele>2201.4519042969</ele>
        <time>2017-03-31T08:31:09Z</time>
      </trkpt>
      <trkpt lat="45.23065" lon="6.04365">
        <ele>2201.4519042969</ele>
        <time>2017-03-31T08:31:32Z</time>
      </trkpt>
      <trkpt lat="45.23063" lon="6.04371">
        <ele>2205.4519042969</ele>
        <time>2017-03-31T08:31:37Z</time>
      </trkpt>
      <trkpt lat="45.23062" lon="6.04378">
        <ele>2205.4519042969</ele>
        <time>2017-03-31T08:31:43Z</time>
      </trkpt>
      <trkpt lat="45.23059" lon="6.04385">
        <ele>2209.4519042969</ele>
        <time>2017-03-31T08:31:53Z</time>
      </trkpt>
      <trkpt lat="45.23057" lon="6.04391">
        <ele>2210.4519042969</ele>
        <time>2017-03-31T08:31:58Z</time>
      </trkpt>
      <trkpt lat="45.23054" lon="6.04395">
        <ele>2212.4519042969</ele>
        <time>2017-03-31T08:32:03Z</time>
      </trkpt>
      <trkpt lat="45.23059" lon="6.04396">
        <ele>2212.4519042969</ele>
        <time>2017-03-31T08:32:09Z</time>
      </trkpt>
      <trkpt lat="45.23064" lon="6.04396">
        <ele>2212.4519042969</ele>
        <time>2017-03-31T08:32:14Z</time>
      </trkpt>
      <trkpt lat="45.23069" lon="6.04398">
        <ele>2211.4519042969</ele>
        <time>2017-03-31T08:32:19Z</time>
      </trkpt>
      <trkpt lat="45.23073" lon="6.044">
        <ele>2213.4519042969</ele>
        <time>2017-03-31T08:32:26Z</time>
      </trkpt>
      <trkpt lat="45.23073" lon="6.04407">
        <ele>2219.4519042969</ele>
        <time>2017-03-31T08:32:42Z</time>
      </trkpt>
      <trkpt lat="45.23069" lon="6.04412">
        <ele>2224.4519042969</ele>
        <time>2017-03-31T08:32:54Z</time>
      </trkpt>
      <trkpt lat="45.23074" lon="6.04412">
        <ele>2225.4519042969</ele>
        <time>2017-03-31T08:33:01Z</time>
      </trkpt>
      <trkpt lat="45.23079" lon="6.04415">
        <ele>2229.4519042969</ele>
        <time>2017-03-31T08:33:10Z</time>
      </trkpt>
      <trkpt lat="45.23082" lon="6.0442">
        <ele>2229.4519042969</ele>
        <time>2017-03-31T08:33:16Z</time>
      </trkpt>
      <trkpt lat="45.2308" lon="6.04427">
        <ele>2230.4519042969</ele>
        <time>2017-03-31T08:33:38Z</time>
      </trkpt>
      <trkpt lat="45.23083" lon="6.04432">
        <ele>2236.4519042969</ele>
        <time>2017-03-31T08:33:48Z</time>
      </trkpt>
      <trkpt lat="45.23079" lon="6.04437">
        <ele>2239.4519042969</ele>
        <time>2017-03-31T08:33:57Z</time>
      </trkpt>
      <trkpt lat="45.23085" lon="6.04438">
        <ele>2240.4519042969</ele>
        <time>2017-03-31T08:34:05Z</time>
      </trkpt>
      <trkpt lat="45.23085" lon="6.04444">
        <ele>2240.4519042969</ele>
        <time>2017-03-31T08:34:19Z</time>
      </trkpt>
      <trkpt lat="45.23081" lon="6.0445">
        <ele>2242.4519042969</ele>
        <time>2017-03-31T08:34:24Z</time>
      </trkpt>
      <trkpt lat="45.23087" lon="6.0445">
        <ele>2244.4519042969</ele>
        <time>2017-03-31T08:34:33Z</time>
      </trkpt>
      <trkpt lat="45.23088" lon="6.04456">
        <ele>2248.4519042969</ele>
        <time>2017-03-31T08:34:46Z</time>
      </trkpt>
      <trkpt lat="45.23089" lon="6.04463">
        <ele>2249.4519042969</ele>
        <time>2017-03-31T08:34:56Z</time>
      </trkpt>
      <trkpt lat="45.23092" lon="6.04469">
        <ele>2248.4519042969</ele>
        <time>2017-03-31T08:35:18Z</time>
      </trkpt>
      <trkpt lat="45.23097" lon="6.04468">
        <ele>2251.4519042969</ele>
        <time>2017-03-31T08:35:40Z</time>
      </trkpt>
      <trkpt lat="45.23094" lon="6.04473">
        <ele>2254.4519042969</ele>
        <time>2017-03-31T08:35:46Z</time>
      </trkpt>
      <trkpt lat="45.23098" lon="6.04473">
        <ele>2258.4519042969</ele>
        <time>2017-03-31T08:35:55Z</time>
      </trkpt>
      <trkpt lat="45.23097" lon="6.0448">
        <ele>2260.4519042969</ele>
        <time>2017-03-31T08:36:17Z</time>
      </trkpt>
      <trkpt lat="45.23098" lon="6.04487">
        <ele>2260.4519042969</ele>
        <time>2017-03-31T08:38:12Z</time>
      </trkpt>
      <trkpt lat="45.23098" lon="6.04493">
        <ele>2263.4519042969</ele>
        <time>2017-03-31T08:38:23Z</time>
      </trkpt>
      <trkpt lat="45.23104" lon="6.04496">
        <ele>2265.4519042969</ele>
        <time>2017-03-31T08:38:34Z</time>
      </trkpt>
      <trkpt lat="45.23102" lon="6.04502">
        <ele>2267.4519042969</ele>
        <time>2017-03-31T08:38:42Z</time>
      </trkpt>
      <trkpt lat="45.23106" lon="6.04505">
        <ele>2271.4519042969</ele>
        <time>2017-03-31T08:38:53Z</time>
      </trkpt>
      <trkpt lat="45.23111" lon="6.04503">
        <ele>2277.4519042969</ele>
        <time>2017-03-31T08:39:12Z</time>
      </trkpt>
      <trkpt lat="45.23113" lon="6.0451">
        <ele>2281.4519042969</ele>
        <time>2017-03-31T08:39:20Z</time>
      </trkpt>
      <trkpt lat="45.23116" lon="6.04514">
        <ele>2282.4519042969</ele>
        <time>2017-03-31T08:39:32Z</time>
      </trkpt>
      <trkpt lat="45.2312" lon="6.04516">
        <ele>2283.4519042969</ele>
        <time>2017-03-31T08:39:50Z</time>
      </trkpt>
      <trkpt lat="45.23125" lon="6.04522">
        <ele>2282.4528808594</ele>
        <time>2017-03-31T08:40:06Z</time>
      </trkpt>
      <trkpt lat="45.23129" lon="6.04525">
        <ele>2288.4528808594</ele>
        <time>2017-03-31T08:40:16Z</time>
      </trkpt>
      <trkpt lat="45.2313" lon="6.04531">
        <ele>2291.4528808594</ele>
        <time>2017-03-31T08:40:31Z</time>
      </trkpt>
      <trkpt lat="45.23135" lon="6.04531">
        <ele>2292.4528808594</ele>
        <time>2017-03-31T08:40:40Z</time>
      </trkpt>
      <trkpt lat="45.23136" lon="6.04537">
        <ele>2294.4528808594</ele>
        <time>2017-03-31T08:40:55Z</time>
      </trkpt>
      <trkpt lat="45.23136" lon="6.04544">
        <ele>2298.4528808594</ele>
        <time>2017-03-31T08:41:11Z</time>
      </trkpt>
      <trkpt lat="45.2314" lon="6.04549">
        <ele>2304.4528808594</ele>
        <time>2017-03-31T08:41:31Z</time>
      </trkpt>
      <trkpt lat="45.23144" lon="6.04554">
        <ele>2306.4528808594</ele>
        <time>2017-03-31T08:41:47Z</time>
      </trkpt>
      <trkpt lat="45.23146" lon="6.0456">
        <ele>2313.4528808594</ele>
        <time>2017-03-31T08:42:02Z</time>
      </trkpt>
      <trkpt lat="45.23149" lon="6.04565">
        <ele>2314.4528808594</ele>
        <time>2017-03-31T08:42:12Z</time>
      </trkpt>
      <trkpt lat="45.23149" lon="6.04571">
        <ele>2327.4528808594</ele>
        <time>2017-03-31T08:42:28Z</time>
      </trkpt>
      <trkpt lat="45.23151" lon="6.04578">
        <ele>2328.4528808594</ele>
        <time>2017-03-31T08:42:43Z</time>
      </trkpt>
      <trkpt lat="45.23154" lon="6.04583">
        <ele>2332.4528808594</ele>
        <time>2017-03-31T08:42:53Z</time>
      </trkpt>
      <trkpt lat="45.23157" lon="6.0459">
        <ele>2335.4528808594</ele>
        <time>2017-03-31T08:43:14Z</time>
      </trkpt>
      <trkpt lat="45.2316" lon="6.04596">
        <ele>2340.4528808594</ele>
        <time>2017-03-31T08:43:43Z</time>
      </trkpt>
      <trkpt lat="45.23162" lon="6.04602">
        <ele>2340.4528808594</ele>
        <time>2017-03-31T08:43:58Z</time>
      </trkpt>
      <trkpt lat="45.23168" lon="6.04604">
        <ele>2346.4528808594</ele>
        <time>2017-03-31T08:44:09Z</time>
      </trkpt>
      <trkpt lat="45.2317" lon="6.0461">
        <ele>2346.4528808594</ele>
        <time>2017-03-31T08:44:16Z</time>
      </trkpt>
      <trkpt lat="45.2317" lon="6.04617">
        <ele>2344.4528808594</ele>
        <time>2017-03-31T08:44:38Z</time>
      </trkpt>
      <trkpt lat="45.23173" lon="6.04621">
        <ele>2345.4528808594</ele>
        <time>2017-03-31T08:44:54Z</time>
      </trkpt>
      <trkpt lat="45.23175" lon="6.04628">
        <ele>2351.4528808594</ele>
        <time>2017-03-31T08:45:08Z</time>
      </trkpt>
      <trkpt lat="45.23174" lon="6.04635">
        <ele>2350.4528808594</ele>
        <time>2017-03-31T08:45:18Z</time>
      </trkpt>
      <trkpt lat="45.23177" lon="6.04639">
        <ele>2350.4528808594</ele>
        <time>2017-03-31T08:46:35Z</time>
      </trkpt>
      <trkpt lat="45.23182" lon="6.0464">
        <ele>2352.4528808594</ele>
        <time>2017-03-31T08:46:40Z</time>
      </trkpt>
      <trkpt lat="45.23188" lon="6.04642">
        <ele>2357.4528808594</ele>
        <time>2017-03-31T08:46:44Z</time>
      </trkpt>
      <trkpt lat="45.23192" lon="6.04647">
        <ele>2359.4528808594</ele>
        <time>2017-03-31T08:50:37Z</time>
      </trkpt>
      <trkpt lat="45.23196" lon="6.0465">
        <ele>2360.4528808594</ele>
        <time>2017-03-31T08:50:43Z</time>
      </trkpt>
      <trkpt lat="45.232" lon="6.04654">
        <ele>2360.4528808594</ele>
        <time>2017-03-31T08:50:47Z</time>
      </trkpt>
      <trkpt lat="45.23204" lon="6.04658">
        <ele>2361.4528808594</ele>
        <time>2017-03-31T08:50:57Z</time>
      </trkpt>
      <trkpt lat="45.23207" lon="6.04663">
        <ele>2360.4528808594</ele>
        <time>2017-03-31T08:51:07Z</time>
      </trkpt>
      <trkpt lat="45.23211" lon="6.04667">
        <ele>2364.4528808594</ele>
        <time>2017-03-31T08:51:23Z</time>
      </trkpt>
      <trkpt lat="45.23214" lon="6.04672">
        <ele>2368.4528808594</ele>
        <time>2017-03-31T08:51:29Z</time>
      </trkpt>
      <trkpt lat="45.23217" lon="6.04677">
        <ele>2370.4528808594</ele>
        <time>2017-03-31T08:51:35Z</time>
      </trkpt>
      <trkpt lat="45.23221" lon="6.04681">
        <ele>2369.4528808594</ele>
        <time>2017-03-31T08:51:39Z</time>
      </trkpt>
      <trkpt lat="45.23225" lon="6.04686">
        <ele>2370.4528808594</ele>
        <time>2017-03-31T08:51:46Z</time>
      </trkpt>
      <trkpt lat="45.23227" lon="6.04692">
        <ele>2375.4528808594</ele>
        <time>2017-03-31T08:51:52Z</time>
      </trkpt>
      <trkpt lat="45.2323" lon="6.04697">
        <ele>2375.4528808594</ele>
        <time>2017-03-31T08:52:00Z</time>
      </trkpt>
      <trkpt lat="45.23233" lon="6.04702">
        <ele>2375.4528808594</ele>
        <time>2017-03-31T08:52:09Z</time>
      </trkpt>
      <trkpt lat="45.23235" lon="6.04708">
        <ele>2376.4528808594</ele>
        <time>2017-03-31T08:52:16Z</time>
      </trkpt>
      <trkpt lat="45.2324" lon="6.04712">
        <ele>2376.4528808594</ele>
        <time>2017-03-31T08:52:22Z</time>
      </trkpt>
      <trkpt lat="45.23243" lon="6.04718">
        <ele>2376.4528808594</ele>
        <time>2017-03-31T08:52:32Z</time>
      </trkpt>
      <trkpt lat="45.23247" lon="6.04721">
        <ele>2377.4528808594</ele>
        <time>2017-03-31T08:52:39Z</time>
      </trkpt>
      <trkpt lat="45.23248" lon="6.04728">
        <ele>2382.4528808594</ele>
        <time>2017-03-31T08:52:56Z</time>
      </trkpt>
      <trkpt lat="45.23252" lon="6.04732">
        <ele>2390.4528808594</ele>
        <time>2017-03-31T08:53:01Z</time>
      </trkpt>
      <trkpt lat="45.23255" lon="6.04739">
        <ele>2393.4528808594</ele>
        <time>2017-03-31T08:53:09Z</time>
      </trkpt>
      <trkpt lat="45.23255" lon="6.04746">
        <ele>2398.4528808594</ele>
        <time>2017-03-31T08:53:16Z</time>
      </trkpt>
      <trkpt lat="45.23255" lon="6.04753">
        <ele>2399.4528808594</ele>
        <time>2017-03-31T08:53:21Z</time>
      </trkpt>
      <trkpt lat="45.23253" lon="6.0476">
        <ele>2399.4528808594</ele>
        <time>2017-03-31T08:53:29Z</time>
      </trkpt>
      <trkpt lat="45.23255" lon="6.04766">
        <ele>2398.4528808594</ele>
        <time>2017-03-31T08:53:38Z</time>
      </trkpt>
      <trkpt lat="45.23258" lon="6.0477">
        <ele>2399.4528808594</ele>
        <time>2017-03-31T08:53:53Z</time>
      </trkpt>
      <trkpt lat="45.23255" lon="6.04778">
        <ele>2405.4528808594</ele>
        <time>2017-03-31T08:54:51Z</time>
      </trkpt>
      <trkpt lat="45.23259" lon="6.04783">
        <ele>2406.4528808594</ele>
        <time>2017-03-31T08:54:59Z</time>
      </trkpt>
      <trkpt lat="45.23263" lon="6.04785">
        <ele>2408.4528808594</ele>
        <time>2017-03-31T08:55:05Z</time>
      </trkpt>
      <trkpt lat="45.23268" lon="6.04783">
        <ele>2412.4528808594</ele>
        <time>2017-03-31T08:55:20Z</time>
      </trkpt>
      <trkpt lat="45.23268" lon="6.04789">
        <ele>2411.4528808594</ele>
        <time>2017-03-31T08:55:30Z</time>
      </trkpt>
      <trkpt lat="45.23269" lon="6.04797">
        <ele>2412.4528808594</ele>
        <time>2017-03-31T08:55:38Z</time>
      </trkpt>
      <trkpt lat="45.23275" lon="6.04803">
        <ele>2411.4528808594</ele>
        <time>2017-03-31T08:55:46Z</time>
      </trkpt>
      <trkpt lat="45.23278" lon="6.04809">
        <ele>2416.4528808594</ele>
        <time>2017-03-31T08:55:53Z</time>
      </trkpt>
      <trkpt lat="45.23279" lon="6.04816">
        <ele>2417.4528808594</ele>
        <time>2017-03-31T08:56:05Z</time>
      </trkpt>
      <trkpt lat="45.23276" lon="6.04821">
        <ele>2417.4528808594</ele>
        <time>2017-03-31T08:56:10Z</time>
      </trkpt>
      <trkpt lat="45.23274" lon="6.04828">
        <ele>2419.4528808594</ele>
        <time>2017-03-31T08:56:15Z</time>
      </trkpt>
      <trkpt lat="45.23276" lon="6.04834">
        <ele>2416.4528808594</ele>
        <time>2017-03-31T08:56:22Z</time>
      </trkpt>
      <trkpt lat="45.23276" lon="6.04841">
        <ele>2417.4528808594</ele>
        <time>2017-03-31T08:56:33Z</time>
      </trkpt>
      <trkpt lat="45.23275" lon="6.04847">
        <ele>2423.4528808594</ele>
        <time>2017-03-31T08:56:43Z</time>
      </trkpt>
      <trkpt lat="45.23272" lon="6.04853">
        <ele>2421.4528808594</ele>
        <time>2017-03-31T08:56:49Z</time>
      </trkpt>
      <trkpt lat="45.23266" lon="6.04854">
        <ele>2422.4528808594</ele>
        <time>2017-03-31T08:56:55Z</time>
      </trkpt>
      <trkpt lat="45.23269" lon="6.04862">
        <ele>2430.4528808594</ele>
        <time>2017-03-31T09:01:56Z</time>
      </trkpt>
      <trkpt lat="45.23268" lon="6.04875">
        <ele>2429.4528808594</ele>
        <time>2017-03-31T09:01:58Z</time>
      </trkpt>
      <trkpt lat="45.23267" lon="6.04883">
        <ele>2428.4528808594</ele>
        <time>2017-03-31T09:01:59Z</time>
      </trkpt>
      <trkpt lat="45.23264" lon="6.04902">
        <ele>2426.4528808594</ele>
        <time>2017-03-31T09:02:01Z</time>
      </trkpt>
      <trkpt lat="45.23262" lon="6.04912">
        <ele>2426.4528808594</ele>
        <time>2017-03-31T09:02:02Z</time>
      </trkpt>
      <trkpt lat="45.2326" lon="6.0493">
        <ele>2423.4528808594</ele>
        <time>2017-03-31T09:02:04Z</time>
      </trkpt>
      <trkpt lat="45.23258" lon="6.04944">
        <ele>2421.4528808594</ele>
        <time>2017-03-31T09:02:05Z</time>
      </trkpt>
      <trkpt lat="45.23253" lon="6.04968">
        <ele>2421.4528808594</ele>
        <time>2017-03-31T09:02:07Z</time>
      </trkpt>
      <trkpt lat="45.23245" lon="6.04993">
        <ele>2423.4528808594</ele>
        <time>2017-03-31T09:02:10Z</time>
      </trkpt>
      <trkpt lat="45.23242" lon="6.05007">
        <ele>2419.4528808594</ele>
        <time>2017-03-31T09:02:13Z</time>
      </trkpt>
      <trkpt lat="45.23242" lon="6.05015">
        <ele>2417.4528808594</ele>
        <time>2017-03-31T09:02:15Z</time>
      </trkpt>
      <trkpt lat="45.23238" lon="6.05021">
        <ele>2418.4528808594</ele>
        <time>2017-03-31T09:02:17Z</time>
      </trkpt>
      <trkpt lat="45.23231" lon="6.0502">
        <ele>2417.4528808594</ele>
        <time>2017-03-31T09:02:19Z</time>
      </trkpt>
      <trkpt lat="45.23229" lon="6.05028">
        <ele>2416.4528808594</ele>
        <time>2017-03-31T09:02:20Z</time>
      </trkpt>
      <trkpt lat="45.23224" lon="6.05034">
        <ele>2412.4528808594</ele>
        <time>2017-03-31T09:02:22Z</time>
      </trkpt>
      <trkpt lat="45.23221" lon="6.05056">
        <ele>2405.4528808594</ele>
        <time>2017-03-31T09:02:26Z</time>
      </trkpt>
      <trkpt lat="45.23222" lon="6.05073">
        <ele>2398.4528808594</ele>
        <time>2017-03-31T09:02:29Z</time>
      </trkpt>
      <trkpt lat="45.23221" lon="6.05084">
        <ele>2397.4528808594</ele>
        <time>2017-03-31T09:02:31Z</time>
      </trkpt>
      <trkpt lat="45.23217" lon="6.051">
        <ele>2396.4528808594</ele>
        <time>2017-03-31T09:02:33Z</time>
      </trkpt>
      <trkpt lat="45.23213" lon="6.05115">
        <ele>2393.4541015625</ele>
        <time>2017-03-31T09:02:35Z</time>
      </trkpt>
      <trkpt lat="45.23208" lon="6.05129">
        <ele>2391.4541015625</ele>
        <time>2017-03-31T09:02:37Z</time>
      </trkpt>
      <trkpt lat="45.23205" lon="6.05146">
        <ele>2385.4541015625</ele>
        <time>2017-03-31T09:02:40Z</time>
      </trkpt>
      <trkpt lat="45.23204" lon="6.05156">
        <ele>2384.4541015625</ele>
        <time>2017-03-31T09:02:42Z</time>
      </trkpt>
      <trkpt lat="45.23202" lon="6.05165">
        <ele>2378.4541015625</ele>
        <time>2017-03-31T09:02:44Z</time>
      </trkpt>
      <trkpt lat="45.23201" lon="6.05182">
        <ele>2375.4541015625</ele>
        <time>2017-03-31T09:02:46Z</time>
      </trkpt>
      <trkpt lat="45.23197" lon="6.05201">
        <ele>2373.4541015625</ele>
        <time>2017-03-31T09:02:49Z</time>
      </trkpt>
      <trkpt lat="45.23194" lon="6.05212">
        <ele>2372.4541015625</ele>
        <time>2017-03-31T09:02:51Z</time>
      </trkpt>
      <trkpt lat="45.23194" lon="6.0522">
        <ele>2370.4541015625</ele>
        <time>2017-03-31T09:02:53Z</time>
      </trkpt>
      <trkpt lat="45.23192" lon="6.05228">
        <ele>2369.4541015625</ele>
        <time>2017-03-31T09:02:55Z</time>
      </trkpt>
      <trkpt lat="45.23192" lon="6.05239">
        <ele>2367.4541015625</ele>
        <time>2017-03-31T09:02:57Z</time>
      </trkpt>
      <trkpt lat="45.23191" lon="6.05253">
        <ele>2366.4541015625</ele>
        <time>2017-03-31T09:02:59Z</time>
      </trkpt>
      <trkpt lat="45.2319" lon="6.05265">
        <ele>2365.4541015625</ele>
        <time>2017-03-31T09:03:01Z</time>
      </trkpt>
      <trkpt lat="45.23188" lon="6.05276">
        <ele>2366.4541015625</ele>
        <time>2017-03-31T09:03:03Z</time>
      </trkpt>
      <trkpt lat="45.23186" lon="6.05287">
        <ele>2365.4541015625</ele>
        <time>2017-03-31T09:03:05Z</time>
      </trkpt>
      <trkpt lat="45.23183" lon="6.05295">
        <ele>2364.4541015625</ele>
        <time>2017-03-31T09:03:07Z</time>
      </trkpt>
      <trkpt lat="45.23181" lon="6.05304">
        <ele>2363.4541015625</ele>
        <time>2017-03-31T09:03:09Z</time>
      </trkpt>
      <trkpt lat="45.23178" lon="6.05312">
        <ele>2363.4541015625</ele>
        <time>2017-03-31T09:03:11Z</time>
      </trkpt>
      <trkpt lat="45.23175" lon="6.05321">
        <ele>2364.4541015625</ele>
        <time>2017-03-31T09:03:13Z</time>
      </trkpt>
      <trkpt lat="45.23173" lon="6.0533">
        <ele>2363.4541015625</ele>
        <time>2017-03-31T09:03:15Z</time>
      </trkpt>
      <trkpt lat="45.23171" lon="6.05338">
        <ele>2362.4541015625</ele>
        <time>2017-03-31T09:03:17Z</time>
      </trkpt>
      <trkpt lat="45.23168" lon="6.05342">
        <ele>2362.4541015625</ele>
        <time>2017-03-31T09:03:20Z</time>
      </trkpt>
      <trkpt lat="45.23165" lon="6.05348">
        <ele>2363.4541015625</ele>
        <time>2017-03-31T09:03:23Z</time>
      </trkpt>
      <trkpt lat="45.23164" lon="6.05354">
        <ele>2360.4541015625</ele>
        <time>2017-03-31T09:03:26Z</time>
      </trkpt>
      <trkpt lat="45.23161" lon="6.05361">
        <ele>2361.4541015625</ele>
        <time>2017-03-31T09:03:29Z</time>
      </trkpt>
      <trkpt lat="45.23158" lon="6.05366">
        <ele>2361.4541015625</ele>
        <time>2017-03-31T09:03:31Z</time>
      </trkpt>
      <trkpt lat="45.23155" lon="6.05373">
        <ele>2361.4541015625</ele>
        <time>2017-03-31T09:03:34Z</time>
      </trkpt>
      <trkpt lat="45.23153" lon="6.0538">
        <ele>2361.4541015625</ele>
        <time>2017-03-31T09:03:36Z</time>
      </trkpt>
      <trkpt lat="45.23151" lon="6.05387">
        <ele>2361.4541015625</ele>
        <time>2017-03-31T09:03:38Z</time>
      </trkpt>
      <trkpt lat="45.23149" lon="6.05395">
        <ele>2359.4541015625</ele>
        <time>2017-03-31T09:03:41Z</time>
      </trkpt>
      <trkpt lat="45.23145" lon="6.05403">
        <ele>2359.4541015625</ele>
        <time>2017-03-31T09:03:44Z</time>
      </trkpt>
      <trkpt lat="45.23144" lon="6.0541">
        <ele>2358.4541015625</ele>
        <time>2017-03-31T09:03:47Z</time>
      </trkpt>
      <trkpt lat="45.23141" lon="6.05415">
        <ele>2360.4541015625</ele>
        <time>2017-03-31T09:03:50Z</time>
      </trkpt>
      <trkpt lat="45.23139" lon="6.05421">
        <ele>2358.4541015625</ele>
        <time>2017-03-31T09:03:52Z</time>
      </trkpt>
      <trkpt lat="45.23136" lon="6.05427">
        <ele>2361.4541015625</ele>
        <time>2017-03-31T09:03:55Z</time>
      </trkpt>
      <trkpt lat="45.2313" lon="6.05426">
        <ele>2372.4541015625</ele>
        <time>2017-03-31T09:04:19Z</time>
      </trkpt>
      <trkpt lat="45.23126" lon="6.05423">
        <ele>2377.4541015625</ele>
        <time>2017-03-31T09:05:27Z</time>
      </trkpt>
      <trkpt lat="45.23123" lon="6.05428">
        <ele>2370.4541015625</ele>
        <time>2017-03-31T09:09:03Z</time>
      </trkpt>
      <trkpt lat="45.23127" lon="6.05434">
        <ele>2369.4541015625</ele>
        <time>2017-03-31T09:09:12Z</time>
      </trkpt>
      <trkpt lat="45.23125" lon="6.05441">
        <ele>2373.4541015625</ele>
        <time>2017-03-31T09:09:30Z</time>
      </trkpt>
      <trkpt lat="45.23122" lon="6.05445">
        <ele>2376.4541015625</ele>
        <time>2017-03-31T09:09:37Z</time>
      </trkpt>
      <trkpt lat="45.23119" lon="6.0545">
        <ele>2380.4541015625</ele>
        <time>2017-03-31T09:10:01Z</time>
      </trkpt>
      <trkpt lat="45.23114" lon="6.05454">
        <ele>2378.4541015625</ele>
        <time>2017-03-31T09:10:06Z</time>
      </trkpt>
      <trkpt lat="45.23109" lon="6.05456">
        <ele>2379.4541015625</ele>
        <time>2017-03-31T09:10:10Z</time>
      </trkpt>
      <trkpt lat="45.23108" lon="6.05463">
        <ele>2382.4541015625</ele>
        <time>2017-03-31T09:10:27Z</time>
      </trkpt>
      <trkpt lat="45.23113" lon="6.05465">
        <ele>2384.4541015625</ele>
        <time>2017-03-31T09:10:32Z</time>
      </trkpt>
      <trkpt lat="45.23118" lon="6.05469">
        <ele>2387.4541015625</ele>
        <time>2017-03-31T09:10:36Z</time>
      </trkpt>
      <trkpt lat="45.23118" lon="6.05477">
        <ele>2385.4541015625</ele>
        <time>2017-03-31T09:10:42Z</time>
      </trkpt>
      <trkpt lat="45.23114" lon="6.05479">
        <ele>2392.4541015625</ele>
        <time>2017-03-31T09:10:50Z</time>
      </trkpt>
      <trkpt lat="45.23111" lon="6.05484">
        <ele>2393.4541015625</ele>
        <time>2017-03-31T09:10:56Z</time>
      </trkpt>
      <trkpt lat="45.23106" lon="6.05488">
        <ele>2395.4541015625</ele>
        <time>2017-03-31T09:11:38Z</time>
      </trkpt>
      <trkpt lat="45.23104" lon="6.05495">
        <ele>2398.4541015625</ele>
        <time>2017-03-31T09:11:42Z</time>
      </trkpt>
      <trkpt lat="45.231" lon="6.055">
        <ele>2400.4541015625</ele>
        <time>2017-03-31T09:11:51Z</time>
      </trkpt>
      <trkpt lat="45.23096" lon="6.05506">
        <ele>2400.4541015625</ele>
        <time>2017-03-31T09:11:56Z</time>
      </trkpt>
      <trkpt lat="45.23092" lon="6.0551">
        <ele>2401.4541015625</ele>
        <time>2017-03-31T09:12:01Z</time>
      </trkpt>
      <trkpt lat="45.23091" lon="6.05518">
        <ele>2409.4541015625</ele>
        <time>2017-03-31T09:12:15Z</time>
      </trkpt>
      <trkpt lat="45.23092" lon="6.05524">
        <ele>2410.4541015625</ele>
        <time>2017-03-31T09:12:20Z</time>
      </trkpt>
      <trkpt lat="45.23091" lon="6.05531">
        <ele>2412.4541015625</ele>
        <time>2017-03-31T09:12:25Z</time>
      </trkpt>
      <trkpt lat="45.23089" lon="6.05537">
        <ele>2413.4541015625</ele>
        <time>2017-03-31T09:12:32Z</time>
      </trkpt>
      <trkpt lat="45.23085" lon="6.05541">
        <ele>2415.4541015625</ele>
        <time>2017-03-31T09:12:38Z</time>
      </trkpt>
      <trkpt lat="45.23086" lon="6.05548">
        <ele>2416.4541015625</ele>
        <time>2017-03-31T09:12:44Z</time>
      </trkpt>
      <trkpt lat="45.23087" lon="6.05555">
        <ele>2419.4541015625</ele>
        <time>2017-03-31T09:12:48Z</time>
      </trkpt>
      <trkpt lat="45.23087" lon="6.05562">
        <ele>2420.4541015625</ele>
        <time>2017-03-31T09:12:57Z</time>
      </trkpt>
      <trkpt lat="45.23088" lon="6.05569">
        <ele>2422.4541015625</ele>
        <time>2017-03-31T09:13:16Z</time>
      </trkpt>
      <trkpt lat="45.23087" lon="6.05575">
        <ele>2422.4541015625</ele>
        <time>2017-03-31T09:13:22Z</time>
      </trkpt>
      <trkpt lat="45.23087" lon="6.05584">
        <ele>2423.4541015625</ele>
        <time>2017-03-31T09:13:30Z</time>
      </trkpt>
      <trkpt lat="45.23087" lon="6.05591">
        <ele>2420.4541015625</ele>
        <time>2017-03-31T09:13:35Z</time>
      </trkpt>
      <trkpt lat="45.23089" lon="6.05597">
        <ele>2418.4541015625</ele>
        <time>2017-03-31T09:13:39Z</time>
      </trkpt>
      <trkpt lat="45.23092" lon="6.05602">
        <ele>2415.4541015625</ele>
        <time>2017-03-31T09:13:43Z</time>
      </trkpt>
      <trkpt lat="45.23091" lon="6.05609">
        <ele>2414.4541015625</ele>
        <time>2017-03-31T09:13:50Z</time>
      </trkpt>
      <trkpt lat="45.23094" lon="6.05616">
        <ele>2416.4541015625</ele>
        <time>2017-03-31T09:13:55Z</time>
      </trkpt>
      <trkpt lat="45.23095" lon="6.05622">
        <ele>2423.4541015625</ele>
        <time>2017-03-31T09:14:07Z</time>
      </trkpt>
      <trkpt lat="45.23095" lon="6.05631">
        <ele>2424.4541015625</ele>
        <time>2017-03-31T09:14:14Z</time>
      </trkpt>
      <trkpt lat="45.23093" lon="6.05639">
        <ele>2429.4541015625</ele>
        <time>2017-03-31T09:14:21Z</time>
      </trkpt>
      <trkpt lat="45.23095" lon="6.05646">
        <ele>2429.4541015625</ele>
        <time>2017-03-31T09:14:27Z</time>
      </trkpt>
      <trkpt lat="45.23096" lon="6.05653">
        <ele>2429.4541015625</ele>
        <time>2017-03-31T09:14:32Z</time>
      </trkpt>
      <trkpt lat="45.23096" lon="6.0566">
        <ele>2432.4541015625</ele>
        <time>2017-03-31T09:14:39Z</time>
      </trkpt>
      <trkpt lat="45.23095" lon="6.05666">
        <ele>2431.4541015625</ele>
        <time>2017-03-31T09:14:44Z</time>
      </trkpt>
      <trkpt lat="45.23097" lon="6.05674">
        <ele>2428.4541015625</ele>
        <time>2017-03-31T09:14:48Z</time>
      </trkpt>
      <trkpt lat="45.23094" lon="6.05681">
        <ele>2431.4541015625</ele>
        <time>2017-03-31T09:14:55Z</time>
      </trkpt>
      <trkpt lat="45.23089" lon="6.05682">
        <ele>2434.4541015625</ele>
        <time>2017-03-31T09:15:00Z</time>
      </trkpt>
      <trkpt lat="45.23088" lon="6.05689">
        <ele>2436.4541015625</ele>
        <time>2017-03-31T09:15:08Z</time>
      </trkpt>
      <trkpt lat="45.23084" lon="6.05683">
        <ele>2439.4541015625</ele>
        <time>2017-03-31T09:15:14Z</time>
      </trkpt>
      <trkpt lat="45.23086" lon="6.0569">
        <ele>2449.4541015625</ele>
        <time>2017-03-31T09:15:41Z</time>
      </trkpt>
      <trkpt lat="45.23089" lon="6.05695">
        <ele>2451.4541015625</ele>
        <time>2017-03-31T09:15:47Z</time>
      </trkpt>
      <trkpt lat="45.2309" lon="6.05702">
        <ele>2453.4541015625</ele>
        <time>2017-03-31T09:16:04Z</time>
      </trkpt>
      <trkpt lat="45.23091" lon="6.05709">
        <ele>2452.4541015625</ele>
        <time>2017-03-31T09:16:08Z</time>
      </trkpt>
      <trkpt lat="45.23092" lon="6.05717">
        <ele>2456.4541015625</ele>
        <time>2017-03-31T09:16:13Z</time>
      </trkpt>
      <trkpt lat="45.23091" lon="6.05725">
        <ele>2453.4541015625</ele>
        <time>2017-03-31T09:16:18Z</time>
      </trkpt>
      <trkpt lat="45.23094" lon="6.0573">
        <ele>2454.4541015625</ele>
        <time>2017-03-31T09:16:22Z</time>
      </trkpt>
      <trkpt lat="45.23097" lon="6.05736">
        <ele>2456.4541015625</ele>
        <time>2017-03-31T09:16:27Z</time>
      </trkpt>
      <trkpt lat="45.23094" lon="6.05741">
        <ele>2462.4541015625</ele>
        <time>2017-03-31T09:16:37Z</time>
      </trkpt>
      <trkpt lat="45.23092" lon="6.05748">
        <ele>2460.4541015625</ele>
        <time>2017-03-31T09:16:43Z</time>
      </trkpt>
      <trkpt lat="45.23088" lon="6.05751">
        <ele>2462.4541015625</ele>
        <time>2017-03-31T09:16:50Z</time>
      </trkpt>
      <trkpt lat="45.23087" lon="6.05758">
        <ele>2465.4541015625</ele>
        <time>2017-03-31T09:16:57Z</time>
      </trkpt>
      <trkpt lat="45.23088" lon="6.05763">
        <ele>2465.4541015625</ele>
        <time>2017-03-31T09:17:07Z</time>
      </trkpt>
      <trkpt lat="45.23092" lon="6.0577">
        <ele>2465.4541015625</ele>
        <time>2017-03-31T09:17:16Z</time>
      </trkpt>
      <trkpt lat="45.23092" lon="6.05777">
        <ele>2464.4541015625</ele>
        <time>2017-03-31T09:17:23Z</time>
      </trkpt>
      <trkpt lat="45.23089" lon="6.05782">
        <ele>2466.4541015625</ele>
        <time>2017-03-31T09:17:30Z</time>
      </trkpt>
      <trkpt lat="45.23085" lon="6.05786">
        <ele>2469.4541015625</ele>
        <time>2017-03-31T09:17:38Z</time>
      </trkpt>
      <trkpt lat="45.23085" lon="6.05792">
        <ele>2471.4541015625</ele>
        <time>2017-03-31T09:17:44Z</time>
      </trkpt>
      <trkpt lat="45.23083" lon="6.05801">
        <ele>2475.4541015625</ele>
        <time>2017-03-31T09:17:52Z</time>
      </trkpt>
      <trkpt lat="45.23083" lon="6.05809">
        <ele>2477.4541015625</ele>
        <time>2017-03-31T09:18:02Z</time>
      </trkpt>
      <trkpt lat="45.23085" lon="6.05814">
        <ele>2475.4541015625</ele>
        <time>2017-03-31T09:18:06Z</time>
      </trkpt>
      <trkpt lat="45.23081" lon="6.05819">
        <ele>2483.4541015625</ele>
        <time>2017-03-31T09:18:14Z</time>
      </trkpt>
      <trkpt lat="45.23081" lon="6.05827">
        <ele>2484.4541015625</ele>
        <time>2017-03-31T09:18:24Z</time>
      </trkpt>
      <trkpt lat="45.23078" lon="6.05832">
        <ele>2488.4541015625</ele>
        <time>2017-03-31T09:18:31Z</time>
      </trkpt>
      <trkpt lat="45.23075" lon="6.05837">
        <ele>2488.4541015625</ele>
        <time>2017-03-31T09:18:40Z</time>
      </trkpt>
      <trkpt lat="45.23077" lon="6.05847">
        <ele>2489.4541015625</ele>
        <time>2017-03-31T09:18:52Z</time>
      </trkpt>
      <trkpt lat="45.23073" lon="6.05851">
        <ele>2490.4541015625</ele>
        <time>2017-03-31T09:18:58Z</time>
      </trkpt>
      <trkpt lat="45.23075" lon="6.05858">
        <ele>2488.4541015625</ele>
        <time>2017-03-31T09:19:08Z</time>
      </trkpt>
      <trkpt lat="45.23073" lon="6.05864">
        <ele>2488.4541015625</ele>
        <time>2017-03-31T09:19:14Z</time>
      </trkpt>
      <trkpt lat="45.2307" lon="6.05868">
        <ele>2488.4541015625</ele>
        <time>2017-03-31T09:19:18Z</time>
      </trkpt>
      <trkpt lat="45.23068" lon="6.05875">
        <ele>2491.4541015625</ele>
        <time>2017-03-31T09:19:28Z</time>
      </trkpt>
      <trkpt lat="45.23067" lon="6.05882">
        <ele>2490.4541015625</ele>
        <time>2017-03-31T09:19:34Z</time>
      </trkpt>
      <trkpt lat="45.23062" lon="6.05883">
        <ele>2496.4541015625</ele>
        <time>2017-03-31T09:19:48Z</time>
      </trkpt>
      <trkpt lat="45.23059" lon="6.05889">
        <ele>2501.4541015625</ele>
        <time>2017-03-31T09:19:56Z</time>
      </trkpt>
      <trkpt lat="45.2306" lon="6.05895">
        <ele>2500.4541015625</ele>
        <time>2017-03-31T09:20:00Z</time>
      </trkpt>
      <trkpt lat="45.23061" lon="6.05902">
        <ele>2505.4541015625</ele>
        <time>2017-03-31T09:20:07Z</time>
      </trkpt>
      <trkpt lat="45.23056" lon="6.05904">
        <ele>2507.4541015625</ele>
        <time>2017-03-31T09:20:34Z</time>
      </trkpt>
      <trkpt lat="45.23052" lon="6.05909">
        <ele>2509.4541015625</ele>
        <time>2017-03-31T09:20:48Z</time>
      </trkpt>
      <trkpt lat="45.23052" lon="6.05916">
        <ele>2508.4541015625</ele>
        <time>2017-03-31T09:20:53Z</time>
      </trkpt>
      <trkpt lat="45.23052" lon="6.05922">
        <ele>2506.4541015625</ele>
        <time>2017-03-31T09:21:04Z</time>
      </trkpt>
      <trkpt lat="45.23056" lon="6.05926">
        <ele>2504.4541015625</ele>
        <time>2017-03-31T09:21:10Z</time>
      </trkpt>
      <trkpt lat="45.2305" lon="6.05924">
        <ele>2509.4541015625</ele>
        <time>2017-03-31T09:21:20Z</time>
      </trkpt>
      <trkpt lat="45.23046" lon="6.05923">
        <ele>2513.4541015625</ele>
        <time>2017-03-31T09:21:26Z</time>
      </trkpt>
      <trkpt lat="45.23041" lon="6.05921">
        <ele>2514.4541015625</ele>
        <time>2017-03-31T09:21:34Z</time>
      </trkpt>
      <trkpt lat="45.23039" lon="6.05927">
        <ele>2519.4541015625</ele>
        <time>2017-03-31T09:21:49Z</time>
      </trkpt>
      <trkpt lat="45.23043" lon="6.05935">
        <ele>2518.4541015625</ele>
        <time>2017-03-31T09:21:55Z</time>
      </trkpt>
      <trkpt lat="45.23047" lon="6.05942">
        <ele>2516.4541015625</ele>
        <time>2017-03-31T09:21:58Z</time>
      </trkpt>
      <trkpt lat="45.23051" lon="6.05947">
        <ele>2521.4541015625</ele>
        <time>2017-03-31T09:22:06Z</time>
      </trkpt>
      <trkpt lat="45.23046" lon="6.05947">
        <ele>2530.4541015625</ele>
        <time>2017-03-31T09:22:35Z</time>
      </trkpt>
      <trkpt lat="45.23041" lon="6.05945">
        <ele>2532.4541015625</ele>
        <time>2017-03-31T09:22:39Z</time>
      </trkpt>
      <trkpt lat="45.23036" lon="6.05944">
        <ele>2536.4541015625</ele>
        <time>2017-03-31T09:22:47Z</time>
      </trkpt>
      <trkpt lat="45.23039" lon="6.0595">
        <ele>2540.4541015625</ele>
        <time>2017-03-31T09:23:10Z</time>
      </trkpt>
      <trkpt lat="45.23041" lon="6.05955">
        <ele>2544.4541015625</ele>
        <time>2017-03-31T09:23:26Z</time>
      </trkpt>
      <trkpt lat="45.23044" lon="6.05962">
        <ele>2545.4541015625</ele>
        <time>2017-03-31T09:23:51Z</time>
      </trkpt>
      <trkpt lat="45.2304" lon="6.05963">
        <ele>2547.4541015625</ele>
        <time>2017-03-31T09:24:04Z</time>
      </trkpt>
      <trkpt lat="45.23035" lon="6.05963">
        <ele>2549.4541015625</ele>
        <time>2017-03-31T09:24:24Z</time>
      </trkpt>
      <trkpt lat="45.23032" lon="6.05967">
        <ele>2548.4541015625</ele>
        <time>2017-03-31T09:25:19Z</time>
      </trkpt>
      <trkpt lat="45.23032" lon="6.05974">
        <ele>2547.4541015625</ele>
        <time>2017-03-31T09:25:23Z</time>
      </trkpt>
      <trkpt lat="45.23033" lon="6.0598">
        <ele>2548.4541015625</ele>
        <time>2017-03-31T09:25:32Z</time>
      </trkpt>
      <trkpt lat="45.23029" lon="6.05983">
        <ele>2550.4541015625</ele>
        <time>2017-03-31T09:25:40Z</time>
      </trkpt>
      <trkpt lat="45.23025" lon="6.05987">
        <ele>2557.4541015625</ele>
        <time>2017-03-31T09:26:27Z</time>
      </trkpt>
      <trkpt lat="45.23027" lon="6.05992">
        <ele>2558.4541015625</ele>
        <time>2017-03-31T09:26:44Z</time>
      </trkpt>
      <trkpt lat="45.23032" lon="6.05995">
        <ele>2557.4541015625</ele>
        <time>2017-03-31T09:26:49Z</time>
      </trkpt>
      <trkpt lat="45.23037" lon="6.05996">
        <ele>2561.4541015625</ele>
        <time>2017-03-31T09:38:01Z</time>
      </trkpt>
      <trkpt lat="45.23042" lon="6.05998">
        <ele>2561.4541015625</ele>
        <time>2017-03-31T09:38:14Z</time>
      </trkpt>
      <trkpt lat="45.23047" lon="6.05999">
        <ele>2563.4541015625</ele>
        <time>2017-03-31T09:38:27Z</time>
      </trkpt>
      <trkpt lat="45.23051" lon="6.06002">
        <ele>2564.4541015625</ele>
        <time>2017-03-31T09:38:56Z</time>
      </trkpt>
      <trkpt lat="45.23054" lon="6.06006">
        <ele>2567.4541015625</ele>
        <time>2017-03-31T09:39:15Z</time>
      </trkpt>
      <trkpt lat="45.23057" lon="6.06011">
        <ele>2566.4541015625</ele>
        <time>2017-03-31T09:40:18Z</time>
      </trkpt>
      <trkpt lat="45.2306" lon="6.06019">
        <ele>2565.4541015625</ele>
        <time>2017-03-31T09:40:21Z</time>
      </trkpt>
      <trkpt lat="45.23057" lon="6.06029">
        <ele>2560.4541015625</ele>
        <time>2017-03-31T09:40:24Z</time>
      </trkpt>
      <trkpt lat="45.23052" lon="6.06033">
        <ele>2557.4541015625</ele>
        <time>2017-03-31T09:40:26Z</time>
      </trkpt>
      <trkpt lat="45.23047" lon="6.06036">
        <ele>2555.4541015625</ele>
        <time>2017-03-31T09:40:28Z</time>
      </trkpt>
      <trkpt lat="45.23048" lon="6.06043">
        <ele>2551.4541015625</ele>
        <time>2017-03-31T09:40:31Z</time>
      </trkpt>
      <trkpt lat="45.23053" lon="6.06044">
        <ele>2550.4541015625</ele>
        <time>2017-03-31T09:40:38Z</time>
      </trkpt>
      <trkpt lat="45.23057" lon="6.0605">
        <ele>2548.4541015625</ele>
        <time>2017-03-31T09:40:40Z</time>
      </trkpt>
      <trkpt lat="45.23055" lon="6.06061">
        <ele>2543.455078125</ele>
        <time>2017-03-31T09:40:43Z</time>
      </trkpt>
      <trkpt lat="45.2305" lon="6.06071">
        <ele>2541.455078125</ele>
        <time>2017-03-31T09:40:45Z</time>
      </trkpt>
      <trkpt lat="45.23041" lon="6.06082">
        <ele>2539.455078125</ele>
        <time>2017-03-31T09:40:47Z</time>
      </trkpt>
      <trkpt lat="45.23032" lon="6.06096">
        <ele>2538.455078125</ele>
        <time>2017-03-31T09:40:49Z</time>
      </trkpt>
      <trkpt lat="45.23028" lon="6.06111">
        <ele>2536.455078125</ele>
        <time>2017-03-31T09:40:51Z</time>
      </trkpt>
      <trkpt lat="45.23025" lon="6.06117">
        <ele>2531.455078125</ele>
        <time>2017-03-31T09:40:54Z</time>
      </trkpt>
      <trkpt lat="45.23027" lon="6.06125">
        <ele>2528.455078125</ele>
        <time>2017-03-31T09:41:04Z</time>
      </trkpt>
      <trkpt lat="45.23032" lon="6.06131">
        <ele>2524.455078125</ele>
        <time>2017-03-31T09:41:06Z</time>
      </trkpt>
      <trkpt lat="45.23035" lon="6.06143">
        <ele>2521.455078125</ele>
        <time>2017-03-31T09:41:08Z</time>
      </trkpt>
      <trkpt lat="45.23035" lon="6.0615">
        <ele>2518.455078125</ele>
        <time>2017-03-31T09:41:12Z</time>
      </trkpt>
      <trkpt lat="45.2304" lon="6.06154">
        <ele>2514.455078125</ele>
        <time>2017-03-31T09:41:15Z</time>
      </trkpt>
      <trkpt lat="45.2305" lon="6.06164">
        <ele>2514.455078125</ele>
        <time>2017-03-31T09:41:17Z</time>
      </trkpt>
      <trkpt lat="45.23051" lon="6.06177">
        <ele>2513.455078125</ele>
        <time>2017-03-31T09:41:19Z</time>
      </trkpt>
      <trkpt lat="45.23057" lon="6.06175">
        <ele>2502.455078125</ele>
        <time>2017-03-31T09:41:27Z</time>
      </trkpt>
      <trkpt lat="45.23069" lon="6.06171">
        <ele>2503.455078125</ele>
        <time>2017-03-31T09:41:29Z</time>
      </trkpt>
      <trkpt lat="45.23079" lon="6.06176">
        <ele>2503.455078125</ele>
        <time>2017-03-31T09:41:31Z</time>
      </trkpt>
      <trkpt lat="45.23085" lon="6.0618">
        <ele>2503.455078125</ele>
        <time>2017-03-31T09:41:32Z</time>
      </trkpt>
      <trkpt lat="45.23094" lon="6.06188">
        <ele>2501.455078125</ele>
        <time>2017-03-31T09:41:34Z</time>
      </trkpt>
      <trkpt lat="45.23102" lon="6.06208">
        <ele>2497.455078125</ele>
        <time>2017-03-31T09:41:37Z</time>
      </trkpt>
      <trkpt lat="45.23109" lon="6.06206">
        <ele>2497.455078125</ele>
        <time>2017-03-31T09:41:38Z</time>
      </trkpt>
      <trkpt lat="45.23116" lon="6.06214">
        <ele>2493.455078125</ele>
        <time>2017-03-31T09:41:40Z</time>
      </trkpt>
      <trkpt lat="45.23123" lon="6.06227">
        <ele>2488.455078125</ele>
        <time>2017-03-31T09:41:42Z</time>
      </trkpt>
      <trkpt lat="45.23132" lon="6.06243">
        <ele>2480.455078125</ele>
        <time>2017-03-31T09:41:44Z</time>
      </trkpt>
      <trkpt lat="45.23143" lon="6.06258">
        <ele>2475.455078125</ele>
        <time>2017-03-31T09:41:46Z</time>
      </trkpt>
      <trkpt lat="45.23154" lon="6.06269">
        <ele>2474.455078125</ele>
        <time>2017-03-31T09:41:48Z</time>
      </trkpt>
      <trkpt lat="45.23159" lon="6.06277">
        <ele>2471.455078125</ele>
        <time>2017-03-31T09:41:49Z</time>
      </trkpt>
      <trkpt lat="45.23168" lon="6.06293">
        <ele>2469.455078125</ele>
        <time>2017-03-31T09:41:51Z</time>
      </trkpt>
      <trkpt lat="45.23162" lon="6.06307">
        <ele>2466.455078125</ele>
        <time>2017-03-31T09:41:52Z</time>
      </trkpt>
      <trkpt lat="45.23154" lon="6.06313">
        <ele>2466.455078125</ele>
        <time>2017-03-31T09:41:54Z</time>
      </trkpt>
      <trkpt lat="45.23149" lon="6.06314">
        <ele>2459.455078125</ele>
        <time>2017-03-31T09:42:02Z</time>
      </trkpt>
      <trkpt lat="45.23151" lon="6.06325">
        <ele>2454.455078125</ele>
        <time>2017-03-31T09:42:54Z</time>
      </trkpt>
      <trkpt lat="45.23159" lon="6.06334">
        <ele>2450.455078125</ele>
        <time>2017-03-31T09:42:56Z</time>
      </trkpt>
      <trkpt lat="45.23168" lon="6.06347">
        <ele>2448.455078125</ele>
        <time>2017-03-31T09:42:58Z</time>
      </trkpt>
      <trkpt lat="45.23176" lon="6.06357">
        <ele>2448.455078125</ele>
        <time>2017-03-31T09:43:00Z</time>
      </trkpt>
      <trkpt lat="45.23184" lon="6.06369">
        <ele>2445.455078125</ele>
        <time>2017-03-31T09:43:03Z</time>
      </trkpt>
      <trkpt lat="45.23188" lon="6.06373">
        <ele>2443.455078125</ele>
        <time>2017-03-31T09:43:05Z</time>
      </trkpt>
      <trkpt lat="45.23193" lon="6.06378">
        <ele>2441.455078125</ele>
        <time>2017-03-31T09:43:08Z</time>
      </trkpt>
      <trkpt lat="45.23198" lon="6.06376">
        <ele>2440.455078125</ele>
        <time>2017-03-31T09:43:30Z</time>
      </trkpt>
      <trkpt lat="45.23201" lon="6.06381">
        <ele>2438.455078125</ele>
        <time>2017-03-31T09:43:32Z</time>
      </trkpt>
      <trkpt lat="45.23204" lon="6.0639">
        <ele>2436.455078125</ele>
        <time>2017-03-31T09:43:34Z</time>
      </trkpt>
      <trkpt lat="45.2322" lon="6.06411">
        <ele>2433.455078125</ele>
        <time>2017-03-31T09:43:36Z</time>
      </trkpt>
      <trkpt lat="45.23237" lon="6.0643">
        <ele>2429.455078125</ele>
        <time>2017-03-31T09:43:38Z</time>
      </trkpt>
      <trkpt lat="45.23248" lon="6.06445">
        <ele>2428.455078125</ele>
        <time>2017-03-31T09:43:40Z</time>
      </trkpt>
      <trkpt lat="45.23261" lon="6.06474">
        <ele>2425.455078125</ele>
        <time>2017-03-31T09:43:42Z</time>
      </trkpt>
      <trkpt lat="45.23268" lon="6.06489">
        <ele>2423.4560546875</ele>
        <time>2017-03-31T09:43:43Z</time>
      </trkpt>
      <trkpt lat="45.23254" lon="6.06524">
        <ele>2419.4560546875</ele>
        <time>2017-03-31T09:43:45Z</time>
      </trkpt>
      <trkpt lat="45.23259" lon="6.06559">
        <ele>2417.4560546875</ele>
        <time>2017-03-31T09:43:47Z</time>
      </trkpt>
      <trkpt lat="45.23265" lon="6.06552">
        <ele>2413.4560546875</ele>
        <time>2017-03-31T09:43:48Z</time>
      </trkpt>
      <trkpt lat="45.2326" lon="6.06552">
        <ele>2405.4560546875</ele>
        <time>2017-03-31T09:43:56Z</time>
      </trkpt>
      <trkpt lat="45.23255" lon="6.06554">
        <ele>2401.4560546875</ele>
        <time>2017-03-31T09:44:06Z</time>
      </trkpt>
      <trkpt lat="45.23252" lon="6.0656">
        <ele>2396.4560546875</ele>
        <time>2017-03-31T09:44:09Z</time>
      </trkpt>
      <trkpt lat="45.23258" lon="6.06568">
        <ele>2392.4560546875</ele>
        <time>2017-03-31T09:44:12Z</time>
      </trkpt>
      <trkpt lat="45.2326" lon="6.06576">
        <ele>2392.4560546875</ele>
        <time>2017-03-31T09:44:13Z</time>
      </trkpt>
      <trkpt lat="45.23259" lon="6.06595">
        <ele>2388.4560546875</ele>
        <time>2017-03-31T09:44:15Z</time>
      </trkpt>
      <trkpt lat="45.23254" lon="6.06609">
        <ele>2384.4560546875</ele>
        <time>2017-03-31T09:44:17Z</time>
      </trkpt>
      <trkpt lat="45.23251" lon="6.06625">
        <ele>2384.4560546875</ele>
        <time>2017-03-31T09:44:18Z</time>
      </trkpt>
      <trkpt lat="45.23253" lon="6.06641">
        <ele>2382.4560546875</ele>
        <time>2017-03-31T09:44:19Z</time>
      </trkpt>
      <trkpt lat="45.23261" lon="6.06653">
        <ele>2380.4560546875</ele>
        <time>2017-03-31T09:44:20Z</time>
      </trkpt>
      <trkpt lat="45.23266" lon="6.06666">
        <ele>2379.4560546875</ele>
        <time>2017-03-31T09:44:21Z</time>
      </trkpt>
      <trkpt lat="45.23265" lon="6.06692">
        <ele>2377.4560546875</ele>
        <time>2017-03-31T09:44:24Z</time>
      </trkpt>
      <trkpt lat="45.23265" lon="6.06701">
        <ele>2373.4560546875</ele>
        <time>2017-03-31T09:44:25Z</time>
      </trkpt>
      <trkpt lat="45.23265" lon="6.06721">
        <ele>2370.4560546875</ele>
        <time>2017-03-31T09:44:28Z</time>
      </trkpt>
      <trkpt lat="45.23261" lon="6.06727">
        <ele>2364.4560546875</ele>
        <time>2017-03-31T09:44:42Z</time>
      </trkpt>
      <trkpt lat="45.23261" lon="6.06735">
        <ele>2362.4560546875</ele>
        <time>2017-03-31T09:44:44Z</time>
      </trkpt>
      <trkpt lat="45.23262" lon="6.06743">
        <ele>2361.4560546875</ele>
        <time>2017-03-31T09:44:46Z</time>
      </trkpt>
      <trkpt lat="45.23264" lon="6.0675">
        <ele>2360.4560546875</ele>
        <time>2017-03-31T09:44:48Z</time>
      </trkpt>
      <trkpt lat="45.23266" lon="6.06756">
        <ele>2357.4560546875</ele>
        <time>2017-03-31T09:44:49Z</time>
      </trkpt>
      <trkpt lat="45.23273" lon="6.0677">
        <ele>2354.4560546875</ele>
        <time>2017-03-31T09:44:51Z</time>
      </trkpt>
      <trkpt lat="45.23278" lon="6.0679">
        <ele>2350.4560546875</ele>
        <time>2017-03-31T09:44:53Z</time>
      </trkpt>
      <trkpt lat="45.23282" lon="6.06811">
        <ele>2349.4560546875</ele>
        <time>2017-03-31T09:44:55Z</time>
      </trkpt>
      <trkpt lat="45.23275" lon="6.0683">
        <ele>2349.4560546875</ele>
        <time>2017-03-31T09:44:57Z</time>
      </trkpt>
      <trkpt lat="45.23252" lon="6.06857">
        <ele>2349.4560546875</ele>
        <time>2017-03-31T09:44:59Z</time>
      </trkpt>
      <trkpt lat="45.2324" lon="6.06887">
        <ele>2349.4560546875</ele>
        <time>2017-03-31T09:45:01Z</time>
      </trkpt>
      <trkpt lat="45.23246" lon="6.0692">
        <ele>2347.4560546875</ele>
        <time>2017-03-31T09:45:03Z</time>
      </trkpt>
      <trkpt lat="45.23244" lon="6.06958">
        <ele>2344.4560546875</ele>
        <time>2017-03-31T09:45:05Z</time>
      </trkpt>
      <trkpt lat="45.23247" lon="6.06973">
        <ele>2344.4560546875</ele>
        <time>2017-03-31T09:45:06Z</time>
      </trkpt>
      <trkpt lat="45.23253" lon="6.07013">
        <ele>2321.4560546875</ele>
        <time>2017-03-31T09:45:08Z</time>
      </trkpt>
      <trkpt lat="45.23254" lon="6.07028">
        <ele>2316.4560546875</ele>
        <time>2017-03-31T09:45:09Z</time>
      </trkpt>
      <trkpt lat="45.23265" lon="6.07054">
        <ele>2311.4560546875</ele>
        <time>2017-03-31T09:45:11Z</time>
      </trkpt>
      <trkpt lat="45.23274" lon="6.07074">
        <ele>2307.4560546875</ele>
        <time>2017-03-31T09:45:13Z</time>
      </trkpt>
      <trkpt lat="45.23269" lon="6.07084">
        <ele>2304.4560546875</ele>
        <time>2017-03-31T09:45:14Z</time>
      </trkpt>
      <trkpt lat="45.23269" lon="6.07092">
        <ele>2300.4560546875</ele>
        <time>2017-03-31T09:45:15Z</time>
      </trkpt>
      <trkpt lat="45.23263" lon="6.07104">
        <ele>2291.4560546875</ele>
        <time>2017-03-31T09:45:18Z</time>
      </trkpt>
      <trkpt lat="45.23258" lon="6.07106">
        <ele>2284.4560546875</ele>
        <time>2017-03-31T09:45:22Z</time>
      </trkpt>
      <trkpt lat="45.23254" lon="6.07103">
        <ele>2274.4560546875</ele>
        <time>2017-03-31T09:45:56Z</time>
      </trkpt>
      <trkpt lat="45.23251" lon="6.07096">
        <ele>2262.4560546875</ele>
        <time>2017-03-31T09:46:25Z</time>
      </trkpt>
      <trkpt lat="45.23248" lon="6.07092">
        <ele>2260.4560546875</ele>
        <time>2017-03-31T09:46:32Z</time>
      </trkpt>
      <trkpt lat="45.23248" lon="6.07085">
        <ele>2261.4560546875</ele>
        <time>2017-03-31T09:46:50Z</time>
      </trkpt>
      <trkpt lat="45.23248" lon="6.07092">
        <ele>2254.4560546875</ele>
        <time>2017-03-31T09:47:17Z</time>
      </trkpt>
      <trkpt lat="45.2325" lon="6.07099">
        <ele>2253.4560546875</ele>
        <time>2017-03-31T09:47:41Z</time>
      </trkpt>
      <trkpt lat="45.23251" lon="6.07105">
        <ele>2253.4560546875</ele>
        <time>2017-03-31T09:47:43Z</time>
      </trkpt>
      <trkpt lat="45.23249" lon="6.07119">
        <ele>2250.4560546875</ele>
        <time>2017-03-31T09:47:45Z</time>
      </trkpt>
      <trkpt lat="45.23253" lon="6.07137">
        <ele>2248.4560546875</ele>
        <time>2017-03-31T09:47:47Z</time>
      </trkpt>
      <trkpt lat="45.23256" lon="6.07155">
        <ele>2247.4560546875</ele>
        <time>2017-03-31T09:47:49Z</time>
      </trkpt>
      <trkpt lat="45.23261" lon="6.07172">
        <ele>2245.4560546875</ele>
        <time>2017-03-31T09:47:51Z</time>
      </trkpt>
      <trkpt lat="45.23264" lon="6.07181">
        <ele>2245.4560546875</ele>
        <time>2017-03-31T09:47:53Z</time>
      </trkpt>
      <trkpt lat="45.23266" lon="6.0719">
        <ele>2244.4560546875</ele>
        <time>2017-03-31T09:47:55Z</time>
      </trkpt>
      <trkpt lat="45.23268" lon="6.07201">
        <ele>2243.4560546875</ele>
        <time>2017-03-31T09:47:57Z</time>
      </trkpt>
      <trkpt lat="45.23271" lon="6.07213">
        <ele>2242.45703125</ele>
        <time>2017-03-31T09:47:59Z</time>
      </trkpt>
      <trkpt lat="45.23276" lon="6.07226">
        <ele>2242.45703125</ele>
        <time>2017-03-31T09:48:01Z</time>
      </trkpt>
      <trkpt lat="45.23281" lon="6.07237">
        <ele>2242.45703125</ele>
        <time>2017-03-31T09:48:03Z</time>
      </trkpt>
      <trkpt lat="45.23284" lon="6.07248">
        <ele>2240.45703125</ele>
        <time>2017-03-31T09:48:05Z</time>
      </trkpt>
      <trkpt lat="45.23289" lon="6.0726">
        <ele>2239.45703125</ele>
        <time>2017-03-31T09:48:07Z</time>
      </trkpt>
      <trkpt lat="45.23295" lon="6.07272">
        <ele>2238.45703125</ele>
        <time>2017-03-31T09:48:10Z</time>
      </trkpt>
      <trkpt lat="45.233" lon="6.07274">
        <ele>2237.45703125</ele>
        <time>2017-03-31T09:48:12Z</time>
      </trkpt>
      <trkpt lat="45.23308" lon="6.07287">
        <ele>2236.45703125</ele>
        <time>2017-03-31T09:48:14Z</time>
      </trkpt>
      <trkpt lat="45.23312" lon="6.07298">
        <ele>2234.45703125</ele>
        <time>2017-03-31T09:48:15Z</time>
      </trkpt>
      <trkpt lat="45.23316" lon="6.07307">
        <ele>2234.45703125</ele>
        <time>2017-03-31T09:48:16Z</time>
      </trkpt>
      <trkpt lat="45.2332" lon="6.07324">
        <ele>2233.45703125</ele>
        <time>2017-03-31T09:48:18Z</time>
      </trkpt>
      <trkpt lat="45.23326" lon="6.07339">
        <ele>2233.45703125</ele>
        <time>2017-03-31T09:48:21Z</time>
      </trkpt>
      <trkpt lat="45.2333" lon="6.07343">
        <ele>2226.45703125</ele>
        <time>2017-03-31T09:48:39Z</time>
      </trkpt>
      <trkpt lat="45.23332" lon="6.07349">
        <ele>2225.45703125</ele>
        <time>2017-03-31T09:48:41Z</time>
      </trkpt>
      <trkpt lat="45.23335" lon="6.07359">
        <ele>2224.45703125</ele>
        <time>2017-03-31T09:48:44Z</time>
      </trkpt>
      <trkpt lat="45.23336" lon="6.07374">
        <ele>2223.45703125</ele>
        <time>2017-03-31T09:48:46Z</time>
      </trkpt>
      <trkpt lat="45.23338" lon="6.07384">
        <ele>2223.45703125</ele>
        <time>2017-03-31T09:48:47Z</time>
      </trkpt>
      <trkpt lat="45.23342" lon="6.07406">
        <ele>2223.45703125</ele>
        <time>2017-03-31T09:48:49Z</time>
      </trkpt>
      <trkpt lat="45.23347" lon="6.07424">
        <ele>2224.45703125</ele>
        <time>2017-03-31T09:48:51Z</time>
      </trkpt>
      <trkpt lat="45.2335" lon="6.07443">
        <ele>2223.45703125</ele>
        <time>2017-03-31T09:48:53Z</time>
      </trkpt>
      <trkpt lat="45.23354" lon="6.07457">
        <ele>2220.45703125</ele>
        <time>2017-03-31T09:48:55Z</time>
      </trkpt>
      <trkpt lat="45.23358" lon="6.07471">
        <ele>2218.45703125</ele>
        <time>2017-03-31T09:48:57Z</time>
      </trkpt>
      <trkpt lat="45.23364" lon="6.07492">
        <ele>2215.45703125</ele>
        <time>2017-03-31T09:48:59Z</time>
      </trkpt>
      <trkpt lat="45.2337" lon="6.07519">
        <ele>2213.45703125</ele>
        <time>2017-03-31T09:49:01Z</time>
      </trkpt>
      <trkpt lat="45.23374" lon="6.07533">
        <ele>2204.45703125</ele>
        <time>2017-03-31T09:49:03Z</time>
      </trkpt>
      <trkpt lat="45.23373" lon="6.0754">
        <ele>2198.45703125</ele>
        <time>2017-03-31T09:49:16Z</time>
      </trkpt>
      <trkpt lat="45.2337" lon="6.07545">
        <ele>2197.45703125</ele>
        <time>2017-03-31T09:51:27Z</time>
      </trkpt>
      <trkpt lat="45.23374" lon="6.07549">
        <ele>2199.45703125</ele>
        <time>2017-03-31T09:54:44Z</time>
      </trkpt>
      <trkpt lat="45.23378" lon="6.07551">
        <ele>2197.45703125</ele>
        <time>2017-03-31T09:54:50Z</time>
      </trkpt>
      <trkpt lat="45.23382" lon="6.07553">
        <ele>2198.45703125</ele>
        <time>2017-03-31T09:54:57Z</time>
      </trkpt>
      <trkpt lat="45.23388" lon="6.07554">
        <ele>2198.45703125</ele>
        <time>2017-03-31T09:55:09Z</time>
      </trkpt>
      <trkpt lat="45.23393" lon="6.07555">
        <ele>2199.45703125</ele>
        <time>2017-03-31T09:55:16Z</time>
      </trkpt>
      <trkpt lat="45.23398" lon="6.07557">
        <ele>2203.45703125</ele>
        <time>2017-03-31T09:55:24Z</time>
      </trkpt>
      <trkpt lat="45.23403" lon="6.07559">
        <ele>2202.45703125</ele>
        <time>2017-03-31T09:55:30Z</time>
      </trkpt>
      <trkpt lat="45.23404" lon="6.07552">
        <ele>2206.45703125</ele>
        <time>2017-03-31T09:55:37Z</time>
      </trkpt>
      <trkpt lat="45.23407" lon="6.07546">
        <ele>2209.45703125</ele>
        <time>2017-03-31T09:55:45Z</time>
      </trkpt>
      <trkpt lat="45.2341" lon="6.07541">
        <ele>2209.45703125</ele>
        <time>2017-03-31T09:55:50Z</time>
      </trkpt>
      <trkpt lat="45.23414" lon="6.07534">
        <ele>2213.45703125</ele>
        <time>2017-03-31T09:56:01Z</time>
      </trkpt>
      <trkpt lat="45.23416" lon="6.07527">
        <ele>2214.45703125</ele>
        <time>2017-03-31T09:56:07Z</time>
      </trkpt>
      <trkpt lat="45.23416" lon="6.0752">
        <ele>2216.45703125</ele>
        <time>2017-03-31T09:56:21Z</time>
      </trkpt>
      <trkpt lat="45.23421" lon="6.07518">
        <ele>2217.45703125</ele>
        <time>2017-03-31T09:56:29Z</time>
      </trkpt>
      <trkpt lat="45.23425" lon="6.07518">
        <ele>2219.45703125</ele>
        <time>2017-03-31T09:56:34Z</time>
      </trkpt>
      <trkpt lat="45.2343" lon="6.07521">
        <ele>2222.45703125</ele>
        <time>2017-03-31T09:56:42Z</time>
      </trkpt>
      <trkpt lat="45.23435" lon="6.07524">
        <ele>2227.45703125</ele>
        <time>2017-03-31T09:56:51Z</time>
      </trkpt>
      <trkpt lat="45.2344" lon="6.07524">
        <ele>2229.45703125</ele>
        <time>2017-03-31T09:56:54Z</time>
      </trkpt>
      <trkpt lat="45.23442" lon="6.07518">
        <ele>2229.45703125</ele>
        <time>2017-03-31T09:57:14Z</time>
      </trkpt>
      <trkpt lat="45.23442" lon="6.07511">
        <ele>2230.45703125</ele>
        <time>2017-03-31T09:57:21Z</time>
      </trkpt>
      <trkpt lat="45.23441" lon="6.07505">
        <ele>2233.45703125</ele>
        <time>2017-03-31T09:57:27Z</time>
      </trkpt>
      <trkpt lat="45.23441" lon="6.07498">
        <ele>2234.45703125</ele>
        <time>2017-03-31T09:57:36Z</time>
      </trkpt>
      <trkpt lat="45.23438" lon="6.07493">
        <ele>2237.45703125</ele>
        <time>2017-03-31T09:57:42Z</time>
      </trkpt>
      <trkpt lat="45.23435" lon="6.07487">
        <ele>2238.45703125</ele>
        <time>2017-03-31T09:57:47Z</time>
      </trkpt>
      <trkpt lat="45.23433" lon="6.0748">
        <ele>2241.45703125</ele>
        <time>2017-03-31T09:57:55Z</time>
      </trkpt>
      <trkpt lat="45.23432" lon="6.07473">
        <ele>2239.45703125</ele>
        <time>2017-03-31T09:58:02Z</time>
      </trkpt>
      <trkpt lat="45.23429" lon="6.07468">
        <ele>2246.45703125</ele>
        <time>2017-03-31T09:58:10Z</time>
      </trkpt>
      <trkpt lat="45.23428" lon="6.07462">
        <ele>2250.45703125</ele>
        <time>2017-03-31T09:58:25Z</time>
      </trkpt>
      <trkpt lat="45.23424" lon="6.07458">
        <ele>2248.45703125</ele>
        <time>2017-03-31T09:58:49Z</time>
      </trkpt>
      <trkpt lat="45.23421" lon="6.07452">
        <ele>2249.45703125</ele>
        <time>2017-03-31T09:58:57Z</time>
      </trkpt>
      <trkpt lat="45.23419" lon="6.07446">
        <ele>2249.45703125</ele>
        <time>2017-03-31T09:59:02Z</time>
      </trkpt>
      <trkpt lat="45.23418" lon="6.0744">
        <ele>2249.45703125</ele>
        <time>2017-03-31T09:59:09Z</time>
      </trkpt>
      <trkpt lat="45.23418" lon="6.07433">
        <ele>2250.45703125</ele>
        <time>2017-03-31T09:59:17Z</time>
      </trkpt>
      <trkpt lat="45.23416" lon="6.07427">
        <ele>2253.45703125</ele>
        <time>2017-03-31T09:59:25Z</time>
      </trkpt>
      <trkpt lat="45.23415" lon="6.0742">
        <ele>2254.45703125</ele>
        <time>2017-03-31T09:59:30Z</time>
      </trkpt>
      <trkpt lat="45.23414" lon="6.07414">
        <ele>2254.45703125</ele>
        <time>2017-03-31T09:59:37Z</time>
      </trkpt>
      <trkpt lat="45.23414" lon="6.07407">
        <ele>2256.45703125</ele>
        <time>2017-03-31T09:59:42Z</time>
      </trkpt>
      <trkpt lat="45.23414" lon="6.07399">
        <ele>2259.45703125</ele>
        <time>2017-03-31T09:59:52Z</time>
      </trkpt>
      <trkpt lat="45.23415" lon="6.07392">
        <ele>2260.45703125</ele>
        <time>2017-03-31T09:59:58Z</time>
      </trkpt>
      <trkpt lat="45.23412" lon="6.07387">
        <ele>2262.45703125</ele>
        <time>2017-03-31T10:00:03Z</time>
      </trkpt>
      <trkpt lat="45.23416" lon="6.07383">
        <ele>2269.45703125</ele>
        <time>2017-03-31T10:00:12Z</time>
      </trkpt>
      <trkpt lat="45.23421" lon="6.07382">
        <ele>2271.45703125</ele>
        <time>2017-03-31T10:00:18Z</time>
      </trkpt>
      <trkpt lat="45.23428" lon="6.07384">
        <ele>2272.45703125</ele>
        <time>2017-03-31T10:00:25Z</time>
      </trkpt>
      <trkpt lat="45.23434" lon="6.07385">
        <ele>2277.45703125</ele>
        <time>2017-03-31T10:00:30Z</time>
      </trkpt>
      <trkpt lat="45.23439" lon="6.07384">
        <ele>2278.45703125</ele>
        <time>2017-03-31T10:00:37Z</time>
      </trkpt>
      <trkpt lat="45.23445" lon="6.07385">
        <ele>2279.45703125</ele>
        <time>2017-03-31T10:00:44Z</time>
      </trkpt>
      <trkpt lat="45.2345" lon="6.07386">
        <ele>2283.45703125</ele>
        <time>2017-03-31T10:00:49Z</time>
      </trkpt>
      <trkpt lat="45.23456" lon="6.07383">
        <ele>2284.45703125</ele>
        <time>2017-03-31T10:00:58Z</time>
      </trkpt>
      <trkpt lat="45.23459" lon="6.07378">
        <ele>2285.45703125</ele>
        <time>2017-03-31T10:01:03Z</time>
      </trkpt>
      <trkpt lat="45.23455" lon="6.07372">
        <ele>2287.45703125</ele>
        <time>2017-03-31T10:01:10Z</time>
      </trkpt>
      <trkpt lat="45.23453" lon="6.07365">
        <ele>2289.45703125</ele>
        <time>2017-03-31T10:01:15Z</time>
      </trkpt>
      <trkpt lat="45.23451" lon="6.07359">
        <ele>2287.45703125</ele>
        <time>2017-03-31T10:01:22Z</time>
      </trkpt>
      <trkpt lat="45.2345" lon="6.07353">
        <ele>2288.45703125</ele>
        <time>2017-03-31T10:01:29Z</time>
      </trkpt>
      <trkpt lat="45.23452" lon="6.07347">
        <ele>2288.45703125</ele>
        <time>2017-03-31T10:01:35Z</time>
      </trkpt>
      <trkpt lat="45.23454" lon="6.0734">
        <ele>2287.45703125</ele>
        <time>2017-03-31T10:01:43Z</time>
      </trkpt>
      <trkpt lat="45.23452" lon="6.07333">
        <ele>2288.45703125</ele>
        <time>2017-03-31T10:01:49Z</time>
      </trkpt>
      <trkpt lat="45.23454" lon="6.07327">
        <ele>2291.45703125</ele>
        <time>2017-03-31T10:01:56Z</time>
      </trkpt>
      <trkpt lat="45.23458" lon="6.07324">
        <ele>2296.45703125</ele>
        <time>2017-03-31T10:02:09Z</time>
      </trkpt>
      <trkpt lat="45.23464" lon="6.07325">
        <ele>2302.45703125</ele>
        <time>2017-03-31T10:02:23Z</time>
      </trkpt>
      <trkpt lat="45.23469" lon="6.07324">
        <ele>2306.45703125</ele>
        <time>2017-03-31T10:02:36Z</time>
      </trkpt>
      <trkpt lat="45.23471" lon="6.07318">
        <ele>2310.45703125</ele>
        <time>2017-03-31T10:02:43Z</time>
      </trkpt>
      <trkpt lat="45.23474" lon="6.07312">
        <ele>2309.45703125</ele>
        <time>2017-03-31T10:02:55Z</time>
      </trkpt>
      <trkpt lat="45.23472" lon="6.07304">
        <ele>2312.45703125</ele>
        <time>2017-03-31T10:03:07Z</time>
      </trkpt>
      <trkpt lat="45.23476" lon="6.07301">
        <ele>2311.45703125</ele>
        <time>2017-03-31T10:03:18Z</time>
      </trkpt>
      <trkpt lat="45.23482" lon="6.07302">
        <ele>2314.45703125</ele>
        <time>2017-03-31T10:03:28Z</time>
      </trkpt>
      <trkpt lat="45.23487" lon="6.07305">
        <ele>2317.45703125</ele>
        <time>2017-03-31T10:03:37Z</time>
      </trkpt>
      <trkpt lat="45.23488" lon="6.07298">
        <ele>2321.45703125</ele>
        <time>2017-03-31T10:03:51Z</time>
      </trkpt>
      <trkpt lat="45.23487" lon="6.07292">
        <ele>2321.45703125</ele>
        <time>2017-03-31T10:03:59Z</time>
      </trkpt>
      <trkpt lat="45.23488" lon="6.07285">
        <ele>2324.45703125</ele>
        <time>2017-03-31T10:04:09Z</time>
      </trkpt>
      <trkpt lat="45.23487" lon="6.07278">
        <ele>2328.45703125</ele>
        <time>2017-03-31T10:04:16Z</time>
      </trkpt>
      <trkpt lat="45.23491" lon="6.07273">
        <ele>2334.45703125</ele>
        <time>2017-03-31T10:04:24Z</time>
      </trkpt>
      <trkpt lat="45.23496" lon="6.07273">
        <ele>2340.45703125</ele>
        <time>2017-03-31T10:04:36Z</time>
      </trkpt>
      <trkpt lat="45.23501" lon="6.0727">
        <ele>2337.45703125</ele>
        <time>2017-03-31T10:04:42Z</time>
      </trkpt>
      <trkpt lat="45.23506" lon="6.07268">
        <ele>2342.45703125</ele>
        <time>2017-03-31T10:05:10Z</time>
      </trkpt>
      <trkpt lat="45.23506" lon="6.0726">
        <ele>2344.45703125</ele>
        <time>2017-03-31T10:05:20Z</time>
      </trkpt>
      <trkpt lat="45.23508" lon="6.07254">
        <ele>2346.45703125</ele>
        <time>2017-03-31T10:05:32Z</time>
      </trkpt>
      <trkpt lat="45.23506" lon="6.07248">
        <ele>2348.45703125</ele>
        <time>2017-03-31T10:05:36Z</time>
      </trkpt>
      <trkpt lat="45.23501" lon="6.07243">
        <ele>2349.45703125</ele>
        <time>2017-03-31T10:05:41Z</time>
      </trkpt>
      <trkpt lat="45.23498" lon="6.07237">
        <ele>2348.45703125</ele>
        <time>2017-03-31T10:05:48Z</time>
      </trkpt>
      <trkpt lat="45.23501" lon="6.07233">
        <ele>2352.45703125</ele>
        <time>2017-03-31T10:05:55Z</time>
      </trkpt>
      <trkpt lat="45.23504" lon="6.07227">
        <ele>2353.45703125</ele>
        <time>2017-03-31T10:06:02Z</time>
      </trkpt>
      <trkpt lat="45.23507" lon="6.07222">
        <ele>2356.45703125</ele>
        <time>2017-03-31T10:06:09Z</time>
      </trkpt>
      <trkpt lat="45.23512" lon="6.0722">
        <ele>2356.45703125</ele>
        <time>2017-03-31T10:06:16Z</time>
      </trkpt>
      <trkpt lat="45.23515" lon="6.07215">
        <ele>2361.45703125</ele>
        <time>2017-03-31T10:06:23Z</time>
      </trkpt>
      <trkpt lat="45.2352" lon="6.07215">
        <ele>2362.45703125</ele>
        <time>2017-03-31T10:06:33Z</time>
      </trkpt>
      <trkpt lat="45.23525" lon="6.07216">
        <ele>2362.45703125</ele>
        <time>2017-03-31T10:06:39Z</time>
      </trkpt>
      <trkpt lat="45.2353" lon="6.07217">
        <ele>2364.45703125</ele>
        <time>2017-03-31T10:06:44Z</time>
      </trkpt>
      <trkpt lat="45.23534" lon="6.07219">
        <ele>2367.45703125</ele>
        <time>2017-03-31T10:06:52Z</time>
      </trkpt>
      <trkpt lat="45.23539" lon="6.07222">
        <ele>2369.45703125</ele>
        <time>2017-03-31T10:06:57Z</time>
      </trkpt>
      <trkpt lat="45.23543" lon="6.07225">
        <ele>2367.45703125</ele>
        <time>2017-03-31T10:07:07Z</time>
      </trkpt>
      <trkpt lat="45.23547" lon="6.07229">
        <ele>2370.45703125</ele>
        <time>2017-03-31T10:07:16Z</time>
      </trkpt>
      <trkpt lat="45.23551" lon="6.07232">
        <ele>2371.45703125</ele>
        <time>2017-03-31T10:07:22Z</time>
      </trkpt>
      <trkpt lat="45.23555" lon="6.07235">
        <ele>2372.45703125</ele>
        <time>2017-03-31T10:07:28Z</time>
      </trkpt>
      <trkpt lat="45.23558" lon="6.0723">
        <ele>2374.45703125</ele>
        <time>2017-03-31T10:08:34Z</time>
      </trkpt>
      <trkpt lat="45.23559" lon="6.07224">
        <ele>2375.45703125</ele>
        <time>2017-03-31T10:08:52Z</time>
      </trkpt>
      <trkpt lat="45.23563" lon="6.07219">
        <ele>2383.45703125</ele>
        <time>2017-03-31T10:09:40Z</time>
      </trkpt>
      <trkpt lat="45.23564" lon="6.07211">
        <ele>2384.45703125</ele>
        <time>2017-03-31T10:09:46Z</time>
      </trkpt>
      <trkpt lat="45.23562" lon="6.07205">
        <ele>2386.45703125</ele>
        <time>2017-03-31T10:10:00Z</time>
      </trkpt>
      <trkpt lat="45.23563" lon="6.07199">
        <ele>2385.45703125</ele>
        <time>2017-03-31T10:10:05Z</time>
      </trkpt>
      <trkpt lat="45.23565" lon="6.07192">
        <ele>2387.45703125</ele>
        <time>2017-03-31T10:10:10Z</time>
      </trkpt>
      <trkpt lat="45.23565" lon="6.07184">
        <ele>2390.45703125</ele>
        <time>2017-03-31T10:10:19Z</time>
      </trkpt>
      <trkpt lat="45.23566" lon="6.07177">
        <ele>2394.45703125</ele>
        <time>2017-03-31T10:10:27Z</time>
      </trkpt>
      <trkpt lat="45.23562" lon="6.07172">
        <ele>2393.45703125</ele>
        <time>2017-03-31T10:10:33Z</time>
      </trkpt>
      <trkpt lat="45.23563" lon="6.07164">
        <ele>2393.45703125</ele>
        <time>2017-03-31T10:10:39Z</time>
      </trkpt>
      <trkpt lat="45.23561" lon="6.07158">
        <ele>2395.45703125</ele>
        <time>2017-03-31T10:10:47Z</time>
      </trkpt>
      <trkpt lat="45.23559" lon="6.07152">
        <ele>2396.45703125</ele>
        <time>2017-03-31T10:10:53Z</time>
      </trkpt>
      <trkpt lat="45.23557" lon="6.07145">
        <ele>2395.45703125</ele>
        <time>2017-03-31T10:11:04Z</time>
      </trkpt>
      <trkpt lat="45.23554" lon="6.07138">
        <ele>2397.45703125</ele>
        <time>2017-03-31T10:11:13Z</time>
      </trkpt>
      <trkpt lat="45.23552" lon="6.07131">
        <ele>2399.45703125</ele>
        <time>2017-03-31T10:11:27Z</time>
      </trkpt>
      <trkpt lat="45.23551" lon="6.07125">
        <ele>2406.45703125</ele>
        <time>2017-03-31T10:11:34Z</time>
      </trkpt>
      <trkpt lat="45.23549" lon="6.07119">
        <ele>2410.45703125</ele>
        <time>2017-03-31T10:11:49Z</time>
      </trkpt>
      <trkpt lat="45.23549" lon="6.07112">
        <ele>2409.45703125</ele>
        <time>2017-03-31T10:16:14Z</time>
      </trkpt>
      <trkpt lat="45.2355" lon="6.07105">
        <ele>2410.45703125</ele>
        <time>2017-03-31T10:19:50Z</time>
      </trkpt>
      <trkpt lat="45.2355" lon="6.07098">
        <ele>2409.45703125</ele>
        <time>2017-03-31T10:19:56Z</time>
      </trkpt>
      <trkpt lat="45.23549" lon="6.07091">
        <ele>2409.45703125</ele>
        <time>2017-03-31T10:20:00Z</time>
      </trkpt>
      <trkpt lat="45.23549" lon="6.07084">
        <ele>2409.45703125</ele>
        <time>2017-03-31T10:20:07Z</time>
      </trkpt>
      <trkpt lat="45.2355" lon="6.07078">
        <ele>2409.45703125</ele>
        <time>2017-03-31T10:20:11Z</time>
      </trkpt>
      <trkpt lat="45.23549" lon="6.07071">
        <ele>2409.45703125</ele>
        <time>2017-03-31T10:20:15Z</time>
      </trkpt>
      <trkpt lat="45.2355" lon="6.07064">
        <ele>2405.45703125</ele>
        <time>2017-03-31T10:20:20Z</time>
      </trkpt>
      <trkpt lat="45.23547" lon="6.07058">
        <ele>2405.45703125</ele>
        <time>2017-03-31T10:20:26Z</time>
      </trkpt>
      <trkpt lat="45.23546" lon="6.0705">
        <ele>2409.45703125</ele>
        <time>2017-03-31T10:20:34Z</time>
      </trkpt>
      <trkpt lat="45.23546" lon="6.07043">
        <ele>2410.45703125</ele>
        <time>2017-03-31T10:20:40Z</time>
      </trkpt>
      <trkpt lat="45.23545" lon="6.07037">
        <ele>2409.45703125</ele>
        <time>2017-03-31T10:20:47Z</time>
      </trkpt>
      <trkpt lat="45.23545" lon="6.0703">
        <ele>2410.45703125</ele>
        <time>2017-03-31T10:20:52Z</time>
      </trkpt>
      <trkpt lat="45.23545" lon="6.07023">
        <ele>2412.45703125</ele>
        <time>2017-03-31T10:20:59Z</time>
      </trkpt>
      <trkpt lat="45.23543" lon="6.07015">
        <ele>2413.45703125</ele>
        <time>2017-03-31T10:21:11Z</time>
      </trkpt>
      <trkpt lat="45.23543" lon="6.07008">
        <ele>2411.45703125</ele>
        <time>2017-03-31T10:21:15Z</time>
      </trkpt>
      <trkpt lat="45.23541" lon="6.07002">
        <ele>2412.45703125</ele>
        <time>2017-03-31T10:21:22Z</time>
      </trkpt>
      <trkpt lat="45.2354" lon="6.06993">
        <ele>2413.45703125</ele>
        <time>2017-03-31T10:21:37Z</time>
      </trkpt>
      <trkpt lat="45.2354" lon="6.06986">
        <ele>2413.45703125</ele>
        <time>2017-03-31T10:21:42Z</time>
      </trkpt>
      <trkpt lat="45.23537" lon="6.06981">
        <ele>2414.45703125</ele>
        <time>2017-03-31T10:21:52Z</time>
      </trkpt>
      <trkpt lat="45.23535" lon="6.06973">
        <ele>2413.45703125</ele>
        <time>2017-03-31T10:21:57Z</time>
      </trkpt>
      <trkpt lat="45.23533" lon="6.06966">
        <ele>2418.45703125</ele>
        <time>2017-03-31T10:22:09Z</time>
      </trkpt>
      <trkpt lat="45.23531" lon="6.06959">
        <ele>2418.45703125</ele>
        <time>2017-03-31T10:22:14Z</time>
      </trkpt>
      <trkpt lat="45.23529" lon="6.06954">
        <ele>2418.45703125</ele>
        <time>2017-03-31T10:22:17Z</time>
      </trkpt>
      <trkpt lat="45.23527" lon="6.06946">
        <ele>2417.45703125</ele>
        <time>2017-03-31T10:22:22Z</time>
      </trkpt>
      <trkpt lat="45.23525" lon="6.0694">
        <ele>2415.45703125</ele>
        <time>2017-03-31T10:22:26Z</time>
      </trkpt>
      <trkpt lat="45.23524" lon="6.06933">
        <ele>2415.45703125</ele>
        <time>2017-03-31T10:22:32Z</time>
      </trkpt>
      <trkpt lat="45.2352" lon="6.06927">
        <ele>2415.45703125</ele>
        <time>2017-03-31T10:22:38Z</time>
      </trkpt>
      <trkpt lat="45.23518" lon="6.0692">
        <ele>2414.45703125</ele>
        <time>2017-03-31T10:22:42Z</time>
      </trkpt>
      <trkpt lat="45.23518" lon="6.06913">
        <ele>2423.45703125</ele>
        <time>2017-03-31T10:22:47Z</time>
      </trkpt>
      <trkpt lat="45.23516" lon="6.06905">
        <ele>2426.45703125</ele>
        <time>2017-03-31T10:22:50Z</time>
      </trkpt>
      <trkpt lat="45.23516" lon="6.06898">
        <ele>2427.45703125</ele>
        <time>2017-03-31T10:22:54Z</time>
      </trkpt>
      <trkpt lat="45.23515" lon="6.0689">
        <ele>2426.45703125</ele>
        <time>2017-03-31T10:22:58Z</time>
      </trkpt>
      <trkpt lat="45.23517" lon="6.06883">
        <ele>2427.45703125</ele>
        <time>2017-03-31T10:23:03Z</time>
      </trkpt>
      <trkpt lat="45.23516" lon="6.06875">
        <ele>2428.45703125</ele>
        <time>2017-03-31T10:23:08Z</time>
      </trkpt>
      <trkpt lat="45.23517" lon="6.06868">
        <ele>2430.45703125</ele>
        <time>2017-03-31T10:23:14Z</time>
      </trkpt>
      <trkpt lat="45.23518" lon="6.06861">
        <ele>2433.45703125</ele>
        <time>2017-03-31T10:23:20Z</time>
      </trkpt>
      <trkpt lat="45.23521" lon="6.06855">
        <ele>2437.45703125</ele>
        <time>2017-03-31T10:23:28Z</time>
      </trkpt>
      <trkpt lat="45.23522" lon="6.06848">
        <ele>2437.45703125</ele>
        <time>2017-03-31T10:23:33Z</time>
      </trkpt>
      <trkpt lat="45.23524" lon="6.06842">
        <ele>2439.45703125</ele>
        <time>2017-03-31T10:23:39Z</time>
      </trkpt>
      <trkpt lat="45.23525" lon="6.06836">
        <ele>2442.45703125</ele>
        <time>2017-03-31T10:23:52Z</time>
      </trkpt>
      <trkpt lat="45.23528" lon="6.0683">
        <ele>2446.4560546875</ele>
        <time>2017-03-31T10:23:57Z</time>
      </trkpt>
      <trkpt lat="45.23531" lon="6.06824">
        <ele>2448.4560546875</ele>
        <time>2017-03-31T10:24:01Z</time>
      </trkpt>
      <trkpt lat="45.23535" lon="6.06819">
        <ele>2448.4560546875</ele>
        <time>2017-03-31T10:24:06Z</time>
      </trkpt>
      <trkpt lat="45.23539" lon="6.06815">
        <ele>2444.4560546875</ele>
        <time>2017-03-31T10:24:13Z</time>
      </trkpt>
      <trkpt lat="45.23542" lon="6.06809">
        <ele>2444.4560546875</ele>
        <time>2017-03-31T10:24:17Z</time>
      </trkpt>
      <trkpt lat="45.23546" lon="6.06804">
        <ele>2442.4560546875</ele>
        <time>2017-03-31T10:24:20Z</time>
      </trkpt>
      <trkpt lat="45.23549" lon="6.06798">
        <ele>2445.4560546875</ele>
        <time>2017-03-31T10:24:27Z</time>
      </trkpt>
      <trkpt lat="45.23553" lon="6.06792">
        <ele>2443.4560546875</ele>
        <time>2017-03-31T10:24:30Z</time>
      </trkpt>
      <trkpt lat="45.23557" lon="6.06789">
        <ele>2448.4560546875</ele>
        <time>2017-03-31T10:24:36Z</time>
      </trkpt>
      <trkpt lat="45.23561" lon="6.06784">
        <ele>2446.4560546875</ele>
        <time>2017-03-31T10:24:40Z</time>
      </trkpt>
      <trkpt lat="45.23563" lon="6.06776">
        <ele>2448.4560546875</ele>
        <time>2017-03-31T10:24:47Z</time>
      </trkpt>
      <trkpt lat="45.23566" lon="6.06769">
        <ele>2446.4560546875</ele>
        <time>2017-03-31T10:24:51Z</time>
      </trkpt>
      <trkpt lat="45.23568" lon="6.06762">
        <ele>2447.4560546875</ele>
        <time>2017-03-31T10:24:58Z</time>
      </trkpt>
      <trkpt lat="45.23571" lon="6.06755">
        <ele>2444.4560546875</ele>
        <time>2017-03-31T10:25:02Z</time>
      </trkpt>
      <trkpt lat="45.23572" lon="6.06748">
        <ele>2444.4560546875</ele>
        <time>2017-03-31T10:25:06Z</time>
      </trkpt>
      <trkpt lat="45.23575" lon="6.06742">
        <ele>2444.4560546875</ele>
        <time>2017-03-31T10:25:12Z</time>
      </trkpt>
      <trkpt lat="45.23574" lon="6.06736">
        <ele>2450.4560546875</ele>
        <time>2017-03-31T10:25:18Z</time>
      </trkpt>
      <trkpt lat="45.23574" lon="6.06729">
        <ele>2454.4560546875</ele>
        <time>2017-03-31T10:25:23Z</time>
      </trkpt>
      <trkpt lat="45.23577" lon="6.06723">
        <ele>2454.4560546875</ele>
        <time>2017-03-31T10:25:37Z</time>
      </trkpt>
      <trkpt lat="45.23578" lon="6.06715">
        <ele>2459.4560546875</ele>
        <time>2017-03-31T10:25:45Z</time>
      </trkpt>
      <trkpt lat="45.23579" lon="6.06709">
        <ele>2457.4560546875</ele>
        <time>2017-03-31T10:25:50Z</time>
      </trkpt>
      <trkpt lat="45.2358" lon="6.067">
        <ele>2457.4560546875</ele>
        <time>2017-03-31T10:25:55Z</time>
      </trkpt>
      <trkpt lat="45.23581" lon="6.06693">
        <ele>2457.4560546875</ele>
        <time>2017-03-31T10:25:59Z</time>
      </trkpt>
      <trkpt lat="45.23582" lon="6.06686">
        <ele>2459.4560546875</ele>
        <time>2017-03-31T10:26:05Z</time>
      </trkpt>
      <trkpt lat="45.23583" lon="6.06677">
        <ele>2459.4560546875</ele>
        <time>2017-03-31T10:26:10Z</time>
      </trkpt>
      <trkpt lat="45.23582" lon="6.0667">
        <ele>2460.4560546875</ele>
        <time>2017-03-31T10:26:14Z</time>
      </trkpt>
      <trkpt lat="45.23584" lon="6.06663">
        <ele>2460.4560546875</ele>
        <time>2017-03-31T10:26:19Z</time>
      </trkpt>
      <trkpt lat="45.23582" lon="6.06655">
        <ele>2461.4560546875</ele>
        <time>2017-03-31T10:26:42Z</time>
      </trkpt>
      <trkpt lat="45.23582" lon="6.06648">
        <ele>2462.4560546875</ele>
        <time>2017-03-31T10:26:45Z</time>
      </trkpt>
      <trkpt lat="45.23582" lon="6.06642">
        <ele>2460.4560546875</ele>
        <time>2017-03-31T10:26:49Z</time>
      </trkpt>
      <trkpt lat="45.23585" lon="6.06636">
        <ele>2459.4560546875</ele>
        <time>2017-03-31T10:26:59Z</time>
      </trkpt>
      <trkpt lat="45.23584" lon="6.06629">
        <ele>2460.4560546875</ele>
        <time>2017-03-31T10:27:04Z</time>
      </trkpt>
      <trkpt lat="45.23583" lon="6.06622">
        <ele>2461.4560546875</ele>
        <time>2017-03-31T10:27:08Z</time>
      </trkpt>
      <trkpt lat="45.23584" lon="6.06616">
        <ele>2461.4560546875</ele>
        <time>2017-03-31T10:27:13Z</time>
      </trkpt>
      <trkpt lat="45.23584" lon="6.06608">
        <ele>2463.4560546875</ele>
        <time>2017-03-31T10:27:17Z</time>
      </trkpt>
      <trkpt lat="45.23583" lon="6.06601">
        <ele>2465.4560546875</ele>
        <time>2017-03-31T10:27:23Z</time>
      </trkpt>
      <trkpt lat="45.23582" lon="6.06594">
        <ele>2467.4560546875</ele>
        <time>2017-03-31T10:27:29Z</time>
      </trkpt>
      <trkpt lat="45.23581" lon="6.06588">
        <ele>2465.4560546875</ele>
        <time>2017-03-31T10:27:34Z</time>
      </trkpt>
      <trkpt lat="45.2358" lon="6.06581">
        <ele>2466.4560546875</ele>
        <time>2017-03-31T10:27:42Z</time>
      </trkpt>
      <trkpt lat="45.23581" lon="6.06574">
        <ele>2466.4560546875</ele>
        <time>2017-03-31T10:27:46Z</time>
      </trkpt>
      <trkpt lat="45.23581" lon="6.06567">
        <ele>2466.4560546875</ele>
        <time>2017-03-31T10:27:49Z</time>
      </trkpt>
      <trkpt lat="45.23583" lon="6.0656">
        <ele>2466.4560546875</ele>
        <time>2017-03-31T10:27:55Z</time>
      </trkpt>
      <trkpt lat="45.23583" lon="6.06553">
        <ele>2466.4560546875</ele>
        <time>2017-03-31T10:27:59Z</time>
      </trkpt>
      <trkpt lat="45.23582" lon="6.06545">
        <ele>2468.4560546875</ele>
        <time>2017-03-31T10:28:11Z</time>
      </trkpt>
      <trkpt lat="45.23583" lon="6.06538">
        <ele>2467.4560546875</ele>
        <time>2017-03-31T10:28:15Z</time>
      </trkpt>
      <trkpt lat="45.23584" lon="6.06532">
        <ele>2466.4560546875</ele>
        <time>2017-03-31T10:28:20Z</time>
      </trkpt>
      <trkpt lat="45.23585" lon="6.06524">
        <ele>2468.4560546875</ele>
        <time>2017-03-31T10:28:24Z</time>
      </trkpt>
      <trkpt lat="45.23585" lon="6.06516">
        <ele>2467.4560546875</ele>
        <time>2017-03-31T10:28:30Z</time>
      </trkpt>
      <trkpt lat="45.23586" lon="6.06509">
        <ele>2469.4560546875</ele>
        <time>2017-03-31T10:28:39Z</time>
      </trkpt>
      <trkpt lat="45.23586" lon="6.06502">
        <ele>2470.4560546875</ele>
        <time>2017-03-31T10:28:44Z</time>
      </trkpt>
      <trkpt lat="45.23585" lon="6.06495">
        <ele>2468.4560546875</ele>
        <time>2017-03-31T10:28:57Z</time>
      </trkpt>
      <trkpt lat="45.23585" lon="6.06486">
        <ele>2465.4560546875</ele>
        <time>2017-03-31T10:29:00Z</time>
      </trkpt>
      <trkpt lat="45.23584" lon="6.06479">
        <ele>2466.4560546875</ele>
        <time>2017-03-31T10:29:02Z</time>
      </trkpt>
      <trkpt lat="45.23583" lon="6.06471">
        <ele>2464.4560546875</ele>
        <time>2017-03-31T10:29:04Z</time>
      </trkpt>
      <trkpt lat="45.23582" lon="6.06462">
        <ele>2464.4560546875</ele>
        <time>2017-03-31T10:29:06Z</time>
      </trkpt>
      <trkpt lat="45.23581" lon="6.06441">
        <ele>2464.4560546875</ele>
        <time>2017-03-31T10:29:10Z</time>
      </trkpt>
      <trkpt lat="45.23579" lon="6.06431">
        <ele>2464.4560546875</ele>
        <time>2017-03-31T10:29:12Z</time>
      </trkpt>
      <trkpt lat="45.23577" lon="6.06421">
        <ele>2465.4560546875</ele>
        <time>2017-03-31T10:29:14Z</time>
      </trkpt>
      <trkpt lat="45.23576" lon="6.06412">
        <ele>2465.4560546875</ele>
        <time>2017-03-31T10:29:16Z</time>
      </trkpt>
      <trkpt lat="45.23574" lon="6.06404">
        <ele>2465.4560546875</ele>
        <time>2017-03-31T10:29:18Z</time>
      </trkpt>
      <trkpt lat="45.23573" lon="6.06396">
        <ele>2464.4560546875</ele>
        <time>2017-03-31T10:29:20Z</time>
      </trkpt>
      <trkpt lat="45.23573" lon="6.06389">
        <ele>2465.4560546875</ele>
        <time>2017-03-31T10:29:22Z</time>
      </trkpt>
      <trkpt lat="45.23573" lon="6.06381">
        <ele>2462.4560546875</ele>
        <time>2017-03-31T10:29:25Z</time>
      </trkpt>
      <trkpt lat="45.23574" lon="6.06372">
        <ele>2460.4560546875</ele>
        <time>2017-03-31T10:29:28Z</time>
      </trkpt>
      <trkpt lat="45.23575" lon="6.06362">
        <ele>2459.4560546875</ele>
        <time>2017-03-31T10:29:30Z</time>
      </trkpt>
      <trkpt lat="45.23577" lon="6.06352">
        <ele>2459.4560546875</ele>
        <time>2017-03-31T10:29:32Z</time>
      </trkpt>
      <trkpt lat="45.2358" lon="6.06344">
        <ele>2458.4560546875</ele>
        <time>2017-03-31T10:29:34Z</time>
      </trkpt>
      <trkpt lat="45.23583" lon="6.06338">
        <ele>2458.4560546875</ele>
        <time>2017-03-31T10:29:37Z</time>
      </trkpt>
      <trkpt lat="45.23584" lon="6.06331">
        <ele>2459.4560546875</ele>
        <time>2017-03-31T10:29:42Z</time>
      </trkpt>
      <trkpt lat="45.23584" lon="6.06324">
        <ele>2465.4560546875</ele>
        <time>2017-03-31T10:29:56Z</time>
      </trkpt>
      <trkpt lat="45.23583" lon="6.06316">
        <ele>2468.4560546875</ele>
        <time>2017-03-31T10:30:07Z</time>
      </trkpt>
      <trkpt lat="45.23581" lon="6.0631">
        <ele>2472.4560546875</ele>
        <time>2017-03-31T10:30:14Z</time>
      </trkpt>
      <trkpt lat="45.2358" lon="6.06302">
        <ele>2472.4560546875</ele>
        <time>2017-03-31T10:30:19Z</time>
      </trkpt>
      <trkpt lat="45.2358" lon="6.06296">
        <ele>2477.4560546875</ele>
        <time>2017-03-31T10:30:28Z</time>
      </trkpt>
      <trkpt lat="45.23579" lon="6.06289">
        <ele>2475.4560546875</ele>
        <time>2017-03-31T10:30:33Z</time>
      </trkpt>
      <trkpt lat="45.23578" lon="6.06282">
        <ele>2477.4560546875</ele>
        <time>2017-03-31T10:30:37Z</time>
      </trkpt>
      <trkpt lat="45.23578" lon="6.06275">
        <ele>2473.4560546875</ele>
        <time>2017-03-31T10:30:44Z</time>
      </trkpt>
      <trkpt lat="45.23578" lon="6.06267">
        <ele>2480.4560546875</ele>
        <time>2017-03-31T10:30:50Z</time>
      </trkpt>
      <trkpt lat="45.23578" lon="6.0626">
        <ele>2481.4560546875</ele>
        <time>2017-03-31T10:30:57Z</time>
      </trkpt>
      <trkpt lat="45.23579" lon="6.06252">
        <ele>2479.4560546875</ele>
        <time>2017-03-31T10:31:01Z</time>
      </trkpt>
      <trkpt lat="45.23579" lon="6.06244">
        <ele>2476.4560546875</ele>
        <time>2017-03-31T10:31:06Z</time>
      </trkpt>
      <trkpt lat="45.23578" lon="6.06237">
        <ele>2478.4560546875</ele>
        <time>2017-03-31T10:31:12Z</time>
      </trkpt>
      <trkpt lat="45.23577" lon="6.06229">
        <ele>2478.4560546875</ele>
        <time>2017-03-31T10:31:17Z</time>
      </trkpt>
      <trkpt lat="45.23576" lon="6.06222">
        <ele>2473.4560546875</ele>
        <time>2017-03-31T10:31:20Z</time>
      </trkpt>
      <trkpt lat="45.23576" lon="6.06216">
        <ele>2474.4560546875</ele>
        <time>2017-03-31T10:31:23Z</time>
      </trkpt>
      <trkpt lat="45.23578" lon="6.06209">
        <ele>2470.4560546875</ele>
        <time>2017-03-31T10:31:25Z</time>
      </trkpt>
      <trkpt lat="45.23579" lon="6.06202">
        <ele>2469.4560546875</ele>
        <time>2017-03-31T10:31:27Z</time>
      </trkpt>
      <trkpt lat="45.23582" lon="6.06196">
        <ele>2468.4560546875</ele>
        <time>2017-03-31T10:31:28Z</time>
      </trkpt>
      <trkpt lat="45.23586" lon="6.06186">
        <ele>2466.4560546875</ele>
        <time>2017-03-31T10:31:30Z</time>
      </trkpt>
      <trkpt lat="45.23589" lon="6.06179">
        <ele>2465.4560546875</ele>
        <time>2017-03-31T10:31:32Z</time>
      </trkpt>
      <trkpt lat="45.23592" lon="6.06174">
        <ele>2461.4560546875</ele>
        <time>2017-03-31T10:31:34Z</time>
      </trkpt>
      <trkpt lat="45.23594" lon="6.06166">
        <ele>2461.4560546875</ele>
        <time>2017-03-31T10:31:37Z</time>
      </trkpt>
      <trkpt lat="45.23595" lon="6.06159">
        <ele>2468.4560546875</ele>
        <time>2017-03-31T10:31:43Z</time>
      </trkpt>
      <trkpt lat="45.23596" lon="6.06153">
        <ele>2471.4560546875</ele>
        <time>2017-03-31T10:31:48Z</time>
      </trkpt>
      <trkpt lat="45.23596" lon="6.06146">
        <ele>2472.4560546875</ele>
        <time>2017-03-31T10:31:52Z</time>
      </trkpt>
      <trkpt lat="45.23597" lon="6.06139">
        <ele>2473.4560546875</ele>
        <time>2017-03-31T10:31:58Z</time>
      </trkpt>
      <trkpt lat="45.23596" lon="6.0613">
        <ele>2474.4560546875</ele>
        <time>2017-03-31T10:32:03Z</time>
      </trkpt>
      <trkpt lat="45.23599" lon="6.06123">
        <ele>2479.4560546875</ele>
        <time>2017-03-31T10:32:10Z</time>
      </trkpt>
      <trkpt lat="45.236" lon="6.06116">
        <ele>2479.4560546875</ele>
        <time>2017-03-31T10:32:14Z</time>
      </trkpt>
      <trkpt lat="45.236" lon="6.06109">
        <ele>2479.4560546875</ele>
        <time>2017-03-31T10:32:19Z</time>
      </trkpt>
      <trkpt lat="45.23599" lon="6.06103">
        <ele>2477.4560546875</ele>
        <time>2017-03-31T10:32:24Z</time>
      </trkpt>
      <trkpt lat="45.236" lon="6.06096">
        <ele>2477.4560546875</ele>
        <time>2017-03-31T10:32:33Z</time>
      </trkpt>
      <trkpt lat="45.23604" lon="6.06093">
        <ele>2477.4560546875</ele>
        <time>2017-03-31T10:32:39Z</time>
      </trkpt>
      <trkpt lat="45.23605" lon="6.06086">
        <ele>2480.4560546875</ele>
        <time>2017-03-31T10:32:50Z</time>
      </trkpt>
      <trkpt lat="45.23606" lon="6.0608">
        <ele>2481.4560546875</ele>
        <time>2017-03-31T10:32:53Z</time>
      </trkpt>
      <trkpt lat="45.23607" lon="6.06073">
        <ele>2484.4560546875</ele>
        <time>2017-03-31T10:32:58Z</time>
      </trkpt>
      <trkpt lat="45.23608" lon="6.06067">
        <ele>2484.4560546875</ele>
        <time>2017-03-31T10:33:01Z</time>
      </trkpt>
      <trkpt lat="45.23609" lon="6.06059">
        <ele>2483.4560546875</ele>
        <time>2017-03-31T10:33:05Z</time>
      </trkpt>
      <trkpt lat="45.23611" lon="6.06053">
        <ele>2484.4560546875</ele>
        <time>2017-03-31T10:33:11Z</time>
      </trkpt>
      <trkpt lat="45.23613" lon="6.06045">
        <ele>2482.4560546875</ele>
        <time>2017-03-31T10:33:16Z</time>
      </trkpt>
      <trkpt lat="45.23614" lon="6.06038">
        <ele>2483.4560546875</ele>
        <time>2017-03-31T10:33:26Z</time>
      </trkpt>
      <trkpt lat="45.23613" lon="6.06032">
        <ele>2484.4560546875</ele>
        <time>2017-03-31T10:33:33Z</time>
      </trkpt>
      <trkpt lat="45.23614" lon="6.06025">
        <ele>2488.4560546875</ele>
        <time>2017-03-31T10:33:39Z</time>
      </trkpt>
      <trkpt lat="45.23617" lon="6.06019">
        <ele>2490.4560546875</ele>
        <time>2017-03-31T10:33:48Z</time>
      </trkpt>
      <trkpt lat="45.23619" lon="6.06012">
        <ele>2494.4560546875</ele>
        <time>2017-03-31T10:33:55Z</time>
      </trkpt>
      <trkpt lat="45.23621" lon="6.06006">
        <ele>2496.4560546875</ele>
        <time>2017-03-31T10:34:03Z</time>
      </trkpt>
      <trkpt lat="45.23624" lon="6.05999">
        <ele>2498.4560546875</ele>
        <time>2017-03-31T10:34:06Z</time>
      </trkpt>
      <trkpt lat="45.23628" lon="6.05993">
        <ele>2499.4560546875</ele>
        <time>2017-03-31T10:34:10Z</time>
      </trkpt>
      <trkpt lat="45.23633" lon="6.05989">
        <ele>2500.4560546875</ele>
        <time>2017-03-31T10:34:17Z</time>
      </trkpt>
      <trkpt lat="45.23635" lon="6.05983">
        <ele>2501.4560546875</ele>
        <time>2017-03-31T10:34:22Z</time>
      </trkpt>
      <trkpt lat="45.23638" lon="6.05977">
        <ele>2500.4560546875</ele>
        <time>2017-03-31T10:34:27Z</time>
      </trkpt>
      <trkpt lat="45.23641" lon="6.05971">
        <ele>2503.4560546875</ele>
        <time>2017-03-31T10:34:33Z</time>
      </trkpt>
      <trkpt lat="45.23643" lon="6.05964">
        <ele>2504.4560546875</ele>
        <time>2017-03-31T10:34:37Z</time>
      </trkpt>
      <trkpt lat="45.23648" lon="6.05959">
        <ele>2502.4560546875</ele>
        <time>2017-03-31T10:34:42Z</time>
      </trkpt>
      <trkpt lat="45.23652" lon="6.05955">
        <ele>2499.4560546875</ele>
        <time>2017-03-31T10:34:46Z</time>
      </trkpt>
      <trkpt lat="45.23655" lon="6.0595">
        <ele>2504.4560546875</ele>
        <time>2017-03-31T10:34:53Z</time>
      </trkpt>
      <trkpt lat="45.23658" lon="6.05944">
        <ele>2502.4560546875</ele>
        <time>2017-03-31T10:34:58Z</time>
      </trkpt>
      <trkpt lat="45.23662" lon="6.0594">
        <ele>2502.4560546875</ele>
        <time>2017-03-31T10:35:02Z</time>
      </trkpt>
      <trkpt lat="45.23666" lon="6.05936">
        <ele>2505.4560546875</ele>
        <time>2017-03-31T10:35:06Z</time>
      </trkpt>
      <trkpt lat="45.23668" lon="6.0593">
        <ele>2503.4560546875</ele>
        <time>2017-03-31T10:35:09Z</time>
      </trkpt>
      <trkpt lat="45.23671" lon="6.05925">
        <ele>2507.4560546875</ele>
        <time>2017-03-31T10:35:16Z</time>
      </trkpt>
      <trkpt lat="45.23672" lon="6.05918">
        <ele>2505.4560546875</ele>
        <time>2017-03-31T10:35:21Z</time>
      </trkpt>
      <trkpt lat="45.23676" lon="6.05912">
        <ele>2504.4560546875</ele>
        <time>2017-03-31T10:35:27Z</time>
      </trkpt>
      <trkpt lat="45.2368" lon="6.05905">
        <ele>2505.4560546875</ele>
        <time>2017-03-31T10:35:32Z</time>
      </trkpt>
      <trkpt lat="45.23683" lon="6.05897">
        <ele>2507.4560546875</ele>
        <time>2017-03-31T10:35:39Z</time>
      </trkpt>
      <trkpt lat="45.23686" lon="6.05891">
        <ele>2505.4560546875</ele>
        <time>2017-03-31T10:35:43Z</time>
      </trkpt>
      <trkpt lat="45.23688" lon="6.05885">
        <ele>2508.4560546875</ele>
        <time>2017-03-31T10:35:49Z</time>
      </trkpt>
      <trkpt lat="45.23691" lon="6.05879">
        <ele>2509.4560546875</ele>
        <time>2017-03-31T10:35:55Z</time>
      </trkpt>
      <trkpt lat="45.23694" lon="6.05875">
        <ele>2510.4560546875</ele>
        <time>2017-03-31T10:36:03Z</time>
      </trkpt>
      <trkpt lat="45.23697" lon="6.05868">
        <ele>2510.4560546875</ele>
        <time>2017-03-31T10:36:09Z</time>
      </trkpt>
      <trkpt lat="45.23699" lon="6.05862">
        <ele>2509.455078125</ele>
        <time>2017-03-31T10:36:12Z</time>
      </trkpt>
      <trkpt lat="45.23702" lon="6.05857">
        <ele>2510.455078125</ele>
        <time>2017-03-31T10:36:19Z</time>
      </trkpt>
      <trkpt lat="45.23706" lon="6.05852">
        <ele>2508.455078125</ele>
        <time>2017-03-31T10:36:24Z</time>
      </trkpt>
      <trkpt lat="45.23709" lon="6.05847">
        <ele>2513.455078125</ele>
        <time>2017-03-31T10:36:32Z</time>
      </trkpt>
      <trkpt lat="45.23712" lon="6.05842">
        <ele>2510.455078125</ele>
        <time>2017-03-31T10:36:36Z</time>
      </trkpt>
      <trkpt lat="45.23713" lon="6.05835">
        <ele>2510.455078125</ele>
        <time>2017-03-31T10:36:42Z</time>
      </trkpt>
      <trkpt lat="45.23714" lon="6.05828">
        <ele>2512.455078125</ele>
        <time>2017-03-31T10:36:49Z</time>
      </trkpt>
      <trkpt lat="45.23714" lon="6.05821">
        <ele>2513.455078125</ele>
        <time>2017-03-31T10:36:58Z</time>
      </trkpt>
      <trkpt lat="45.23715" lon="6.05814">
        <ele>2515.455078125</ele>
        <time>2017-03-31T10:37:09Z</time>
      </trkpt>
      <trkpt lat="45.23717" lon="6.05807">
        <ele>2515.455078125</ele>
        <time>2017-03-31T10:37:18Z</time>
      </trkpt>
      <trkpt lat="45.23721" lon="6.05808">
        <ele>2520.455078125</ele>
        <time>2017-03-31T10:37:32Z</time>
      </trkpt>
      <trkpt lat="45.23727" lon="6.05806">
        <ele>2523.455078125</ele>
        <time>2017-03-31T10:37:41Z</time>
      </trkpt>
      <trkpt lat="45.2373" lon="6.05801">
        <ele>2525.455078125</ele>
        <time>2017-03-31T10:37:46Z</time>
      </trkpt>
      <trkpt lat="45.23732" lon="6.05795">
        <ele>2524.455078125</ele>
        <time>2017-03-31T10:37:53Z</time>
      </trkpt>
      <trkpt lat="45.23734" lon="6.05789">
        <ele>2527.455078125</ele>
        <time>2017-03-31T10:38:02Z</time>
      </trkpt>
      <trkpt lat="45.23734" lon="6.05781">
        <ele>2530.455078125</ele>
        <time>2017-03-31T10:38:14Z</time>
      </trkpt>
      <trkpt lat="45.23733" lon="6.05775">
        <ele>2539.455078125</ele>
        <time>2017-03-31T10:38:23Z</time>
      </trkpt>
      <trkpt lat="45.23731" lon="6.05768">
        <ele>2541.455078125</ele>
        <time>2017-03-31T10:38:29Z</time>
      </trkpt>
      <trkpt lat="45.23728" lon="6.05763">
        <ele>2546.455078125</ele>
        <time>2017-03-31T10:38:35Z</time>
      </trkpt>
      <trkpt lat="45.23729" lon="6.05755">
        <ele>2545.455078125</ele>
        <time>2017-03-31T10:38:41Z</time>
      </trkpt>
      <trkpt lat="45.23733" lon="6.0575">
        <ele>2545.455078125</ele>
        <time>2017-03-31T10:38:48Z</time>
      </trkpt>
      <trkpt lat="45.23737" lon="6.05745">
        <ele>2543.455078125</ele>
        <time>2017-03-31T10:39:06Z</time>
      </trkpt>
      <trkpt lat="45.23742" lon="6.05743">
        <ele>2546.455078125</ele>
        <time>2017-03-31T10:39:12Z</time>
      </trkpt>
      <trkpt lat="45.23745" lon="6.05738">
        <ele>2549.455078125</ele>
        <time>2017-03-31T10:39:19Z</time>
      </trkpt>
      <trkpt lat="45.2375" lon="6.05736">
        <ele>2548.455078125</ele>
        <time>2017-03-31T10:39:24Z</time>
      </trkpt>
      <trkpt lat="45.23748" lon="6.05729">
        <ele>2548.455078125</ele>
        <time>2017-03-31T10:39:37Z</time>
      </trkpt>
      <trkpt lat="45.23744" lon="6.05725">
        <ele>2554.455078125</ele>
        <time>2017-03-31T10:39:45Z</time>
      </trkpt>
      <trkpt lat="45.2374" lon="6.05723">
        <ele>2561.455078125</ele>
        <time>2017-03-31T10:39:55Z</time>
      </trkpt>
      <trkpt lat="45.23741" lon="6.05716">
        <ele>2561.455078125</ele>
        <time>2017-03-31T10:40:04Z</time>
      </trkpt>
      <trkpt lat="45.23744" lon="6.0571">
        <ele>2558.455078125</ele>
        <time>2017-03-31T10:40:09Z</time>
      </trkpt>
      <trkpt lat="45.23748" lon="6.05706">
        <ele>2566.455078125</ele>
        <time>2017-03-31T10:40:20Z</time>
      </trkpt>
      <trkpt lat="45.23753" lon="6.05703">
        <ele>2568.455078125</ele>
        <time>2017-03-31T10:40:28Z</time>
      </trkpt>
      <trkpt lat="45.23754" lon="6.05697">
        <ele>2569.455078125</ele>
        <time>2017-03-31T10:40:38Z</time>
      </trkpt>
      <trkpt lat="45.23755" lon="6.0569">
        <ele>2566.455078125</ele>
        <time>2017-03-31T10:40:42Z</time>
      </trkpt>
      <trkpt lat="45.23754" lon="6.05683">
        <ele>2566.455078125</ele>
        <time>2017-03-31T10:40:49Z</time>
      </trkpt>
      <trkpt lat="45.23753" lon="6.05676">
        <ele>2569.455078125</ele>
        <time>2017-03-31T10:40:54Z</time>
      </trkpt>
      <trkpt lat="45.23753" lon="6.0567">
        <ele>2573.455078125</ele>
        <time>2017-03-31T10:41:04Z</time>
      </trkpt>
      <trkpt lat="45.23755" lon="6.05664">
        <ele>2573.455078125</ele>
        <time>2017-03-31T10:41:12Z</time>
      </trkpt>
      <trkpt lat="45.23754" lon="6.05658">
        <ele>2579.455078125</ele>
        <time>2017-03-31T10:41:22Z</time>
      </trkpt>
      <trkpt lat="45.23754" lon="6.05651">
        <ele>2578.455078125</ele>
        <time>2017-03-31T10:41:31Z</time>
      </trkpt>
      <trkpt lat="45.23753" lon="6.05645">
        <ele>2579.455078125</ele>
        <time>2017-03-31T10:41:39Z</time>
      </trkpt>
      <trkpt lat="45.23751" lon="6.05638">
        <ele>2578.455078125</ele>
        <time>2017-03-31T10:41:47Z</time>
      </trkpt>
      <trkpt lat="45.23747" lon="6.05637">
        <ele>2583.455078125</ele>
        <time>2017-03-31T10:41:54Z</time>
      </trkpt>
      <trkpt lat="45.23742" lon="6.05634">
        <ele>2591.455078125</ele>
        <time>2017-03-31T10:42:07Z</time>
      </trkpt>
      <trkpt lat="45.23746" lon="6.05629">
        <ele>2587.455078125</ele>
        <time>2017-03-31T10:42:14Z</time>
      </trkpt>
      <trkpt lat="45.23749" lon="6.05622">
        <ele>2589.455078125</ele>
        <time>2017-03-31T10:42:22Z</time>
      </trkpt>
      <trkpt lat="45.23752" lon="6.05617">
        <ele>2591.455078125</ele>
        <time>2017-03-31T10:42:28Z</time>
      </trkpt>
      <trkpt lat="45.23756" lon="6.05613">
        <ele>2588.455078125</ele>
        <time>2017-03-31T10:42:55Z</time>
      </trkpt>
      <trkpt lat="45.23761" lon="6.05611">
        <ele>2589.455078125</ele>
        <time>2017-03-31T10:43:02Z</time>
      </trkpt>
      <trkpt lat="45.2376" lon="6.05603">
        <ele>2591.455078125</ele>
        <time>2017-03-31T10:43:12Z</time>
      </trkpt>
      <trkpt lat="45.23757" lon="6.05598">
        <ele>2593.455078125</ele>
        <time>2017-03-31T10:43:21Z</time>
      </trkpt>
      <trkpt lat="45.23753" lon="6.05594">
        <ele>2592.455078125</ele>
        <time>2017-03-31T10:43:27Z</time>
      </trkpt>
      <trkpt lat="45.2375" lon="6.05589">
        <ele>2593.455078125</ele>
        <time>2017-03-31T10:43:37Z</time>
      </trkpt>
      <trkpt lat="45.23746" lon="6.05584">
        <ele>2595.455078125</ele>
        <time>2017-03-31T10:43:51Z</time>
      </trkpt>
      <trkpt lat="45.23748" lon="6.05578">
        <ele>2605.455078125</ele>
        <time>2017-03-31T10:44:00Z</time>
      </trkpt>
      <trkpt lat="45.23751" lon="6.05573">
        <ele>2611.455078125</ele>
        <time>2017-03-31T10:44:14Z</time>
      </trkpt>
      <trkpt lat="45.23754" lon="6.05569">
        <ele>2617.455078125</ele>
        <time>2017-03-31T10:44:24Z</time>
      </trkpt>
      <trkpt lat="45.23759" lon="6.05564">
        <ele>2615.455078125</ele>
        <time>2017-03-31T10:44:31Z</time>
      </trkpt>
      <trkpt lat="45.23762" lon="6.05559">
        <ele>2614.455078125</ele>
        <time>2017-03-31T10:44:36Z</time>
      </trkpt>
      <trkpt lat="45.23766" lon="6.05556">
        <ele>2615.455078125</ele>
        <time>2017-03-31T10:44:44Z</time>
      </trkpt>
      <trkpt lat="45.23767" lon="6.05549">
        <ele>2615.455078125</ele>
        <time>2017-03-31T10:44:52Z</time>
      </trkpt>
      <trkpt lat="45.23765" lon="6.05543">
        <ele>2613.455078125</ele>
        <time>2017-03-31T10:45:01Z</time>
      </trkpt>
      <trkpt lat="45.23761" lon="6.05539">
        <ele>2611.455078125</ele>
        <time>2017-03-31T10:45:06Z</time>
      </trkpt>
      <trkpt lat="45.23756" lon="6.05539">
        <ele>2619.455078125</ele>
        <time>2017-03-31T10:45:12Z</time>
      </trkpt>
      <trkpt lat="45.23752" lon="6.05536">
        <ele>2622.455078125</ele>
        <time>2017-03-31T10:45:19Z</time>
      </trkpt>
      <trkpt lat="45.23747" lon="6.05534">
        <ele>2623.455078125</ele>
        <time>2017-03-31T10:45:30Z</time>
      </trkpt>
      <trkpt lat="45.23742" lon="6.05531">
        <ele>2626.455078125</ele>
        <time>2017-03-31T10:45:35Z</time>
      </trkpt>
      <trkpt lat="45.23737" lon="6.05531">
        <ele>2627.455078125</ele>
        <time>2017-03-31T10:45:46Z</time>
      </trkpt>
      <trkpt lat="45.23732" lon="6.05531">
        <ele>2629.455078125</ele>
        <time>2017-03-31T10:45:54Z</time>
      </trkpt>
      <trkpt lat="45.23727" lon="6.0553">
        <ele>2634.455078125</ele>
        <time>2017-03-31T10:46:02Z</time>
      </trkpt>
      <trkpt lat="45.23728" lon="6.05523">
        <ele>2638.455078125</ele>
        <time>2017-03-31T10:46:16Z</time>
      </trkpt>
      <trkpt lat="45.2373" lon="6.05516">
        <ele>2643.455078125</ele>
        <time>2017-03-31T10:46:24Z</time>
      </trkpt>
      <trkpt lat="45.23733" lon="6.05512">
        <ele>2645.455078125</ele>
        <time>2017-03-31T10:46:34Z</time>
      </trkpt>
      <trkpt lat="45.23735" lon="6.05506">
        <ele>2644.455078125</ele>
        <time>2017-03-31T10:46:47Z</time>
      </trkpt>
      <trkpt lat="45.23739" lon="6.05501">
        <ele>2649.455078125</ele>
        <time>2017-03-31T10:47:00Z</time>
      </trkpt>
      <trkpt lat="45.23742" lon="6.05496">
        <ele>2645.455078125</ele>
        <time>2017-03-31T10:47:06Z</time>
      </trkpt>
      <trkpt lat="45.23746" lon="6.05494">
        <ele>2652.455078125</ele>
        <time>2017-03-31T10:47:13Z</time>
      </trkpt>
      <trkpt lat="45.2375" lon="6.0549">
        <ele>2651.455078125</ele>
        <time>2017-03-31T10:47:19Z</time>
      </trkpt>
      <trkpt lat="45.23754" lon="6.05486">
        <ele>2654.455078125</ele>
        <time>2017-03-31T10:47:31Z</time>
      </trkpt>
      <trkpt lat="45.23759" lon="6.05485">
        <ele>2661.455078125</ele>
        <time>2017-03-31T10:47:41Z</time>
      </trkpt>
      <trkpt lat="45.23763" lon="6.05484">
        <ele>2664.455078125</ele>
        <time>2017-03-31T10:47:49Z</time>
      </trkpt>
      <trkpt lat="45.23768" lon="6.05481">
        <ele>2664.455078125</ele>
        <time>2017-03-31T10:47:55Z</time>
      </trkpt>
      <trkpt lat="45.23767" lon="6.05475">
        <ele>2669.455078125</ele>
        <time>2017-03-31T10:48:07Z</time>
      </trkpt>
      <trkpt lat="45.23768" lon="6.05467">
        <ele>2672.455078125</ele>
        <time>2017-03-31T10:48:19Z</time>
      </trkpt>
      <trkpt lat="45.23772" lon="6.05463">
        <ele>2672.455078125</ele>
        <time>2017-03-31T10:48:27Z</time>
      </trkpt>
      <trkpt lat="45.23771" lon="6.05457">
        <ele>2670.455078125</ele>
        <time>2017-03-31T10:48:53Z</time>
      </trkpt>
      <trkpt lat="45.23768" lon="6.05452">
        <ele>2669.455078125</ele>
        <time>2017-03-31T10:49:01Z</time>
      </trkpt>
      <trkpt lat="45.23763" lon="6.05451">
        <ele>2672.455078125</ele>
        <time>2017-03-31T10:49:15Z</time>
      </trkpt>
      <trkpt lat="45.23759" lon="6.05448">
        <ele>2675.455078125</ele>
        <time>2017-03-31T10:49:24Z</time>
      </trkpt>
      <trkpt lat="45.23755" lon="6.05444">
        <ele>2677.455078125</ele>
        <time>2017-03-31T10:49:42Z</time>
      </trkpt>
      <trkpt lat="45.23751" lon="6.05439">
        <ele>2678.455078125</ele>
        <time>2017-03-31T10:49:49Z</time>
      </trkpt>
      <trkpt lat="45.23748" lon="6.05433">
        <ele>2681.455078125</ele>
        <time>2017-03-31T10:49:54Z</time>
      </trkpt>
      <trkpt lat="45.23744" lon="6.05428">
        <ele>2684.455078125</ele>
        <time>2017-03-31T10:50:01Z</time>
      </trkpt>
      <trkpt lat="45.23739" lon="6.05426">
        <ele>2687.455078125</ele>
        <time>2017-03-31T10:50:09Z</time>
      </trkpt>
      <trkpt lat="45.23734" lon="6.05425">
        <ele>2691.455078125</ele>
        <time>2017-03-31T10:50:19Z</time>
      </trkpt>
      <trkpt lat="45.23729" lon="6.05424">
        <ele>2689.455078125</ele>
        <time>2017-03-31T10:50:27Z</time>
      </trkpt>
      <trkpt lat="45.23725" lon="6.05425">
        <ele>2691.455078125</ele>
        <time>2017-03-31T10:50:37Z</time>
      </trkpt>
      <trkpt lat="45.2372" lon="6.05427">
        <ele>2691.455078125</ele>
        <time>2017-03-31T10:50:44Z</time>
      </trkpt>
      <trkpt lat="45.23715" lon="6.05429">
        <ele>2694.455078125</ele>
        <time>2017-03-31T10:50:53Z</time>
      </trkpt>
      <trkpt lat="45.23714" lon="6.05423">
        <ele>2701.455078125</ele>
        <time>2017-03-31T10:51:13Z</time>
      </trkpt>
      <trkpt lat="45.23715" lon="6.05415">
        <ele>2701.455078125</ele>
        <time>2017-03-31T10:51:39Z</time>
      </trkpt>
      <trkpt lat="45.23715" lon="6.05409">
        <ele>2703.455078125</ele>
        <time>2017-03-31T10:51:50Z</time>
      </trkpt>
      <trkpt lat="45.23715" lon="6.05402">
        <ele>2699.455078125</ele>
        <time>2017-03-31T10:52:54Z</time>
      </trkpt>
      <trkpt lat="45.23711" lon="6.05403">
        <ele>2706.455078125</ele>
        <time>2017-03-31T10:53:22Z</time>
      </trkpt>
      <trkpt lat="45.23705" lon="6.05404">
        <ele>2704.455078125</ele>
        <time>2017-03-31T10:53:48Z</time>
      </trkpt>
      <trkpt lat="45.23701" lon="6.05405">
        <ele>2705.455078125</ele>
        <time>2017-03-31T10:53:57Z</time>
      </trkpt>
      <trkpt lat="45.23696" lon="6.05403">
        <ele>2708.455078125</ele>
        <time>2017-03-31T10:54:06Z</time>
      </trkpt>
      <trkpt lat="45.23692" lon="6.054">
        <ele>2709.455078125</ele>
        <time>2017-03-31T10:54:12Z</time>
      </trkpt>
      <trkpt lat="45.23687" lon="6.05398">
        <ele>2714.455078125</ele>
        <time>2017-03-31T10:54:21Z</time>
      </trkpt>
      <trkpt lat="45.23683" lon="6.05397">
        <ele>2713.455078125</ele>
        <time>2017-03-31T10:54:28Z</time>
      </trkpt>
      <trkpt lat="45.23683" lon="6.0539">
        <ele>2710.455078125</ele>
        <time>2017-03-31T10:54:37Z</time>
      </trkpt>
      <trkpt lat="45.23687" lon="6.05387">
        <ele>2713.455078125</ele>
        <time>2017-03-31T10:59:21Z</time>
      </trkpt>
      <trkpt lat="45.2369" lon="6.05381">
        <ele>2718.455078125</ele>
        <time>2017-03-31T11:09:40Z</time>
      </trkpt>
      <trkpt lat="45.23691" lon="6.05374">
        <ele>2713.455078125</ele>
        <time>2017-03-31T11:10:02Z</time>
      </trkpt>
      <trkpt lat="45.23694" lon="6.05368">
        <ele>2713.455078125</ele>
        <time>2017-03-31T11:10:18Z</time>
      </trkpt>
      <trkpt lat="45.23696" lon="6.05362">
        <ele>2711.455078125</ele>
        <time>2017-03-31T11:10:35Z</time>
      </trkpt>
      <trkpt lat="45.237" lon="6.05358">
        <ele>2707.455078125</ele>
        <time>2017-03-31T11:11:16Z</time>
      </trkpt>
      <trkpt lat="45.23703" lon="6.05353">
        <ele>2708.455078125</ele>
        <time>2017-03-31T11:11:33Z</time>
      </trkpt>
      <trkpt lat="45.23707" lon="6.05349">
        <ele>2702.455078125</ele>
        <time>2017-03-31T11:12:59Z</time>
      </trkpt>
      <trkpt lat="45.23704" lon="6.05344">
        <ele>2700.455078125</ele>
        <time>2017-03-31T11:13:37Z</time>
      </trkpt>
      <trkpt lat="45.23706" lon="6.05339">
        <ele>2699.455078125</ele>
        <time>2017-03-31T11:14:34Z</time>
      </trkpt>
      <trkpt lat="45.23707" lon="6.05332">
        <ele>2699.455078125</ele>
        <time>2017-03-31T11:14:37Z</time>
      </trkpt>
      <trkpt lat="45.23702" lon="6.05332">
        <ele>2695.455078125</ele>
        <time>2017-03-31T11:14:42Z</time>
      </trkpt>
      <trkpt lat="45.23706" lon="6.0533">
        <ele>2696.455078125</ele>
        <time>2017-03-31T11:15:00Z</time>
      </trkpt>
      <trkpt lat="45.23711" lon="6.05328">
        <ele>2692.455078125</ele>
        <time>2017-03-31T11:15:05Z</time>
      </trkpt>
      <trkpt lat="45.2371" lon="6.05334">
        <ele>2696.455078125</ele>
        <time>2017-03-31T11:18:01Z</time>
      </trkpt>
      <trkpt lat="45.23705" lon="6.05338">
        <ele>2695.455078125</ele>
        <time>2017-03-31T11:18:22Z</time>
      </trkpt>
      <trkpt lat="45.23703" lon="6.05332">
        <ele>2690.455078125</ele>
        <time>2017-03-31T11:18:59Z</time>
      </trkpt>
      <trkpt lat="45.23699" lon="6.05326">
        <ele>2690.455078125</ele>
        <time>2017-03-31T11:19:01Z</time>
      </trkpt>
      <trkpt lat="45.23693" lon="6.05327">
        <ele>2690.455078125</ele>
        <time>2017-03-31T11:19:03Z</time>
      </trkpt>
      <trkpt lat="45.23694" lon="6.05321">
        <ele>2689.455078125</ele>
        <time>2017-03-31T11:19:04Z</time>
      </trkpt>
      <trkpt lat="45.23689" lon="6.05325">
        <ele>2687.455078125</ele>
        <time>2017-03-31T11:19:07Z</time>
      </trkpt>
      <trkpt lat="45.23685" lon="6.05329">
        <ele>2683.455078125</ele>
        <time>2017-03-31T11:19:11Z</time>
      </trkpt>
      <trkpt lat="45.23685" lon="6.05322">
        <ele>2682.455078125</ele>
        <time>2017-03-31T11:19:12Z</time>
      </trkpt>
      <trkpt lat="45.23684" lon="6.05314">
        <ele>2683.455078125</ele>
        <time>2017-03-31T11:19:14Z</time>
      </trkpt>
      <trkpt lat="45.23677" lon="6.05314">
        <ele>2682.455078125</ele>
        <time>2017-03-31T11:19:17Z</time>
      </trkpt>
      <trkpt lat="45.23669" lon="6.05315">
        <ele>2681.455078125</ele>
        <time>2017-03-31T11:19:19Z</time>
      </trkpt>
      <trkpt lat="45.23663" lon="6.05307">
        <ele>2680.455078125</ele>
        <time>2017-03-31T11:19:20Z</time>
      </trkpt>
      <trkpt lat="45.23654" lon="6.05297">
        <ele>2678.455078125</ele>
        <time>2017-03-31T11:19:23Z</time>
      </trkpt>
      <trkpt lat="45.23651" lon="6.05289">
        <ele>2678.455078125</ele>
        <time>2017-03-31T11:19:25Z</time>
      </trkpt>
      <trkpt lat="45.23646" lon="6.0529">
        <ele>2675.455078125</ele>
        <time>2017-03-31T11:19:27Z</time>
      </trkpt>
      <trkpt lat="45.2364" lon="6.05291">
        <ele>2673.455078125</ele>
        <time>2017-03-31T11:19:29Z</time>
      </trkpt>
      <trkpt lat="45.23635" lon="6.0529">
        <ele>2670.455078125</ele>
        <time>2017-03-31T11:19:31Z</time>
      </trkpt>
      <trkpt lat="45.23632" lon="6.05296">
        <ele>2663.455078125</ele>
        <time>2017-03-31T11:19:38Z</time>
      </trkpt>
      <trkpt lat="45.23628" lon="6.05302">
        <ele>2656.455078125</ele>
        <time>2017-03-31T11:19:41Z</time>
      </trkpt>
      <trkpt lat="45.23628" lon="6.05289">
        <ele>2651.455078125</ele>
        <time>2017-03-31T11:19:43Z</time>
      </trkpt>
      <trkpt lat="45.23628" lon="6.05279">
        <ele>2647.455078125</ele>
        <time>2017-03-31T11:19:45Z</time>
      </trkpt>
      <trkpt lat="45.23623" lon="6.05281">
        <ele>2638.455078125</ele>
        <time>2017-03-31T11:19:47Z</time>
      </trkpt>
      <trkpt lat="45.2362" lon="6.05265">
        <ele>2635.455078125</ele>
        <time>2017-03-31T11:19:49Z</time>
      </trkpt>
      <trkpt lat="45.23619" lon="6.0525">
        <ele>2632.4541015625</ele>
        <time>2017-03-31T11:19:51Z</time>
      </trkpt>
      <trkpt lat="45.23607" lon="6.05245">
        <ele>2628.4541015625</ele>
        <time>2017-03-31T11:19:53Z</time>
      </trkpt>
      <trkpt lat="45.23602" lon="6.05236">
        <ele>2623.4541015625</ele>
        <time>2017-03-31T11:19:55Z</time>
      </trkpt>
      <trkpt lat="45.23596" lon="6.05238">
        <ele>2617.4541015625</ele>
        <time>2017-03-31T11:19:57Z</time>
      </trkpt>
      <trkpt lat="45.23585" lon="6.05244">
        <ele>2610.4541015625</ele>
        <time>2017-03-31T11:19:59Z</time>
      </trkpt>
      <trkpt lat="45.23573" lon="6.05235">
        <ele>2608.4541015625</ele>
        <time>2017-03-31T11:20:01Z</time>
      </trkpt>
      <trkpt lat="45.23557" lon="6.05226">
        <ele>2604.4541015625</ele>
        <time>2017-03-31T11:20:03Z</time>
      </trkpt>
      <trkpt lat="45.23538" lon="6.05217">
        <ele>2600.4541015625</ele>
        <time>2017-03-31T11:20:05Z</time>
      </trkpt>
      <trkpt lat="45.23519" lon="6.0522">
        <ele>2595.4541015625</ele>
        <time>2017-03-31T11:20:07Z</time>
      </trkpt>
      <trkpt lat="45.23508" lon="6.05212">
        <ele>2591.4541015625</ele>
        <time>2017-03-31T11:20:08Z</time>
      </trkpt>
      <trkpt lat="45.23495" lon="6.052">
        <ele>2585.4541015625</ele>
        <time>2017-03-31T11:20:10Z</time>
      </trkpt>
      <trkpt lat="45.23476" lon="6.05183">
        <ele>2581.4541015625</ele>
        <time>2017-03-31T11:20:12Z</time>
      </trkpt>
      <trkpt lat="45.23472" lon="6.05176">
        <ele>2577.4541015625</ele>
        <time>2017-03-31T11:20:13Z</time>
      </trkpt>
      <trkpt lat="45.23472" lon="6.05151">
        <ele>2572.4541015625</ele>
        <time>2017-03-31T11:20:15Z</time>
      </trkpt>
      <trkpt lat="45.23466" lon="6.05127">
        <ele>2571.4541015625</ele>
        <time>2017-03-31T11:20:17Z</time>
      </trkpt>
      <trkpt lat="45.23455" lon="6.05163">
        <ele>2565.4541015625</ele>
        <time>2017-03-31T11:20:18Z</time>
      </trkpt>
      <trkpt lat="45.23448" lon="6.05172">
        <ele>2560.4541015625</ele>
        <time>2017-03-31T11:20:19Z</time>
      </trkpt>
      <trkpt lat="45.23433" lon="6.05177">
        <ele>2556.4541015625</ele>
        <time>2017-03-31T11:20:21Z</time>
      </trkpt>
      <trkpt lat="45.23425" lon="6.05159">
        <ele>2550.4541015625</ele>
        <time>2017-03-31T11:20:23Z</time>
      </trkpt>
      <trkpt lat="45.23415" lon="6.05145">
        <ele>2545.4541015625</ele>
        <time>2017-03-31T11:20:24Z</time>
      </trkpt>
      <trkpt lat="45.23394" lon="6.05136">
        <ele>2536.4541015625</ele>
        <time>2017-03-31T11:20:26Z</time>
      </trkpt>
      <trkpt lat="45.23388" lon="6.05124">
        <ele>2529.4541015625</ele>
        <time>2017-03-31T11:20:27Z</time>
      </trkpt>
      <trkpt lat="45.23379" lon="6.05099">
        <ele>2521.4541015625</ele>
        <time>2017-03-31T11:20:29Z</time>
      </trkpt>
      <trkpt lat="45.23374" lon="6.05082">
        <ele>2516.4541015625</ele>
        <time>2017-03-31T11:20:30Z</time>
      </trkpt>
      <trkpt lat="45.23369" lon="6.05076">
        <ele>2508.4541015625</ele>
        <time>2017-03-31T11:20:31Z</time>
      </trkpt>
      <trkpt lat="45.23353" lon="6.05048">
        <ele>2499.4541015625</ele>
        <time>2017-03-31T11:20:33Z</time>
      </trkpt>
      <trkpt lat="45.23341" lon="6.05011">
        <ele>2496.4541015625</ele>
        <time>2017-03-31T11:20:35Z</time>
      </trkpt>
      <trkpt lat="45.23337" lon="6.04993">
        <ele>2493.4541015625</ele>
        <time>2017-03-31T11:20:36Z</time>
      </trkpt>
      <trkpt lat="45.23327" lon="6.04964">
        <ele>2487.4541015625</ele>
        <time>2017-03-31T11:20:38Z</time>
      </trkpt>
      <trkpt lat="45.23319" lon="6.04954">
        <ele>2484.4528808594</ele>
        <time>2017-03-31T11:20:39Z</time>
      </trkpt>
      <trkpt lat="45.23312" lon="6.04944">
        <ele>2483.4528808594</ele>
        <time>2017-03-31T11:20:40Z</time>
      </trkpt>
      <trkpt lat="45.23304" lon="6.04931">
        <ele>2482.4528808594</ele>
        <time>2017-03-31T11:20:41Z</time>
      </trkpt>
      <trkpt lat="45.23302" lon="6.04919">
        <ele>2479.4528808594</ele>
        <time>2017-03-31T11:20:42Z</time>
      </trkpt>
      <trkpt lat="45.23299" lon="6.04908">
        <ele>2477.4528808594</ele>
        <time>2017-03-31T11:20:43Z</time>
      </trkpt>
      <trkpt lat="45.23294" lon="6.04903">
        <ele>2474.4528808594</ele>
        <time>2017-03-31T11:20:44Z</time>
      </trkpt>
      <trkpt lat="45.23288" lon="6.04886">
        <ele>2470.4528808594</ele>
        <time>2017-03-31T11:20:46Z</time>
      </trkpt>
      <trkpt lat="45.23284" lon="6.04873">
        <ele>2466.4528808594</ele>
        <time>2017-03-31T11:21:40Z</time>
      </trkpt>
      <trkpt lat="45.23285" lon="6.04862">
        <ele>2464.4528808594</ele>
        <time>2017-03-31T11:21:43Z</time>
      </trkpt>
      <trkpt lat="45.23292" lon="6.04844">
        <ele>2462.4528808594</ele>
        <time>2017-03-31T11:21:45Z</time>
      </trkpt>
      <trkpt lat="45.23286" lon="6.04833">
        <ele>2460.4528808594</ele>
        <time>2017-03-31T11:21:46Z</time>
      </trkpt>
      <trkpt lat="45.23278" lon="6.04813">
        <ele>2458.4528808594</ele>
        <time>2017-03-31T11:21:48Z</time>
      </trkpt>
      <trkpt lat="45.23264" lon="6.04797">
        <ele>2454.4528808594</ele>
        <time>2017-03-31T11:21:50Z</time>
      </trkpt>
      <trkpt lat="45.23261" lon="6.04786">
        <ele>2452.4528808594</ele>
        <time>2017-03-31T11:21:51Z</time>
      </trkpt>
      <trkpt lat="45.23263" lon="6.04756">
        <ele>2447.4528808594</ele>
        <time>2017-03-31T11:21:54Z</time>
      </trkpt>
      <trkpt lat="45.23248" lon="6.04755">
        <ele>2445.4528808594</ele>
        <time>2017-03-31T11:21:55Z</time>
      </trkpt>
      <trkpt lat="45.2323" lon="6.04745">
        <ele>2440.4528808594</ele>
        <time>2017-03-31T11:21:57Z</time>
      </trkpt>
      <trkpt lat="45.23223" lon="6.04721">
        <ele>2436.4528808594</ele>
        <time>2017-03-31T11:21:59Z</time>
      </trkpt>
      <trkpt lat="45.23227" lon="6.04707">
        <ele>2431.4528808594</ele>
        <time>2017-03-31T11:22:00Z</time>
      </trkpt>
      <trkpt lat="45.23217" lon="6.04688">
        <ele>2425.4528808594</ele>
        <time>2017-03-31T11:22:02Z</time>
      </trkpt>
      <trkpt lat="45.23218" lon="6.04673">
        <ele>2418.4528808594</ele>
        <time>2017-03-31T11:22:03Z</time>
      </trkpt>
      <trkpt lat="45.2322" lon="6.04659">
        <ele>2415.4528808594</ele>
        <time>2017-03-31T11:22:04Z</time>
      </trkpt>
      <trkpt lat="45.23222" lon="6.04638">
        <ele>2412.4528808594</ele>
        <time>2017-03-31T11:22:06Z</time>
      </trkpt>
      <trkpt lat="45.23221" lon="6.04619">
        <ele>2408.4528808594</ele>
        <time>2017-03-31T11:22:08Z</time>
      </trkpt>
      <trkpt lat="45.23223" lon="6.04614">
        <ele>2402.4528808594</ele>
        <time>2017-03-31T11:22:09Z</time>
      </trkpt>
      <trkpt lat="45.23215" lon="6.04605">
        <ele>2394.4528808594</ele>
        <time>2017-03-31T11:22:11Z</time>
      </trkpt>
      <trkpt lat="45.23213" lon="6.04598">
        <ele>2390.4528808594</ele>
        <time>2017-03-31T11:22:12Z</time>
      </trkpt>
      <trkpt lat="45.23203" lon="6.04589">
        <ele>2382.4528808594</ele>
        <time>2017-03-31T11:22:15Z</time>
      </trkpt>
      <trkpt lat="45.23206" lon="6.04585">
        <ele>2370.4528808594</ele>
        <time>2017-03-31T11:22:53Z</time>
      </trkpt>
      <trkpt lat="45.23211" lon="6.04585">
        <ele>2369.4528808594</ele>
        <time>2017-03-31T11:23:59Z</time>
      </trkpt>
      <trkpt lat="45.23214" lon="6.0458">
        <ele>2367.4528808594</ele>
        <time>2017-03-31T11:24:18Z</time>
      </trkpt>
      <trkpt lat="45.23218" lon="6.04569">
        <ele>2362.4528808594</ele>
        <time>2017-03-31T11:24:20Z</time>
      </trkpt>
      <trkpt lat="45.23221" lon="6.04554">
        <ele>2354.4528808594</ele>
        <time>2017-03-31T11:24:22Z</time>
      </trkpt>
      <trkpt lat="45.23229" lon="6.04539">
        <ele>2349.4528808594</ele>
        <time>2017-03-31T11:24:24Z</time>
      </trkpt>
      <trkpt lat="45.23243" lon="6.04532">
        <ele>2347.4528808594</ele>
        <time>2017-03-31T11:24:26Z</time>
      </trkpt>
      <trkpt lat="45.23254" lon="6.04521">
        <ele>2347.4528808594</ele>
        <time>2017-03-31T11:24:28Z</time>
      </trkpt>
      <trkpt lat="45.23259" lon="6.04508">
        <ele>2345.4528808594</ele>
        <time>2017-03-31T11:24:30Z</time>
      </trkpt>
      <trkpt lat="45.23268" lon="6.04497">
        <ele>2344.4528808594</ele>
        <time>2017-03-31T11:24:32Z</time>
      </trkpt>
      <trkpt lat="45.23279" lon="6.04492">
        <ele>2345.4528808594</ele>
        <time>2017-03-31T11:24:34Z</time>
      </trkpt>
      <trkpt lat="45.23286" lon="6.04489">
        <ele>2345.4528808594</ele>
        <time>2017-03-31T11:24:36Z</time>
      </trkpt>
      <trkpt lat="45.23298" lon="6.04482">
        <ele>2344.4528808594</ele>
        <time>2017-03-31T11:24:39Z</time>
      </trkpt>
      <trkpt lat="45.23306" lon="6.04476">
        <ele>2343.4528808594</ele>
        <time>2017-03-31T11:24:41Z</time>
      </trkpt>
      <trkpt lat="45.23316" lon="6.04466">
        <ele>2341.4528808594</ele>
        <time>2017-03-31T11:24:44Z</time>
      </trkpt>
      <trkpt lat="45.23322" lon="6.04456">
        <ele>2340.4528808594</ele>
        <time>2017-03-31T11:24:46Z</time>
      </trkpt>
      <trkpt lat="45.23328" lon="6.04443">
        <ele>2338.4528808594</ele>
        <time>2017-03-31T11:24:48Z</time>
      </trkpt>
      <trkpt lat="45.2333" lon="6.04437">
        <ele>2337.4528808594</ele>
        <time>2017-03-31T11:24:49Z</time>
      </trkpt>
      <trkpt lat="45.23334" lon="6.04428">
        <ele>2335.4528808594</ele>
        <time>2017-03-31T11:24:51Z</time>
      </trkpt>
      <trkpt lat="45.2334" lon="6.04415">
        <ele>2336.4528808594</ele>
        <time>2017-03-31T11:24:53Z</time>
      </trkpt>
      <trkpt lat="45.23342" lon="6.04409">
        <ele>2337.4528808594</ele>
        <time>2017-03-31T11:24:54Z</time>
      </trkpt>
      <trkpt lat="45.23344" lon="6.04399">
        <ele>2338.4528808594</ele>
        <time>2017-03-31T11:24:56Z</time>
      </trkpt>
      <trkpt lat="45.23347" lon="6.04394">
        <ele>2334.4528808594</ele>
        <time>2017-03-31T11:29:44Z</time>
      </trkpt>
      <trkpt lat="45.23348" lon="6.04388">
        <ele>2332.4528808594</ele>
        <time>2017-03-31T11:30:10Z</time>
      </trkpt>
      <trkpt lat="45.23348" lon="6.04381">
        <ele>2330.4528808594</ele>
        <time>2017-03-31T11:30:16Z</time>
      </trkpt>
      <trkpt lat="45.23349" lon="6.04373">
        <ele>2331.4528808594</ele>
        <time>2017-03-31T11:30:22Z</time>
      </trkpt>
      <trkpt lat="45.23352" lon="6.04368">
        <ele>2332.4528808594</ele>
        <time>2017-03-31T11:30:26Z</time>
      </trkpt>
      <trkpt lat="45.23355" lon="6.04362">
        <ele>2332.4528808594</ele>
        <time>2017-03-31T11:30:36Z</time>
      </trkpt>
      <trkpt lat="45.2336" lon="6.04359">
        <ele>2340.4528808594</ele>
        <time>2017-03-31T11:30:45Z</time>
      </trkpt>
      <trkpt lat="45.23365" lon="6.04362">
        <ele>2342.4528808594</ele>
        <time>2017-03-31T11:31:26Z</time>
      </trkpt>
      <trkpt lat="45.2337" lon="6.04361">
        <ele>2343.4528808594</ele>
        <time>2017-03-31T11:31:31Z</time>
      </trkpt>
      <trkpt lat="45.23373" lon="6.04365">
        <ele>2343.4528808594</ele>
        <time>2017-03-31T11:31:46Z</time>
      </trkpt>
      <trkpt lat="45.23377" lon="6.04369">
        <ele>2346.4528808594</ele>
        <time>2017-03-31T11:31:50Z</time>
      </trkpt>
      <trkpt lat="45.23381" lon="6.04372">
        <ele>2346.4528808594</ele>
        <time>2017-03-31T11:31:55Z</time>
      </trkpt>
      <trkpt lat="45.23386" lon="6.04373">
        <ele>2344.4528808594</ele>
        <time>2017-03-31T11:32:00Z</time>
      </trkpt>
      <trkpt lat="45.23392" lon="6.04374">
        <ele>2343.4528808594</ele>
        <time>2017-03-31T11:32:05Z</time>
      </trkpt>
      <trkpt lat="45.23396" lon="6.04376">
        <ele>2342.4528808594</ele>
        <time>2017-03-31T11:32:19Z</time>
      </trkpt>
      <trkpt lat="45.23399" lon="6.04382">
        <ele>2352.4528808594</ele>
        <time>2017-03-31T11:33:14Z</time>
      </trkpt>
      <trkpt lat="45.23404" lon="6.04385">
        <ele>2355.4528808594</ele>
        <time>2017-03-31T11:33:19Z</time>
      </trkpt>
      <trkpt lat="45.23408" lon="6.04389">
        <ele>2354.4528808594</ele>
        <time>2017-03-31T11:33:26Z</time>
      </trkpt>
      <trkpt lat="45.23414" lon="6.04391">
        <ele>2353.4528808594</ele>
        <time>2017-03-31T11:33:31Z</time>
      </trkpt>
      <trkpt lat="45.23418" lon="6.04393">
        <ele>2352.4528808594</ele>
        <time>2017-03-31T11:33:36Z</time>
      </trkpt>
      <trkpt lat="45.23423" lon="6.04395">
        <ele>2355.4528808594</ele>
        <time>2017-03-31T11:33:41Z</time>
      </trkpt>
      <trkpt lat="45.23428" lon="6.04396">
        <ele>2352.4528808594</ele>
        <time>2017-03-31T11:33:45Z</time>
      </trkpt>
      <trkpt lat="45.23432" lon="6.04399">
        <ele>2357.4528808594</ele>
        <time>2017-03-31T11:33:49Z</time>
      </trkpt>
      <trkpt lat="45.23437" lon="6.04401">
        <ele>2355.4528808594</ele>
        <time>2017-03-31T11:33:53Z</time>
      </trkpt>
      <trkpt lat="45.23442" lon="6.04405">
        <ele>2359.4528808594</ele>
        <time>2017-03-31T11:33:58Z</time>
      </trkpt>
      <trkpt lat="45.23447" lon="6.04406">
        <ele>2358.4528808594</ele>
        <time>2017-03-31T11:34:06Z</time>
      </trkpt>
      <trkpt lat="45.23451" lon="6.0441">
        <ele>2357.4528808594</ele>
        <time>2017-03-31T11:34:10Z</time>
      </trkpt>
      <trkpt lat="45.23457" lon="6.0441">
        <ele>2357.4528808594</ele>
        <time>2017-03-31T11:34:13Z</time>
      </trkpt>
      <trkpt lat="45.23461" lon="6.04411">
        <ele>2355.4528808594</ele>
        <time>2017-03-31T11:34:16Z</time>
      </trkpt>
      <trkpt lat="45.23466" lon="6.04414">
        <ele>2354.4528808594</ele>
        <time>2017-03-31T11:34:21Z</time>
      </trkpt>
      <trkpt lat="45.2347" lon="6.0442">
        <ele>2354.4528808594</ele>
        <time>2017-03-31T11:34:24Z</time>
      </trkpt>
      <trkpt lat="45.23475" lon="6.04422">
        <ele>2354.4528808594</ele>
        <time>2017-03-31T11:34:28Z</time>
      </trkpt>
      <trkpt lat="45.2348" lon="6.04426">
        <ele>2353.4528808594</ele>
        <time>2017-03-31T11:34:33Z</time>
      </trkpt>
      <trkpt lat="45.23485" lon="6.04428">
        <ele>2354.4528808594</ele>
        <time>2017-03-31T11:34:38Z</time>
      </trkpt>
      <trkpt lat="45.2349" lon="6.04429">
        <ele>2353.4528808594</ele>
        <time>2017-03-31T11:34:42Z</time>
      </trkpt>
      <trkpt lat="45.23494" lon="6.0443">
        <ele>2352.4528808594</ele>
        <time>2017-03-31T11:34:45Z</time>
      </trkpt>
      <trkpt lat="45.23499" lon="6.0443">
        <ele>2351.4528808594</ele>
        <time>2017-03-31T11:34:50Z</time>
      </trkpt>
      <trkpt lat="45.23504" lon="6.04431">
        <ele>2348.4528808594</ele>
        <time>2017-03-31T11:34:53Z</time>
      </trkpt>
      <trkpt lat="45.23509" lon="6.04428">
        <ele>2347.4528808594</ele>
        <time>2017-03-31T11:34:57Z</time>
      </trkpt>
      <trkpt lat="45.23514" lon="6.0443">
        <ele>2346.4528808594</ele>
        <time>2017-03-31T11:35:02Z</time>
      </trkpt>
      <trkpt lat="45.23519" lon="6.0443">
        <ele>2352.4528808594</ele>
        <time>2017-03-31T11:35:07Z</time>
      </trkpt>
      <trkpt lat="45.23524" lon="6.0443">
        <ele>2355.4528808594</ele>
        <time>2017-03-31T11:35:14Z</time>
      </trkpt>
      <trkpt lat="45.2353" lon="6.0443">
        <ele>2352.4528808594</ele>
        <time>2017-03-31T11:35:19Z</time>
      </trkpt>
      <trkpt lat="45.23536" lon="6.04432">
        <ele>2349.4528808594</ele>
        <time>2017-03-31T11:35:22Z</time>
      </trkpt>
      <trkpt lat="45.23542" lon="6.04434">
        <ele>2348.4528808594</ele>
        <time>2017-03-31T11:35:28Z</time>
      </trkpt>
      <trkpt lat="45.23547" lon="6.04433">
        <ele>2345.4528808594</ele>
        <time>2017-03-31T11:35:36Z</time>
      </trkpt>
      <trkpt lat="45.23552" lon="6.04432">
        <ele>2344.4528808594</ele>
        <time>2017-03-31T11:35:40Z</time>
      </trkpt>
      <trkpt lat="45.2356" lon="6.04439">
        <ele>2341.4528808594</ele>
        <time>2017-03-31T11:35:43Z</time>
      </trkpt>
      <trkpt lat="45.23564" lon="6.04437">
        <ele>2339.4528808594</ele>
        <time>2017-03-31T11:35:48Z</time>
      </trkpt>
      <trkpt lat="45.23569" lon="6.04436">
        <ele>2339.4528808594</ele>
        <time>2017-03-31T11:35:51Z</time>
      </trkpt>
      <trkpt lat="45.23574" lon="6.04439">
        <ele>2336.4528808594</ele>
        <time>2017-03-31T11:35:55Z</time>
      </trkpt>
      <trkpt lat="45.23579" lon="6.04437">
        <ele>2333.4528808594</ele>
        <time>2017-03-31T11:35:59Z</time>
      </trkpt>
      <trkpt lat="45.23584" lon="6.04439">
        <ele>2330.4528808594</ele>
        <time>2017-03-31T11:36:03Z</time>
      </trkpt>
      <trkpt lat="45.23589" lon="6.04434">
        <ele>2342.4528808594</ele>
        <time>2017-03-31T11:36:13Z</time>
      </trkpt>
      <trkpt lat="45.23594" lon="6.04431">
        <ele>2350.4528808594</ele>
        <time>2017-03-31T11:36:21Z</time>
      </trkpt>
      <trkpt lat="45.23598" lon="6.04428">
        <ele>2355.4528808594</ele>
        <time>2017-03-31T11:36:28Z</time>
      </trkpt>
      <trkpt lat="45.23603" lon="6.04428">
        <ele>2356.4528808594</ele>
        <time>2017-03-31T11:36:36Z</time>
      </trkpt>
      <trkpt lat="45.23606" lon="6.04432">
        <ele>2353.4528808594</ele>
        <time>2017-03-31T11:36:42Z</time>
      </trkpt>
      <trkpt lat="45.23611" lon="6.04429">
        <ele>2352.4528808594</ele>
        <time>2017-03-31T11:36:45Z</time>
      </trkpt>
      <trkpt lat="45.23616" lon="6.04429">
        <ele>2357.4528808594</ele>
        <time>2017-03-31T11:36:53Z</time>
      </trkpt>
      <trkpt lat="45.23621" lon="6.04426">
        <ele>2359.4528808594</ele>
        <time>2017-03-31T11:36:59Z</time>
      </trkpt>
      <trkpt lat="45.23627" lon="6.0443">
        <ele>2366.4528808594</ele>
        <time>2017-03-31T11:37:08Z</time>
      </trkpt>
      <trkpt lat="45.23632" lon="6.04429">
        <ele>2368.4528808594</ele>
        <time>2017-03-31T11:37:13Z</time>
      </trkpt>
      <trkpt lat="45.23636" lon="6.04426">
        <ele>2368.4528808594</ele>
        <time>2017-03-31T11:37:20Z</time>
      </trkpt>
      <trkpt lat="45.23639" lon="6.0442">
        <ele>2374.4528808594</ele>
        <time>2017-03-31T11:37:25Z</time>
      </trkpt>
      <trkpt lat="45.23643" lon="6.04415">
        <ele>2383.4528808594</ele>
        <time>2017-03-31T11:37:33Z</time>
      </trkpt>
      <trkpt lat="45.23647" lon="6.04411">
        <ele>2383.4528808594</ele>
        <time>2017-03-31T11:37:39Z</time>
      </trkpt>
      <trkpt lat="45.2365" lon="6.04406">
        <ele>2388.4528808594</ele>
        <time>2017-03-31T11:37:46Z</time>
      </trkpt>
      <trkpt lat="45.23652" lon="6.044">
        <ele>2395.4528808594</ele>
        <time>2017-03-31T11:37:54Z</time>
      </trkpt>
      <trkpt lat="45.23657" lon="6.04402">
        <ele>2398.4528808594</ele>
        <time>2017-03-31T11:38:09Z</time>
      </trkpt>
      <trkpt lat="45.23662" lon="6.04405">
        <ele>2404.4528808594</ele>
        <time>2017-03-31T11:38:17Z</time>
      </trkpt>
      <trkpt lat="45.23666" lon="6.04407">
        <ele>2403.4528808594</ele>
        <time>2017-03-31T11:38:26Z</time>
      </trkpt>
      <trkpt lat="45.2367" lon="6.04411">
        <ele>2404.4528808594</ele>
        <time>2017-03-31T11:38:33Z</time>
      </trkpt>
      <trkpt lat="45.23675" lon="6.04411">
        <ele>2403.4528808594</ele>
        <time>2017-03-31T11:38:38Z</time>
      </trkpt>
      <trkpt lat="45.2368" lon="6.04412">
        <ele>2405.4528808594</ele>
        <time>2017-03-31T11:38:43Z</time>
      </trkpt>
      <trkpt lat="45.23684" lon="6.04411">
        <ele>2404.4528808594</ele>
        <time>2017-03-31T11:38:51Z</time>
      </trkpt>
      <trkpt lat="45.23685" lon="6.04405">
        <ele>2405.4528808594</ele>
        <time>2017-03-31T11:38:58Z</time>
      </trkpt>
      <trkpt lat="45.23685" lon="6.04398">
        <ele>2409.4528808594</ele>
        <time>2017-03-31T11:39:03Z</time>
      </trkpt>
      <trkpt lat="45.23683" lon="6.04392">
        <ele>2410.4528808594</ele>
        <time>2017-03-31T11:39:12Z</time>
      </trkpt>
      <trkpt lat="45.23682" lon="6.04385">
        <ele>2413.4528808594</ele>
        <time>2017-03-31T11:39:16Z</time>
      </trkpt>
      <trkpt lat="45.2368" lon="6.04379">
        <ele>2416.4528808594</ele>
        <time>2017-03-31T11:39:21Z</time>
      </trkpt>
      <trkpt lat="45.23678" lon="6.04373">
        <ele>2418.4528808594</ele>
        <time>2017-03-31T11:39:29Z</time>
      </trkpt>
      <trkpt lat="45.23679" lon="6.04367">
        <ele>2422.4528808594</ele>
        <time>2017-03-31T11:39:42Z</time>
      </trkpt>
      <trkpt lat="45.23684" lon="6.04364">
        <ele>2422.4528808594</ele>
        <time>2017-03-31T11:39:52Z</time>
      </trkpt>
      <trkpt lat="45.23689" lon="6.04363">
        <ele>2426.4528808594</ele>
        <time>2017-03-31T11:39:59Z</time>
      </trkpt>
      <trkpt lat="45.23694" lon="6.04363">
        <ele>2422.4528808594</ele>
        <time>2017-03-31T11:40:10Z</time>
      </trkpt>
      <trkpt lat="45.23695" lon="6.04356">
        <ele>2427.4528808594</ele>
        <time>2017-03-31T11:40:17Z</time>
      </trkpt>
      <trkpt lat="45.23694" lon="6.0435">
        <ele>2435.4528808594</ele>
        <time>2017-03-31T11:40:27Z</time>
      </trkpt>
      <trkpt lat="45.2369" lon="6.04345">
        <ele>2437.4528808594</ele>
        <time>2017-03-31T11:40:34Z</time>
      </trkpt>
      <trkpt lat="45.23692" lon="6.04339">
        <ele>2444.4528808594</ele>
        <time>2017-03-31T11:41:01Z</time>
      </trkpt>
      <trkpt lat="45.23696" lon="6.04339">
        <ele>2444.4528808594</ele>
        <time>2017-03-31T11:41:07Z</time>
      </trkpt>
      <trkpt lat="45.23696" lon="6.04333">
        <ele>2442.4528808594</ele>
        <time>2017-03-31T11:41:22Z</time>
      </trkpt>
      <trkpt lat="45.23692" lon="6.04332">
        <ele>2447.4528808594</ele>
        <time>2017-03-31T11:41:27Z</time>
      </trkpt>
      <trkpt lat="45.23689" lon="6.04325">
        <ele>2450.4528808594</ele>
        <time>2017-03-31T11:41:31Z</time>
      </trkpt>
      <trkpt lat="45.2369" lon="6.04317">
        <ele>2445.4528808594</ele>
        <time>2017-03-31T11:41:36Z</time>
      </trkpt>
      <trkpt lat="45.23691" lon="6.04311">
        <ele>2447.4528808594</ele>
        <time>2017-03-31T11:42:04Z</time>
      </trkpt>
      <trkpt lat="45.23697" lon="6.0431">
        <ele>2450.4528808594</ele>
        <time>2017-03-31T11:42:13Z</time>
      </trkpt>
      <trkpt lat="45.23701" lon="6.04308">
        <ele>2444.4528808594</ele>
        <time>2017-03-31T11:42:22Z</time>
      </trkpt>
      <trkpt lat="45.23701" lon="6.04301">
        <ele>2446.4528808594</ele>
        <time>2017-03-31T11:42:47Z</time>
      </trkpt>
      <trkpt lat="45.23697" lon="6.04298">
        <ele>2450.4528808594</ele>
        <time>2017-03-31T11:43:06Z</time>
      </trkpt>
      <trkpt lat="45.23693" lon="6.04294">
        <ele>2452.4528808594</ele>
        <time>2017-03-31T11:43:18Z</time>
      </trkpt>
      <trkpt lat="45.23688" lon="6.0429">
        <ele>2455.4528808594</ele>
        <time>2017-03-31T11:43:25Z</time>
      </trkpt>
      <trkpt lat="45.23684" lon="6.04286">
        <ele>2455.4528808594</ele>
        <time>2017-03-31T11:43:32Z</time>
      </trkpt>
      <trkpt lat="45.23681" lon="6.04281">
        <ele>2460.4528808594</ele>
        <time>2017-03-31T11:43:41Z</time>
      </trkpt>
      <trkpt lat="45.23676" lon="6.04278">
        <ele>2460.4528808594</ele>
        <time>2017-03-31T11:43:47Z</time>
      </trkpt>
      <trkpt lat="45.23671" lon="6.04276">
        <ele>2463.4528808594</ele>
        <time>2017-03-31T11:43:52Z</time>
      </trkpt>
      <trkpt lat="45.23666" lon="6.04269">
        <ele>2465.4528808594</ele>
        <time>2017-03-31T11:44:06Z</time>
      </trkpt>
      <trkpt lat="45.23662" lon="6.04265">
        <ele>2470.4528808594</ele>
        <time>2017-03-31T11:44:27Z</time>
      </trkpt>
      <trkpt lat="45.23658" lon="6.04259">
        <ele>2474.4528808594</ele>
        <time>2017-03-31T11:44:44Z</time>
      </trkpt>
      <trkpt lat="45.23655" lon="6.04254">
        <ele>2472.4528808594</ele>
        <time>2017-03-31T11:44:48Z</time>
      </trkpt>
      <trkpt lat="45.23658" lon="6.04249">
        <ele>2481.4528808594</ele>
        <time>2017-03-31T11:45:03Z</time>
      </trkpt>
      <trkpt lat="45.23662" lon="6.04245">
        <ele>2479.4528808594</ele>
        <time>2017-03-31T11:45:10Z</time>
      </trkpt>
      <trkpt lat="45.23666" lon="6.04242">
        <ele>2479.4528808594</ele>
        <time>2017-03-31T11:45:17Z</time>
      </trkpt>
      <trkpt lat="45.2367" lon="6.04239">
        <ele>2484.4528808594</ele>
        <time>2017-03-31T11:45:39Z</time>
      </trkpt>
      <trkpt lat="45.23675" lon="6.04236">
        <ele>2485.4528808594</ele>
        <time>2017-03-31T11:45:53Z</time>
      </trkpt>
      <trkpt lat="45.23673" lon="6.04231">
        <ele>2487.4528808594</ele>
        <time>2017-03-31T11:46:10Z</time>
      </trkpt>
      <trkpt lat="45.23669" lon="6.04225">
        <ele>2489.4528808594</ele>
        <time>2017-03-31T11:46:19Z</time>
      </trkpt>
      <trkpt lat="45.23666" lon="6.04219">
        <ele>2491.4528808594</ele>
        <time>2017-03-31T11:46:28Z</time>
      </trkpt>
      <trkpt lat="45.23665" lon="6.04212">
        <ele>2493.4528808594</ele>
        <time>2017-03-31T11:46:42Z</time>
      </trkpt>
      <trkpt lat="45.23663" lon="6.04206">
        <ele>2490.4528808594</ele>
        <time>2017-03-31T11:46:53Z</time>
      </trkpt>
      <trkpt lat="45.23661" lon="6.04201">
        <ele>2496.4528808594</ele>
        <time>2017-03-31T11:46:58Z</time>
      </trkpt>
      <trkpt lat="45.23658" lon="6.04194">
        <ele>2501.4528808594</ele>
        <time>2017-03-31T11:47:00Z</time>
      </trkpt>
      <trkpt lat="45.23662" lon="6.04189">
        <ele>2505.4528808594</ele>
        <time>2017-03-31T11:47:17Z</time>
      </trkpt>
      <trkpt lat="45.23667" lon="6.0419">
        <ele>2506.4528808594</ele>
        <time>2017-03-31T11:47:27Z</time>
      </trkpt>
      <trkpt lat="45.23672" lon="6.04189">
        <ele>2507.4528808594</ele>
        <time>2017-03-31T11:47:46Z</time>
      </trkpt>
      <trkpt lat="45.23677" lon="6.04188">
        <ele>2513.4528808594</ele>
        <time>2017-03-31T11:47:51Z</time>
      </trkpt>
      <trkpt lat="45.23682" lon="6.04185">
        <ele>2511.4528808594</ele>
        <time>2017-03-31T11:47:57Z</time>
      </trkpt>
      <trkpt lat="45.23686" lon="6.04183">
        <ele>2512.4528808594</ele>
        <time>2017-03-31T11:48:01Z</time>
      </trkpt>
      <trkpt lat="45.23691" lon="6.04182">
        <ele>2513.4528808594</ele>
        <time>2017-03-31T11:48:14Z</time>
      </trkpt>
      <trkpt lat="45.23696" lon="6.04184">
        <ele>2514.4528808594</ele>
        <time>2017-03-31T11:48:23Z</time>
      </trkpt>
      <trkpt lat="45.23701" lon="6.04184">
        <ele>2517.4528808594</ele>
        <time>2017-03-31T11:48:30Z</time>
      </trkpt>
      <trkpt lat="45.23703" lon="6.04178">
        <ele>2521.4528808594</ele>
        <time>2017-03-31T11:48:50Z</time>
      </trkpt>
      <trkpt lat="45.23702" lon="6.04171">
        <ele>2521.4528808594</ele>
        <time>2017-03-31T11:49:00Z</time>
      </trkpt>
      <trkpt lat="45.237" lon="6.04165">
        <ele>2522.4528808594</ele>
        <time>2017-03-31T11:49:12Z</time>
      </trkpt>
      <trkpt lat="45.23703" lon="6.0416">
        <ele>2524.4528808594</ele>
        <time>2017-03-31T11:49:18Z</time>
      </trkpt>
      <trkpt lat="45.23708" lon="6.04157">
        <ele>2528.4528808594</ele>
        <time>2017-03-31T11:49:28Z</time>
      </trkpt>
      <trkpt lat="45.23713" lon="6.04153">
        <ele>2530.4528808594</ele>
        <time>2017-03-31T11:49:33Z</time>
      </trkpt>
      <trkpt lat="45.23717" lon="6.04156">
        <ele>2529.4528808594</ele>
        <time>2017-03-31T11:49:38Z</time>
      </trkpt>
      <trkpt lat="45.23721" lon="6.04158">
        <ele>2529.4528808594</ele>
        <time>2017-03-31T11:49:43Z</time>
      </trkpt>
      <trkpt lat="45.23725" lon="6.04161">
        <ele>2530.4528808594</ele>
        <time>2017-03-31T11:49:50Z</time>
      </trkpt>
      <trkpt lat="45.23731" lon="6.04163">
        <ele>2528.4528808594</ele>
        <time>2017-03-31T11:50:00Z</time>
      </trkpt>
      <trkpt lat="45.23736" lon="6.04163">
        <ele>2527.4528808594</ele>
        <time>2017-03-31T11:50:08Z</time>
      </trkpt>
      <trkpt lat="45.2374" lon="6.0416">
        <ele>2528.4528808594</ele>
        <time>2017-03-31T11:50:18Z</time>
      </trkpt>
      <trkpt lat="45.23745" lon="6.04156">
        <ele>2528.4528808594</ele>
        <time>2017-03-31T11:50:27Z</time>
      </trkpt>
      <trkpt lat="45.23748" lon="6.04151">
        <ele>2527.4528808594</ele>
        <time>2017-03-31T11:50:31Z</time>
      </trkpt>
      <trkpt lat="45.23752" lon="6.04147">
        <ele>2527.4528808594</ele>
        <time>2017-03-31T11:50:46Z</time>
      </trkpt>
      <trkpt lat="45.23752" lon="6.04139">
        <ele>2529.4528808594</ele>
        <time>2017-03-31T11:50:52Z</time>
      </trkpt>
      <trkpt lat="45.23753" lon="6.04132">
        <ele>2530.4528808594</ele>
        <time>2017-03-31T11:51:00Z</time>
      </trkpt>
      <trkpt lat="45.23755" lon="6.04125">
        <ele>2535.4528808594</ele>
        <time>2017-03-31T11:51:06Z</time>
      </trkpt>
      <trkpt lat="45.23759" lon="6.04122">
        <ele>2537.4528808594</ele>
        <time>2017-03-31T11:51:11Z</time>
      </trkpt>
      <trkpt lat="45.23764" lon="6.04118">
        <ele>2541.4528808594</ele>
        <time>2017-03-31T11:51:17Z</time>
      </trkpt>
      <trkpt lat="45.23768" lon="6.04114">
        <ele>2543.4528808594</ele>
        <time>2017-03-31T11:53:26Z</time>
      </trkpt>
      <trkpt lat="45.23772" lon="6.04113">
        <ele>2544.4528808594</ele>
        <time>2017-03-31T11:57:16Z</time>
      </trkpt>
      <trkpt lat="45.23777" lon="6.04112">
        <ele>2544.4528808594</ele>
        <time>2017-03-31T11:57:21Z</time>
      </trkpt>
      <trkpt lat="45.23781" lon="6.0411">
        <ele>2545.4528808594</ele>
        <time>2017-03-31T11:57:24Z</time>
      </trkpt>
      <trkpt lat="45.23787" lon="6.04107">
        <ele>2546.4528808594</ele>
        <time>2017-03-31T11:57:29Z</time>
      </trkpt>
      <trkpt lat="45.23791" lon="6.04106">
        <ele>2547.4528808594</ele>
        <time>2017-03-31T11:57:33Z</time>
      </trkpt>
      <trkpt lat="45.23796" lon="6.04105">
        <ele>2546.4528808594</ele>
        <time>2017-03-31T11:57:39Z</time>
      </trkpt>
      <trkpt lat="45.23801" lon="6.04106">
        <ele>2545.4528808594</ele>
        <time>2017-03-31T11:57:44Z</time>
      </trkpt>
      <trkpt lat="45.23805" lon="6.0411">
        <ele>2545.4528808594</ele>
        <time>2017-03-31T11:57:50Z</time>
      </trkpt>
      <trkpt lat="45.23809" lon="6.04114">
        <ele>2544.4528808594</ele>
        <time>2017-03-31T11:57:55Z</time>
      </trkpt>
      <trkpt lat="45.23814" lon="6.04118">
        <ele>2546.4528808594</ele>
        <time>2017-03-31T11:58:02Z</time>
      </trkpt>
      <trkpt lat="45.23817" lon="6.04123">
        <ele>2543.4528808594</ele>
        <time>2017-03-31T11:58:07Z</time>
      </trkpt>
      <trkpt lat="45.2382" lon="6.04129">
        <ele>2549.4528808594</ele>
        <time>2017-03-31T11:58:12Z</time>
      </trkpt>
      <trkpt lat="45.23825" lon="6.04132">
        <ele>2548.4528808594</ele>
        <time>2017-03-31T11:58:18Z</time>
      </trkpt>
      <trkpt lat="45.23828" lon="6.04137">
        <ele>2553.4528808594</ele>
        <time>2017-03-31T11:58:22Z</time>
      </trkpt>
      <trkpt lat="45.2383" lon="6.04143">
        <ele>2554.4528808594</ele>
        <time>2017-03-31T11:58:28Z</time>
      </trkpt>
      <trkpt lat="45.23832" lon="6.04148">
        <ele>2555.4528808594</ele>
        <time>2017-03-31T11:58:38Z</time>
      </trkpt>
      <trkpt lat="45.23836" lon="6.04153">
        <ele>2561.4528808594</ele>
        <time>2017-03-31T11:59:00Z</time>
      </trkpt>
      <trkpt lat="45.23839" lon="6.04158">
        <ele>2564.4528808594</ele>
        <time>2017-03-31T11:59:09Z</time>
      </trkpt>
      <trkpt lat="45.23843" lon="6.04163">
        <ele>2566.4528808594</ele>
        <time>2017-03-31T11:59:16Z</time>
      </trkpt>
      <trkpt lat="45.23847" lon="6.04165">
        <ele>2565.4528808594</ele>
        <time>2017-03-31T11:59:29Z</time>
      </trkpt>
      <trkpt lat="45.2385" lon="6.04171">
        <ele>2562.4528808594</ele>
        <time>2017-03-31T11:59:34Z</time>
      </trkpt>
      <trkpt lat="45.23855" lon="6.04174">
        <ele>2569.4528808594</ele>
        <time>2017-03-31T11:59:43Z</time>
      </trkpt>
      <trkpt lat="45.23857" lon="6.04181">
        <ele>2566.4528808594</ele>
        <time>2017-03-31T11:59:52Z</time>
      </trkpt>
      <trkpt lat="45.2386" lon="6.04185">
        <ele>2567.4541015625</ele>
        <time>2017-03-31T12:00:09Z</time>
      </trkpt>
      <trkpt lat="45.23864" lon="6.04187">
        <ele>2567.4541015625</ele>
        <time>2017-03-31T12:00:16Z</time>
      </trkpt>
      <trkpt lat="45.23867" lon="6.04182">
        <ele>2573.4541015625</ele>
        <time>2017-03-31T12:00:26Z</time>
      </trkpt>
      <trkpt lat="45.23866" lon="6.04175">
        <ele>2578.4528808594</ele>
        <time>2017-03-31T12:00:34Z</time>
      </trkpt>
      <trkpt lat="45.23871" lon="6.04172">
        <ele>2578.4541015625</ele>
        <time>2017-03-31T12:00:58Z</time>
      </trkpt>
      <trkpt lat="45.23871" lon="6.04165">
        <ele>2576.4528808594</ele>
        <time>2017-03-31T12:01:09Z</time>
      </trkpt>
      <trkpt lat="45.2387" lon="6.04159">
        <ele>2579.4528808594</ele>
        <time>2017-03-31T12:01:16Z</time>
      </trkpt>
      <trkpt lat="45.23875" lon="6.0416">
        <ele>2576.4528808594</ele>
        <time>2017-03-31T12:01:32Z</time>
      </trkpt>
      <trkpt lat="45.2388" lon="6.04164">
        <ele>2581.4541015625</ele>
        <time>2017-03-31T12:01:48Z</time>
      </trkpt>
      <trkpt lat="45.23884" lon="6.04168">
        <ele>2586.4541015625</ele>
        <time>2017-03-31T12:01:58Z</time>
      </trkpt>
      <trkpt lat="45.23886" lon="6.04173">
        <ele>2585.4541015625</ele>
        <time>2017-03-31T12:02:06Z</time>
      </trkpt>
      <trkpt lat="45.23887" lon="6.04167">
        <ele>2594.4541015625</ele>
        <time>2017-03-31T12:02:58Z</time>
      </trkpt>
      <trkpt lat="45.23886" lon="6.04161">
        <ele>2591.4541015625</ele>
        <time>2017-03-31T12:03:03Z</time>
      </trkpt>
      <trkpt lat="45.23886" lon="6.04154">
        <ele>2589.4541015625</ele>
        <time>2017-03-31T12:03:07Z</time>
      </trkpt>
      <trkpt lat="45.23885" lon="6.04148">
        <ele>2591.4528808594</ele>
        <time>2017-03-31T12:03:14Z</time>
      </trkpt>
      <trkpt lat="45.23882" lon="6.04141">
        <ele>2590.4528808594</ele>
        <time>2017-03-31T12:03:25Z</time>
      </trkpt>
      <trkpt lat="45.23878" lon="6.04136">
        <ele>2594.4528808594</ele>
        <time>2017-03-31T12:03:28Z</time>
      </trkpt>
      <trkpt lat="45.23874" lon="6.04132">
        <ele>2597.4528808594</ele>
        <time>2017-03-31T12:03:35Z</time>
      </trkpt>
      <trkpt lat="45.23872" lon="6.04124">
        <ele>2596.4528808594</ele>
        <time>2017-03-31T12:03:41Z</time>
      </trkpt>
      <trkpt lat="45.23871" lon="6.04117">
        <ele>2596.4528808594</ele>
        <time>2017-03-31T12:03:45Z</time>
      </trkpt>
      <trkpt lat="45.2387" lon="6.0411">
        <ele>2599.4528808594</ele>
        <time>2017-03-31T12:03:49Z</time>
      </trkpt>
      <trkpt lat="45.23867" lon="6.04104">
        <ele>2602.4528808594</ele>
        <time>2017-03-31T12:04:05Z</time>
      </trkpt>
      <trkpt lat="45.23868" lon="6.04097">
        <ele>2601.4528808594</ele>
        <time>2017-03-31T12:04:10Z</time>
      </trkpt>
      <trkpt lat="45.23869" lon="6.0409">
        <ele>2601.4528808594</ele>
        <time>2017-03-31T12:04:15Z</time>
      </trkpt>
      <trkpt lat="45.23867" lon="6.04084">
        <ele>2601.4528808594</ele>
        <time>2017-03-31T12:04:21Z</time>
      </trkpt>
      <trkpt lat="45.23864" lon="6.04076">
        <ele>2601.4528808594</ele>
        <time>2017-03-31T12:04:30Z</time>
      </trkpt>
      <trkpt lat="45.23862" lon="6.04069">
        <ele>2601.4528808594</ele>
        <time>2017-03-31T12:04:34Z</time>
      </trkpt>
      <trkpt lat="45.23861" lon="6.04062">
        <ele>2602.4528808594</ele>
        <time>2017-03-31T12:04:42Z</time>
      </trkpt>
      <trkpt lat="45.23858" lon="6.04054">
        <ele>2607.4528808594</ele>
        <time>2017-03-31T12:04:54Z</time>
      </trkpt>
      <trkpt lat="45.23856" lon="6.04048">
        <ele>2615.4528808594</ele>
        <time>2017-03-31T12:05:17Z</time>
      </trkpt>
      <trkpt lat="45.23861" lon="6.04047">
        <ele>2614.4528808594</ele>
        <time>2017-03-31T12:05:32Z</time>
      </trkpt>
      <trkpt lat="45.23865" lon="6.04042">
        <ele>2614.4528808594</ele>
        <time>2017-03-31T12:06:18Z</time>
      </trkpt>
      <trkpt lat="45.23865" lon="6.04035">
        <ele>2615.4528808594</ele>
        <time>2017-03-31T12:08:34Z</time>
      </trkpt>
      <trkpt lat="45.23871" lon="6.04036">
        <ele>2613.4528808594</ele>
        <time>2017-03-31T12:10:29Z</time>
      </trkpt>
      <trkpt lat="45.23874" lon="6.04041">
        <ele>2619.4528808594</ele>
        <time>2017-03-31T12:12:43Z</time>
      </trkpt>
      <trkpt lat="45.2387" lon="6.04036">
        <ele>2625.4528808594</ele>
        <time>2017-03-31T12:14:35Z</time>
      </trkpt>
      <trkpt lat="45.23865" lon="6.04033">
        <ele>2624.4528808594</ele>
        <time>2017-03-31T12:15:05Z</time>
      </trkpt>
      <trkpt lat="45.23858" lon="6.04037">
        <ele>2616.4528808594</ele>
        <time>2017-03-31T12:16:01Z</time>
      </trkpt>
      <trkpt lat="45.23847" lon="6.04034">
        <ele>2615.4528808594</ele>
        <time>2017-03-31T12:16:03Z</time>
      </trkpt>
      <trkpt lat="45.23842" lon="6.04032">
        <ele>2611.4528808594</ele>
        <time>2017-03-31T12:16:05Z</time>
      </trkpt>
      <trkpt lat="45.23842" lon="6.0402">
        <ele>2599.4528808594</ele>
        <time>2017-03-31T12:18:02Z</time>
      </trkpt>
      <trkpt lat="45.23838" lon="6.04015">
        <ele>2596.4528808594</ele>
        <time>2017-03-31T12:18:04Z</time>
      </trkpt>
      <trkpt lat="45.23836" lon="6.0401">
        <ele>2582.4528808594</ele>
        <time>2017-03-31T12:18:08Z</time>
      </trkpt>
      <trkpt lat="45.23831" lon="6.04005">
        <ele>2572.4528808594</ele>
        <time>2017-03-31T12:18:10Z</time>
      </trkpt>
      <trkpt lat="45.23821" lon="6.03997">
        <ele>2568.4528808594</ele>
        <time>2017-03-31T12:18:15Z</time>
      </trkpt>
      <trkpt lat="45.23816" lon="6.03992">
        <ele>2565.4528808594</ele>
        <time>2017-03-31T12:18:17Z</time>
      </trkpt>
      <trkpt lat="45.23811" lon="6.03991">
        <ele>2564.4528808594</ele>
        <time>2017-03-31T12:19:02Z</time>
      </trkpt>
      <trkpt lat="45.23803" lon="6.03992">
        <ele>2564.4528808594</ele>
        <time>2017-03-31T12:19:06Z</time>
      </trkpt>
      <trkpt lat="45.23796" lon="6.03989">
        <ele>2562.4528808594</ele>
        <time>2017-03-31T12:19:08Z</time>
      </trkpt>
      <trkpt lat="45.23787" lon="6.03973">
        <ele>2557.4528808594</ele>
        <time>2017-03-31T12:19:09Z</time>
      </trkpt>
      <trkpt lat="45.23784" lon="6.03949">
        <ele>2552.4528808594</ele>
        <time>2017-03-31T12:19:11Z</time>
      </trkpt>
      <trkpt lat="45.23776" lon="6.03925">
        <ele>2547.4528808594</ele>
        <time>2017-03-31T12:19:13Z</time>
      </trkpt>
      <trkpt lat="45.23766" lon="6.03911">
        <ele>2546.4528808594</ele>
        <time>2017-03-31T12:19:15Z</time>
      </trkpt>
      <trkpt lat="45.2376" lon="6.03898">
        <ele>2542.4528808594</ele>
        <time>2017-03-31T12:19:18Z</time>
      </trkpt>
      <trkpt lat="45.23755" lon="6.03901">
        <ele>2540.4528808594</ele>
        <time>2017-03-31T12:19:19Z</time>
      </trkpt>
      <trkpt lat="45.23748" lon="6.03897">
        <ele>2537.4528808594</ele>
        <time>2017-03-31T12:19:21Z</time>
      </trkpt>
      <trkpt lat="45.23742" lon="6.03886">
        <ele>2535.4528808594</ele>
        <time>2017-03-31T12:19:23Z</time>
      </trkpt>
      <trkpt lat="45.23743" lon="6.03875">
        <ele>2532.4528808594</ele>
        <time>2017-03-31T12:19:24Z</time>
      </trkpt>
      <trkpt lat="45.23742" lon="6.03861">
        <ele>2528.4528808594</ele>
        <time>2017-03-31T12:19:26Z</time>
      </trkpt>
      <trkpt lat="45.23743" lon="6.03853">
        <ele>2527.4528808594</ele>
        <time>2017-03-31T12:19:27Z</time>
      </trkpt>
      <trkpt lat="45.23749" lon="6.03848">
        <ele>2522.4528808594</ele>
        <time>2017-03-31T12:19:29Z</time>
      </trkpt>
      <trkpt lat="45.23739" lon="6.03846">
        <ele>2517.4528808594</ele>
        <time>2017-03-31T12:19:30Z</time>
      </trkpt>
      <trkpt lat="45.23733" lon="6.03838">
        <ele>2514.4528808594</ele>
        <time>2017-03-31T12:19:32Z</time>
      </trkpt>
      <trkpt lat="45.23729" lon="6.03828">
        <ele>2504.4528808594</ele>
        <time>2017-03-31T12:19:34Z</time>
      </trkpt>
      <trkpt lat="45.23732" lon="6.03819">
        <ele>2497.4528808594</ele>
        <time>2017-03-31T12:19:36Z</time>
      </trkpt>
      <trkpt lat="45.23739" lon="6.03802">
        <ele>2493.4528808594</ele>
        <time>2017-03-31T12:19:38Z</time>
      </trkpt>
      <trkpt lat="45.23744" lon="6.038">
        <ele>2490.4528808594</ele>
        <time>2017-03-31T12:19:40Z</time>
      </trkpt>
      <trkpt lat="45.23748" lon="6.03797">
        <ele>2486.4528808594</ele>
        <time>2017-03-31T12:19:44Z</time>
      </trkpt>
      <trkpt lat="45.23743" lon="6.03801">
        <ele>2484.4528808594</ele>
        <time>2017-03-31T12:19:50Z</time>
      </trkpt>
      <trkpt lat="45.23734" lon="6.038">
        <ele>2479.4528808594</ele>
        <time>2017-03-31T12:19:52Z</time>
      </trkpt>
      <trkpt lat="45.2373" lon="6.03802">
        <ele>2479.4528808594</ele>
        <time>2017-03-31T12:19:53Z</time>
      </trkpt>
      <trkpt lat="45.23718" lon="6.03797">
        <ele>2475.4528808594</ele>
        <time>2017-03-31T12:19:56Z</time>
      </trkpt>
      <trkpt lat="45.23714" lon="6.03793">
        <ele>2472.4528808594</ele>
        <time>2017-03-31T12:19:58Z</time>
      </trkpt>
      <trkpt lat="45.23723" lon="6.03776">
        <ele>2470.4528808594</ele>
        <time>2017-03-31T12:20:00Z</time>
      </trkpt>
      <trkpt lat="45.23732" lon="6.03758">
        <ele>2469.4528808594</ele>
        <time>2017-03-31T12:20:02Z</time>
      </trkpt>
      <trkpt lat="45.23725" lon="6.03758">
        <ele>2466.4528808594</ele>
        <time>2017-03-31T12:20:03Z</time>
      </trkpt>
      <trkpt lat="45.23714" lon="6.03752">
        <ele>2465.4528808594</ele>
        <time>2017-03-31T12:20:05Z</time>
      </trkpt>
      <trkpt lat="45.23706" lon="6.03744">
        <ele>2462.4528808594</ele>
        <time>2017-03-31T12:20:07Z</time>
      </trkpt>
      <trkpt lat="45.23702" lon="6.03741">
        <ele>2461.4528808594</ele>
        <time>2017-03-31T12:20:08Z</time>
      </trkpt>
      <trkpt lat="45.23693" lon="6.03735">
        <ele>2461.4528808594</ele>
        <time>2017-03-31T12:20:10Z</time>
      </trkpt>
      <trkpt lat="45.23686" lon="6.03734">
        <ele>2461.4528808594</ele>
        <time>2017-03-31T12:20:12Z</time>
      </trkpt>
      <trkpt lat="45.23677" lon="6.03732">
        <ele>2459.4528808594</ele>
        <time>2017-03-31T12:20:14Z</time>
      </trkpt>
      <trkpt lat="45.23671" lon="6.03726">
        <ele>2458.4519042969</ele>
        <time>2017-03-31T12:20:16Z</time>
      </trkpt>
      <trkpt lat="45.23663" lon="6.03719">
        <ele>2458.4519042969</ele>
        <time>2017-03-31T12:20:18Z</time>
      </trkpt>
      <trkpt lat="45.23658" lon="6.03724">
        <ele>2452.4519042969</ele>
        <time>2017-03-31T12:20:19Z</time>
      </trkpt>
      <trkpt lat="45.23648" lon="6.03715">
        <ele>2449.4519042969</ele>
        <time>2017-03-31T12:20:21Z</time>
      </trkpt>
      <trkpt lat="45.23646" lon="6.03706">
        <ele>2445.4519042969</ele>
        <time>2017-03-31T12:20:23Z</time>
      </trkpt>
      <trkpt lat="45.23647" lon="6.03695">
        <ele>2439.4519042969</ele>
        <time>2017-03-31T12:20:25Z</time>
      </trkpt>
      <trkpt lat="45.23649" lon="6.03684">
        <ele>2436.4519042969</ele>
        <time>2017-03-31T12:20:27Z</time>
      </trkpt>
      <trkpt lat="45.23653" lon="6.03675">
        <ele>2435.4519042969</ele>
        <time>2017-03-31T12:20:28Z</time>
      </trkpt>
      <trkpt lat="45.23657" lon="6.03667">
        <ele>2432.4519042969</ele>
        <time>2017-03-31T12:20:29Z</time>
      </trkpt>
      <trkpt lat="45.23659" lon="6.03649">
        <ele>2429.4519042969</ele>
        <time>2017-03-31T12:20:31Z</time>
      </trkpt>
      <trkpt lat="45.23652" lon="6.03637">
        <ele>2425.4519042969</ele>
        <time>2017-03-31T12:20:33Z</time>
      </trkpt>
      <trkpt lat="45.23638" lon="6.03623">
        <ele>2424.4519042969</ele>
        <time>2017-03-31T12:20:35Z</time>
      </trkpt>
      <trkpt lat="45.23626" lon="6.03623">
        <ele>2419.4519042969</ele>
        <time>2017-03-31T12:20:36Z</time>
      </trkpt>
      <trkpt lat="45.23609" lon="6.03627">
        <ele>2413.4519042969</ele>
        <time>2017-03-31T12:20:38Z</time>
      </trkpt>
      <trkpt lat="45.23592" lon="6.03615">
        <ele>2409.4519042969</ele>
        <time>2017-03-31T12:20:40Z</time>
      </trkpt>
      <trkpt lat="45.23586" lon="6.03606">
        <ele>2404.4519042969</ele>
        <time>2017-03-31T12:20:41Z</time>
      </trkpt>
      <trkpt lat="45.23578" lon="6.03585">
        <ele>2401.4519042969</ele>
        <time>2017-03-31T12:20:43Z</time>
      </trkpt>
      <trkpt lat="45.2357" lon="6.0356">
        <ele>2399.4519042969</ele>
        <time>2017-03-31T12:20:45Z</time>
      </trkpt>
      <trkpt lat="45.23575" lon="6.03538">
        <ele>2392.4519042969</ele>
        <time>2017-03-31T12:20:47Z</time>
      </trkpt>
      <trkpt lat="45.23571" lon="6.03518">
        <ele>2388.4519042969</ele>
        <time>2017-03-31T12:20:51Z</time>
      </trkpt>
      <trkpt lat="45.23567" lon="6.03512">
        <ele>2388.4519042969</ele>
        <time>2017-03-31T12:20:53Z</time>
      </trkpt>
      <trkpt lat="45.23554" lon="6.0351">
        <ele>2373.4519042969</ele>
        <time>2017-03-31T12:21:10Z</time>
      </trkpt>
      <trkpt lat="45.23549" lon="6.03505">
        <ele>2371.4519042969</ele>
        <time>2017-03-31T12:21:11Z</time>
      </trkpt>
      <trkpt lat="45.23542" lon="6.03494">
        <ele>2373.4519042969</ele>
        <time>2017-03-31T12:21:13Z</time>
      </trkpt>
      <trkpt lat="45.23536" lon="6.03488">
        <ele>2371.4519042969</ele>
        <time>2017-03-31T12:21:14Z</time>
      </trkpt>
      <trkpt lat="45.23522" lon="6.03486">
        <ele>2367.4519042969</ele>
        <time>2017-03-31T12:21:16Z</time>
      </trkpt>
      <trkpt lat="45.2351" lon="6.0349">
        <ele>2363.4519042969</ele>
        <time>2017-03-31T12:21:18Z</time>
      </trkpt>
      <trkpt lat="45.23502" lon="6.03477">
        <ele>2357.4519042969</ele>
        <time>2017-03-31T12:21:21Z</time>
      </trkpt>
      <trkpt lat="45.23495" lon="6.03484">
        <ele>2355.4519042969</ele>
        <time>2017-03-31T12:21:23Z</time>
      </trkpt>
      <trkpt lat="45.23489" lon="6.03487">
        <ele>2354.4519042969</ele>
        <time>2017-03-31T12:21:24Z</time>
      </trkpt>
      <trkpt lat="45.23477" lon="6.03493">
        <ele>2353.4519042969</ele>
        <time>2017-03-31T12:21:26Z</time>
      </trkpt>
      <trkpt lat="45.23472" lon="6.03494">
        <ele>2352.4519042969</ele>
        <time>2017-03-31T12:21:27Z</time>
      </trkpt>
      <trkpt lat="45.2346" lon="6.03499">
        <ele>2351.4519042969</ele>
        <time>2017-03-31T12:21:30Z</time>
      </trkpt>
      <trkpt lat="45.23454" lon="6.03499">
        <ele>2346.4519042969</ele>
        <time>2017-03-31T12:21:32Z</time>
      </trkpt>
      <trkpt lat="45.23454" lon="6.03491">
        <ele>2335.4519042969</ele>
        <time>2017-03-31T12:21:36Z</time>
      </trkpt>
      <trkpt lat="45.23454" lon="6.03485">
        <ele>2333.4519042969</ele>
        <time>2017-03-31T12:21:39Z</time>
      </trkpt>
      <trkpt lat="45.2345" lon="6.03472">
        <ele>2331.4519042969</ele>
        <time>2017-03-31T12:21:41Z</time>
      </trkpt>
      <trkpt lat="45.23451" lon="6.03465">
        <ele>2330.4519042969</ele>
        <time>2017-03-31T12:21:42Z</time>
      </trkpt>
      <trkpt lat="45.23447" lon="6.03457">
        <ele>2327.4519042969</ele>
        <time>2017-03-31T12:21:43Z</time>
      </trkpt>
      <trkpt lat="45.23448" lon="6.03446">
        <ele>2321.4519042969</ele>
        <time>2017-03-31T12:21:45Z</time>
      </trkpt>
      <trkpt lat="45.2344" lon="6.03438">
        <ele>2318.4519042969</ele>
        <time>2017-03-31T12:21:47Z</time>
      </trkpt>
      <trkpt lat="45.2344" lon="6.03416">
        <ele>2315.4519042969</ele>
        <time>2017-03-31T12:21:50Z</time>
      </trkpt>
      <trkpt lat="45.23435" lon="6.03409">
        <ele>2313.4519042969</ele>
        <time>2017-03-31T12:21:51Z</time>
      </trkpt>
      <trkpt lat="45.23428" lon="6.03408">
        <ele>2310.4519042969</ele>
        <time>2017-03-31T12:21:53Z</time>
      </trkpt>
      <trkpt lat="45.23435" lon="6.0341">
        <ele>2302.4519042969</ele>
        <time>2017-03-31T12:21:58Z</time>
      </trkpt>
      <trkpt lat="45.23438" lon="6.03404">
        <ele>2293.4519042969</ele>
        <time>2017-03-31T12:22:03Z</time>
      </trkpt>
      <trkpt lat="45.23442" lon="6.03407">
        <ele>2290.4519042969</ele>
        <time>2017-03-31T12:22:05Z</time>
      </trkpt>
      <trkpt lat="45.23443" lon="6.034">
        <ele>2290.4519042969</ele>
        <time>2017-03-31T12:22:08Z</time>
      </trkpt>
      <trkpt lat="45.23443" lon="6.03394">
        <ele>2284.4519042969</ele>
        <time>2017-03-31T12:22:28Z</time>
      </trkpt>
      <trkpt lat="45.23448" lon="6.03396">
        <ele>2277.4519042969</ele>
        <time>2017-03-31T12:22:41Z</time>
      </trkpt>
      <trkpt lat="45.23446" lon="6.0339">
        <ele>2278.4519042969</ele>
        <time>2017-03-31T12:23:14Z</time>
      </trkpt>
      <trkpt lat="45.23441" lon="6.0338">
        <ele>2274.4519042969</ele>
        <time>2017-03-31T12:23:16Z</time>
      </trkpt>
      <trkpt lat="45.23431" lon="6.03377">
        <ele>2272.4519042969</ele>
        <time>2017-03-31T12:23:18Z</time>
      </trkpt>
      <trkpt lat="45.23423" lon="6.03375">
        <ele>2269.4519042969</ele>
        <time>2017-03-31T12:23:20Z</time>
      </trkpt>
      <trkpt lat="45.23415" lon="6.03372">
        <ele>2266.4509277344</ele>
        <time>2017-03-31T12:23:22Z</time>
      </trkpt>
      <trkpt lat="45.23409" lon="6.03369">
        <ele>2264.4509277344</ele>
        <time>2017-03-31T12:23:24Z</time>
      </trkpt>
      <trkpt lat="45.23403" lon="6.03369">
        <ele>2264.4509277344</ele>
        <time>2017-03-31T12:23:28Z</time>
      </trkpt>
      <trkpt lat="45.234" lon="6.03365">
        <ele>2260.4509277344</ele>
        <time>2017-03-31T12:24:17Z</time>
      </trkpt>
      <trkpt lat="45.23401" lon="6.03354">
        <ele>2255.4509277344</ele>
        <time>2017-03-31T12:24:18Z</time>
      </trkpt>
      <trkpt lat="45.23397" lon="6.0334">
        <ele>2247.4509277344</ele>
        <time>2017-03-31T12:24:20Z</time>
      </trkpt>
      <trkpt lat="45.23395" lon="6.03332">
        <ele>2242.4509277344</ele>
        <time>2017-03-31T12:24:21Z</time>
      </trkpt>
      <trkpt lat="45.23391" lon="6.03319">
        <ele>2231.4509277344</ele>
        <time>2017-03-31T12:24:23Z</time>
      </trkpt>
      <trkpt lat="45.23385" lon="6.03302">
        <ele>2218.4509277344</ele>
        <time>2017-03-31T12:24:25Z</time>
      </trkpt>
      <trkpt lat="45.23389" lon="6.03293">
        <ele>2212.4509277344</ele>
        <time>2017-03-31T12:24:26Z</time>
      </trkpt>
      <trkpt lat="45.23387" lon="6.03272">
        <ele>2202.4509277344</ele>
        <time>2017-03-31T12:24:28Z</time>
      </trkpt>
      <trkpt lat="45.23385" lon="6.03265">
        <ele>2197.4509277344</ele>
        <time>2017-03-31T12:24:29Z</time>
      </trkpt>
      <trkpt lat="45.23371" lon="6.03255">
        <ele>2187.4509277344</ele>
        <time>2017-03-31T12:24:31Z</time>
      </trkpt>
      <trkpt lat="45.23358" lon="6.03251">
        <ele>2184.4509277344</ele>
        <time>2017-03-31T12:24:33Z</time>
      </trkpt>
      <trkpt lat="45.23343" lon="6.03245">
        <ele>2182.4509277344</ele>
        <time>2017-03-31T12:24:35Z</time>
      </trkpt>
      <trkpt lat="45.23326" lon="6.03237">
        <ele>2179.4509277344</ele>
        <time>2017-03-31T12:24:37Z</time>
      </trkpt>
      <trkpt lat="45.23308" lon="6.03231">
        <ele>2178.4509277344</ele>
        <time>2017-03-31T12:24:39Z</time>
      </trkpt>
      <trkpt lat="45.23295" lon="6.03225">
        <ele>2179.4509277344</ele>
        <time>2017-03-31T12:24:41Z</time>
      </trkpt>
      <trkpt lat="45.23285" lon="6.03215">
        <ele>2178.4509277344</ele>
        <time>2017-03-31T12:24:44Z</time>
      </trkpt>
      <trkpt lat="45.23279" lon="6.03208">
        <ele>2179.4509277344</ele>
        <time>2017-03-31T12:24:46Z</time>
      </trkpt>
      <trkpt lat="45.23272" lon="6.03201">
        <ele>2178.4509277344</ele>
        <time>2017-03-31T12:24:48Z</time>
      </trkpt>
      <trkpt lat="45.23265" lon="6.03198">
        <ele>2176.4509277344</ele>
        <time>2017-03-31T12:24:51Z</time>
      </trkpt>
      <trkpt lat="45.2326" lon="6.03192">
        <ele>2177.4509277344</ele>
        <time>2017-03-31T12:24:53Z</time>
      </trkpt>
      <trkpt lat="45.23258" lon="6.03187">
        <ele>2183.4509277344</ele>
        <time>2017-03-31T12:26:14Z</time>
      </trkpt>
      <trkpt lat="45.23252" lon="6.03181">
        <ele>2177.4509277344</ele>
        <time>2017-03-31T12:26:34Z</time>
      </trkpt>
      <trkpt lat="45.23242" lon="6.03169">
        <ele>2170.4509277344</ele>
        <time>2017-03-31T12:26:36Z</time>
      </trkpt>
      <trkpt lat="45.2323" lon="6.03163">
        <ele>2166.4509277344</ele>
        <time>2017-03-31T12:26:38Z</time>
      </trkpt>
      <trkpt lat="45.23217" lon="6.03158">
        <ele>2162.4509277344</ele>
        <time>2017-03-31T12:26:41Z</time>
      </trkpt>
      <trkpt lat="45.23219" lon="6.03143">
        <ele>2153.4509277344</ele>
        <time>2017-03-31T12:26:43Z</time>
      </trkpt>
      <trkpt lat="45.2321" lon="6.03132">
        <ele>2148.4509277344</ele>
        <time>2017-03-31T12:26:45Z</time>
      </trkpt>
      <trkpt lat="45.23197" lon="6.03125">
        <ele>2144.4509277344</ele>
        <time>2017-03-31T12:26:47Z</time>
      </trkpt>
      <trkpt lat="45.23189" lon="6.03113">
        <ele>2139.4509277344</ele>
        <time>2017-03-31T12:26:49Z</time>
      </trkpt>
      <trkpt lat="45.23178" lon="6.03101">
        <ele>2135.4509277344</ele>
        <time>2017-03-31T12:26:51Z</time>
      </trkpt>
      <trkpt lat="45.2317" lon="6.03076">
        <ele>2132.4509277344</ele>
        <time>2017-03-31T12:26:54Z</time>
      </trkpt>
      <trkpt lat="45.23162" lon="6.03062">
        <ele>2130.4509277344</ele>
        <time>2017-03-31T12:26:55Z</time>
      </trkpt>
      <trkpt lat="45.23153" lon="6.03052">
        <ele>2130.4509277344</ele>
        <time>2017-03-31T12:26:56Z</time>
      </trkpt>
      <trkpt lat="45.23144" lon="6.03036">
        <ele>2126.4499511719</ele>
        <time>2017-03-31T12:26:58Z</time>
      </trkpt>
      <trkpt lat="45.2316" lon="6.0301">
        <ele>2120.4499511719</ele>
        <time>2017-03-31T12:27:00Z</time>
      </trkpt>
      <trkpt lat="45.23163" lon="6.02997">
        <ele>2119.4499511719</ele>
        <time>2017-03-31T12:27:01Z</time>
      </trkpt>
      <trkpt lat="45.23162" lon="6.02988">
        <ele>2117.4499511719</ele>
        <time>2017-03-31T12:27:02Z</time>
      </trkpt>
      <trkpt lat="45.23158" lon="6.02969">
        <ele>2113.4499511719</ele>
        <time>2017-03-31T12:27:04Z</time>
      </trkpt>
      <trkpt lat="45.23141" lon="6.02947">
        <ele>2109.4499511719</ele>
        <time>2017-03-31T12:27:07Z</time>
      </trkpt>
      <trkpt lat="45.23131" lon="6.02937">
        <ele>2107.4499511719</ele>
        <time>2017-03-31T12:27:09Z</time>
      </trkpt>
      <trkpt lat="45.23125" lon="6.02945">
        <ele>2105.4499511719</ele>
        <time>2017-03-31T12:27:10Z</time>
      </trkpt>
      <trkpt lat="45.23115" lon="6.0295">
        <ele>2102.4499511719</ele>
        <time>2017-03-31T12:27:12Z</time>
      </trkpt>
      <trkpt lat="45.23105" lon="6.02952">
        <ele>2102.4499511719</ele>
        <time>2017-03-31T12:27:14Z</time>
      </trkpt>
      <trkpt lat="45.23099" lon="6.0295">
        <ele>2101.4499511719</ele>
        <time>2017-03-31T12:27:16Z</time>
      </trkpt>
      <trkpt lat="45.23095" lon="6.02947">
        <ele>2100.4499511719</ele>
        <time>2017-03-31T12:27:18Z</time>
      </trkpt>
      <trkpt lat="45.2309" lon="6.02944">
        <ele>2100.4499511719</ele>
        <time>2017-03-31T12:27:20Z</time>
      </trkpt>
      <trkpt lat="45.23088" lon="6.02938">
        <ele>2100.4499511719</ele>
        <time>2017-03-31T12:27:26Z</time>
      </trkpt>
      <trkpt lat="45.23091" lon="6.02933">
        <ele>2096.4499511719</ele>
        <time>2017-03-31T12:28:20Z</time>
      </trkpt>
      <trkpt lat="45.23086" lon="6.02931">
        <ele>2090.4499511719</ele>
        <time>2017-03-31T12:28:50Z</time>
      </trkpt>
      <trkpt lat="45.23081" lon="6.02927">
        <ele>2089.4499511719</ele>
        <time>2017-03-31T12:29:10Z</time>
      </trkpt>
      <trkpt lat="45.23077" lon="6.02921">
        <ele>2090.4499511719</ele>
        <time>2017-03-31T12:29:13Z</time>
      </trkpt>
      <trkpt lat="45.23074" lon="6.02916">
        <ele>2090.4499511719</ele>
        <time>2017-03-31T12:29:16Z</time>
      </trkpt>
      <trkpt lat="45.23071" lon="6.0291">
        <ele>2090.4499511719</ele>
        <time>2017-03-31T12:29:25Z</time>
      </trkpt>
      <trkpt lat="45.23069" lon="6.02904">
        <ele>2087.4499511719</ele>
        <time>2017-03-31T12:29:45Z</time>
      </trkpt>
      <trkpt lat="45.23066" lon="6.02899">
        <ele>2090.4499511719</ele>
        <time>2017-03-31T12:29:52Z</time>
      </trkpt>
      <trkpt lat="45.23061" lon="6.02892">
        <ele>2089.4499511719</ele>
        <time>2017-03-31T12:29:55Z</time>
      </trkpt>
      <trkpt lat="45.23058" lon="6.02887">
        <ele>2087.4499511719</ele>
        <time>2017-03-31T12:30:00Z</time>
      </trkpt>
      <trkpt lat="45.23051" lon="6.02888">
        <ele>2091.4499511719</ele>
        <time>2017-03-31T12:30:11Z</time>
      </trkpt>
      <trkpt lat="45.23043" lon="6.02891">
        <ele>2087.4499511719</ele>
        <time>2017-03-31T12:30:13Z</time>
      </trkpt>
      <trkpt lat="45.23031" lon="6.02898">
        <ele>2083.4499511719</ele>
        <time>2017-03-31T12:30:15Z</time>
      </trkpt>
      <trkpt lat="45.23021" lon="6.02907">
        <ele>2081.4499511719</ele>
        <time>2017-03-31T12:30:17Z</time>
      </trkpt>
      <trkpt lat="45.23018" lon="6.02913">
        <ele>2080.4499511719</ele>
        <time>2017-03-31T12:30:19Z</time>
      </trkpt>
      <trkpt lat="45.23014" lon="6.0291">
        <ele>2076.4499511719</ele>
        <time>2017-03-31T12:30:24Z</time>
      </trkpt>
      <trkpt lat="45.23009" lon="6.02906">
        <ele>2075.4499511719</ele>
        <time>2017-03-31T12:30:31Z</time>
      </trkpt>
      <trkpt lat="45.23003" lon="6.02901">
        <ele>2072.4499511719</ele>
        <time>2017-03-31T12:30:33Z</time>
      </trkpt>
      <trkpt lat="45.22996" lon="6.02904">
        <ele>2068.4499511719</ele>
        <time>2017-03-31T12:30:35Z</time>
      </trkpt>
      <trkpt lat="45.22989" lon="6.029">
        <ele>2065.4499511719</ele>
        <time>2017-03-31T12:30:37Z</time>
      </trkpt>
      <trkpt lat="45.22982" lon="6.02905">
        <ele>2059.4499511719</ele>
        <time>2017-03-31T12:30:39Z</time>
      </trkpt>
      <trkpt lat="45.22973" lon="6.02918">
        <ele>2056.4499511719</ele>
        <time>2017-03-31T12:30:41Z</time>
      </trkpt>
      <trkpt lat="45.22969" lon="6.02911">
        <ele>2056.4499511719</ele>
        <time>2017-03-31T12:30:43Z</time>
      </trkpt>
      <trkpt lat="45.22968" lon="6.02918">
        <ele>2056.4499511719</ele>
        <time>2017-03-31T12:30:46Z</time>
      </trkpt>
      <trkpt lat="45.22964" lon="6.0293">
        <ele>2054.4499511719</ele>
        <time>2017-03-31T12:30:48Z</time>
      </trkpt>
      <trkpt lat="45.22956" lon="6.02952">
        <ele>2048.4499511719</ele>
        <time>2017-03-31T12:30:50Z</time>
      </trkpt>
      <trkpt lat="45.22947" lon="6.02971">
        <ele>2044.4499511719</ele>
        <time>2017-03-31T12:30:53Z</time>
      </trkpt>
      <trkpt lat="45.22943" lon="6.02976">
        <ele>2042.4499511719</ele>
        <time>2017-03-31T12:30:55Z</time>
      </trkpt>
      <trkpt lat="45.22937" lon="6.0298">
        <ele>2041.4499511719</ele>
        <time>2017-03-31T12:30:57Z</time>
      </trkpt>
      <trkpt lat="45.22931" lon="6.02983">
        <ele>2039.4499511719</ele>
        <time>2017-03-31T12:30:59Z</time>
      </trkpt>
      <trkpt lat="45.22927" lon="6.02986">
        <ele>2040.4499511719</ele>
        <time>2017-03-31T12:31:01Z</time>
      </trkpt>
      <trkpt lat="45.22923" lon="6.0299">
        <ele>2037.4499511719</ele>
        <time>2017-03-31T12:31:04Z</time>
      </trkpt>
      <trkpt lat="45.22919" lon="6.02993">
        <ele>2032.4499511719</ele>
        <time>2017-03-31T12:31:07Z</time>
      </trkpt>
      <trkpt lat="45.22914" lon="6.02993">
        <ele>2032.4499511719</ele>
        <time>2017-03-31T12:31:09Z</time>
      </trkpt>
      <trkpt lat="45.22908" lon="6.02991">
        <ele>2031.4499511719</ele>
        <time>2017-03-31T12:31:11Z</time>
      </trkpt>
      <trkpt lat="45.22902" lon="6.02988">
        <ele>2030.4499511719</ele>
        <time>2017-03-31T12:31:13Z</time>
      </trkpt>
      <trkpt lat="45.22894" lon="6.02984">
        <ele>2030.4499511719</ele>
        <time>2017-03-31T12:31:16Z</time>
      </trkpt>
      <trkpt lat="45.22888" lon="6.02983">
        <ele>2029.4499511719</ele>
        <time>2017-03-31T12:31:18Z</time>
      </trkpt>
      <trkpt lat="45.22883" lon="6.02983">
        <ele>2029.4499511719</ele>
        <time>2017-03-31T12:31:20Z</time>
      </trkpt>
      <trkpt lat="45.22876" lon="6.02982">
        <ele>2027.4499511719</ele>
        <time>2017-03-31T12:31:22Z</time>
      </trkpt>
      <trkpt lat="45.22871" lon="6.02984">
        <ele>2027.4499511719</ele>
        <time>2017-03-31T12:31:24Z</time>
      </trkpt>
      <trkpt lat="45.22865" lon="6.02983">
        <ele>2025.4499511719</ele>
        <time>2017-03-31T12:31:26Z</time>
      </trkpt>
      <trkpt lat="45.22859" lon="6.02983">
        <ele>2024.4499511719</ele>
        <time>2017-03-31T12:31:28Z</time>
      </trkpt>
      <trkpt lat="45.22852" lon="6.02982">
        <ele>2023.4499511719</ele>
        <time>2017-03-31T12:31:30Z</time>
      </trkpt>
      <trkpt lat="45.22846" lon="6.02982">
        <ele>2021.4499511719</ele>
        <time>2017-03-31T12:31:32Z</time>
      </trkpt>
      <trkpt lat="45.2284" lon="6.02983">
        <ele>2021.4499511719</ele>
        <time>2017-03-31T12:31:34Z</time>
      </trkpt>
      <trkpt lat="45.22834" lon="6.02983">
        <ele>2020.4499511719</ele>
        <time>2017-03-31T12:31:37Z</time>
      </trkpt>
      <trkpt lat="45.22828" lon="6.02985">
        <ele>2020.4499511719</ele>
        <time>2017-03-31T12:31:40Z</time>
      </trkpt>
      <trkpt lat="45.22824" lon="6.0299">
        <ele>2020.4499511719</ele>
        <time>2017-03-31T12:31:45Z</time>
      </trkpt>
      <trkpt lat="45.22819" lon="6.02992">
        <ele>2025.4499511719</ele>
        <time>2017-03-31T12:32:35Z</time>
      </trkpt>
      <trkpt lat="45.22815" lon="6.02995">
        <ele>2028.4499511719</ele>
        <time>2017-03-31T12:32:46Z</time>
      </trkpt>
      <trkpt lat="45.22813" lon="6.03001">
        <ele>2029.4499511719</ele>
        <time>2017-03-31T12:32:56Z</time>
      </trkpt>
      <trkpt lat="45.2281" lon="6.03006">
        <ele>2028.4499511719</ele>
        <time>2017-03-31T12:35:17Z</time>
      </trkpt>
      <trkpt lat="45.22804" lon="6.03006">
        <ele>2026.4499511719</ele>
        <time>2017-03-31T12:35:20Z</time>
      </trkpt>
      <trkpt lat="45.22792" lon="6.03005">
        <ele>2024.4499511719</ele>
        <time>2017-03-31T12:35:22Z</time>
      </trkpt>
      <trkpt lat="45.22778" lon="6.03004">
        <ele>2019.4499511719</ele>
        <time>2017-03-31T12:35:24Z</time>
      </trkpt>
      <trkpt lat="45.22763" lon="6.03002">
        <ele>2019.4499511719</ele>
        <time>2017-03-31T12:35:26Z</time>
      </trkpt>
      <trkpt lat="45.22752" lon="6.03002">
        <ele>2017.4499511719</ele>
        <time>2017-03-31T12:35:29Z</time>
      </trkpt>
      <trkpt lat="45.22747" lon="6.03001">
        <ele>2015.4499511719</ele>
        <time>2017-03-31T12:35:34Z</time>
      </trkpt>
      <trkpt lat="45.22742" lon="6.03004">
        <ele>2014.4499511719</ele>
        <time>2017-03-31T12:36:13Z</time>
      </trkpt>
      <trkpt lat="45.22737" lon="6.03004">
        <ele>2010.4499511719</ele>
        <time>2017-03-31T12:36:26Z</time>
      </trkpt>
      <trkpt lat="45.22732" lon="6.03005">
        <ele>2010.4499511719</ele>
        <time>2017-03-31T12:37:07Z</time>
      </trkpt>
      <trkpt lat="45.22726" lon="6.03009">
        <ele>2012.4499511719</ele>
        <time>2017-03-31T12:38:39Z</time>
      </trkpt>
      <trkpt lat="45.22722" lon="6.03007">
        <ele>2016.4499511719</ele>
        <time>2017-03-31T12:38:44Z</time>
      </trkpt>
      <trkpt lat="45.22718" lon="6.03007">
        <ele>2018.4499511719</ele>
        <time>2017-03-31T12:38:48Z</time>
      </trkpt>
      <trkpt lat="45.22714" lon="6.03011">
        <ele>2010.4499511719</ele>
        <time>2017-03-31T12:39:11Z</time>
      </trkpt>
      <trkpt lat="45.22709" lon="6.03009">
        <ele>2011.4499511719</ele>
        <time>2017-03-31T12:39:31Z</time>
      </trkpt>
      <trkpt lat="45.22705" lon="6.03007">
        <ele>2009.4499511719</ele>
        <time>2017-03-31T12:39:41Z</time>
      </trkpt>
      <trkpt lat="45.22699" lon="6.03003">
        <ele>2009.4499511719</ele>
        <time>2017-03-31T12:40:27Z</time>
      </trkpt>
      <trkpt lat="45.22694" lon="6.03001">
        <ele>2008.4499511719</ele>
        <time>2017-03-31T12:40:29Z</time>
      </trkpt>
      <trkpt lat="45.22688" lon="6.03001">
        <ele>2009.4499511719</ele>
        <time>2017-03-31T12:40:32Z</time>
      </trkpt>
      <trkpt lat="45.22683" lon="6.03002">
        <ele>2009.4499511719</ele>
        <time>2017-03-31T12:40:35Z</time>
      </trkpt>
      <trkpt lat="45.22676" lon="6.03002">
        <ele>2007.4499511719</ele>
        <time>2017-03-31T12:40:39Z</time>
      </trkpt>
      <trkpt lat="45.22672" lon="6.03004">
        <ele>2007.4499511719</ele>
        <time>2017-03-31T12:40:41Z</time>
      </trkpt>
      <trkpt lat="45.22669" lon="6.03011">
        <ele>2007.4499511719</ele>
        <time>2017-03-31T12:40:45Z</time>
      </trkpt>
      <trkpt lat="45.22665" lon="6.03016">
        <ele>2005.4499511719</ele>
        <time>2017-03-31T12:40:48Z</time>
      </trkpt>
      <trkpt lat="45.22661" lon="6.03017">
        <ele>2004.4499511719</ele>
        <time>2017-03-31T12:40:54Z</time>
      </trkpt>
      <trkpt lat="45.22655" lon="6.0302">
        <ele>2004.4489746094</ele>
        <time>2017-03-31T12:40:57Z</time>
      </trkpt>
      <trkpt lat="45.2265" lon="6.03022">
        <ele>2004.4489746094</ele>
        <time>2017-03-31T12:40:59Z</time>
      </trkpt>
      <trkpt lat="45.22643" lon="6.03023">
        <ele>2003.4489746094</ele>
        <time>2017-03-31T12:41:01Z</time>
      </trkpt>
      <trkpt lat="45.22632" lon="6.0302">
        <ele>2001.4489746094</ele>
        <time>2017-03-31T12:41:03Z</time>
      </trkpt>
      <trkpt lat="45.22626" lon="6.03018">
        <ele>2000.4489746094</ele>
        <time>2017-03-31T12:41:04Z</time>
      </trkpt>
      <trkpt lat="45.22614" lon="6.03007">
        <ele>1996.4489746094</ele>
        <time>2017-03-31T12:41:06Z</time>
      </trkpt>
      <trkpt lat="45.22603" lon="6.03008">
        <ele>1991.4489746094</ele>
        <time>2017-03-31T12:41:08Z</time>
      </trkpt>
      <trkpt lat="45.22594" lon="6.03003">
        <ele>1993.4489746094</ele>
        <time>2017-03-31T12:41:10Z</time>
      </trkpt>
      <trkpt lat="45.22582" lon="6.03008">
        <ele>1991.4489746094</ele>
        <time>2017-03-31T12:41:12Z</time>
      </trkpt>
      <trkpt lat="45.22575" lon="6.03004">
        <ele>1989.4489746094</ele>
        <time>2017-03-31T12:41:14Z</time>
      </trkpt>
      <trkpt lat="45.22574" lon="6.02997">
        <ele>1987.4489746094</ele>
        <time>2017-03-31T12:41:15Z</time>
      </trkpt>
      <trkpt lat="45.22564" lon="6.02983">
        <ele>1985.4489746094</ele>
        <time>2017-03-31T12:41:17Z</time>
      </trkpt>
      <trkpt lat="45.22549" lon="6.02977">
        <ele>1983.4489746094</ele>
        <time>2017-03-31T12:41:19Z</time>
      </trkpt>
      <trkpt lat="45.22533" lon="6.02969">
        <ele>1983.4489746094</ele>
        <time>2017-03-31T12:41:21Z</time>
      </trkpt>
      <trkpt lat="45.22524" lon="6.02953">
        <ele>1985.4489746094</ele>
        <time>2017-03-31T12:41:23Z</time>
      </trkpt>
      <trkpt lat="45.2252" lon="6.02933">
        <ele>1983.4489746094</ele>
        <time>2017-03-31T12:41:25Z</time>
      </trkpt>
      <trkpt lat="45.22517" lon="6.02915">
        <ele>1981.4489746094</ele>
        <time>2017-03-31T12:41:27Z</time>
      </trkpt>
      <trkpt lat="45.22517" lon="6.02896">
        <ele>1979.4489746094</ele>
        <time>2017-03-31T12:41:29Z</time>
      </trkpt>
      <trkpt lat="45.22516" lon="6.02886">
        <ele>1978.4489746094</ele>
        <time>2017-03-31T12:41:31Z</time>
      </trkpt>
      <trkpt lat="45.22511" lon="6.02884">
        <ele>1977.4489746094</ele>
        <time>2017-03-31T12:41:36Z</time>
      </trkpt>
      <trkpt lat="45.22508" lon="6.02888">
        <ele>1976.4489746094</ele>
        <time>2017-03-31T12:41:57Z</time>
      </trkpt>
      <trkpt lat="45.22504" lon="6.02892">
        <ele>1973.4489746094</ele>
        <time>2017-03-31T12:42:29Z</time>
      </trkpt>
      <trkpt lat="45.22499" lon="6.02895">
        <ele>1970.4489746094</ele>
        <time>2017-03-31T12:42:47Z</time>
      </trkpt>
      <trkpt lat="45.22495" lon="6.02892">
        <ele>1972.4489746094</ele>
        <time>2017-03-31T12:42:53Z</time>
      </trkpt>
      <trkpt lat="45.22489" lon="6.02894">
        <ele>1973.4489746094</ele>
        <time>2017-03-31T12:43:13Z</time>
      </trkpt>
      <trkpt lat="45.22483" lon="6.02894">
        <ele>1972.4489746094</ele>
        <time>2017-03-31T12:43:16Z</time>
      </trkpt>
      <trkpt lat="45.22476" lon="6.02893">
        <ele>1971.4489746094</ele>
        <time>2017-03-31T12:43:19Z</time>
      </trkpt>
      <trkpt lat="45.22471" lon="6.02895">
        <ele>1972.4489746094</ele>
        <time>2017-03-31T12:43:25Z</time>
      </trkpt>
      <trkpt lat="45.22469" lon="6.02889">
        <ele>1972.4489746094</ele>
        <time>2017-03-31T12:43:48Z</time>
      </trkpt>
      <trkpt lat="45.22458" lon="6.02876">
        <ele>1967.4489746094</ele>
        <time>2017-03-31T12:43:50Z</time>
      </trkpt>
      <trkpt lat="45.22446" lon="6.02866">
        <ele>1966.4489746094</ele>
        <time>2017-03-31T12:43:52Z</time>
      </trkpt>
      <trkpt lat="45.22447" lon="6.02848">
        <ele>1962.4489746094</ele>
        <time>2017-03-31T12:43:54Z</time>
      </trkpt>
      <trkpt lat="45.22442" lon="6.0284">
        <ele>1959.4489746094</ele>
        <time>2017-03-31T12:43:55Z</time>
      </trkpt>
      <trkpt lat="45.22442" lon="6.02827">
        <ele>1957.4489746094</ele>
        <time>2017-03-31T12:43:57Z</time>
      </trkpt>
      <trkpt lat="45.22441" lon="6.02819">
        <ele>1957.4489746094</ele>
        <time>2017-03-31T12:43:59Z</time>
      </trkpt>
      <trkpt lat="45.22438" lon="6.02814">
        <ele>1955.4489746094</ele>
        <time>2017-03-31T12:44:01Z</time>
      </trkpt>
      <trkpt lat="45.22434" lon="6.0281">
        <ele>1954.4489746094</ele>
        <time>2017-03-31T12:44:04Z</time>
      </trkpt>
      <trkpt lat="45.22429" lon="6.02805">
        <ele>1950.4489746094</ele>
        <time>2017-03-31T12:44:16Z</time>
      </trkpt>
      <trkpt lat="45.22423" lon="6.02801">
        <ele>1949.4489746094</ele>
        <time>2017-03-31T12:44:18Z</time>
      </trkpt>
      <trkpt lat="45.22416" lon="6.02801">
        <ele>1945.4489746094</ele>
        <time>2017-03-31T12:44:20Z</time>
      </trkpt>
      <trkpt lat="45.2241" lon="6.02794">
        <ele>1945.4489746094</ele>
        <time>2017-03-31T12:44:22Z</time>
      </trkpt>
      <trkpt lat="45.2241" lon="6.02786">
        <ele>1938.4489746094</ele>
        <time>2017-03-31T12:44:24Z</time>
      </trkpt>
      <trkpt lat="45.22414" lon="6.02777">
        <ele>1935.4489746094</ele>
        <time>2017-03-31T12:44:26Z</time>
      </trkpt>
      <trkpt lat="45.22408" lon="6.02769">
        <ele>1927.4489746094</ele>
        <time>2017-03-31T12:44:37Z</time>
      </trkpt>
      <trkpt lat="45.22409" lon="6.0276">
        <ele>1923.4489746094</ele>
        <time>2017-03-31T12:44:40Z</time>
      </trkpt>
      <trkpt lat="45.22412" lon="6.02756">
        <ele>1922.4489746094</ele>
        <time>2017-03-31T12:44:42Z</time>
      </trkpt>
      <trkpt lat="45.22415" lon="6.02751">
        <ele>1918.4489746094</ele>
        <time>2017-03-31T12:44:44Z</time>
      </trkpt>
      <trkpt lat="45.22408" lon="6.02747">
        <ele>1916.4489746094</ele>
        <time>2017-03-31T12:44:46Z</time>
      </trkpt>
      <trkpt lat="45.22408" lon="6.0274">
        <ele>1914.4489746094</ele>
        <time>2017-03-31T12:44:49Z</time>
      </trkpt>
      <trkpt lat="45.22407" lon="6.02729">
        <ele>1910.4489746094</ele>
        <time>2017-03-31T12:44:52Z</time>
      </trkpt>
      <trkpt lat="45.22405" lon="6.02721">
        <ele>1907.4489746094</ele>
        <time>2017-03-31T12:44:55Z</time>
      </trkpt>
      <trkpt lat="45.224" lon="6.02716">
        <ele>1904.4489746094</ele>
        <time>2017-03-31T12:44:57Z</time>
      </trkpt>
      <trkpt lat="45.22399" lon="6.02705">
        <ele>1901.4489746094</ele>
        <time>2017-03-31T12:44:59Z</time>
      </trkpt>
      <trkpt lat="45.22394" lon="6.027">
        <ele>1899.4489746094</ele>
        <time>2017-03-31T12:45:01Z</time>
      </trkpt>
      <trkpt lat="45.22397" lon="6.02686">
        <ele>1895.4489746094</ele>
        <time>2017-03-31T12:45:03Z</time>
      </trkpt>
      <trkpt lat="45.22392" lon="6.02678">
        <ele>1893.4489746094</ele>
        <time>2017-03-31T12:45:05Z</time>
      </trkpt>
      <trkpt lat="45.22378" lon="6.02676">
        <ele>1889.4479980469</ele>
        <time>2017-03-31T12:45:07Z</time>
      </trkpt>
      <trkpt lat="45.22364" lon="6.02672">
        <ele>1884.4479980469</ele>
        <time>2017-03-31T12:45:10Z</time>
      </trkpt>
      <trkpt lat="45.2235" lon="6.02665">
        <ele>1880.4479980469</ele>
        <time>2017-03-31T12:45:13Z</time>
      </trkpt>
      <trkpt lat="45.22343" lon="6.02662">
        <ele>1877.4479980469</ele>
        <time>2017-03-31T12:45:14Z</time>
      </trkpt>
      <trkpt lat="45.22329" lon="6.02661">
        <ele>1874.4479980469</ele>
        <time>2017-03-31T12:45:16Z</time>
      </trkpt>
      <trkpt lat="45.22316" lon="6.02657">
        <ele>1872.4479980469</ele>
        <time>2017-03-31T12:45:18Z</time>
      </trkpt>
      <trkpt lat="45.2231" lon="6.02655">
        <ele>1871.4479980469</ele>
        <time>2017-03-31T12:45:20Z</time>
      </trkpt>
      <trkpt lat="45.22305" lon="6.0265">
        <ele>1868.4479980469</ele>
        <time>2017-03-31T12:45:31Z</time>
      </trkpt>
      <trkpt lat="45.22299" lon="6.02645">
        <ele>1864.4479980469</ele>
        <time>2017-03-31T12:45:33Z</time>
      </trkpt>
      <trkpt lat="45.2229" lon="6.02639">
        <ele>1863.4479980469</ele>
        <time>2017-03-31T12:45:35Z</time>
      </trkpt>
      <trkpt lat="45.22284" lon="6.02635">
        <ele>1859.4479980469</ele>
        <time>2017-03-31T12:45:37Z</time>
      </trkpt>
      <trkpt lat="45.22278" lon="6.02626">
        <ele>1855.4479980469</ele>
        <time>2017-03-31T12:45:39Z</time>
      </trkpt>
      <trkpt lat="45.22273" lon="6.02622">
        <ele>1853.4479980469</ele>
        <time>2017-03-31T12:45:40Z</time>
      </trkpt>
      <trkpt lat="45.22265" lon="6.02616">
        <ele>1850.4479980469</ele>
        <time>2017-03-31T12:45:42Z</time>
      </trkpt>
      <trkpt lat="45.22259" lon="6.02611">
        <ele>1848.4479980469</ele>
        <time>2017-03-31T12:45:44Z</time>
      </trkpt>
      <trkpt lat="45.2226" lon="6.02604">
        <ele>1847.4479980469</ele>
        <time>2017-03-31T12:45:46Z</time>
      </trkpt>
      <trkpt lat="45.22251" lon="6.02598">
        <ele>1846.4479980469</ele>
        <time>2017-03-31T12:45:48Z</time>
      </trkpt>
      <trkpt lat="45.22244" lon="6.02593">
        <ele>1843.4479980469</ele>
        <time>2017-03-31T12:45:50Z</time>
      </trkpt>
      <trkpt lat="45.22238" lon="6.02594">
        <ele>1836.4479980469</ele>
        <time>2017-03-31T12:45:53Z</time>
      </trkpt>
      <trkpt lat="45.22232" lon="6.02595">
        <ele>1836.4479980469</ele>
        <time>2017-03-31T12:45:56Z</time>
      </trkpt>
      <trkpt lat="45.22227" lon="6.02595">
        <ele>1836.4479980469</ele>
        <time>2017-03-31T12:45:59Z</time>
      </trkpt>
      <trkpt lat="45.22221" lon="6.02595">
        <ele>1835.4479980469</ele>
        <time>2017-03-31T12:46:02Z</time>
      </trkpt>
      <trkpt lat="45.22216" lon="6.02594">
        <ele>1833.4479980469</ele>
        <time>2017-03-31T12:46:05Z</time>
      </trkpt>
      <trkpt lat="45.22212" lon="6.02591">
        <ele>1831.4479980469</ele>
        <time>2017-03-31T12:46:09Z</time>
      </trkpt>
      <trkpt lat="45.22204" lon="6.02586">
        <ele>1827.4479980469</ele>
        <time>2017-03-31T12:46:11Z</time>
      </trkpt>
      <trkpt lat="45.22201" lon="6.02572">
        <ele>1819.4479980469</ele>
        <time>2017-03-31T12:46:13Z</time>
      </trkpt>
      <trkpt lat="45.22194" lon="6.02565">
        <ele>1815.4479980469</ele>
        <time>2017-03-31T12:46:15Z</time>
      </trkpt>
      <trkpt lat="45.22188" lon="6.02555">
        <ele>1810.4479980469</ele>
        <time>2017-03-31T12:46:17Z</time>
      </trkpt>
      <trkpt lat="45.22188" lon="6.02543">
        <ele>1807.4479980469</ele>
        <time>2017-03-31T12:46:19Z</time>
      </trkpt>
      <trkpt lat="45.22185" lon="6.02537">
        <ele>1805.4479980469</ele>
        <time>2017-03-31T12:46:20Z</time>
      </trkpt>
      <trkpt lat="45.22191" lon="6.0253">
        <ele>1799.4479980469</ele>
        <time>2017-03-31T12:46:22Z</time>
      </trkpt>
      <trkpt lat="45.22197" lon="6.02527">
        <ele>1799.4479980469</ele>
        <time>2017-03-31T12:46:23Z</time>
      </trkpt>
      <trkpt lat="45.22196" lon="6.02518">
        <ele>1795.4479980469</ele>
        <time>2017-03-31T12:46:25Z</time>
      </trkpt>
      <trkpt lat="45.2219" lon="6.02516">
        <ele>1795.4479980469</ele>
        <time>2017-03-31T12:46:27Z</time>
      </trkpt>
      <trkpt lat="45.22185" lon="6.02509">
        <ele>1792.4479980469</ele>
        <time>2017-03-31T12:46:29Z</time>
      </trkpt>
      <trkpt lat="45.22185" lon="6.02499">
        <ele>1789.4479980469</ele>
        <time>2017-03-31T12:46:31Z</time>
      </trkpt>
      <trkpt lat="45.22196" lon="6.02492">
        <ele>1785.4479980469</ele>
        <time>2017-03-31T12:46:33Z</time>
      </trkpt>
      <trkpt lat="45.22195" lon="6.02479">
        <ele>1781.4479980469</ele>
        <time>2017-03-31T12:46:36Z</time>
      </trkpt>
      <trkpt lat="45.2219" lon="6.02471">
        <ele>1780.4479980469</ele>
        <time>2017-03-31T12:46:38Z</time>
      </trkpt>
      <trkpt lat="45.22187" lon="6.02467">
        <ele>1779.4479980469</ele>
        <time>2017-03-31T12:46:39Z</time>
      </trkpt>
      <trkpt lat="45.22182" lon="6.02461">
        <ele>1781.4479980469</ele>
        <time>2017-03-31T12:46:42Z</time>
      </trkpt>
      <trkpt lat="45.2218" lon="6.02455">
        <ele>1778.4479980469</ele>
        <time>2017-03-31T12:46:46Z</time>
      </trkpt>
      <trkpt lat="45.22176" lon="6.0245">
        <ele>1779.4479980469</ele>
        <time>2017-03-31T12:46:48Z</time>
      </trkpt>
      <trkpt lat="45.22171" lon="6.02444">
        <ele>1776.4479980469</ele>
        <time>2017-03-31T12:46:51Z</time>
      </trkpt>
      <trkpt lat="45.22168" lon="6.02438">
        <ele>1774.4479980469</ele>
        <time>2017-03-31T12:46:53Z</time>
      </trkpt>
      <trkpt lat="45.22165" lon="6.02431">
        <ele>1773.4479980469</ele>
        <time>2017-03-31T12:46:55Z</time>
      </trkpt>
      <trkpt lat="45.22162" lon="6.02426">
        <ele>1773.4479980469</ele>
        <time>2017-03-31T12:46:57Z</time>
      </trkpt>
      <trkpt lat="45.2216" lon="6.0242">
        <ele>1770.4479980469</ele>
        <time>2017-03-31T12:47:05Z</time>
      </trkpt>
      <trkpt lat="45.22157" lon="6.02413">
        <ele>1768.4479980469</ele>
        <time>2017-03-31T12:47:08Z</time>
      </trkpt>
      <trkpt lat="45.22155" lon="6.02407">
        <ele>1767.4479980469</ele>
        <time>2017-03-31T12:47:10Z</time>
      </trkpt>
      <trkpt lat="45.22152" lon="6.02395">
        <ele>1766.4479980469</ele>
        <time>2017-03-31T12:47:12Z</time>
      </trkpt>
      <trkpt lat="45.22149" lon="6.02379">
        <ele>1765.4479980469</ele>
        <time>2017-03-31T12:47:14Z</time>
      </trkpt>
      <trkpt lat="45.22148" lon="6.02364">
        <ele>1763.4479980469</ele>
        <time>2017-03-31T12:47:16Z</time>
      </trkpt>
      <trkpt lat="45.22149" lon="6.02348">
        <ele>1762.4479980469</ele>
        <time>2017-03-31T12:47:18Z</time>
      </trkpt>
      <trkpt lat="45.22154" lon="6.02333">
        <ele>1761.4479980469</ele>
        <time>2017-03-31T12:47:21Z</time>
      </trkpt>
      <trkpt lat="45.22155" lon="6.02327">
        <ele>1761.4479980469</ele>
        <time>2017-03-31T12:47:23Z</time>
      </trkpt>
      <trkpt lat="45.2216" lon="6.02321">
        <ele>1758.4479980469</ele>
        <time>2017-03-31T12:47:25Z</time>
      </trkpt>
      <trkpt lat="45.22164" lon="6.02313">
        <ele>1755.4479980469</ele>
        <time>2017-03-31T12:47:28Z</time>
      </trkpt>
      <trkpt lat="45.22171" lon="6.02306">
        <ele>1752.4479980469</ele>
        <time>2017-03-31T12:47:30Z</time>
      </trkpt>
      <trkpt lat="45.22179" lon="6.02298">
        <ele>1751.4479980469</ele>
        <time>2017-03-31T12:47:32Z</time>
      </trkpt>
      <trkpt lat="45.22182" lon="6.02293">
        <ele>1749.4479980469</ele>
        <time>2017-03-31T12:47:34Z</time>
      </trkpt>
      <trkpt lat="45.22186" lon="6.02286">
        <ele>1748.4479980469</ele>
        <time>2017-03-31T12:47:42Z</time>
      </trkpt>
      <trkpt lat="45.22181" lon="6.02281">
        <ele>1744.4479980469</ele>
        <time>2017-03-31T12:47:51Z</time>
      </trkpt>
      <trkpt lat="45.22179" lon="6.02272">
        <ele>1744.4479980469</ele>
        <time>2017-03-31T12:47:54Z</time>
      </trkpt>
      <trkpt lat="45.22185" lon="6.0227">
        <ele>1743.4479980469</ele>
        <time>2017-03-31T12:48:04Z</time>
      </trkpt>
      <trkpt lat="45.22189" lon="6.02264">
        <ele>1741.4479980469</ele>
        <time>2017-03-31T12:48:06Z</time>
      </trkpt>
      <trkpt lat="45.22196" lon="6.0226">
        <ele>1740.4479980469</ele>
        <time>2017-03-31T12:48:08Z</time>
      </trkpt>
      <trkpt lat="45.22203" lon="6.0226">
        <ele>1738.4479980469</ele>
        <time>2017-03-31T12:48:10Z</time>
      </trkpt>
      <trkpt lat="45.22208" lon="6.02254">
        <ele>1736.4479980469</ele>
        <time>2017-03-31T12:48:12Z</time>
      </trkpt>
      <trkpt lat="45.22209" lon="6.02246">
        <ele>1735.4479980469</ele>
        <time>2017-03-31T12:48:14Z</time>
      </trkpt>
      <trkpt lat="45.22212" lon="6.02237">
        <ele>1732.4479980469</ele>
        <time>2017-03-31T12:48:16Z</time>
      </trkpt>
      <trkpt lat="45.22214" lon="6.02229">
        <ele>1732.4479980469</ele>
        <time>2017-03-31T12:48:18Z</time>
      </trkpt>
      <trkpt lat="45.22216" lon="6.02221">
        <ele>1735.4479980469</ele>
        <time>2017-03-31T12:48:22Z</time>
      </trkpt>
      <trkpt lat="45.22217" lon="6.02215">
        <ele>1739.4479980469</ele>
        <time>2017-03-31T12:48:34Z</time>
      </trkpt>
      <trkpt lat="45.22216" lon="6.02208">
        <ele>1738.4479980469</ele>
        <time>2017-03-31T12:49:13Z</time>
      </trkpt>
      <trkpt lat="45.22217" lon="6.02201">
        <ele>1738.4470214844</ele>
        <time>2017-03-31T12:49:19Z</time>
      </trkpt>
      <trkpt lat="45.2222" lon="6.02196">
        <ele>1741.4470214844</ele>
        <time>2017-03-31T12:49:25Z</time>
      </trkpt>
      <trkpt lat="45.22224" lon="6.02195">
        <ele>1726.4479980469</ele>
        <time>2017-03-31T12:50:29Z</time>
      </trkpt>
      <trkpt lat="45.22227" lon="6.0219">
        <ele>1726.4470214844</ele>
        <time>2017-03-31T12:50:54Z</time>
      </trkpt>
      <trkpt lat="45.2223" lon="6.02184">
        <ele>1734.4470214844</ele>
        <time>2017-03-31T12:51:17Z</time>
      </trkpt>
      <trkpt lat="45.22232" lon="6.02178">
        <ele>1727.4470214844</ele>
        <time>2017-03-31T12:51:32Z</time>
      </trkpt>
      <trkpt lat="45.22236" lon="6.02175">
        <ele>1727.4470214844</ele>
        <time>2017-03-31T12:52:13Z</time>
      </trkpt>
      <trkpt lat="45.22239" lon="6.02169">
        <ele>1726.4470214844</ele>
        <time>2017-03-31T12:52:16Z</time>
      </trkpt>
      <trkpt lat="45.22243" lon="6.02164">
        <ele>1725.4470214844</ele>
        <time>2017-03-31T12:52:18Z</time>
      </trkpt>
      <trkpt lat="45.22247" lon="6.02153">
        <ele>1724.4470214844</ele>
        <time>2017-03-31T12:52:20Z</time>
      </trkpt>
      <trkpt lat="45.2225" lon="6.02136">
        <ele>1721.4470214844</ele>
        <time>2017-03-31T12:52:22Z</time>
      </trkpt>
      <trkpt lat="45.2225" lon="6.02121">
        <ele>1721.4470214844</ele>
        <time>2017-03-31T12:52:24Z</time>
      </trkpt>
      <trkpt lat="45.22253" lon="6.02105">
        <ele>1721.4470214844</ele>
        <time>2017-03-31T12:52:27Z</time>
      </trkpt>
      <trkpt lat="45.22253" lon="6.02094">
        <ele>1720.4470214844</ele>
        <time>2017-03-31T12:52:29Z</time>
      </trkpt>
      <trkpt lat="45.22252" lon="6.02082">
        <ele>1719.4470214844</ele>
        <time>2017-03-31T12:52:31Z</time>
      </trkpt>
      <trkpt lat="45.2225" lon="6.02062">
        <ele>1715.4470214844</ele>
        <time>2017-03-31T12:52:34Z</time>
      </trkpt>
      <trkpt lat="45.22248" lon="6.02048">
        <ele>1713.4470214844</ele>
        <time>2017-03-31T12:52:36Z</time>
      </trkpt>
      <trkpt lat="45.22249" lon="6.0203">
        <ele>1710.4470214844</ele>
        <time>2017-03-31T12:52:38Z</time>
      </trkpt>
      <trkpt lat="45.22249" lon="6.02021">
        <ele>1709.4470214844</ele>
        <time>2017-03-31T12:52:39Z</time>
      </trkpt>
      <trkpt lat="45.2225" lon="6.02005">
        <ele>1708.4470214844</ele>
        <time>2017-03-31T12:52:41Z</time>
      </trkpt>
      <trkpt lat="45.22249" lon="6.01995">
        <ele>1704.4470214844</ele>
        <time>2017-03-31T12:52:42Z</time>
      </trkpt>
      <trkpt lat="45.22252" lon="6.01972">
        <ele>1705.4470214844</ele>
        <time>2017-03-31T12:52:44Z</time>
      </trkpt>
      <trkpt lat="45.22253" lon="6.01958">
        <ele>1701.4470214844</ele>
        <time>2017-03-31T12:52:47Z</time>
      </trkpt>
      <trkpt lat="45.22254" lon="6.01952">
        <ele>1702.4470214844</ele>
        <time>2017-03-31T12:52:49Z</time>
      </trkpt>
      <trkpt lat="45.22256" lon="6.01943">
        <ele>1701.4470214844</ele>
        <time>2017-03-31T12:52:52Z</time>
      </trkpt>
      <trkpt lat="45.22258" lon="6.01933">
        <ele>1699.4470214844</ele>
        <time>2017-03-31T12:52:55Z</time>
      </trkpt>
      <trkpt lat="45.22254" lon="6.01916">
        <ele>1694.4470214844</ele>
        <time>2017-03-31T12:52:58Z</time>
      </trkpt>
      <trkpt lat="45.22253" lon="6.01903">
        <ele>1693.4470214844</ele>
        <time>2017-03-31T12:53:00Z</time>
      </trkpt>
      <trkpt lat="45.22252" lon="6.01896">
        <ele>1693.4470214844</ele>
        <time>2017-03-31T12:53:01Z</time>
      </trkpt>
      <trkpt lat="45.22249" lon="6.01879">
        <ele>1689.4470214844</ele>
        <time>2017-03-31T12:53:04Z</time>
      </trkpt>
      <trkpt lat="45.22246" lon="6.01871">
        <ele>1689.4470214844</ele>
        <time>2017-03-31T12:53:06Z</time>
      </trkpt>
      <trkpt lat="45.22245" lon="6.01863">
        <ele>1688.4470214844</ele>
        <time>2017-03-31T12:53:08Z</time>
      </trkpt>
      <trkpt lat="45.22247" lon="6.01854">
        <ele>1691.4470214844</ele>
        <time>2017-03-31T12:53:10Z</time>
      </trkpt>
      <trkpt lat="45.22248" lon="6.01843">
        <ele>1691.4470214844</ele>
        <time>2017-03-31T12:53:12Z</time>
      </trkpt>
      <trkpt lat="45.22252" lon="6.01839">
        <ele>1690.4470214844</ele>
        <time>2017-03-31T12:53:13Z</time>
      </trkpt>
      <trkpt lat="45.22258" lon="6.01826">
        <ele>1690.4470214844</ele>
        <time>2017-03-31T12:53:16Z</time>
      </trkpt>
      <trkpt lat="45.22263" lon="6.01825">
        <ele>1688.4470214844</ele>
        <time>2017-03-31T12:53:21Z</time>
      </trkpt>
      <trkpt lat="45.22262" lon="6.01818">
        <ele>1687.4470214844</ele>
        <time>2017-03-31T12:53:23Z</time>
      </trkpt>
      <trkpt lat="45.22262" lon="6.01811">
        <ele>1686.4470214844</ele>
        <time>2017-03-31T12:53:25Z</time>
      </trkpt>
      <trkpt lat="45.22259" lon="6.01804">
        <ele>1684.4470214844</ele>
        <time>2017-03-31T12:53:27Z</time>
      </trkpt>
      <trkpt lat="45.22257" lon="6.01797">
        <ele>1683.4470214844</ele>
        <time>2017-03-31T12:53:29Z</time>
      </trkpt>
      <trkpt lat="45.22253" lon="6.0179">
        <ele>1684.4470214844</ele>
        <time>2017-03-31T12:53:32Z</time>
      </trkpt>
      <trkpt lat="45.2225" lon="6.01786">
        <ele>1682.4470214844</ele>
        <time>2017-03-31T12:53:37Z</time>
      </trkpt>
      <trkpt lat="45.22247" lon="6.0178">
        <ele>1680.4470214844</ele>
        <time>2017-03-31T12:53:40Z</time>
      </trkpt>
      <trkpt lat="45.22249" lon="6.01774">
        <ele>1678.4470214844</ele>
        <time>2017-03-31T12:53:44Z</time>
      </trkpt>
      <trkpt lat="45.22249" lon="6.01765">
        <ele>1675.4470214844</ele>
        <time>2017-03-31T12:53:47Z</time>
      </trkpt>
      <trkpt lat="45.22256" lon="6.01768">
        <ele>1675.4470214844</ele>
        <time>2017-03-31T12:53:49Z</time>
      </trkpt>
      <trkpt lat="45.22262" lon="6.01766">
        <ele>1669.4470214844</ele>
        <time>2017-03-31T12:53:54Z</time>
      </trkpt>
      <trkpt lat="45.22262" lon="6.01759">
        <ele>1669.4470214844</ele>
        <time>2017-03-31T12:53:59Z</time>
      </trkpt>
      <trkpt lat="45.22265" lon="6.01754">
        <ele>1669.4470214844</ele>
        <time>2017-03-31T12:54:22Z</time>
      </trkpt>
      <trkpt lat="45.22264" lon="6.01747">
        <ele>1671.4470214844</ele>
        <time>2017-03-31T12:54:36Z</time>
      </trkpt>
      <trkpt lat="45.22264" lon="6.01739">
        <ele>1671.4470214844</ele>
        <time>2017-03-31T12:54:41Z</time>
      </trkpt>
      <trkpt lat="45.22262" lon="6.01734">
        <ele>1671.4470214844</ele>
        <time>2017-03-31T12:54:45Z</time>
      </trkpt>
      <trkpt lat="45.22262" lon="6.01727">
        <ele>1672.4470214844</ele>
        <time>2017-03-31T12:54:55Z</time>
      </trkpt>
      <trkpt lat="45.22263" lon="6.0172">
        <ele>1667.4470214844</ele>
        <time>2017-03-31T12:55:01Z</time>
      </trkpt>
      <trkpt lat="45.22264" lon="6.01714">
        <ele>1669.4470214844</ele>
        <time>2017-03-31T12:55:04Z</time>
      </trkpt>
      <trkpt lat="45.22266" lon="6.01707">
        <ele>1667.4470214844</ele>
        <time>2017-03-31T12:55:09Z</time>
      </trkpt>
      <trkpt lat="45.22266" lon="6.01699">
        <ele>1665.4470214844</ele>
        <time>2017-03-31T12:55:13Z</time>
      </trkpt>
      <trkpt lat="45.22266" lon="6.01691">
        <ele>1665.4470214844</ele>
        <time>2017-03-31T12:55:16Z</time>
      </trkpt>
      <trkpt lat="45.22267" lon="6.01685">
        <ele>1665.4470214844</ele>
        <time>2017-03-31T12:55:19Z</time>
      </trkpt>
      <trkpt lat="45.22267" lon="6.01678">
        <ele>1665.4470214844</ele>
        <time>2017-03-31T12:55:22Z</time>
      </trkpt>
      <trkpt lat="45.22264" lon="6.0167">
        <ele>1667.4470214844</ele>
        <time>2017-03-31T12:55:25Z</time>
      </trkpt>
      <trkpt lat="45.22264" lon="6.01663">
        <ele>1670.4470214844</ele>
        <time>2017-03-31T12:55:29Z</time>
      </trkpt>
      <trkpt lat="45.22264" lon="6.01656">
        <ele>1671.4470214844</ele>
        <time>2017-03-31T12:55:32Z</time>
      </trkpt>
      <trkpt lat="45.22264" lon="6.01648">
        <ele>1673.4470214844</ele>
        <time>2017-03-31T12:55:36Z</time>
      </trkpt>
      <trkpt lat="45.22261" lon="6.0164">
        <ele>1674.4470214844</ele>
        <time>2017-03-31T12:55:42Z</time>
      </trkpt>
      <trkpt lat="45.22262" lon="6.01633">
        <ele>1673.4470214844</ele>
        <time>2017-03-31T12:55:46Z</time>
      </trkpt>
      <trkpt lat="45.22258" lon="6.01627">
        <ele>1673.4470214844</ele>
        <time>2017-03-31T12:55:50Z</time>
      </trkpt>
      <trkpt lat="45.22258" lon="6.0162">
        <ele>1673.4470214844</ele>
        <time>2017-03-31T12:55:53Z</time>
      </trkpt>
      <trkpt lat="45.22259" lon="6.01613">
        <ele>1673.4470214844</ele>
        <time>2017-03-31T12:55:57Z</time>
      </trkpt>
      <trkpt lat="45.22259" lon="6.01606">
        <ele>1670.4470214844</ele>
        <time>2017-03-31T12:56:01Z</time>
      </trkpt>
      <trkpt lat="45.22256" lon="6.01598">
        <ele>1671.4470214844</ele>
        <time>2017-03-31T12:56:04Z</time>
      </trkpt>
      <trkpt lat="45.22255" lon="6.01592">
        <ele>1672.4470214844</ele>
        <time>2017-03-31T12:56:06Z</time>
      </trkpt>
      <trkpt lat="45.22252" lon="6.01586">
        <ele>1675.4470214844</ele>
        <time>2017-03-31T12:56:10Z</time>
      </trkpt>
      <trkpt lat="45.22251" lon="6.01578">
        <ele>1677.4470214844</ele>
        <time>2017-03-31T12:56:14Z</time>
      </trkpt>
      <trkpt lat="45.22251" lon="6.01571">
        <ele>1677.4470214844</ele>
        <time>2017-03-31T12:56:19Z</time>
      </trkpt>
      <trkpt lat="45.22251" lon="6.01564">
        <ele>1678.4470214844</ele>
        <time>2017-03-31T12:56:24Z</time>
      </trkpt>
      <trkpt lat="45.2225" lon="6.01556">
        <ele>1680.4470214844</ele>
        <time>2017-03-31T12:56:29Z</time>
      </trkpt>
      <trkpt lat="45.22249" lon="6.0155">
        <ele>1680.4470214844</ele>
        <time>2017-03-31T12:56:32Z</time>
      </trkpt>
      <trkpt lat="45.22248" lon="6.01543">
        <ele>1679.4470214844</ele>
        <time>2017-03-31T12:56:35Z</time>
      </trkpt>
      <trkpt lat="45.22246" lon="6.01535">
        <ele>1681.4470214844</ele>
        <time>2017-03-31T12:56:38Z</time>
      </trkpt>
      <trkpt lat="45.22244" lon="6.01529">
        <ele>1682.4470214844</ele>
        <time>2017-03-31T12:56:41Z</time>
      </trkpt>
      <trkpt lat="45.22245" lon="6.0152">
        <ele>1683.4470214844</ele>
        <time>2017-03-31T12:56:44Z</time>
      </trkpt>
      <trkpt lat="45.22247" lon="6.01514">
        <ele>1684.4470214844</ele>
        <time>2017-03-31T12:56:47Z</time>
      </trkpt>
      <trkpt lat="45.22245" lon="6.01508">
        <ele>1685.4470214844</ele>
        <time>2017-03-31T12:56:53Z</time>
      </trkpt>
      <trkpt lat="45.22243" lon="6.015">
        <ele>1680.4470214844</ele>
        <time>2017-03-31T12:57:18Z</time>
      </trkpt>
      <trkpt lat="45.22241" lon="6.01494">
        <ele>1680.4470214844</ele>
        <time>2017-03-31T12:57:26Z</time>
      </trkpt>
      <trkpt lat="45.2224" lon="6.01486">
        <ele>1677.4470214844</ele>
        <time>2017-03-31T12:57:30Z</time>
      </trkpt>
      <trkpt lat="45.22239" lon="6.01479">
        <ele>1676.4470214844</ele>
        <time>2017-03-31T12:57:33Z</time>
      </trkpt>
      <trkpt lat="45.22238" lon="6.0147">
        <ele>1674.4470214844</ele>
        <time>2017-03-31T12:57:36Z</time>
      </trkpt>
      <trkpt lat="45.22237" lon="6.01464">
        <ele>1673.4470214844</ele>
        <time>2017-03-31T12:57:38Z</time>
      </trkpt>
      <trkpt lat="45.22234" lon="6.01456">
        <ele>1672.4460449219</ele>
        <time>2017-03-31T12:57:40Z</time>
      </trkpt>
      <trkpt lat="45.22232" lon="6.01449">
        <ele>1671.4460449219</ele>
        <time>2017-03-31T12:57:42Z</time>
      </trkpt>
      <trkpt lat="45.22229" lon="6.01443">
        <ele>1672.4460449219</ele>
        <time>2017-03-31T12:57:44Z</time>
      </trkpt>
      <trkpt lat="45.22226" lon="6.01437">
        <ele>1672.4460449219</ele>
        <time>2017-03-31T12:57:47Z</time>
      </trkpt>
      <trkpt lat="45.22227" lon="6.01428">
        <ele>1668.4460449219</ele>
        <time>2017-03-31T12:57:52Z</time>
      </trkpt>
      <trkpt lat="45.2223" lon="6.01419">
        <ele>1666.4460449219</ele>
        <time>2017-03-31T12:57:54Z</time>
      </trkpt>
      <trkpt lat="45.22231" lon="6.01412">
        <ele>1665.4460449219</ele>
        <time>2017-03-31T12:57:56Z</time>
      </trkpt>
      <trkpt lat="45.22236" lon="6.014">
        <ele>1666.4460449219</ele>
        <time>2017-03-31T12:57:58Z</time>
      </trkpt>
      <trkpt lat="45.22241" lon="6.01393">
        <ele>1666.4460449219</ele>
        <time>2017-03-31T12:58:00Z</time>
      </trkpt>
      <trkpt lat="45.22246" lon="6.01385">
        <ele>1668.4460449219</ele>
        <time>2017-03-31T12:58:02Z</time>
      </trkpt>
      <trkpt lat="45.22252" lon="6.01382">
        <ele>1668.4460449219</ele>
        <time>2017-03-31T12:58:05Z</time>
      </trkpt>
      <trkpt lat="45.22258" lon="6.01382">
        <ele>1668.4460449219</ele>
        <time>2017-03-31T12:58:07Z</time>
      </trkpt>
      <trkpt lat="45.22262" lon="6.01377">
        <ele>1668.4460449219</ele>
        <time>2017-03-31T12:58:09Z</time>
      </trkpt>
      <trkpt lat="45.22266" lon="6.01372">
        <ele>1666.4460449219</ele>
        <time>2017-03-31T12:58:17Z</time>
      </trkpt>
      <trkpt lat="45.2227" lon="6.01366">
        <ele>1667.4460449219</ele>
        <time>2017-03-31T12:58:27Z</time>
      </trkpt>
      <trkpt lat="45.22271" lon="6.01358">
        <ele>1668.4460449219</ele>
        <time>2017-03-31T12:58:30Z</time>
      </trkpt>
      <trkpt lat="45.22277" lon="6.01355">
        <ele>1668.4460449219</ele>
        <time>2017-03-31T12:58:36Z</time>
      </trkpt>
      <trkpt lat="45.22279" lon="6.0135">
        <ele>1666.4460449219</ele>
        <time>2017-03-31T12:58:40Z</time>
      </trkpt>
      <trkpt lat="45.2228" lon="6.01343">
        <ele>1664.4460449219</ele>
        <time>2017-03-31T12:58:43Z</time>
      </trkpt>
      <trkpt lat="45.22282" lon="6.01335">
        <ele>1663.4460449219</ele>
        <time>2017-03-31T12:58:47Z</time>
      </trkpt>
      <trkpt lat="45.22282" lon="6.01327">
        <ele>1662.4460449219</ele>
        <time>2017-03-31T12:58:50Z</time>
      </trkpt>
      <trkpt lat="45.22282" lon="6.01319">
        <ele>1661.4460449219</ele>
        <time>2017-03-31T12:58:54Z</time>
      </trkpt>
      <trkpt lat="45.2228" lon="6.01313">
        <ele>1659.4460449219</ele>
        <time>2017-03-31T12:59:02Z</time>
      </trkpt>
      <trkpt lat="45.22276" lon="6.01316">
        <ele>1651.4460449219</ele>
        <time>2017-03-31T12:59:08Z</time>
      </trkpt>
      <trkpt lat="45.22273" lon="6.01311">
        <ele>1654.4460449219</ele>
        <time>2017-03-31T12:59:10Z</time>
      </trkpt>
      <trkpt lat="45.22269" lon="6.01309">
        <ele>1656.4460449219</ele>
        <time>2017-03-31T12:59:16Z</time>
      </trkpt>
      <trkpt lat="45.22264" lon="6.01308">
        <ele>1657.4460449219</ele>
        <time>2017-03-31T12:59:22Z</time>
      </trkpt>
      <trkpt lat="45.2226" lon="6.01305">
        <ele>1657.4460449219</ele>
        <time>2017-03-31T12:59:30Z</time>
      </trkpt>
      <trkpt lat="45.22252" lon="6.01306">
        <ele>1654.4460449219</ele>
        <time>2017-03-31T13:00:26Z</time>
      </trkpt>
      <trkpt lat="45.22246" lon="6.01299">
        <ele>1653.4460449219</ele>
        <time>2017-03-31T13:00:28Z</time>
      </trkpt>
      <trkpt lat="45.22242" lon="6.01287">
        <ele>1650.4460449219</ele>
        <time>2017-03-31T13:00:31Z</time>
      </trkpt>
      <trkpt lat="45.2224" lon="6.0128">
        <ele>1649.4460449219</ele>
        <time>2017-03-31T13:00:33Z</time>
      </trkpt>
      <trkpt lat="45.22238" lon="6.01271">
        <ele>1647.4460449219</ele>
        <time>2017-03-31T13:00:35Z</time>
      </trkpt>
      <trkpt lat="45.22237" lon="6.01264">
        <ele>1644.4460449219</ele>
        <time>2017-03-31T13:00:37Z</time>
      </trkpt>
      <trkpt lat="45.22237" lon="6.01257">
        <ele>1641.4460449219</ele>
        <time>2017-03-31T13:00:40Z</time>
      </trkpt>
      <trkpt lat="45.2224" lon="6.01251">
        <ele>1640.4460449219</ele>
        <time>2017-03-31T13:00:42Z</time>
      </trkpt>
      <trkpt lat="45.22242" lon="6.01244">
        <ele>1636.4460449219</ele>
        <time>2017-03-31T13:00:44Z</time>
      </trkpt>
      <trkpt lat="45.22245" lon="6.01236">
        <ele>1635.4460449219</ele>
        <time>2017-03-31T13:00:46Z</time>
      </trkpt>
      <trkpt lat="45.22244" lon="6.01221">
        <ele>1632.4460449219</ele>
        <time>2017-03-31T13:00:50Z</time>
      </trkpt>
      <trkpt lat="45.22244" lon="6.01203">
        <ele>1630.4460449219</ele>
        <time>2017-03-31T13:00:53Z</time>
      </trkpt>
      <trkpt lat="45.22242" lon="6.01189">
        <ele>1629.4460449219</ele>
        <time>2017-03-31T13:00:55Z</time>
      </trkpt>
      <trkpt lat="45.22243" lon="6.01178">
        <ele>1629.4460449219</ele>
        <time>2017-03-31T13:00:56Z</time>
      </trkpt>
      <trkpt lat="45.22235" lon="6.01154">
        <ele>1624.4460449219</ele>
        <time>2017-03-31T13:00:59Z</time>
      </trkpt>
      <trkpt lat="45.22232" lon="6.01137">
        <ele>1622.4460449219</ele>
        <time>2017-03-31T13:01:01Z</time>
      </trkpt>
      <trkpt lat="45.22237" lon="6.01122">
        <ele>1620.4460449219</ele>
        <time>2017-03-31T13:01:03Z</time>
      </trkpt>
      <trkpt lat="45.22235" lon="6.01108">
        <ele>1617.4460449219</ele>
        <time>2017-03-31T13:01:05Z</time>
      </trkpt>
      <trkpt lat="45.22235" lon="6.011">
        <ele>1615.4460449219</ele>
        <time>2017-03-31T13:01:06Z</time>
      </trkpt>
      <trkpt lat="45.2223" lon="6.0108">
        <ele>1611.4460449219</ele>
        <time>2017-03-31T13:01:08Z</time>
      </trkpt>
      <trkpt lat="45.22231" lon="6.01057">
        <ele>1606.4460449219</ele>
        <time>2017-03-31T13:01:11Z</time>
      </trkpt>
      <trkpt lat="45.22231" lon="6.01049">
        <ele>1603.4460449219</ele>
        <time>2017-03-31T13:01:12Z</time>
      </trkpt>
      <trkpt lat="45.2223" lon="6.01032">
        <ele>1601.4460449219</ele>
        <time>2017-03-31T13:01:14Z</time>
      </trkpt>
      <trkpt lat="45.22234" lon="6.01016">
        <ele>1598.4460449219</ele>
        <time>2017-03-31T13:01:16Z</time>
      </trkpt>
      <trkpt lat="45.22232" lon="6.01">
        <ele>1596.4460449219</ele>
        <time>2017-03-31T13:01:18Z</time>
      </trkpt>
      <trkpt lat="45.22229" lon="6.00993">
        <ele>1596.4460449219</ele>
        <time>2017-03-31T13:01:20Z</time>
      </trkpt>
      <trkpt lat="45.2223" lon="6.00985">
        <ele>1594.4460449219</ele>
        <time>2017-03-31T13:01:24Z</time>
      </trkpt>
      <trkpt lat="45.22228" lon="6.00967">
        <ele>1593.4460449219</ele>
        <time>2017-03-31T13:01:27Z</time>
      </trkpt>
      <trkpt lat="45.22228" lon="6.00952">
        <ele>1591.4460449219</ele>
        <time>2017-03-31T13:01:29Z</time>
      </trkpt>
      <trkpt lat="45.22229" lon="6.00937">
        <ele>1589.4460449219</ele>
        <time>2017-03-31T13:01:31Z</time>
      </trkpt>
      <trkpt lat="45.22232" lon="6.00924">
        <ele>1590.4460449219</ele>
        <time>2017-03-31T13:01:34Z</time>
      </trkpt>
      <trkpt lat="45.22238" lon="6.00926">
        <ele>1589.4460449219</ele>
        <time>2017-03-31T13:01:36Z</time>
      </trkpt>
      <trkpt lat="45.22243" lon="6.00921">
        <ele>1585.4460449219</ele>
        <time>2017-03-31T13:01:37Z</time>
      </trkpt>
      <trkpt lat="45.22245" lon="6.00913">
        <ele>1579.4460449219</ele>
        <time>2017-03-31T13:01:42Z</time>
      </trkpt>
      <trkpt lat="45.22244" lon="6.00899">
        <ele>1576.4460449219</ele>
        <time>2017-03-31T13:01:44Z</time>
      </trkpt>
      <trkpt lat="45.22243" lon="6.00881">
        <ele>1572.4460449219</ele>
        <time>2017-03-31T13:01:47Z</time>
      </trkpt>
      <trkpt lat="45.22244" lon="6.00873">
        <ele>1568.4460449219</ele>
        <time>2017-03-31T13:01:49Z</time>
      </trkpt>
      <trkpt lat="45.22236" lon="6.00862">
        <ele>1565.4460449219</ele>
        <time>2017-03-31T13:01:52Z</time>
      </trkpt>
      <trkpt lat="45.22231" lon="6.00848">
        <ele>1560.4460449219</ele>
        <time>2017-03-31T13:01:55Z</time>
      </trkpt>
      <trkpt lat="45.22228" lon="6.00838">
        <ele>1559.4460449219</ele>
        <time>2017-03-31T13:01:57Z</time>
      </trkpt>
      <trkpt lat="45.22226" lon="6.00826">
        <ele>1555.4460449219</ele>
        <time>2017-03-31T13:01:59Z</time>
      </trkpt>
      <trkpt lat="45.22219" lon="6.00815">
        <ele>1553.4460449219</ele>
        <time>2017-03-31T13:02:03Z</time>
      </trkpt>
      <trkpt lat="45.22214" lon="6.00807">
        <ele>1551.4460449219</ele>
        <time>2017-03-31T13:02:05Z</time>
      </trkpt>
      <trkpt lat="45.22207" lon="6.00793">
        <ele>1551.4460449219</ele>
        <time>2017-03-31T13:02:07Z</time>
      </trkpt>
      <trkpt lat="45.22203" lon="6.00775">
        <ele>1548.4449462891</ele>
        <time>2017-03-31T13:02:10Z</time>
      </trkpt>
      <trkpt lat="45.22201" lon="6.00761">
        <ele>1546.4449462891</ele>
        <time>2017-03-31T13:02:12Z</time>
      </trkpt>
      <trkpt lat="45.222" lon="6.00746">
        <ele>1544.4449462891</ele>
        <time>2017-03-31T13:02:14Z</time>
      </trkpt>
      <trkpt lat="45.222" lon="6.00735">
        <ele>1544.4449462891</ele>
        <time>2017-03-31T13:02:16Z</time>
      </trkpt>
      <trkpt lat="45.22202" lon="6.00727">
        <ele>1543.4449462891</ele>
        <time>2017-03-31T13:02:18Z</time>
      </trkpt>
      <trkpt lat="45.22211" lon="6.00723">
        <ele>1542.4449462891</ele>
        <time>2017-03-31T13:02:20Z</time>
      </trkpt>
      <trkpt lat="45.22208" lon="6.00717">
        <ele>1539.4449462891</ele>
        <time>2017-03-31T13:02:22Z</time>
      </trkpt>
      <trkpt lat="45.22211" lon="6.00711">
        <ele>1536.4449462891</ele>
        <time>2017-03-31T13:02:24Z</time>
      </trkpt>
      <trkpt lat="45.22214" lon="6.00699">
        <ele>1532.4449462891</ele>
        <time>2017-03-31T13:02:26Z</time>
      </trkpt>
      <trkpt lat="45.22212" lon="6.00691">
        <ele>1526.4449462891</ele>
        <time>2017-03-31T13:02:29Z</time>
      </trkpt>
      <trkpt lat="45.2221" lon="6.00685">
        <ele>1524.4449462891</ele>
        <time>2017-03-31T13:02:32Z</time>
      </trkpt>
      <trkpt lat="45.22212" lon="6.00678">
        <ele>1525.4449462891</ele>
        <time>2017-03-31T13:02:51Z</time>
      </trkpt>
      <trkpt lat="45.22212" lon="6.00671">
        <ele>1521.4449462891</ele>
        <time>2017-03-31T13:02:54Z</time>
      </trkpt>
      <trkpt lat="45.22208" lon="6.00667">
        <ele>1520.4449462891</ele>
        <time>2017-03-31T13:02:58Z</time>
      </trkpt>
      <trkpt lat="45.22204" lon="6.00664">
        <ele>1518.4449462891</ele>
        <time>2017-03-31T13:03:03Z</time>
      </trkpt>
      <trkpt lat="45.22203" lon="6.00657">
        <ele>1515.4449462891</ele>
        <time>2017-03-31T13:03:07Z</time>
      </trkpt>
      <trkpt lat="45.22202" lon="6.00651">
        <ele>1516.4449462891</ele>
        <time>2017-03-31T13:03:14Z</time>
      </trkpt>
      <trkpt lat="45.22199" lon="6.00643">
        <ele>1517.4449462891</ele>
        <time>2017-03-31T13:03:18Z</time>
      </trkpt>
      <trkpt lat="45.22195" lon="6.00641">
        <ele>1511.4449462891</ele>
        <time>2017-03-31T13:03:27Z</time>
      </trkpt>
      <trkpt lat="45.22193" lon="6.00634">
        <ele>1508.4449462891</ele>
        <time>2017-03-31T13:03:29Z</time>
      </trkpt>
      <trkpt lat="45.22194" lon="6.00627">
        <ele>1507.4449462891</ele>
        <time>2017-03-31T13:03:33Z</time>
      </trkpt>
      <trkpt lat="45.22194" lon="6.00621">
        <ele>1507.4449462891</ele>
        <time>2017-03-31T13:03:40Z</time>
      </trkpt>
      <trkpt lat="45.22194" lon="6.00614">
        <ele>1508.4449462891</ele>
        <time>2017-03-31T13:03:54Z</time>
      </trkpt>
      <trkpt lat="45.22193" lon="6.00608">
        <ele>1505.4449462891</ele>
        <time>2017-03-31T13:03:56Z</time>
      </trkpt>
      <trkpt lat="45.22193" lon="6.00601">
        <ele>1504.4449462891</ele>
        <time>2017-03-31T13:03:58Z</time>
      </trkpt>
      <trkpt lat="45.22195" lon="6.00592">
        <ele>1505.4449462891</ele>
        <time>2017-03-31T13:04:00Z</time>
      </trkpt>
      <trkpt lat="45.22197" lon="6.00582">
        <ele>1505.4449462891</ele>
        <time>2017-03-31T13:04:02Z</time>
      </trkpt>
      <trkpt lat="45.22199" lon="6.00572">
        <ele>1504.4449462891</ele>
        <time>2017-03-31T13:04:04Z</time>
      </trkpt>
      <trkpt lat="45.22198" lon="6.0056">
        <ele>1502.4449462891</ele>
        <time>2017-03-31T13:04:06Z</time>
      </trkpt>
      <trkpt lat="45.22199" lon="6.00545">
        <ele>1500.4449462891</ele>
        <time>2017-03-31T13:04:08Z</time>
      </trkpt>
      <trkpt lat="45.22199" lon="6.00533">
        <ele>1497.4449462891</ele>
        <time>2017-03-31T13:04:10Z</time>
      </trkpt>
      <trkpt lat="45.22199" lon="6.00517">
        <ele>1496.4449462891</ele>
        <time>2017-03-31T13:04:12Z</time>
      </trkpt>
      <trkpt lat="45.22196" lon="6.00497">
        <ele>1496.4449462891</ele>
        <time>2017-03-31T13:04:15Z</time>
      </trkpt>
      <trkpt lat="45.22203" lon="6.005">
        <ele>1492.4449462891</ele>
        <time>2017-03-31T13:04:18Z</time>
      </trkpt>
      <trkpt lat="45.22208" lon="6.00505">
        <ele>1489.4449462891</ele>
        <time>2017-03-31T13:04:20Z</time>
      </trkpt>
      <trkpt lat="45.22212" lon="6.00512">
        <ele>1487.4449462891</ele>
        <time>2017-03-31T13:04:22Z</time>
      </trkpt>
      <trkpt lat="45.2222" lon="6.00505">
        <ele>1487.4449462891</ele>
        <time>2017-03-31T13:04:24Z</time>
      </trkpt>
      <trkpt lat="45.22228" lon="6.00502">
        <ele>1487.4449462891</ele>
        <time>2017-03-31T13:04:26Z</time>
      </trkpt>
      <trkpt lat="45.22229" lon="6.0049">
        <ele>1485.4449462891</ele>
        <time>2017-03-31T13:04:29Z</time>
      </trkpt>
      <trkpt lat="45.22232" lon="6.00478">
        <ele>1483.4449462891</ele>
        <time>2017-03-31T13:04:32Z</time>
      </trkpt>
      <trkpt lat="45.22232" lon="6.00471">
        <ele>1481.4449462891</ele>
        <time>2017-03-31T13:04:34Z</time>
      </trkpt>
      <trkpt lat="45.22236" lon="6.00464">
        <ele>1478.4449462891</ele>
        <time>2017-03-31T13:04:36Z</time>
      </trkpt>
      <trkpt lat="45.22238" lon="6.00452">
        <ele>1476.4449462891</ele>
        <time>2017-03-31T13:04:38Z</time>
      </trkpt>
      <trkpt lat="45.22237" lon="6.00442">
        <ele>1472.4449462891</ele>
        <time>2017-03-31T13:04:40Z</time>
      </trkpt>
      <trkpt lat="45.22242" lon="6.00437">
        <ele>1470.4449462891</ele>
        <time>2017-03-31T13:04:42Z</time>
      </trkpt>
      <trkpt lat="45.22247" lon="6.00434">
        <ele>1467.4449462891</ele>
        <time>2017-03-31T13:04:45Z</time>
      </trkpt>
      <trkpt lat="45.22253" lon="6.00424">
        <ele>1465.4449462891</ele>
        <time>2017-03-31T13:04:49Z</time>
      </trkpt>
      <trkpt lat="45.22252" lon="6.00414">
        <ele>1462.4449462891</ele>
        <time>2017-03-31T13:04:51Z</time>
      </trkpt>
      <trkpt lat="45.22253" lon="6.00406">
        <ele>1460.4449462891</ele>
        <time>2017-03-31T13:04:54Z</time>
      </trkpt>
      <trkpt lat="45.22259" lon="6.00403">
        <ele>1456.4449462891</ele>
        <time>2017-03-31T13:04:59Z</time>
      </trkpt>
      <trkpt lat="45.22266" lon="6.00403">
        <ele>1452.4449462891</ele>
        <time>2017-03-31T13:05:01Z</time>
      </trkpt>
      <trkpt lat="45.22267" lon="6.00394">
        <ele>1447.4449462891</ele>
        <time>2017-03-31T13:05:03Z</time>
      </trkpt>
      <trkpt lat="45.22272" lon="6.0039">
        <ele>1443.4449462891</ele>
        <time>2017-03-31T13:05:06Z</time>
      </trkpt>
      <trkpt lat="45.22276" lon="6.00388">
        <ele>1440.4449462891</ele>
        <time>2017-03-31T13:05:07Z</time>
      </trkpt>
      <trkpt lat="45.22281" lon="6.00391">
        <ele>1440.4449462891</ele>
        <time>2017-03-31T13:05:09Z</time>
      </trkpt>
      <trkpt lat="45.22285" lon="6.00393">
        <ele>1443.4449462891</ele>
        <time>2017-03-31T13:05:14Z</time>
      </trkpt>
      <trkpt lat="45.2229" lon="6.00392">
        <ele>1447.4449462891</ele>
        <time>2017-03-31T13:06:09Z</time>
      </trkpt>
      <trkpt lat="45.22293" lon="6.00388">
        <ele>1447.4449462891</ele>
        <time>2017-03-31T13:06:15Z</time>
      </trkpt>
      <trkpt lat="45.22291" lon="6.00383">
        <ele>1441.4449462891</ele>
        <time>2017-03-31T13:06:22Z</time>
      </trkpt>
      <trkpt lat="45.22293" lon="6.00376">
        <ele>1439.4449462891</ele>
        <time>2017-03-31T13:06:30Z</time>
      </trkpt>
      <trkpt lat="45.22297" lon="6.00371">
        <ele>1445.4449462891</ele>
        <time>2017-03-31T13:06:38Z</time>
      </trkpt>
      <trkpt lat="45.22292" lon="6.00373">
        <ele>1446.4449462891</ele>
        <time>2017-03-31T13:06:52Z</time>
      </trkpt>
      <trkpt lat="45.22294" lon="6.00366">
        <ele>1445.4449462891</ele>
        <time>2017-03-31T13:07:58Z</time>
      </trkpt>
      <trkpt lat="45.22298" lon="6.0036">
        <ele>1443.4449462891</ele>
        <time>2017-03-31T13:08:03Z</time>
      </trkpt>
      <trkpt lat="45.223" lon="6.00354">
        <ele>1437.4449462891</ele>
        <time>2017-03-31T13:08:07Z</time>
      </trkpt>
      <trkpt lat="45.22306" lon="6.00354">
        <ele>1436.4449462891</ele>
        <time>2017-03-31T13:08:12Z</time>
      </trkpt>
      <trkpt lat="45.2231" lon="6.00351">
        <ele>1434.4449462891</ele>
        <time>2017-03-31T13:08:15Z</time>
      </trkpt>
      <trkpt lat="45.22311" lon="6.00342">
        <ele>1433.4449462891</ele>
        <time>2017-03-31T13:08:19Z</time>
      </trkpt>
      <trkpt lat="45.22312" lon="6.00335">
        <ele>1436.4449462891</ele>
        <time>2017-03-31T13:08:21Z</time>
      </trkpt>
      <trkpt lat="45.22313" lon="6.00327">
        <ele>1435.4449462891</ele>
        <time>2017-03-31T13:08:26Z</time>
      </trkpt>
      <trkpt lat="45.22315" lon="6.00321">
        <ele>1430.4449462891</ele>
        <time>2017-03-31T13:08:33Z</time>
      </trkpt>
      <trkpt lat="45.22313" lon="6.00313">
        <ele>1430.4449462891</ele>
        <time>2017-03-31T13:08:39Z</time>
      </trkpt>
      <trkpt lat="45.22314" lon="6.00306">
        <ele>1429.4449462891</ele>
        <time>2017-03-31T13:08:45Z</time>
      </trkpt>
      <trkpt lat="45.22313" lon="6.00299">
        <ele>1427.4449462891</ele>
        <time>2017-03-31T13:08:49Z</time>
      </trkpt>
      <trkpt lat="45.22314" lon="6.00293">
        <ele>1429.4449462891</ele>
        <time>2017-03-31T13:08:53Z</time>
      </trkpt>
      <trkpt lat="45.22312" lon="6.00287">
        <ele>1428.4449462891</ele>
        <time>2017-03-31T13:08:57Z</time>
      </trkpt>
      <trkpt lat="45.22312" lon="6.0028">
        <ele>1423.4449462891</ele>
        <time>2017-03-31T13:09:05Z</time>
      </trkpt>
      <trkpt lat="45.22311" lon="6.00273">
        <ele>1423.4449462891</ele>
        <time>2017-03-31T13:09:12Z</time>
      </trkpt>
      <trkpt lat="45.2231" lon="6.00266">
        <ele>1422.4449462891</ele>
        <time>2017-03-31T13:09:22Z</time>
      </trkpt>
      <trkpt lat="45.22306" lon="6.00262">
        <ele>1415.4449462891</ele>
        <time>2017-03-31T13:09:27Z</time>
      </trkpt>
      <trkpt lat="45.22304" lon="6.00255">
        <ele>1414.4449462891</ele>
        <time>2017-03-31T13:09:31Z</time>
      </trkpt>
      <trkpt lat="45.22302" lon="6.00249">
        <ele>1414.4449462891</ele>
        <time>2017-03-31T13:09:40Z</time>
      </trkpt>
      <trkpt lat="45.22303" lon="6.00242">
        <ele>1415.4449462891</ele>
        <time>2017-03-31T13:09:44Z</time>
      </trkpt>
      <trkpt lat="45.22304" lon="6.00236">
        <ele>1413.4449462891</ele>
        <time>2017-03-31T13:09:50Z</time>
      </trkpt>
      <trkpt lat="45.22305" lon="6.0023">
        <ele>1412.4449462891</ele>
        <time>2017-03-31T13:09:56Z</time>
      </trkpt>
      <trkpt lat="45.22304" lon="6.00223">
        <ele>1409.4449462891</ele>
        <time>2017-03-31T13:10:00Z</time>
      </trkpt>
      <trkpt lat="45.22306" lon="6.00216">
        <ele>1407.4449462891</ele>
        <time>2017-03-31T13:10:03Z</time>
      </trkpt>
      <trkpt lat="45.22311" lon="6.00216">
        <ele>1400.4449462891</ele>
        <time>2017-03-31T13:10:13Z</time>
      </trkpt>
      <trkpt lat="45.22316" lon="6.00215">
        <ele>1398.4449462891</ele>
        <time>2017-03-31T13:10:17Z</time>
      </trkpt>
      <trkpt lat="45.2232" lon="6.00218">
        <ele>1395.4449462891</ele>
        <time>2017-03-31T13:10:21Z</time>
      </trkpt>
      <trkpt lat="45.22325" lon="6.00216">
        <ele>1395.4449462891</ele>
        <time>2017-03-31T13:10:24Z</time>
      </trkpt>
      <trkpt lat="45.22328" lon="6.0021">
        <ele>1396.4449462891</ele>
        <time>2017-03-31T13:10:27Z</time>
      </trkpt>
      <trkpt lat="45.22329" lon="6.00201">
        <ele>1398.4449462891</ele>
        <time>2017-03-31T13:10:32Z</time>
      </trkpt>
      <trkpt lat="45.22331" lon="6.00194">
        <ele>1397.4449462891</ele>
        <time>2017-03-31T13:10:36Z</time>
      </trkpt>
      <trkpt lat="45.22336" lon="6.00189">
        <ele>1397.4449462891</ele>
        <time>2017-03-31T13:10:45Z</time>
      </trkpt>
      <trkpt lat="45.22341" lon="6.00186">
        <ele>1396.4449462891</ele>
        <time>2017-03-31T13:10:49Z</time>
      </trkpt>
      <trkpt lat="45.22344" lon="6.0018">
        <ele>1397.4449462891</ele>
        <time>2017-03-31T13:10:54Z</time>
      </trkpt>
      <trkpt lat="45.22349" lon="6.00174">
        <ele>1399.4449462891</ele>
        <time>2017-03-31T13:11:02Z</time>
      </trkpt>
      <trkpt lat="45.22352" lon="6.00169">
        <ele>1401.4449462891</ele>
        <time>2017-03-31T13:11:07Z</time>
      </trkpt>
      <trkpt lat="45.22356" lon="6.00164">
        <ele>1398.4449462891</ele>
        <time>2017-03-31T13:11:12Z</time>
      </trkpt>
      <trkpt lat="45.22357" lon="6.00157">
        <ele>1400.4449462891</ele>
        <time>2017-03-31T13:11:16Z</time>
      </trkpt>
      <trkpt lat="45.2236" lon="6.0015">
        <ele>1401.4449462891</ele>
        <time>2017-03-31T13:11:19Z</time>
      </trkpt>
      <trkpt lat="45.22358" lon="6.00143">
        <ele>1403.4449462891</ele>
        <time>2017-03-31T13:11:23Z</time>
      </trkpt>
      <trkpt lat="45.22358" lon="6.00135">
        <ele>1403.4449462891</ele>
        <time>2017-03-31T13:11:27Z</time>
      </trkpt>
      <trkpt lat="45.22362" lon="6.00132">
        <ele>1398.4449462891</ele>
        <time>2017-03-31T13:11:31Z</time>
      </trkpt>
      <trkpt lat="45.22366" lon="6.0013">
        <ele>1399.4449462891</ele>
        <time>2017-03-31T13:11:34Z</time>
      </trkpt>
      <trkpt lat="45.2237" lon="6.00126">
        <ele>1399.4449462891</ele>
        <time>2017-03-31T13:11:40Z</time>
      </trkpt>
      <trkpt lat="45.22374" lon="6.00121">
        <ele>1396.4449462891</ele>
        <time>2017-03-31T13:11:47Z</time>
      </trkpt>
      <trkpt lat="45.22378" lon="6.00117">
        <ele>1397.4449462891</ele>
        <time>2017-03-31T13:11:52Z</time>
      </trkpt>
      <trkpt lat="45.22383" lon="6.00115">
        <ele>1397.4449462891</ele>
        <time>2017-03-31T13:11:56Z</time>
      </trkpt>
      <trkpt lat="45.22387" lon="6.0011">
        <ele>1397.4449462891</ele>
        <time>2017-03-31T13:12:01Z</time>
      </trkpt>
      <trkpt lat="45.22392" lon="6.00112">
        <ele>1392.4449462891</ele>
        <time>2017-03-31T13:12:05Z</time>
      </trkpt>
      <trkpt lat="45.22397" lon="6.00106">
        <ele>1391.4449462891</ele>
        <time>2017-03-31T13:12:11Z</time>
      </trkpt>
      <trkpt lat="45.224" lon="6.00102">
        <ele>1392.4449462891</ele>
        <time>2017-03-31T13:12:18Z</time>
      </trkpt>
      <trkpt lat="45.22404" lon="6.00098">
        <ele>1390.4449462891</ele>
        <time>2017-03-31T13:12:22Z</time>
      </trkpt>
      <trkpt lat="45.2241" lon="6.00094">
        <ele>1382.4449462891</ele>
        <time>2017-03-31T13:12:28Z</time>
      </trkpt>
      <trkpt lat="45.22413" lon="6.00087">
        <ele>1380.4449462891</ele>
        <time>2017-03-31T13:12:32Z</time>
      </trkpt>
      <trkpt lat="45.22416" lon="6.00082">
        <ele>1381.4449462891</ele>
        <time>2017-03-31T13:12:34Z</time>
      </trkpt>
      <trkpt lat="45.22421" lon="6.00079">
        <ele>1382.4449462891</ele>
        <time>2017-03-31T13:12:39Z</time>
      </trkpt>
      <trkpt lat="45.22422" lon="6.00073">
        <ele>1381.4449462891</ele>
        <time>2017-03-31T13:12:44Z</time>
      </trkpt>
      <trkpt lat="45.22425" lon="6.00067">
        <ele>1381.4449462891</ele>
        <time>2017-03-31T13:12:51Z</time>
      </trkpt>
      <trkpt lat="45.22426" lon="6.0006">
        <ele>1379.4449462891</ele>
        <time>2017-03-31T13:12:57Z</time>
      </trkpt>
      <trkpt lat="45.22426" lon="6.00051">
        <ele>1380.4449462891</ele>
        <time>2017-03-31T13:13:05Z</time>
      </trkpt>
      <trkpt lat="45.22428" lon="6.00045">
        <ele>1378.4449462891</ele>
        <time>2017-03-31T13:13:10Z</time>
      </trkpt>
      <trkpt lat="45.22429" lon="6.00038">
        <ele>1378.4449462891</ele>
        <time>2017-03-31T13:13:14Z</time>
      </trkpt>
      <trkpt lat="45.22432" lon="6.00031">
        <ele>1373.4449462891</ele>
        <time>2017-03-31T13:13:22Z</time>
      </trkpt>
      <trkpt lat="45.22434" lon="6.00025">
        <ele>1370.4449462891</ele>
        <time>2017-03-31T13:13:30Z</time>
      </trkpt>
      <trkpt lat="45.22434" lon="6.00019">
        <ele>1367.4449462891</ele>
        <time>2017-03-31T13:13:37Z</time>
      </trkpt>
      <trkpt lat="45.22436" lon="6.00012">
        <ele>1365.4449462891</ele>
        <time>2017-03-31T13:13:43Z</time>
      </trkpt>
      <trkpt lat="45.22437" lon="6.00005">
        <ele>1364.4449462891</ele>
        <time>2017-03-31T13:13:51Z</time>
      </trkpt>
      <trkpt lat="45.22438" lon="5.99997">
        <ele>1365.4449462891</ele>
        <time>2017-03-31T13:14:02Z</time>
      </trkpt>
      <trkpt lat="45.22438" lon="5.9999">
        <ele>1367.4449462891</ele>
        <time>2017-03-31T13:14:09Z</time>
      </trkpt>
      <trkpt lat="45.2244" lon="5.99984">
        <ele>1369.4449462891</ele>
        <time>2017-03-31T13:14:24Z</time>
      </trkpt>
      <trkpt lat="45.22444" lon="5.9998">
        <ele>1366.4449462891</ele>
        <time>2017-03-31T13:14:26Z</time>
      </trkpt>
      <trkpt lat="45.22446" lon="5.99972">
        <ele>1359.4449462891</ele>
        <time>2017-03-31T13:14:35Z</time>
      </trkpt>
      <trkpt lat="45.22449" lon="5.99966">
        <ele>1361.4449462891</ele>
        <time>2017-03-31T13:14:39Z</time>
      </trkpt>
      <trkpt lat="45.22449" lon="5.99959">
        <ele>1361.4449462891</ele>
        <time>2017-03-31T13:14:42Z</time>
      </trkpt>
      <trkpt lat="45.22448" lon="5.99952">
        <ele>1360.4449462891</ele>
        <time>2017-03-31T13:14:56Z</time>
      </trkpt>
      <trkpt lat="45.2245" lon="5.99946">
        <ele>1359.4449462891</ele>
        <time>2017-03-31T13:15:00Z</time>
      </trkpt>
      <trkpt lat="45.22452" lon="5.99938">
        <ele>1354.4449462891</ele>
        <time>2017-03-31T13:15:06Z</time>
      </trkpt>
      <trkpt lat="45.22451" lon="5.9993">
        <ele>1355.4449462891</ele>
        <time>2017-03-31T13:15:11Z</time>
      </trkpt>
      <trkpt lat="45.22451" lon="5.99922">
        <ele>1352.4449462891</ele>
        <time>2017-03-31T13:15:16Z</time>
      </trkpt>
      <trkpt lat="45.22449" lon="5.99915">
        <ele>1346.4449462891</ele>
        <time>2017-03-31T13:15:23Z</time>
      </trkpt>
      <trkpt lat="45.2245" lon="5.99908">
        <ele>1346.4449462891</ele>
        <time>2017-03-31T13:15:27Z</time>
      </trkpt>
      <trkpt lat="45.22452" lon="5.99901">
        <ele>1347.4449462891</ele>
        <time>2017-03-31T13:15:33Z</time>
      </trkpt>
      <trkpt lat="45.2245" lon="5.99895">
        <ele>1346.4449462891</ele>
        <time>2017-03-31T13:15:37Z</time>
      </trkpt>
      <trkpt lat="45.22447" lon="5.99889">
        <ele>1345.4449462891</ele>
        <time>2017-03-31T13:15:39Z</time>
      </trkpt>
      <trkpt lat="45.22446" lon="5.99882">
        <ele>1346.4449462891</ele>
        <time>2017-03-31T13:15:42Z</time>
      </trkpt>
      <trkpt lat="45.22443" lon="5.99876">
        <ele>1345.4449462891</ele>
        <time>2017-03-31T13:15:47Z</time>
      </trkpt>
      <trkpt lat="45.22444" lon="5.99867">
        <ele>1344.4449462891</ele>
        <time>2017-03-31T13:15:50Z</time>
      </trkpt>
      <trkpt lat="45.22443" lon="5.9986">
        <ele>1342.4449462891</ele>
        <time>2017-03-31T13:15:54Z</time>
      </trkpt>
      <trkpt lat="45.22443" lon="5.99852">
        <ele>1342.4449462891</ele>
        <time>2017-03-31T13:15:57Z</time>
      </trkpt>
      <trkpt lat="45.22447" lon="5.99846">
        <ele>1342.4449462891</ele>
        <time>2017-03-31T13:16:00Z</time>
      </trkpt>
      <trkpt lat="45.22451" lon="5.99841">
        <ele>1341.4449462891</ele>
        <time>2017-03-31T13:16:04Z</time>
      </trkpt>
      <trkpt lat="45.22457" lon="5.99841">
        <ele>1342.4449462891</ele>
        <time>2017-03-31T13:16:10Z</time>
      </trkpt>
      <trkpt lat="45.22461" lon="5.99838">
        <ele>1342.4449462891</ele>
        <time>2017-03-31T13:16:13Z</time>
      </trkpt>
      <trkpt lat="45.22464" lon="5.99832">
        <ele>1342.4449462891</ele>
        <time>2017-03-31T13:16:15Z</time>
      </trkpt>
      <trkpt lat="45.22469" lon="5.99833">
        <ele>1342.4449462891</ele>
        <time>2017-03-31T13:16:25Z</time>
      </trkpt>
      <trkpt lat="45.22474" lon="5.9983">
        <ele>1341.4449462891</ele>
        <time>2017-03-31T13:16:31Z</time>
      </trkpt>
      <trkpt lat="45.22478" lon="5.99826">
        <ele>1338.4449462891</ele>
        <time>2017-03-31T13:16:35Z</time>
      </trkpt>
    </trkseg>
  </trk>
</gpx>